# Wetter Temperatur Luftdruck Luftfeuchtigkeit Sichtweite Windgeschwindigkeit Windrichtung Zeit
1 Clouds 19 1014 45 10000 2.1 320 21:18 02.04.2020
2 Clouds 20 1014 42 10000 1.5 320 20:44 02.04.2020
3 Clouds 20 1014 42 10000 1.5 320 20:44 02.04.2020
4 Clouds 20 1014 42 10000 1.5 320 20:24 02.04.2020
5 Clouds 20 1013 42 10000 2.6 320 19:56 02.04.2020
6 Clouds 20 1013 42 10000 2.6 320 19:37 02.04.2020
7 Clouds 20 1013 42 10000 2.6 320 19:19 02.04.2020
8 Clouds 22 1013 37 10000 3.1 340 18:42 02.04.2020
9 Clouds 22 1013 37 10000 3.1 340 18:21 02.04.2020
10 Clouds 23 1012 31 10000 5.1 330 17:59 02.04.2020
11 Clouds 23 1012 31 10000 5.1 330 17:59 02.04.2020
12 Clouds 23 1012 31 10000 5.1 330 17:40 02.04.2020
13 Clouds 23 1012 31 10000 5.1 330 17:22 02.04.2020
14 Clouds 25 1012 29 10000 4.6 290 16:57 02.04.2020
15 Clouds 25 1012 29 10000 4.6 290 16:39 02.04.2020
16 Clouds 25 1012 29 10000 4.6 290 16:21 02.04.2020
17 Clouds 25 1012 31 10000 4.6 280 15:56 02.04.2020
18 Clouds 25 1012 31 10000 4.6 280 15:38 02.04.2020
19 Clouds 25 1012 31 10000 4.6 280 15:38 02.04.2020
20 Clouds 25 1012 31 10000 4.6 280 15:18 02.04.2020
21 Clouds 25 1012 31 10000 4.6 280 15:18 02.04.2020
22 Clouds 25 1012 31 10000 3.6 280 14:55 02.04.2020
23 Clouds 25 1012 31 10000 3.6 280 14:37 02.04.2020
24 Clouds 25 1012 31 10000 3.6 280 14:18 02.04.2020
25 Clouds 25 1012 33 10000 4.6 310 13:40 02.04.2020
26 Clouds 25 1012 33 10000 4.6 310 13:21 02.04.2020
27 Clouds 24 1013 41 10000 4.1 0 12:59 02.04.2020
28 Clouds 24 1013 41 10000 4.1 0 12:41 02.04.2020
29 Clear 24 1013 41 10000 4.1 0 12:19 02.04.2020
30 Clear 24 1013 41 10000 4.1 0 12:19 02.04.2020
31 Clear 23 1014 43 10000 4.1 290 11:57 02.04.2020
32 Clear 23 1014 43 10000 4.1 290 11:38 02.04.2020
33 Clear 23 1014 43 10000 4.1 290 11:19 02.04.2020
34 Clear 23 1014 43 10000 4.1 290 11:19 02.04.2020
35 Clear 22 1014 43 10000 4.1 310 10:55 02.04.2020
36 Clear 22 1014 43 10000 4.1 310 10:37 02.04.2020
37 Clear 22 1014 43 10000 4.1 310 10:19 02.04.2020
38 Clear 21 1014 46 10000 5.7 310 09:58 02.04.2020
39 Clear 21 1014 46 10000 5.7 310 09:39 02.04.2020
40 Clear 21 1014 46 10000 5.7 310 09:19 02.04.2020
41 Clear 19 1013 55 10000 5.7 320 08:47 02.04.2020
42 Clear 19 1013 55 10000 5.7 320 08:27 02.04.2020
43 Clear 18 1013 59 10000 5.7 310 07:45 02.04.2020
44 Clear 18 1013 59 10000 5.7 310 07:21 02.04.2020
45 Clear 21 1013 42 0 5.21 332 06:59 02.04.2020
46 Clear 16 1012 63 10000 4.6 290 06:22 02.04.2020
47 Clear 16 1012 63 10000 4.6 290 05:45 02.04.2020
48 Clear 16 1011 63 10000 3.6 300 04:46 02.04.2020
49 Clear 18 1010 59 10000 2.1 270 01:54 02.04.2020
50 Clear 18 1010 59 10000 2.5 293 00:51 02.04.2020
51 Clear 18 1010 59 10000 2.5 293 00:31 02.04.2020
52 Clear 18 1010 59 10000 0.5 90 23:59 01.04.2020
53 Clear 18 1010 59 10000 0.5 90 23:37 01.04.2020
54 Clear 18 1010 59 10000 0.5 90 23:18 01.04.2020
55 Clear 19 1010 59 10000 2.1 70 22:41 01.04.2020
56 Clear 19 1010 59 10000 2.1 70 22:22 01.04.2020
57 Clear 21 1010 52 10000 3.6 170 21:58 01.04.2020
58 Clear 21 1010 52 10000 3.6 170 21:58 01.04.2020
59 Clear 21 1010 52 10000 3.6 170 21:39 01.04.2020
60 Clear 21 1010 52 10000 3.6 170 21:19 01.04.2020
61 Clear 22 1009 49 10000 5.1 120 20:55 01.04.2020
62 Clear 22 1009 49 10000 5.1 120 20:37 01.04.2020
63 Clear 22 1009 49 10000 5.1 120 20:18 01.04.2020
64 Clear 24 1008 44 10000 6.2 100 19:55 01.04.2020
65 Clear 24 1008 44 10000 6.2 100 19:37 01.04.2020
66 Clear 24 1008 44 10000 6.2 100 19:19 01.04.2020
67 Clear 25 1007 44 10000 4.6 110 18:41 01.04.2020
68 Clear 25 1007 44 10000 4.6 110 18:21 01.04.2020
69 Clouds 29 1006 21 10000 4.6 240 17:56 01.04.2020
70 Clouds 29 1006 21 10000 4.6 240 17:37 01.04.2020
71 Clouds 29 1006 21 10000 4.6 240 17:18 01.04.2020
72 Clouds 30 1006 23 10000 2.1 220 16:56 01.04.2020
73 Clouds 30 1006 23 10000 2.1 220 16:38 01.04.2020
74 Clouds 30 1006 23 10000 2.1 220 16:20 01.04.2020
75 Clear 31 1005 20 10000 7.7 260 15:42 01.04.2020
76 Clear 31 1005 20 10000 7.7 260 15:22 01.04.2020
77 Dust 31 1005 22 4100 8.2 140 14:59 01.04.2020
78 Dust 31 1005 22 4100 8.2 140 14:40 01.04.2020
79 Dust 31 1005 22 4100 8.2 140 14:21 01.04.2020
80 Dust 30 1005 23 3600 9.3 150 13:59 01.04.2020
81 Dust 30 1005 23 3600 9.3 150 13:39 01.04.2020
82 Dust 30 1005 23 3600 9.3 150 13:20 01.04.2020
83 Dust 29 1006 26 2200 11.3 160 12:57 01.04.2020
84 Dust 29 1006 26 2200 11.3 160 12:37 01.04.2020
85 Dust 29 1006 26 2200 11.8 160 12:19 01.04.2020
86 Dust 28 1006 30 5000 13.9 150 11:56 01.04.2020
87 Dust 28 1006 30 5000 13.9 150 11:37 01.04.2020
88 Dust 28 1006 30 5000 13.9 150 11:37 01.04.2020
89 Dust 28 1006 30 5000 13.9 150 11:37 01.04.2020
90 Dust 28 1006 30 5000 13.9 150 11:18 01.04.2020
91 Clouds 27 1007 32 10000 12.9 130 10:39 01.04.2020
92 Clouds 27 1007 32 10000 12.9 130 10:21 01.04.2020
93 Clouds 24 1007 36 10000 13.4 140 09:58 01.04.2020
94 Clouds 24 1007 36 10000 13.4 140 09:40 01.04.2020
95 Rain 24 1007 36 10000 13.4 140 09:19 01.04.2020
96 Clouds 23 1008 38 10000 12.9 120 08:44 01.04.2020
97 Clouds 23 1008 38 10000 12.9 120 08:19 01.04.2020
98 Clouds 21 1008 43 10000 10.3 110 07:58 01.04.2020
99 Clouds 21 1008 43 10000 10.3 110 07:40 01.04.2020
100 Clouds 21 1008 43 10000 10.3 110 07:19 01.04.2020
101 Clouds 20 1009 45 10000 9.8 120 06:41 01.04.2020
102 Clouds 20 1009 45 10000 9.8 120 06:20 01.04.2020
103 Clouds 19 1009 48 10000 9.8 120 05:24 01.04.2020
104 Clouds 20 1011 49 10000 6.2 110 03:39 01.04.2020
105 Clouds 20 1012 49 10000 6.7 110 02:59 01.04.2020
106 Clouds 20 1012 49 10000 6.7 110 02:31 01.04.2020
107 Clouds 21 1012 49 10000 6.7 110 01:49 01.04.2020
108 Clouds 21 1012 49 10000 6.7 110 01:24 01.04.2020
109 Clouds 21 1012 46 10000 7.7 110 00:47 01.04.2020
110 Clouds 21 1012 46 10000 7.7 110 00:22 01.04.2020
111 Clouds 22 1013 43 10000 5.7 110 23:55 31.03.2020
112 Clouds 22 1013 43 10000 5.7 110 23:37 31.03.2020
113 Clouds 22 1013 43 10000 5.7 110 23:19 31.03.2020
114 Clouds 23 1013 38 10000 5.7 100 22:40 31.03.2020
115 Clouds 23 1013 38 10000 5.7 100 22:21 31.03.2020
116 Clouds 23 1013 38 10000 3.1 50 21:58 31.03.2020
117 Clouds 23 1013 38 10000 3.1 50 21:39 31.03.2020
118 Clouds 23 1013 38 10000 3.1 50 21:21 31.03.2020
119 Clouds 23 1015 38 10000 2.6 20 20:57 31.03.2020
120 Clouds 23 1015 38 10000 2.6 20 20:37 31.03.2020
121 Clouds 23 1015 38 10000 2.6 20 20:19 31.03.2020
122 Clouds 23 1014 38 10000 1.5 80 19:55 31.03.2020
123 Clouds 23 1014 38 10000 1.5 80 19:37 31.03.2020
124 Clouds 23 1014 38 10000 1.5 80 19:18 31.03.2020
125 Clouds 24 1014 36 10000 2.1 110 18:43 31.03.2020
126 Clouds 24 1014 36 10000 2.1 110 18:20 31.03.2020
127 Clouds 25 1014 31 10000 1.5 130 17:57 31.03.2020
128 Clouds 25 1014 31 10000 1.5 130 17:39 31.03.2020
129 Clouds 25 1014 31 10000 1.5 130 17:21 31.03.2020
130 Clouds 26 1014 27 10000 1 0 16:56 31.03.2020
131 Clouds 26 1014 27 10000 1 0 16:36 31.03.2020
132 Clouds 26 1014 26 10000 2.1 140 16:18 31.03.2020
133 Clouds 26 1014 27 10000 2.1 230 15:54 31.03.2020
134 Clouds 26 1014 27 10000 2.1 230 15:36 31.03.2020
135 Clouds 26 1014 27 10000 2.1 230 15:18 31.03.2020
136 Clouds 26 1014 29 10000 1.5 0 14:41 31.03.2020
137 Clouds 26 1014 29 10000 1.5 0 14:22 31.03.2020
138 Clouds 26 1014 27 10000 1.5 0 13:58 31.03.2020
139 Clouds 26 1014 27 10000 1.5 0 13:39 31.03.2020
140 Clouds 26 1015 29 10000 2.1 0 13:19 31.03.2020
141 Clouds 26 1016 26 10000 2.6 160 12:44 31.03.2020
142 Clouds 26 1016 26 10000 2.6 160 12:20 31.03.2020
143 Clouds 25 1016 29 10000 2.6 150 11:56 31.03.2020
144 Clouds 25 1016 29 10000 2.6 150 11:37 31.03.2020
145 Clouds 25 1016 29 10000 2.6 150 11:18 31.03.2020
146 Clouds 25 1016 31 10000 1.5 0 10:55 31.03.2020
147 Clouds 25 1016 31 10000 1.5 0 10:55 31.03.2020
148 Clouds 25 1016 31 10000 1.5 0 10:37 31.03.2020
149 Clouds 25 1016 31 10000 1.5 0 10:37 31.03.2020
150 Clouds 25 1016 31 10000 1.5 0 10:18 31.03.2020
151 Clouds 23 1016 38 10000 1 0 09:43 31.03.2020
152 Clouds 23 1016 38 10000 1 0 09:24 31.03.2020
153 Clouds 20 1016 45 10000 1 0 08:58 31.03.2020
154 Clouds 20 1016 45 10000 1 0 08:39 31.03.2020
155 Clouds 20 1016 45 10000 1 0 08:19 31.03.2020
156 Clouds 19 1016 48 10000 1.5 200 07:56 31.03.2020
157 Clouds 19 1016 48 10000 1.5 200 07:38 31.03.2020
158 Clouds 19 1016 48 10000 1.5 200 07:19 31.03.2020
159 Clouds 15 1016 62 10000 2.1 120 06:47 31.03.2020
160 Clouds 15 1016 62 10000 2.1 120 06:23 31.03.2020
161 Clouds 15 1015 58 10000 2.1 140 05:40 31.03.2020
162 Clouds 16 1014 59 10000 1.5 120 03:43 31.03.2020
163 Clouds 16 1014 59 10000 1.5 130 02:25 31.03.2020
164 Clear 16 1014 59 10000 1 0 01:46 31.03.2020
165 Clear 16 1014 55 10000 2.6 140 00:52 31.03.2020
166 Clear 16 1014 55 10000 2.6 140 00:25 31.03.2020
167 Clear 16 1014 51 10000 1 0 23:59 30.03.2020
168 Clear 16 1014 51 10000 1 0 23:38 30.03.2020
169 Clear 16 1014 51 10000 1 0 23:18 30.03.2020
170 Clear 16 1014 51 10000 1.06 101 22:56 30.03.2020
171 Clear 16 1014 51 10000 1.06 101 22:37 30.03.2020
172 Clear 16 1014 51 10000 1.06 101 22:18 30.03.2020
173 Clear 17 1013 51 10000 1.5 350 21:55 30.03.2020
174 Clear 17 1013 51 10000 1.5 350 21:36 30.03.2020
175 Clouds 17 1013 51 10000 1.5 350 21:18 30.03.2020
176 Clouds 17 1012 48 10000 1 60 20:42 30.03.2020
177 Clouds 17 1012 48 10000 1 60 20:24 30.03.2020
178 Clouds 19 1012 48 10000 1.5 60 19:59 30.03.2020
179 Clouds 19 1012 48 10000 1.5 60 19:40 30.03.2020
180 Clouds 19 1012 48 10000 1.5 60 19:21 30.03.2020
181 Clouds 20 1012 37 10000 2.1 10 18:57 30.03.2020
182 Clouds 20 1012 37 10000 2.1 10 18:38 30.03.2020
183 Clouds 20 1012 37 10000 2.1 10 18:20 30.03.2020
184 Clouds 22 1011 33 10000 3.1 330 17:57 30.03.2020
185 Clouds 22 1011 33 10000 3.1 330 17:38 30.03.2020
186 Clouds 22 1011 33 10000 3.1 330 17:38 30.03.2020
187 Clouds 22 1011 33 10000 3.1 330 17:18 30.03.2020
188 Clouds 23 1011 28 10000 4.6 270 16:55 30.03.2020
189 Clouds 23 1011 28 10000 4.6 270 16:36 30.03.2020
190 Clouds 23 1011 28 10000 4.6 270 16:18 30.03.2020
191 Clouds 23 1011 28 10000 7.2 270 15:54 30.03.2020
192 Clouds 23 1011 28 10000 7.2 270 15:36 30.03.2020
193 Clouds 23 1011 28 10000 7.2 270 15:18 30.03.2020
194 Clouds 24 1011 27 10000 8.2 250 14:39 30.03.2020
195 Clouds 24 1011 27 10000 8.2 250 14:19 30.03.2020
196 Clouds 24 1011 27 10000 8.2 240 13:59 30.03.2020
197 Clouds 24 1011 27 10000 8.2 240 13:40 30.03.2020
198 Clouds 24 1011 27 10000 8.2 240 13:20 30.03.2020
199 Clouds 23 1011 31 10000 9.3 260 12:56 30.03.2020
200 Clouds 23 1011 31 10000 9.3 260 12:37 30.03.2020
201 Clouds 23 1011 31 10000 9.3 260 12:19 30.03.2020
202 Clouds 22 1012 37 10000 8.2 250 11:55 30.03.2020
203 Clouds 22 1012 37 10000 8.2 250 11:55 30.03.2020
204 Clouds 22 1012 37 10000 8.2 250 11:55 30.03.2020
205 Clouds 22 1012 37 10000 8.2 250 11:37 30.03.2020
206 Clouds 22 1012 37 10000 8.2 250 11:18 30.03.2020
207 Clear 21 1011 43 10000 6.7 250 10:39 30.03.2020
208 Clear 21 1011 43 10000 6.7 250 10:21 30.03.2020
209 Clear 21 1011 43 10000 6.7 250 10:21 30.03.2020
210 Clear 20 1011 45 10000 8.2 270 09:55 30.03.2020
211 Clear 20 1011 45 10000 8.2 270 09:37 30.03.2020
212 Clouds 20 1011 45 10000 8.2 270 09:18 30.03.2020
213 Clouds 18 1011 52 10000 8.7 240 08:40 30.03.2020
214 Clouds 18 1011 52 10000 8.7 240 08:22 30.03.2020
215 Clouds 17 1010 51 10000 6.7 230 07:49 30.03.2020
216 Clouds 17 1010 51 10000 6.7 230 07:26 30.03.2020
217 Clouds 14 1010 58 10000 4.1 210 06:54 30.03.2020
218 Clouds 14 1010 58 10000 4.1 210 06:31 30.03.2020
219 Clouds 13 1009 66 10000 3.1 190 05:52 30.03.2020
220 Clouds 13 1009 66 10000 3.1 190 05:18 30.03.2020
221 Clouds 13 1009 66 10000 3.1 150 04:22 30.03.2020
222 Clouds 13 1009 66 10000 2.6 150 03:34 30.03.2020
223 Clear 14 1009 67 10000 2.6 130 02:37 30.03.2020
224 Clear 16 1009 46 0 1.11 109 01:35 30.03.2020
225 Clear 13 1010 66 10000 2.1 130 00:47 30.03.2020
226 Clear 13 1010 66 10000 2.1 130 00:21 30.03.2020
227 Clear 15 1010 62 10000 2.1 140 23:41 29.03.2020
228 Clear 15 1010 62 10000 2.1 140 23:23 29.03.2020
229 Clear 16 1010 59 10000 1.5 130 22:57 29.03.2020
230 Clear 16 1010 59 10000 1.5 130 22:38 29.03.2020
231 Clear 16 1010 59 10000 1.5 130 22:19 29.03.2020
232 Clear 17 1011 55 10000 1 60 21:55 29.03.2020
233 Clear 17 1011 55 10000 1 60 21:36 29.03.2020
234 Clear 17 1011 55 10000 1 60 21:36 29.03.2020
235 Clear 17 1011 55 10000 1 60 21:18 29.03.2020
236 Clear 19 1010 40 0 2.87 337 20:54 29.03.2020
237 Clear 19 1010 40 0 2.87 337 20:36 29.03.2020
238 Clear 19 1010 48 10000 2.1 30 20:18 29.03.2020
239 Clear 19 1010 48 10000 2.1 30 19:42 29.03.2020
240 Clear 19 1010 48 10000 2.1 30 19:24 29.03.2020
241 Clear 19 1010 40 0 2.87 337 18:58 29.03.2020
242 Clear 19 1010 40 0 2.87 337 18:40 29.03.2020
243 Clouds 22 1009 37 10000 3.1 320 18:20 29.03.2020
244 Clouds 22 1009 37 10000 3.1 320 18:20 29.03.2020
245 Clouds 22 1009 37 10000 3.1 320 17:57 29.03.2020
246 Clouds 22 1009 37 10000 3.1 320 17:39 29.03.2020
247 Clouds 22 1009 37 10000 3.1 320 17:20 29.03.2020
248 Clouds 22 1009 37 10000 4.1 290 16:58 29.03.2020
249 Clouds 22 1009 37 10000 4.1 290 16:39 29.03.2020
250 Clouds 22 1009 37 10000 4.1 290 16:20 29.03.2020
251 Clear 23 1009 35 10000 4.6 280 15:56 29.03.2020
252 Clear 23 1009 35 10000 4.6 280 15:37 29.03.2020
253 Clouds 23 1009 35 10000 4.6 280 15:19 29.03.2020
254 Clouds 23 1009 38 10000 4.6 300 14:55 29.03.2020
255 Clouds 23 1009 38 10000 4.6 300 14:36 29.03.2020
256 Clouds 23 1009 38 10000 4.6 300 14:18 29.03.2020
257 Clouds 22 1010 40 10000 5.1 290 13:41 29.03.2020
258 Clouds 22 1010 40 10000 5.1 290 13:21 29.03.2020
259 Clouds 22 1010 40 10000 5.1 290 13:21 29.03.2020
260 Clouds 22 1010 43 10000 6.2 300 12:58 29.03.2020
261 Clouds 22 1010 43 10000 6.2 300 12:39 29.03.2020
262 Clouds 22 1010 43 10000 6.2 300 12:19 29.03.2020
263 Clouds 21 1011 52 10000 4.1 320 11:57 29.03.2020
264 Clouds 21 1011 52 10000 4.1 320 11:57 29.03.2020
265 Clouds 21 1011 52 10000 4.1 320 11:37 29.03.2020
266 Clouds 21 1011 52 10000 4.1 320 11:19 29.03.2020
267 Clouds 19 1011 55 10000 6.2 320 10:39 29.03.2020
268 Clouds 19 1011 55 10000 6.2 320 10:20 29.03.2020
269 Clouds 18 1012 63 10000 6.2 320 09:55 29.03.2020
270 Clouds 18 1012 63 10000 6.2 320 09:37 29.03.2020
271 Clouds 18 1012 63 10000 6.2 320 09:18 29.03.2020
272 Clouds 17 1011 72 10000 5.7 320 08:43 29.03.2020
273 Clouds 17 1011 72 10000 5.7 320 08:24 29.03.2020
274 Clouds 15 1011 87 10000 4.6 300 07:47 29.03.2020
275 Clouds 15 1011 87 10000 4.6 300 07:23 29.03.2020
276 Clouds 14 1010 93 10000 3.1 310 06:34 29.03.2020
277 Clear 14 1010 93 10000 2.1 280 04:56 29.03.2020
278 Clear 13 1009 93 10000 3.1 320 03:41 29.03.2020
279 Rain 13 1009 93 10000 3.1 320 03:20 29.03.2020
280 Rain 17 1007 76 0 1.04 244 01:40 29.03.2020
281 Rain 14 1009 93 10000 2.1 310 01:21 29.03.2020
282 Rain 14 1009 93 10000 2.1 310 00:40 29.03.2020
283 Rain 14 1009 93 10000 2.1 310 00:19 29.03.2020
284 Rain 15 1009 100 10000 2.6 280 23:40 28.03.2020
285 Rain 15 1009 100 10000 2.6 280 23:22 28.03.2020
286 Rain 15 1009 100 10000 2.1 310 22:44 28.03.2020
287 Rain 15 1009 100 10000 2.1 310 22:22 28.03.2020
288 Clouds 17 1009 88 10000 2.1 300 21:57 28.03.2020
289 Clouds 17 1009 88 10000 2.1 300 21:57 28.03.2020
290 Clouds 17 1009 88 10000 2.1 300 21:39 28.03.2020
291 Clouds 17 1009 88 10000 2.1 300 21:20 28.03.2020
292 Clouds 17 1010 82 10000 4.6 330 20:57 28.03.2020
293 Clouds 17 1010 82 10000 4.6 330 20:38 28.03.2020
294 Clouds 17 1010 82 10000 4.6 330 20:19 28.03.2020
295 Clouds 18 1010 88 10000 2.1 300 19:55 28.03.2020
296 Clouds 18 1010 88 10000 2.1 300 19:36 28.03.2020
297 Clouds 18 1010 88 10000 2.1 300 19:18 28.03.2020
298 Rain 18 1010 82 9000 4.1 340 18:42 28.03.2020
299 Rain 18 1010 82 9000 4.1 340 18:20 28.03.2020
300 Rain 20 1008 72 10000 5.1 150 17:43 28.03.2020
301 Clouds 21 1008 60 10000 4.1 150 17:24 28.03.2020
302 Clouds 22 1007 53 10000 5.1 130 16:59 28.03.2020
303 Clouds 22 1007 53 10000 5.1 130 16:40 28.03.2020
304 Clouds 22 1007 53 10000 5.1 130 16:18 28.03.2020
305 Clouds 23 1007 49 10000 5.7 120 15:55 28.03.2020
306 Clouds 23 1007 49 10000 5.7 120 15:37 28.03.2020
307 Clouds 23 1007 49 10000 5.7 120 15:18 28.03.2020
308 Clouds 24 1007 44 10000 5.1 130 14:41 28.03.2020
309 Clouds 24 1007 44 10000 5.1 130 14:21 28.03.2020
310 Clouds 24 1007 44 10000 5.1 130 14:21 28.03.2020
311 Clouds 22 1008 60 10000 5.1 150 13:44 28.03.2020
312 Clouds 22 1008 60 10000 5.1 150 13:25 28.03.2020
313 Rain 22 1008 56 10000 4.1 140 12:57 28.03.2020
314 Rain 22 1008 56 10000 4.1 140 12:37 28.03.2020
315 Rain 22 1008 56 10000 4.1 140 12:18 28.03.2020
316 Clouds 22 1008 53 10000 4.6 160 11:41 28.03.2020
317 Clouds 22 1008 53 10000 4.6 160 11:21 28.03.2020
318 Clouds 23 1009 49 9000 4.6 150 10:41 28.03.2020
319 Clouds 23 1009 49 9000 4.6 150 10:22 28.03.2020
320 Rain 25 1007 36 0 4.39 135 09:59 28.03.2020
321 Rain 25 1007 36 0 4.39 135 09:39 28.03.2020
322 Rain 21 1009 60 10000 3.1 140 09:20 28.03.2020
323 Rain 21 1009 60 10000 3.1 140 08:42 28.03.2020
324 Rain 21 1009 60 10000 3.1 140 08:23 28.03.2020
325 Rain 19 1010 63 10000 4.6 160 07:49 28.03.2020
326 Rain 19 1010 63 10000 4.6 160 07:31 28.03.2020
327 Clouds 21 1008 52 10000 4.1 120 06:45 28.03.2020
328 Clouds 21 1008 52 10000 4.1 120 06:19 28.03.2020
329 Rain 19 1008 63 10000 4.1 120 05:24 28.03.2020
330 Clouds 18 1008 63 10000 3.6 120 04:48 28.03.2020
331 Clouds 18 1008 63 10000 3.6 120 04:28 28.03.2020
332 Clouds 18 1008 63 10000 4.1 130 02:50 28.03.2020
333 Clouds 19 1008 59 10000 5.7 130 01:47 28.03.2020
334 Clouds 19 1008 59 10000 5.7 130 01:23 28.03.2020
335 Clouds 20 1008 52 10000 6.7 130 00:47 28.03.2020
336 Clouds 20 1008 52 10000 6.7 130 00:21 28.03.2020
337 Clouds 20 1009 52 10000 6.2 130 23:43 27.03.2020
338 Clouds 20 1009 52 10000 6.2 130 23:25 27.03.2020
339 Clouds 21 1009 49 10000 5.7 140 22:57 27.03.2020
340 Clouds 21 1009 49 10000 5.7 140 22:39 27.03.2020
341 Clouds 21 1009 49 10000 5.7 140 22:20 27.03.2020
342 Clouds 20 1010 52 10000 3.6 140 21:57 27.03.2020
343 Clouds 20 1010 52 10000 3.6 140 21:38 27.03.2020
344 Clouds 20 1010 52 10000 3.6 140 21:20 27.03.2020
345 Clouds 22 1008 43 10000 7.2 120 20:55 27.03.2020
346 Clouds 22 1008 43 10000 7.2 120 20:37 27.03.2020
347 Clouds 22 1008 43 10000 7.2 120 20:19 27.03.2020
348 Rain 23 1009 40 10000 6.2 110 19:43 27.03.2020
349 Rain 23 1009 40 10000 6.2 110 19:23 27.03.2020
350 Clouds 24 1009 38 10000 6.2 120 18:57 27.03.2020
351 Clouds 24 1009 38 10000 6.2 120 18:38 27.03.2020
352 Clouds 24 1009 38 10000 6.2 120 18:20 27.03.2020
353 Clouds 24 1009 41 10000 3.6 90 17:40 27.03.2020
354 Clouds 24 1009 41 10000 3.6 90 17:20 27.03.2020
355 Clouds 24 1010 41 10000 3.6 120 16:55 27.03.2020
356 Clouds 24 1010 41 10000 3.6 120 16:37 27.03.2020
357 Clouds 24 1010 41 10000 3.6 120 16:19 27.03.2020
358 Clouds 25 1010 38 10000 3.6 120 15:42 27.03.2020
359 Clouds 25 1010 36 10000 5.7 120 15:24 27.03.2020
360 Clouds 26 1010 36 10000 5.7 90 14:46 27.03.2020
361 Clouds 26 1010 36 10000 5.7 90 14:25 27.03.2020
362 Clouds 25 1011 33 10000 5.7 110 13:58 27.03.2020
363 Clouds 25 1011 33 10000 5.7 110 13:40 27.03.2020
364 Clouds 25 1011 33 10000 5.7 110 13:21 27.03.2020
365 Clouds 25 1011 33 10000 6.2 110 12:57 27.03.2020
366 Clouds 25 1011 33 10000 6.2 110 12:39 27.03.2020
367 Clouds 25 1011 38 10000 4.6 90 12:19 27.03.2020
368 Clouds 25 1012 41 10000 4.6 110 11:41 27.03.2020
369 Clouds 25 1012 41 10000 4.6 110 11:23 27.03.2020
370 Clouds 25 1012 41 10000 4.6 110 11:23 27.03.2020
371 Rain 24 1013 44 10000 6.7 150 10:55 27.03.2020
372 Clouds 24 1013 44 10000 7.2 140 10:37 27.03.2020
373 Clouds 24 1013 44 10000 7.2 140 10:19 27.03.2020
374 Clouds 24 1013 44 10000 7.2 130 09:57 27.03.2020
375 Clouds 24 1013 44 10000 7.2 130 09:37 27.03.2020
376 Clouds 24 1013 44 10000 7.2 130 09:18 27.03.2020
377 Clouds 22 1014 49 10000 7.7 130 08:56 27.03.2020
378 Clouds 22 1014 49 10000 7.7 130 08:38 27.03.2020
379 Clouds 22 1014 49 10000 7.7 130 08:20 27.03.2020
380 Clouds 21 1014 52 10000 6.7 130 07:50 27.03.2020
381 Clouds 21 1014 52 10000 6.7 130 07:24 27.03.2020
382 Clouds 19 1013 59 10000 6.2 130 06:53 27.03.2020
383 Clouds 19 1013 59 10000 5.7 140 06:35 27.03.2020
384 Clouds 16 1012 67 10000 5.1 130 04:24 27.03.2020
385 Clouds 17 1012 63 10000 3.6 140 02:32 27.03.2020
386 Clouds 17 1012 59 10000 4.6 140 01:23 27.03.2020
387 Clouds 17 1012 59 10000 4.6 140 00:50 27.03.2020
388 Clouds 17 1012 59 10000 4.6 140 00:31 27.03.2020
389 Clouds 17 1012 63 10000 4.6 140 23:44 26.03.2020
390 Clouds 17 1012 63 10000 4.6 140 23:23 26.03.2020
391 Clouds 18 1012 59 10000 3.6 140 22:59 26.03.2020
392 Clouds 18 1012 59 10000 3.6 140 22:38 26.03.2020
393 Clouds 18 1012 59 10000 3.6 140 22:20 26.03.2020
394 Clouds 19 1012 55 10000 4.6 140 21:57 26.03.2020
395 Clouds 19 1012 55 10000 4.6 140 21:38 26.03.2020
396 Clouds 19 1012 55 10000 4.6 140 21:20 26.03.2020
397 Clouds 20 1012 52 10000 4.1 120 20:57 26.03.2020
398 Clouds 20 1012 52 10000 4.1 120 20:38 26.03.2020
399 Clear 20 1012 52 10000 4.1 120 20:20 26.03.2020
400 Clouds 21 1011 46 10000 6.7 140 19:54 26.03.2020
401 Clouds 21 1011 46 10000 6.7 140 19:36 26.03.2020
402 Clouds 21 1011 46 10000 6.7 140 19:18 26.03.2020
403 Clouds 22 1010 43 10000 7.2 130 18:41 26.03.2020
404 Clouds 22 1010 43 10000 7.2 130 18:23 26.03.2020
405 Clouds 22 1010 43 10000 7.2 130 18:23 26.03.2020
406 Clouds 24 1010 38 10000 6.7 120 17:56 26.03.2020
407 Clouds 24 1010 38 10000 6.7 120 17:37 26.03.2020
408 Clouds 24 1010 38 10000 6.7 120 17:18 26.03.2020
409 Clouds 25 1009 36 10000 6.2 110 16:45 26.03.2020
410 Clouds 25 1009 36 10000 6.2 110 16:26 26.03.2020
411 Clouds 26 1009 34 10000 7.7 120 15:58 26.03.2020
412 Clouds 26 1009 34 10000 7.7 120 15:39 26.03.2020
413 Clouds 26 1009 34 10000 7.7 120 15:21 26.03.2020
414 Clouds 28 1009 32 10000 9.3 140 14:57 26.03.2020
415 Clouds 28 1009 32 10000 9.3 140 14:38 26.03.2020
416 Clouds 28 1009 32 10000 9.3 140 14:18 26.03.2020
417 Clouds 28 1009 30 10000 8.7 130 13:43 26.03.2020
418 Clouds 28 1009 30 10000 8.7 130 13:23 26.03.2020
419 Clouds 28 1010 32 10000 9.3 150 12:56 26.03.2020
420 Clouds 28 1010 32 10000 9.3 150 12:37 26.03.2020
421 Clouds 28 1010 32 10000 9.3 150 12:19 26.03.2020
422 Clouds 27 1010 34 10000 9.3 130 11:44 26.03.2020
423 Clouds 27 1010 34 10000 9.3 130 11:20 26.03.2020
424 Clear 26 1011 39 10000 10.3 110 10:56 26.03.2020
425 Clear 26 1011 39 10000 10.3 110 10:37 26.03.2020
426 Clear 26 1011 39 10000 10.3 110 10:18 26.03.2020
427 Clear 25 1011 38 10000 9.3 100 09:43 26.03.2020
428 Clear 25 1011 38 10000 9.3 100 09:19 26.03.2020
429 Clear 23 1011 49 10000 7.7 110 08:54 26.03.2020
430 Clear 23 1011 49 10000 7.7 110 08:36 26.03.2020
431 Rain 23 1011 49 10000 7.7 110 08:18 26.03.2020
432 Clouds 21 1011 52 10000 6.2 110 07:41 26.03.2020
433 Clouds 21 1011 52 10000 6.2 110 07:20 26.03.2020
434 Clouds 21 1011 52 10000 6.2 110 07:20 26.03.2020
435 Clouds 19 1011 59 10000 6.7 70 06:47 26.03.2020
436 Clouds 18 1010 59 10000 4.1 60 05:52 26.03.2020
437 Clouds 17 1009 63 10000 3.6 10 03:58 26.03.2020
438 Clouds 17 1009 63 10000 3.6 10 03:35 26.03.2020
439 Clouds 17 1009 63 10000 3.1 10 02:53 26.03.2020
440 Clouds 17 1010 63 10000 2.6 340 01:44 26.03.2020
441 Clouds 17 1010 63 10000 2.6 340 00:45 26.03.2020
442 Clouds 18 1010 59 10000 1.5 280 23:47 25.03.2020
443 Clouds 18 1010 59 10000 1.5 280 23:28 25.03.2020
444 Clouds 17 1009 59 10000 1.5 180 22:58 25.03.2020
445 Clouds 17 1009 59 10000 1.5 180 22:38 25.03.2020
446 Clouds 17 1009 59 10000 1.5 180 22:19 25.03.2020
447 Clouds 19 1009 55 10000 4.1 130 21:55 25.03.2020
448 Clouds 19 1009 55 10000 4.1 130 21:37 25.03.2020
449 Clouds 19 1009 55 10000 4.1 130 21:18 25.03.2020
450 Clouds 19 1009 55 10000 4.1 130 21:18 25.03.2020
451 Clouds 20 1009 52 10000 4.6 130 20:40 25.03.2020
452 Clouds 20 1009 52 10000 4.6 130 20:20 25.03.2020
453 Clouds 20 1008 52 10000 5.7 120 19:59 25.03.2020
454 Clouds 20 1008 52 10000 5.7 120 19:41 25.03.2020
455 Rain 20 1008 52 10000 5.7 120 19:21 25.03.2020
456 Clouds 21 1008 49 10000 4.6 130 18:56 25.03.2020
457 Clouds 21 1008 49 10000 4.6 130 18:37 25.03.2020
458 Clouds 21 1008 49 10000 4.6 130 18:19 25.03.2020
459 Clouds 22 1008 46 10000 5.1 120 17:42 25.03.2020
460 Clouds 22 1008 46 10000 5.1 120 17:23 25.03.2020
461 Clouds 24 1008 41 10000 6.7 130 16:59 25.03.2020
462 -273 0 0 0 0 0 16:41 25.03.2020
463 Clouds 24 1008 41 10000 6.7 130 16:21 25.03.2020
464 Clouds 25 1008 33 10000 6.7 130 15:55 25.03.2020
465 Clouds 25 1008 33 10000 6.7 130 15:37 25.03.2020
466 Clouds 25 1008 33 10000 6.7 130 15:18 25.03.2020
467 Clouds 25 1008 33 10000 8.2 130 14:40 25.03.2020
468 Clouds 25 1008 33 10000 8.2 130 14:21 25.03.2020
469 Clouds 26 1009 34 10000 10.3 140 13:46 25.03.2020
470 Clouds 26 1009 34 10000 10.3 140 13:26 25.03.2020
471 Rain 26 1008 34 10000 8.2 120 12:55 25.03.2020
472 Rain 26 1008 34 10000 8.2 120 12:37 25.03.2020
473 Rain 26 1008 34 10000 8.2 120 12:18 25.03.2020
474 Rain 26 1009 36 10000 9.8 130 11:41 25.03.2020
475 Rain 26 1009 36 10000 9.8 130 11:21 25.03.2020
476 Rain 26 1009 36 10000 9.8 130 11:21 25.03.2020
477 Clouds 25 1010 36 10000 9.8 130 10:59 25.03.2020
478 Clouds 25 1010 36 10000 9.8 130 10:40 25.03.2020
479 Clouds 25 1010 36 10000 9.8 130 10:19 25.03.2020
480 Clouds 23 1010 40 10000 8.7 130 09:59 25.03.2020
481 Clouds 23 1010 40 10000 8.7 130 09:40 25.03.2020
482 Clouds 23 1010 40 10000 8.7 130 09:22 25.03.2020
483 Clouds 21 1011 46 10000 7.2 130 08:54 25.03.2020
484 Clouds 21 1011 46 10000 7.2 130 08:36 25.03.2020
485 Clouds 21 1011 46 10000 7.2 130 08:18 25.03.2020
486 Clouds 19 1011 55 10000 5.7 130 07:39 25.03.2020
487 Clouds 19 1011 55 10000 5.7 130 07:20 25.03.2020
488 Clouds 17 1010 59 10000 7.2 120 06:46 25.03.2020
489 Clouds 17 1010 59 10000 7.2 120 06:25 25.03.2020
490 -273 0 0 0 0 0 05:50 25.03.2020
491 Clouds 17 1010 59 10000 6.7 110 04:59 25.03.2020
492 Clouds 17 1010 59 10000 6.7 110 04:39 25.03.2020
493 Clouds 16 1010 67 10000 5.1 120 03:35 25.03.2020
494 Clear 16 1010 63 10000 5.7 130 01:57 25.03.2020
495 Clear 16 1010 63 10000 5.7 130 01:20 25.03.2020
496 Clear 18 1010 55 10000 5.7 120 00:47 25.03.2020
497 Clear 18 1010 55 10000 5.7 120 00:19 25.03.2020
498 Clear 18 1010 55 10000 4.6 110 23:45 24.03.2020
499 Clear 18 1010 55 10000 4.6 110 23:25 24.03.2020
500 Clear 19 1010 48 10000 4.1 110 22:56 24.03.2020
501 Clear 19 1010 48 10000 4.1 110 22:37 24.03.2020
502 Clear 19 1010 48 10000 4.1 110 22:19 24.03.2020
503 Clear 20 1011 45 10000 4.1 110 21:55 24.03.2020
504 Clear 20 1011 45 10000 4.1 110 21:37 24.03.2020
505 Clear 20 1011 45 10000 4.1 110 21:18 24.03.2020
506 Clear 20 1011 45 10000 4.1 110 20:43 24.03.2020
507 Clear 20 1011 45 10000 4.1 110 20:24 24.03.2020
508 Clouds 20 1011 45 10000 3.6 110 19:57 24.03.2020
509 Clouds 20 1011 45 10000 3.6 110 19:39 24.03.2020
510 Clouds 20 1011 45 10000 3.6 110 19:18 24.03.2020
511 Clouds 21 1011 43 10000 3.1 100 18:55 24.03.2020
512 Clouds 21 1011 43 10000 3.1 100 18:55 24.03.2020
513 Clouds 21 1011 43 10000 3.1 100 18:36 24.03.2020
514 Clouds 21 1011 43 10000 3.1 100 18:18 24.03.2020
515 Clouds 22 1010 37 10000 3.1 110 17:42 24.03.2020
516 Clouds 22 1010 37 10000 3.1 110 17:22 24.03.2020
517 Clouds 23 1011 33 10000 3.6 130 16:58 24.03.2020
518 Clouds 23 1011 33 10000 3.6 130 16:39 24.03.2020
519 Clouds 23 1011 33 10000 3.6 130 16:21 24.03.2020
520 Clouds 22 1011 25 0 2.87 89 15:57 24.03.2020
521 Clouds 22 1011 25 0 2.87 89 15:37 24.03.2020
522 Clouds 25 1011 25 10000 2.1 130 15:19 24.03.2020
523 Clouds 25 1011 25 10000 2.1 130 14:42 24.03.2020
524 Clouds 25 1011 25 10000 2.1 130 14:19 24.03.2020
525 Clouds 25 1011 27 10000 2.1 0 13:43 24.03.2020
526 Clouds 25 1011 27 10000 2.1 0 13:24 24.03.2020
527 Clouds 24 1012 29 10000 2.1 220 12:57 24.03.2020
528 Clouds 24 1012 29 10000 2.1 220 12:37 24.03.2020
529 Clouds 24 1012 29 10000 2.1 220 12:19 24.03.2020
530 Clouds 25 1012 29 10000 2.6 0 11:39 24.03.2020
531 Clouds 25 1012 29 10000 2.6 0 11:20 24.03.2020
532 Clouds 23 1013 33 10000 2.6 140 10:43 24.03.2020
533 Clouds 23 1013 33 10000 2.6 140 10:20 24.03.2020
534 Clouds 23 1013 33 10000 2.6 140 10:20 24.03.2020
535 Clouds 23 1014 35 10000 3.1 140 09:59 24.03.2020
536 Clouds 23 1014 35 10000 3.1 140 09:41 24.03.2020
537 Clouds 23 1014 35 10000 3.1 140 09:22 24.03.2020
538 Clouds 21 1014 43 10000 3.1 160 08:39 24.03.2020
539 Clouds 21 1014 43 10000 3.1 160 08:21 24.03.2020
540 Clouds 21 1014 43 10000 3.1 160 08:21 24.03.2020
541 Clear 18 1014 48 10000 3.1 150 07:50 24.03.2020
542 Clear 18 1014 48 10000 3.1 150 07:25 24.03.2020
543 Clear 18 1014 48 10000 3.1 150 07:25 24.03.2020
544 Clear 15 1014 58 10000 3.1 120 06:59 24.03.2020
545 Clear 15 1014 58 10000 3.1 120 06:32 24.03.2020
546 Clear 12 1014 71 10000 2.1 100 05:29 24.03.2020
547 Clear 11 1014 71 10000 1.5 110 04:41 24.03.2020
548 Clear 12 1014 66 10000 1 40 03:19 24.03.2020
549 Clear 12 1013 71 10000 1.5 150 01:59 24.03.2020
550 Clear 12 1013 71 10000 1.5 130 00:52 24.03.2020
551 Clear 13 1013 66 10000 1 130 00:26 24.03.2020
552 Clear 13 1014 66 10000 1 0 23:50 23.03.2020
553 Clear 13 1014 66 10000 1 0 23:30 23.03.2020
554 Clear 13 1013 62 10000 0.5 0 22:59 23.03.2020
555 Clear 13 1013 62 10000 0.5 0 22:40 23.03.2020
556 Clear 13 1013 62 10000 0.5 0 22:22 23.03.2020
557 Clear 14 1014 58 10000 1 0 21:54 23.03.2020
558 Clear 14 1014 58 10000 1 0 21:36 23.03.2020
559 Clear 14 1014 58 10000 1 0 21:18 23.03.2020
560 Clear 16 1014 55 10000 1 140 20:41 23.03.2020
561 Clear 16 1014 55 10000 1 140 20:23 23.03.2020
562 Clear 17 1014 48 10000 3.18 283 19:55 23.03.2020
563 Clear 17 1014 48 10000 3.18 283 19:55 23.03.2020
564 Clear 17 1014 48 10000 3.18 283 19:37 23.03.2020
565 Clear 17 1014 48 10000 3.18 283 19:18 23.03.2020
566 Clear 18 1013 45 10000 0.5 330 18:43 23.03.2020
567 Clear 18 1013 45 10000 0.5 330 18:24 23.03.2020
568 Clear 19 1013 42 10000 2.6 320 17:58 23.03.2020
569 Clear 19 1013 42 10000 2.6 320 17:39 23.03.2020
570 Clouds 22 1013 30 10000 4.6 320 17:19 23.03.2020
571 Clouds 22 1013 30 10000 4.6 320 16:43 23.03.2020
572 Clouds 22 1013 30 10000 4.6 320 16:25 23.03.2020
573 Clouds 23 1012 27 10000 6.2 300 15:54 23.03.2020
574 Clouds 23 1012 27 10000 6.2 300 15:36 23.03.2020
575 Clouds 23 1012 27 10000 6.2 300 15:18 23.03.2020
576 -273 0 0 0 0 0 14:37 23.03.2020
577 Clouds 23 1012 31 10000 7.7 300 14:19 23.03.2020
578 Clouds 23 1012 31 10000 7.7 300 14:19 23.03.2020
579 Clouds 23 1013 35 10000 7.2 290 13:55 23.03.2020
580 Clouds 23 1013 35 10000 7.2 290 13:37 23.03.2020
581 Clouds 23 1013 35 10000 7.2 290 13:19 23.03.2020
582 Clouds 23 1013 38 10000 8.2 300 12:42 23.03.2020
583 Clouds 23 1013 38 10000 8.2 300 12:22 23.03.2020
584 Clouds 23 1013 38 10000 8.2 300 12:22 23.03.2020
585 Clouds 23 1013 38 10000 8.2 300 11:55 23.03.2020
586 Clear 22 1014 40 10000 7.2 270 11:37 23.03.2020
587 Clear 22 1014 40 10000 7.2 270 11:18 23.03.2020
588 Clear 21 1014 46 10000 5.7 280 10:42 23.03.2020
589 Clear 21 1014 46 10000 5.7 280 10:23 23.03.2020
590 Clear 19 1015 55 10000 5.1 290 09:59 23.03.2020
591 Clear 19 1015 55 10000 5.1 290 09:41 23.03.2020
592 Clear 19 1015 55 10000 5.1 290 09:19 23.03.2020
593 Clear 18 1015 59 10000 5.7 300 08:38 23.03.2020
594 Clear 18 1015 59 10000 5.7 300 08:20 23.03.2020
595 Clear 16 1015 63 10000 5.7 290 07:52 23.03.2020
596 Clear 16 1015 63 10000 5.7 290 07:33 23.03.2020
597 Clear 16 1014 63 10000 6.2 290 06:56 23.03.2020
598 Clear 14 1014 71 10000 5.7 290 06:34 23.03.2020
599 Clear 11 1013 81 10000 3.1 260 05:44 23.03.2020
600 Clear 11 1012 81 10000 2.1 250 03:54 23.03.2020
601 Clear 10 1012 93 10000 1.62 314 02:45 23.03.2020
602 Clouds 11 1012 81 10000 1.5 260 01:50 23.03.2020
603 Clouds 11 1012 87 10000 2.1 260 00:50 23.03.2020
604 Clouds 11 1012 87 10000 2.1 260 00:29 23.03.2020
605 Clouds 12 1012 76 10000 3.1 250 23:44 22.03.2020
606 Clouds 12 1012 76 10000 3.1 250 23:24 22.03.2020
607 Clouds 12 1012 81 10000 1 0 22:42 22.03.2020
608 Clouds 12 1012 81 10000 1 0 22:22 22.03.2020
609 Clouds 12 1013 81 10000 2.1 290 21:54 22.03.2020
610 Clouds 12 1013 81 10000 2.1 290 21:36 22.03.2020
611 Clouds 12 1013 81 10000 2.1 290 21:18 22.03.2020
612 Clouds 13 1012 76 10000 3.1 320 20:42 22.03.2020
613 Clouds 13 1012 76 10000 3.1 320 20:24 22.03.2020
614 Clouds 14 1013 71 10000 4.1 310 19:56 22.03.2020
615 Clouds 14 1013 71 10000 4.1 310 19:38 22.03.2020
616 Clouds 14 1013 71 10000 4.1 310 19:19 22.03.2020
617 Clouds 14 1012 71 10000 3.6 320 18:58 22.03.2020
618 Clouds 14 1012 71 10000 3.6 320 18:40 22.03.2020
619 Clouds 14 1012 71 10000 3.6 320 18:21 22.03.2020
620 Clouds 15 1011 67 10000 3.6 320 17:57 22.03.2020
621 Clouds 15 1011 67 10000 3.6 320 17:38 22.03.2020
622 Clouds 15 1011 67 10000 3.6 320 17:20 22.03.2020
623 Clouds 17 1010 55 10000 7.2 310 16:57 22.03.2020
624 Clouds 17 1010 55 10000 7.2 310 16:39 22.03.2020
625 Clouds 17 1010 55 10000 7.2 310 16:39 22.03.2020
626 Clouds 17 1010 55 10000 7.2 310 16:20 22.03.2020
627 Clouds 18 1010 45 10000 6.7 310 15:40 22.03.2020
628 Clouds 18 1010 45 10000 6.7 310 15:20 22.03.2020
629 Clouds 18 1010 45 10000 6.2 300 14:46 22.03.2020
630 Clouds 18 1010 45 10000 6.2 300 14:19 22.03.2020
631 Clouds 18 1010 45 10000 6.2 300 14:19 22.03.2020
632 Clouds 18 1010 45 10000 6.2 310 13:44 22.03.2020
633 Clouds 18 1010 45 10000 6.2 310 13:20 22.03.2020
634 Clouds 17 1010 51 10000 5.7 310 12:59 22.03.2020
635 Clouds 17 1010 51 10000 5.7 310 12:41 22.03.2020
636 Clouds 17 1010 51 10000 5.7 310 12:19 22.03.2020
637 Clouds 16 1010 59 10000 5.7 310 11:43 22.03.2020
638 Clouds 16 1010 59 10000 5.7 310 11:25 22.03.2020
639 Clouds 17 1010 55 10000 1.5 250 10:58 22.03.2020
640 Clouds 17 1010 55 10000 1.5 250 10:40 22.03.2020
641 Clouds 17 1010 55 10000 1.5 250 10:22 22.03.2020
642 Clouds 15 1011 58 10000 1.5 230 09:46 22.03.2020
643 Clouds 15 1011 58 10000 1.5 230 09:27 22.03.2020
644 Clouds 14 1011 71 10000 0.5 0 08:48 22.03.2020
645 Clouds 14 1011 71 10000 0.5 0 08:48 22.03.2020
646 Clouds 14 1011 71 10000 0.5 0 08:30 22.03.2020
647 Clouds 11 1011 93 10000 1.5 200 07:55 22.03.2020
648 Clouds 11 1011 93 10000 1.5 200 07:37 22.03.2020
649 Clouds 9 1010 93 10000 1.5 170 06:41 22.03.2020
650 Clouds 8 1009 93 10000 2.1 200 05:52 22.03.2020
651 Clouds 7 1009 93 10000 1.5 180 04:39 22.03.2020
652 Rain 12 1007 78 0 0.91 218 01:47 22.03.2020
653 Rain 8 1009 93 10000 2.1 130 00:50 22.03.2020
654 Rain 8 1009 93 10000 2.1 130 00:31 22.03.2020
655 Rain 12 1007 80 0 1.77 188 23:46 21.03.2020
656 Rain 10 1008 81 10000 3.1 260 23:23 21.03.2020
657 Rain 10 1008 81 10000 3.1 260 22:59 21.03.2020
658 Rain 10 1008 81 10000 3.1 260 22:38 21.03.2020
659 Rain 10 1008 81 10000 3.1 260 22:20 21.03.2020
660 Rain 10 1008 81 10000 4.1 250 21:58 21.03.2020
661 Rain 10 1008 81 10000 4.1 250 21:38 21.03.2020
662 Rain 10 1008 81 10000 4.1 250 21:20 21.03.2020
663 Clouds 11 1008 76 10000 4.6 270 20:43 21.03.2020
664 Clouds 11 1008 76 10000 4.6 270 20:22 21.03.2020
665 Thunderstorm 11 1008 81 10000 4.1 290 19:56 21.03.2020
666 Thunderstorm 11 1008 81 10000 4.1 290 19:38 21.03.2020
667 Thunderstorm 11 1008 81 10000 4.1 290 19:19 21.03.2020
668 Thunderstorm 11 1009 76 10000 6.7 220 18:54 21.03.2020
669 Thunderstorm 11 1009 76 10000 6.7 220 18:36 21.03.2020
670 Thunderstorm 11 1009 76 10000 6.7 220 18:18 21.03.2020
671 Thunderstorm 12 1007 76 10000 6.2 240 17:42 21.03.2020
672 Thunderstorm 12 1007 76 10000 6.2 240 17:22 21.03.2020
673 Rain 13 1006 66 10000 8.7 270 16:43 21.03.2020
674 Rain 13 1006 66 10000 8.7 270 16:24 21.03.2020
675 Rain 13 1006 66 10000 8.7 270 16:24 21.03.2020
676 Thunderstorm 14 1007 71 10000 8.7 220 15:59 21.03.2020
677 Thunderstorm 14 1007 71 10000 8.7 220 15:41 21.03.2020
678 Rain 16 1005 56 0 11.96 301 15:23 21.03.2020
679 Clouds 16 1005 55 10000 9.8 280 14:58 21.03.2020
680 Clouds 16 1005 55 10000 9.8 280 14:40 21.03.2020
681 Clouds 16 1005 55 10000 9.8 280 14:20 21.03.2020
682 Clouds 17 1005 55 10000 12.3 280 13:59 21.03.2020
683 Clouds 17 1005 55 10000 12.3 280 13:40 21.03.2020
684 Clouds 17 1005 55 10000 12.3 280 13:21 21.03.2020
685 Clouds 17 1005 55 10000 12.3 280 13:21 21.03.2020
686 Clouds 20 1005 56 10000 10.3 280 12:58 21.03.2020
687 Clouds 20 1005 56 10000 10.3 280 12:37 21.03.2020
688 Clouds 20 1005 56 10000 10.3 280 12:19 21.03.2020
689 Clouds 21 1005 46 10000 5.1 300 11:55 21.03.2020
690 Clouds 21 1005 46 10000 5.1 300 11:37 21.03.2020
691 Clouds 21 1005 46 10000 5.1 300 11:18 21.03.2020
692 Clouds 21 1006 43 10000 4.1 330 10:56 21.03.2020
693 Clouds 21 1006 43 10000 4.1 330 10:38 21.03.2020
694 Clouds 21 1006 43 10000 4.1 330 10:19 21.03.2020
695 Clouds 21 1007 46 10000 4.1 360 09:55 21.03.2020
696 Clouds 21 1007 46 10000 4.1 360 09:36 21.03.2020
697 Clouds 21 1007 46 10000 4.1 360 09:18 21.03.2020
698 Clouds 19 1007 55 10000 3.6 20 08:42 21.03.2020
699 Clouds 19 1007 55 10000 3.6 20 08:23 21.03.2020
700 Clouds 18 1008 55 10000 4.1 10 07:42 21.03.2020
701 Clouds 18 1008 55 10000 4.1 10 07:23 21.03.2020
702 Clouds 15 1008 67 10000 3.6 350 06:46 21.03.2020
703 Clouds 15 1008 67 10000 3.6 350 06:27 21.03.2020
704 Clouds 14 1008 71 10000 3.6 20 05:46 21.03.2020
705 Clouds 14 1008 67 10000 5.1 20 04:46 21.03.2020
706 Clouds 13 1009 87 10000 3.1 10 02:48 21.03.2020
707 Clouds 13 1009 87 10000 3.1 10 02:30 21.03.2020
708 Rain 12 1009 93 10000 3.1 320 01:32 21.03.2020
709 Rain 15 1010 72 10000 3.1 40 00:48 21.03.2020
710 Rain 15 1010 72 10000 3.1 40 00:25 21.03.2020
711 Rain 15 1010 72 10000 5.7 70 23:49 20.03.2020
712 Rain 15 1010 72 10000 5.7 70 23:26 20.03.2020
713 Clouds 14 1011 82 10000 3.6 60 22:57 20.03.2020
714 Clouds 14 1011 82 10000 3.6 60 22:39 20.03.2020
715 Clouds 14 1011 82 10000 3.6 60 22:20 20.03.2020
716 Rain 14 1012 82 10000 2.1 350 21:55 20.03.2020
717 Rain 14 1012 82 10000 2.1 350 21:37 20.03.2020
718 Rain 14 1012 82 10000 2.1 350 21:18 20.03.2020
719 Rain 14 1013 76 10000 3.6 300 20:55 20.03.2020
720 Rain 14 1013 76 10000 3.6 300 20:37 20.03.2020
721 Rain 14 1013 76 10000 3.6 300 20:18 20.03.2020
722 Rain 15 1012 67 10000 6.2 300 19:44 20.03.2020
723 Rain 15 1012 67 10000 6.2 300 19:18 20.03.2020
724 Rain 16 1012 55 10000 3.6 350 18:54 20.03.2020
725 Rain 16 1012 55 10000 3.6 350 18:36 20.03.2020
726 Rain 16 1012 55 10000 3.6 350 18:18 20.03.2020
727 Rain 16 1012 59 10000 4.1 320 17:39 20.03.2020
728 Rain 16 1012 59 10000 4.1 320 17:21 20.03.2020
729 Clouds 17 1011 55 10000 4.1 330 16:57 20.03.2020
730 Clouds 17 1011 55 10000 4.1 330 16:39 20.03.2020
731 Clouds 17 1011 55 10000 4.1 330 16:18 20.03.2020
732 Clouds 20 1011 45 10000 5.7 300 15:42 20.03.2020
733 Clouds 20 1011 45 10000 5.7 300 15:21 20.03.2020
734 Rain 21 1011 40 10000 2.1 240 14:55 20.03.2020
735 Rain 21 1011 40 10000 2.1 240 14:37 20.03.2020
736 Rain 21 1011 40 10000 2.1 240 14:18 20.03.2020
737 Clouds 21 1011 40 9000 3.6 180 13:42 20.03.2020
738 Clouds 21 1011 40 9000 3.6 180 13:19 20.03.2020
739 Clouds 21 1012 37 10000 3.1 210 12:40 20.03.2020
740 Clouds 21 1012 37 10000 3.1 210 12:22 20.03.2020
741 Clouds 22 1013 35 10000 4.6 200 11:57 20.03.2020
742 Clouds 22 1013 35 10000 4.6 200 11:38 20.03.2020
743 Clouds 22 1013 35 10000 4.6 200 11:19 20.03.2020
744 Clear 21 1014 35 10000 6.2 180 10:41 20.03.2020
745 Clear 21 1014 35 10000 6.2 180 10:21 20.03.2020
746 Clear 20 1014 42 9000 4.1 160 09:57 20.03.2020
747 Clear 20 1014 42 9000 4.1 160 09:39 20.03.2020
748 Clear 20 1014 42 9000 4.1 160 09:19 20.03.2020
749 Clear 17 1015 51 8000 4.1 190 08:42 20.03.2020
750 Clear 17 1015 51 8000 4.1 190 08:22 20.03.2020
751 Clouds 15 1015 67 8000 3.6 210 07:54 20.03.2020
752 Clouds 15 1015 67 8000 3.6 210 07:36 20.03.2020
753 Clouds 15 1015 67 8000 3.6 210 07:18 20.03.2020
754 Clouds 15 1015 62 8000 3.6 210 06:41 20.03.2020
755 Clouds 13 1014 66 8000 4.1 130 04:51 20.03.2020
756 Clouds 14 1013 62 10000 4.1 110 03:22 20.03.2020
757 Clouds 15 1013 54 10000 3.6 100 02:20 20.03.2020
758 Clouds 15 1013 54 10000 3.6 100 00:59 20.03.2020
759 Clouds 15 1013 54 10000 3.1 100 00:31 20.03.2020
760 Clouds 15 1013 58 10000 3.1 100 23:49 19.03.2020
761 Clouds 15 1014 58 10000 3.1 100 23:28 19.03.2020
762 Clouds 16 1014 55 10000 4.1 90 22:57 19.03.2020
763 Clouds 16 1014 55 10000 4.1 90 22:38 19.03.2020
764 Clouds 16 1014 55 10000 4.1 90 22:20 19.03.2020
765 Clouds 15 1014 54 10000 2.6 100 21:42 19.03.2020
766 Clouds 15 1014 54 10000 2.6 100 21:20 19.03.2020
767 Clouds 16 1015 55 10000 3.1 90 20:59 19.03.2020
768 Clouds 16 1015 55 10000 3.1 90 20:41 19.03.2020
769 Clouds 16 1015 55 10000 3.1 90 20:23 19.03.2020
770 Clear 16 1015 51 10000 1.5 60 19:55 19.03.2020
771 Clear 16 1015 51 10000 1.5 60 19:37 19.03.2020
772 Clear 16 1015 51 10000 1.5 60 19:19 19.03.2020
773 Clear 16 1014 59 10000 1 70 18:55 19.03.2020
774 Clear 16 1014 59 10000 1 70 18:37 19.03.2020
775 Clear 16 1014 59 10000 1 70 18:37 19.03.2020
776 Clear 16 1014 59 10000 1 70 18:19 19.03.2020
777 Clear 17 1014 45 10000 0.5 0 17:41 19.03.2020
778 Clouds 19 1014 39 10000 1.5 0 17:19 19.03.2020
779 Clouds 19 1014 39 10000 1.5 0 16:44 19.03.2020
780 Clouds 19 1014 39 10000 1.5 0 16:24 19.03.2020
781 Clouds 19 1014 39 10000 1.5 240 15:54 19.03.2020
782 Clouds 19 1014 39 10000 1.5 240 15:36 19.03.2020
783 Clouds 19 1014 39 10000 1.5 240 15:18 19.03.2020
784 Clouds 19 1014 39 10000 2.6 230 14:42 19.03.2020
785 Clouds 19 1014 39 10000 2.6 230 14:21 19.03.2020
786 Clouds 19 1014 45 10000 3.6 250 13:41 19.03.2020
787 Clouds 19 1014 45 10000 3.6 250 13:19 19.03.2020
788 Clouds 19 1015 45 10000 5.7 240 12:57 19.03.2020
789 Clouds 19 1015 45 10000 5.7 240 12:39 19.03.2020
790 Clouds 19 1015 45 10000 5.7 240 12:21 19.03.2020
791 Clouds 18 1015 52 9000 4.6 220 11:42 19.03.2020
792 Clouds 18 1015 52 9000 4.6 220 11:23 19.03.2020
793 Clouds 17 1016 59 10000 3.1 260 10:57 19.03.2020
794 Clouds 17 1016 59 10000 3.1 260 10:38 19.03.2020
795 Clouds 17 1016 59 10000 3.1 260 10:19 19.03.2020
796 Clouds 16 1016 59 10000 4.1 270 09:45 19.03.2020
797 Clouds 16 1016 59 10000 4.1 270 09:27 19.03.2020
798 Clouds 16 1016 59 10000 5.1 280 08:59 19.03.2020
799 Clouds 16 1016 59 10000 5.1 280 08:41 19.03.2020
800 Clouds 16 1016 59 10000 5.1 280 08:19 19.03.2020
801 Clouds 14 1016 76 10000 5.7 280 07:44 19.03.2020
802 Clouds 14 1016 76 10000 5.7 280 07:23 19.03.2020
803 Clear 13 1015 82 10000 6.2 280 06:34 19.03.2020
804 Clear 12 1014 87 8000 3.6 260 05:47 19.03.2020
805 Clear 12 1013 76 8000 2.6 260 04:53 19.03.2020
806 Clear 12 1013 76 8000 2.6 260 04:34 19.03.2020
807 Clear 13 1012 71 10000 3.6 250 02:34 19.03.2020
808 Clouds 14 1012 71 10000 3.6 220 00:58 19.03.2020
809 Clouds 14 1012 71 10000 3.6 220 00:22 19.03.2020
810 Clouds 14 1012 87 10000 3.1 190 23:48 18.03.2020
811 Clouds 14 1012 87 10000 3.1 190 23:27 18.03.2020
812 Clouds 14 1012 93 10000 3.1 120 22:44 18.03.2020
813 Clouds 14 1012 93 10000 3.1 120 22:24 18.03.2020
814 Clouds 14 1012 87 10000 3.6 120 21:59 18.03.2020
815 Clouds 14 1012 87 10000 3.6 120 21:41 18.03.2020
816 Clouds 14 1012 87 10000 3.6 120 21:21 18.03.2020
817 Clouds 14 1012 71 10000 3.6 100 20:57 18.03.2020
818 Clouds 14 1012 71 10000 3.6 100 20:39 18.03.2020
819 Clouds 14 1012 71 10000 3.6 100 20:20 18.03.2020
820 Clouds 16 1012 63 10000 3.6 140 19:56 18.03.2020
821 Clouds 16 1012 63 10000 3.6 140 19:56 18.03.2020
822 Clouds 16 1012 63 10000 3.6 140 19:36 18.03.2020
823 Clouds 16 1012 63 10000 3.6 140 19:18 18.03.2020
824 Clouds 16 1012 63 10000 1.5 110 18:41 18.03.2020
825 Clouds 16 1012 63 10000 1.5 110 18:20 18.03.2020
826 Clouds 17 1011 59 10000 0.5 0 17:58 18.03.2020
827 Clouds 17 1011 59 10000 0.5 0 17:39 18.03.2020
828 Clouds 17 1011 59 10000 0.5 0 17:21 18.03.2020
829 Clouds 20 1010 45 10000 2.1 240 16:55 18.03.2020
830 Clouds 20 1010 45 10000 2.1 240 16:37 18.03.2020
831 Clouds 20 1010 45 10000 2.1 240 16:19 18.03.2020
832 Clouds 21 1010 40 10000 4.1 220 15:45 18.03.2020
833 Clouds 21 1010 40 10000 4.1 220 15:20 18.03.2020
834 Clouds 21 1009 40 10000 4.6 230 14:45 18.03.2020
835 Clouds 21 1009 40 10000 4.6 230 14:22 18.03.2020
836 Clouds 21 1009 40 10000 5.7 240 13:58 18.03.2020
837 Clouds 21 1009 40 10000 5.7 240 13:36 18.03.2020
838 Clouds 21 1009 40 10000 5.7 240 13:18 18.03.2020
839 Clouds 21 1009 49 10000 4.6 230 12:41 18.03.2020
840 Clouds 21 1009 49 10000 4.6 230 12:19 18.03.2020
841 Clouds 20 1009 56 10000 5.7 250 11:40 18.03.2020
842 Clouds 20 1009 56 10000 5.7 250 11:21 18.03.2020
843 Clouds 19 1009 72 10000 11.8 160 10:58 18.03.2020
844 Clouds 19 1009 72 10000 11.8 160 10:39 18.03.2020
845 Clouds 19 1009 72 10000 11.8 160 10:20 18.03.2020
846 Rain 18 1009 77 7000 9.8 160 09:44 18.03.2020
847 Rain 18 1009 77 7000 9.8 160 09:26 18.03.2020
848 Rain 18 1009 82 9000 10.3 150 08:58 18.03.2020
849 Rain 18 1009 82 9000 10.3 150 08:39 18.03.2020
850 Rain 18 1009 82 9000 10.3 150 08:21 18.03.2020
851 Clouds 18 1008 77 9000 10.3 140 07:49 18.03.2020
852 Clouds 18 1008 77 9000 10.3 140 07:30 18.03.2020
853 Clouds 18 1007 77 9000 10.3 140 06:45 18.03.2020
854 Clouds 18 1007 77 9000 10.3 140 06:23 18.03.2020
855 Clouds 18 1006 77 0 8.2 120 05:35 18.03.2020
856 Clouds 18 1006 77 10000 8.2 120 04:27 18.03.2020
857 Thunderstorm 19 1006 72 8000 6.7 110 02:49 18.03.2020
858 Thunderstorm 19 1007 77 8000 5.1 110 01:48 18.03.2020
859 Thunderstorm 19 1007 77 8000 5.1 110 01:29 18.03.2020
860 Rain 19 1007 82 8000 5.7 100 00:26 18.03.2020
861 Rain 19 1007 82 8000 5.7 100 23:59 17.03.2020
862 Clouds 19 1008 77 10000 4.6 60 23:40 17.03.2020
863 Rain 18 1009 82 7000 7.2 140 23:19 17.03.2020
864 Rain 18 1009 82 7000 7.2 140 22:42 17.03.2020
865 Rain 18 1009 82 7000 7.2 140 22:23 17.03.2020
866 Rain 20 1010 68 10000 2.6 170 21:42 17.03.2020
867 Rain 20 1010 68 10000 2.6 170 21:22 17.03.2020
868 Thunderstorm 23 1008 49 10000 6.7 120 20:41 17.03.2020
869 Thunderstorm 23 1008 49 10000 6.7 120 20:23 17.03.2020
870 Clouds 23 1008 53 10000 8.7 120 19:59 17.03.2020
871 Clouds 23 1008 53 10000 8.7 120 19:40 17.03.2020
872 Clouds 23 1008 53 10000 8.7 120 19:18 17.03.2020
873 Clouds 23 1009 49 10000 6.7 120 18:56 17.03.2020
874 Clouds 23 1009 49 10000 6.7 120 18:38 17.03.2020
875 Clouds 23 1009 49 10000 6.7 120 18:38 17.03.2020
876 Clouds 23 1009 49 10000 6.7 120 18:20 17.03.2020
877 Clouds 23 1009 53 10000 5.1 120 17:41 17.03.2020
878 Clouds 23 1009 53 10000 5.1 120 17:22 17.03.2020
879 Clouds 25 1010 44 10000 6.2 130 16:56 17.03.2020
880 Clouds 25 1010 44 10000 6.2 130 16:38 17.03.2020
881 Clouds 25 1010 44 10000 6.2 130 16:18 17.03.2020
882 Clouds 26 1010 41 10000 6.2 130 15:43 17.03.2020
883 Clouds 26 1010 41 10000 6.2 130 15:21 17.03.2020
884 Clouds 26 1011 41 10000 7.7 140 14:44 17.03.2020
885 Clouds 26 1011 41 10000 7.7 140 14:23 17.03.2020
886 Clouds 26 1012 39 10000 6.2 130 13:56 17.03.2020
887 Clouds 26 1012 39 10000 6.2 130 13:38 17.03.2020
888 Clouds 26 1012 39 10000 6.2 130 13:20 17.03.2020
889 Clouds 26 1012 39 10000 6.2 130 12:42 17.03.2020
890 Clouds 26 1012 39 10000 6.2 130 12:22 17.03.2020
891 Clouds 26 1013 41 10000 5.7 160 11:47 17.03.2020
892 Clouds 26 1013 41 10000 5.7 160 11:29 17.03.2020
893 Clouds 25 1014 44 10000 5.1 140 10:58 17.03.2020
894 Clouds 25 1014 44 10000 5.1 140 10:39 17.03.2020
895 Clouds 25 1014 44 10000 5.1 140 10:21 17.03.2020
896 Clouds 24 1015 50 10000 6.7 140 09:59 17.03.2020
897 Clouds 24 1015 50 10000 6.7 140 09:40 17.03.2020
898 Clouds 24 1015 50 10000 6.7 140 09:19 17.03.2020
899 Clear 23 1015 56 9000 6.2 140 08:48 17.03.2020
900 Clear 23 1015 56 9000 6.2 140 08:23 17.03.2020
901 Clouds 20 1015 68 9000 5.1 120 07:56 17.03.2020
902 Clouds 20 1015 68 9000 5.1 120 07:38 17.03.2020
903 Clouds 20 1015 68 9000 5.1 120 07:19 17.03.2020
904 Clouds 17 1015 82 6000 4.1 120 06:38 17.03.2020
905 Clouds 17 1015 82 5000 3.6 120 05:58 17.03.2020
906 Mist 15 1014 93 6000 2.6 110 03:56 17.03.2020
907 Clouds 14 1014 82 6000 2.1 90 02:54 17.03.2020
908 Clouds 15 1014 82 6000 1.5 130 01:49 17.03.2020
909 Clouds 15 1014 82 6000 1.5 130 01:25 17.03.2020
910 Clouds 15 1014 82 7000 1.5 120 00:46 17.03.2020
911 Clouds 15 1015 82 8000 2.1 120 23:50 16.03.2020
912 Clouds 15 1015 82 8000 2.1 120 23:32 16.03.2020
913 Clouds 17 1015 77 10000 1.5 110 22:42 16.03.2020
914 Clouds 17 1015 77 10000 1.5 110 22:24 16.03.2020
915 Clouds 17 1015 72 10000 0.5 130 21:58 16.03.2020
916 Clouds 17 1015 72 10000 0.5 130 21:40 16.03.2020
917 Clouds 17 1015 72 10000 0.5 130 21:22 16.03.2020
918 Clouds 18 1015 88 10000 1 70 20:56 16.03.2020
919 Clouds 18 1015 88 10000 1 70 20:38 16.03.2020
920 Clouds 18 1015 88 10000 1 70 20:19 16.03.2020
921 Clouds 19 1015 63 10000 2.96 228 19:41 16.03.2020
922 Clouds 19 1015 63 10000 2.96 228 19:21 16.03.2020
923 Clouds 20 1015 60 10000 2.96 228 18:56 16.03.2020
924 Clouds 20 1015 60 10000 2.96 228 18:37 16.03.2020
925 Clouds 20 1015 60 10000 2.96 228 18:18 16.03.2020
926 Clouds 22 1015 53 10000 1 0 17:42 16.03.2020
927 Clouds 22 1015 53 10000 1 0 17:22 16.03.2020
928 Clouds 23 1015 49 10000 1.5 250 16:45 16.03.2020
929 Clouds 23 1015 49 10000 1.5 250 16:27 16.03.2020
930 Clouds 23 1015 49 10000 2.1 240 15:56 16.03.2020
931 Clouds 23 1015 49 10000 2.1 240 15:37 16.03.2020
932 Clouds 23 1015 49 10000 2.1 240 15:18 16.03.2020
933 Clouds 23 1015 49 10000 3.1 250 14:39 16.03.2020
934 Clouds 23 1015 49 10000 3.1 250 14:19 16.03.2020
935 Clouds 24 1015 47 9000 1.5 180 13:41 16.03.2020
936 Clouds 24 1015 47 9000 1.5 180 13:22 16.03.2020
937 Clouds 23 1015 53 7000 3.1 220 12:45 16.03.2020
938 Clouds 23 1015 53 7000 3.1 220 12:26 16.03.2020
939 Clouds 23 1016 53 7000 2.1 0 11:58 16.03.2020
940 Clouds 23 1016 53 7000 2.1 0 11:39 16.03.2020
941 Clouds 23 1016 53 7000 2.1 0 11:18 16.03.2020
942 Clouds 22 1016 60 6000 2.6 270 10:41 16.03.2020
943 Clouds 22 1016 60 6000 2.6 270 10:19 16.03.2020
944 Clouds 21 1017 64 5000 2.1 310 09:44 16.03.2020
945 Clouds 21 1017 64 5000 2.1 310 09:24 16.03.2020
946 Haze 21 1017 64 4700 1.5 290 08:54 16.03.2020
947 Haze 21 1017 64 4700 1.5 290 08:25 16.03.2020
948 Mist 18 1017 82 3500 2.1 300 07:50 16.03.2020
949 Mist 18 1017 82 3500 2.1 300 07:27 16.03.2020
950 Haze 15 1017 100 3000 1.5 340 06:54 16.03.2020
951 Haze 15 1017 100 3000 1.5 340 06:26 16.03.2020
952 Mist 14 1017 93 3800 2.6 290 05:50 16.03.2020
953 Clouds 13 1015 100 7000 1 290 02:45 16.03.2020
954 Clear 15 1015 87 7000 1 120 01:20 16.03.2020
955 Clear 15 1015 87 8000 2.6 310 00:40 16.03.2020
956 Clear 15 1016 87 8000 1.5 320 23:48 15.03.2020
957 Clear 15 1016 87 8000 1.5 320 23:20 15.03.2020
958 Clear 17 1016 82 8000 0.5 0 22:43 15.03.2020
959 Clear 17 1016 82 8000 0.5 0 22:24 15.03.2020
960 Clouds 17 1016 82 8000 2.1 330 21:59 15.03.2020
961 Clouds 17 1016 82 8000 2.1 330 21:38 15.03.2020
962 Clouds 17 1016 82 8000 2.1 330 21:19 15.03.2020
963 Clouds 18 1016 77 8000 1.5 80 20:43 15.03.2020
964 Clouds 18 1016 77 8000 1.5 80 20:22 15.03.2020
965 Clouds 18 1016 77 8000 2.6 320 19:58 15.03.2020
966 Clouds 18 1016 77 8000 2.6 320 19:40 15.03.2020
967 Clouds 18 1016 77 8000 2.6 320 19:21 15.03.2020
968 Clouds 19 1015 68 8000 2.1 300 18:56 15.03.2020
969 Clouds 19 1015 68 8000 2.1 300 18:38 15.03.2020
970 Clouds 19 1015 68 8000 2.1 300 18:20 15.03.2020
971 Clouds 21 1015 60 9000 1.5 310 17:41 15.03.2020
972 Clouds 21 1015 60 9000 1.5 310 17:22 15.03.2020
973 Rain 21 1014 60 7000 1.5 180 16:59 15.03.2020
974 Rain 21 1014 60 7000 1.5 180 16:40 15.03.2020
975 Rain 21 1014 60 7000 1.5 180 16:21 15.03.2020
976 Rain 21 1014 60 6000 2.1 180 15:54 15.03.2020
977 Rain 21 1014 60 6000 2.1 180 15:36 15.03.2020
978 Clouds 21 1014 60 6000 1.5 20 15:18 15.03.2020
979 Clouds 22 1013 56 7000 2.1 360 14:39 15.03.2020
980 Clouds 22 1013 56 7000 2.1 360 14:21 15.03.2020
981 Clouds 22 1013 56 6000 3.1 10 13:56 15.03.2020
982 Clouds 22 1013 56 6000 3.1 10 13:37 15.03.2020
983 Clouds 22 1013 56 6000 3.1 10 13:18 15.03.2020
984 Clouds 21 1013 64 5000 2.6 340 12:40 15.03.2020
985 Clouds 21 1013 64 5000 2.6 340 12:22 15.03.2020
986 Haze 21 1014 64 5000 3.1 350 11:44 15.03.2020
987 Haze 21 1014 64 5000 3.1 350 11:25 15.03.2020
988 Haze 20 1014 64 5000 2.6 30 10:59 15.03.2020
989 Haze 20 1014 64 5000 2.6 30 10:40 15.03.2020
990 Haze 20 1014 68 4900 3.1 360 10:21 15.03.2020
991 Haze 19 1014 72 5000 3.1 320 09:59 15.03.2020
992 Haze 19 1014 72 5000 3.1 320 09:38 15.03.2020
993 Haze 19 1014 72 5000 3.1 320 09:19 15.03.2020
994 Clouds 18 1015 77 7000 1.5 250 08:41 15.03.2020
995 Clouds 18 1015 77 7000 1.5 250 08:19 15.03.2020
996 Clouds 17 1014 77 7000 1.5 290 07:48 15.03.2020
997 Clouds 17 1014 77 7000 1.5 290 07:22 15.03.2020
998 Rain 16 1014 93 6000 1.5 40 06:44 15.03.2020
999 Clouds 15 1013 93 8000 1 0 05:48 15.03.2020
1000 Clouds 15 1012 93 8000 1.5 70 04:57 15.03.2020
1001 Clouds 15 1012 93 8000 1.5 70 04:38 15.03.2020
1002 Clouds 15 1012 93 8000 1.5 70 04:20 15.03.2020
1003 Clouds 15 1012 93 9000 1 70 03:19 15.03.2020
1004 Clouds 15 1011 93 6000 2.6 90 02:23 15.03.2020
1005 Clouds 15 1011 100 10000 3.6 130 00:59 15.03.2020
1006 Clouds 15 1011 100 10000 3.6 130 00:40 15.03.2020
1007 Clouds 15 1011 100 10000 3.6 130 00:19 15.03.2020
1008 Clouds 16 1011 93 10000 3.6 120 23:39 14.03.2020
1009 Clouds 16 1011 93 10000 3.6 120 23:20 14.03.2020
1010 Clouds 16 1011 93 10000 4.6 130 22:56 14.03.2020
1011 Clouds 16 1011 93 10000 4.6 130 22:38 14.03.2020
1012 Clouds 16 1011 93 10000 4.6 130 22:19 14.03.2020
1013 Clouds 16 1011 93 10000 5.7 130 21:55 14.03.2020
1014 Clouds 16 1011 93 10000 5.7 130 21:36 14.03.2020
1015 Clouds 16 1011 93 10000 5.7 130 21:36 14.03.2020
1016 Clouds 16 1011 93 10000 5.7 130 21:18 14.03.2020
1017 Rain 16 1011 93 10000 3.6 130 20:56 14.03.2020
1018 Rain 16 1011 93 10000 3.6 130 20:38 14.03.2020
1019 Rain 16 1011 93 10000 3.6 130 20:18 14.03.2020
1020 Clouds 16 1011 93 10000 4.6 120 19:41 14.03.2020
1021 Clouds 16 1011 93 10000 4.6 120 19:21 14.03.2020
1022 Clouds 16 1011 93 10000 3.1 120 18:40 14.03.2020
1023 Clouds 16 1011 93 10000 3.1 120 18:21 14.03.2020
1024 Rain 16 1010 93 9000 6.2 130 17:43 14.03.2020
1025 Rain 16 1010 93 9000 6.2 130 17:24 14.03.2020
1026 Mist 17 1010 93 4800 2.6 10 16:59 14.03.2020
1027 Mist 17 1010 93 4800 2.6 10 16:39 14.03.2020
1028 Mist 17 1010 93 4800 2.6 10 16:20 14.03.2020
1029 Mist 18 1009 88 4000 2.1 260 15:51 14.03.2020
1030 Mist 18 1009 88 4000 2.1 260 15:25 14.03.2020
1031 Rain 18 1009 82 4600 2.1 200 14:45 14.03.2020
1032 Rain 18 1009 82 4600 2.1 200 14:23 14.03.2020
1033 Rain 19 1009 77 5000 4.6 180 13:57 14.03.2020
1034 Rain 19 1009 77 5000 4.6 180 13:39 14.03.2020
1035 Rain 19 1009 77 5000 4.6 180 13:20 14.03.2020
1036 Rain 20 1009 68 6000 7.2 160 12:44 14.03.2020
1037 Rain 20 1009 68 6000 7.2 160 12:26 14.03.2020
1038 Clouds 20 1009 68 7000 8.7 160 11:48 14.03.2020
1039 Clouds 20 1009 68 7000 8.7 160 11:28 14.03.2020
1040 Clouds 20 1009 68 9000 11.8 150 10:59 14.03.2020
1041 Clouds 20 1009 68 9000 11.8 150 10:41 14.03.2020
1042 Clouds 20 1009 68 9000 11.8 150 10:23 14.03.2020
1043 Clouds 20 1009 64 10000 11.8 140 09:44 14.03.2020
1044 Clouds 20 1009 64 10000 11.8 140 09:24 14.03.2020
1045 Rain 19 1009 68 10000 11.8 130 08:48 14.03.2020
1046 Rain 19 1009 68 10000 11.8 130 08:29 14.03.2020
1047 Clouds 17 1010 72 9000 10.3 130 07:55 14.03.2020
1048 Clouds 17 1010 72 9000 10.3 130 07:37 14.03.2020
1049 Clouds 17 1010 72 9000 10.3 130 07:19 14.03.2020
1050 Clouds 16 1010 77 8000 8.7 130 06:40 14.03.2020
1051 Clouds 16 1009 72 8000 7.2 120 05:24 14.03.2020
1052 Clouds 16 1008 67 9000 7.7 100 03:46 14.03.2020
1053 Clouds 16 1008 67 9000 7.7 100 03:24 14.03.2020
1054 Clouds 16 1009 72 9000 4.6 120 02:22 14.03.2020
1055 Rain 16 1010 72 9000 7.2 90 00:46 14.03.2020
1056 Rain 18 1011 63 10000 2.6 340 23:46 13.03.2020
1057 Rain 18 1011 63 10000 2.6 340 23:28 13.03.2020
1058 Rain 18 1012 51 0 2.37 121 22:49 13.03.2020
1059 Rain 18 1012 51 0 2.37 121 22:26 13.03.2020
1060 Rain 18 1012 51 0 2.37 121 21:44 13.03.2020
1061 Clouds 19 1011 55 10000 3.6 330 21:22 13.03.2020
1062 Clouds 19 1011 55 10000 3.6 330 20:59 13.03.2020
1063 Clouds 19 1011 55 10000 3.6 330 20:40 13.03.2020
1064 Clouds 19 1011 55 10000 3.6 330 20:21 13.03.2020
1065 Clouds 20 1011 52 10000 4.6 320 19:48 13.03.2020
1066 Clouds 20 1011 52 10000 4.6 320 19:30 13.03.2020
1067 Clouds 21 1008 43 10000 7.2 110 18:49 13.03.2020
1068 Clouds 21 1008 43 10000 7.2 110 18:31 13.03.2020
1069 Thunderstorm 23 1007 33 10000 9.3 110 17:57 13.03.2020
1070 Thunderstorm 23 1007 33 10000 9.3 110 17:39 13.03.2020
1071 Thunderstorm 23 1007 33 10000 9.3 110 17:20 13.03.2020
1072 Clouds 22 1008 37 10000 10.8 120 16:42 13.03.2020
1073 Clouds 22 1008 37 10000 10.8 120 16:24 13.03.2020
1074 Clouds 23 1008 33 10000 8.2 110 15:58 13.03.2020
1075 Clouds 23 1008 33 10000 8.2 110 15:38 13.03.2020
1076 Clouds 23 1008 33 10000 8.2 110 15:20 13.03.2020
1077 Rain 23 1011 33 10000 5.7 130 14:41 13.03.2020
1078 Rain 23 1011 33 10000 5.7 130 14:22 13.03.2020
1079 Clouds 24 1011 27 10000 8.2 120 13:57 13.03.2020
1080 Clouds 24 1011 27 10000 8.2 120 13:39 13.03.2020
1081 Clouds 24 1011 27 10000 8.2 120 13:19 13.03.2020
1082 Clouds 25 1011 29 10000 8.2 110 12:55 13.03.2020
1083 Clouds 25 1011 29 10000 8.2 110 12:36 13.03.2020
1084 Clouds 25 1011 29 10000 8.2 110 12:18 13.03.2020
1085 Clouds 24 1012 31 10000 8.7 130 11:42 13.03.2020
1086 Clouds 24 1012 31 10000 8.7 130 11:24 13.03.2020
1087 Clouds 25 1012 29 10000 8.2 130 10:57 13.03.2020
1088 Clouds 25 1012 29 10000 8.2 130 10:38 13.03.2020
1089 Clouds 25 1012 29 10000 8.2 130 10:20 13.03.2020
1090 Clouds 24 1013 29 10000 9.3 130 09:43 13.03.2020
1091 Clouds 24 1013 29 10000 9.3 130 09:24 13.03.2020
1092 Clouds 22 1014 37 10000 6.2 130 08:47 13.03.2020
1093 Clouds 22 1014 37 10000 6.2 130 08:23 13.03.2020
1094 Clouds 21 1015 40 10000 5.7 140 07:58 13.03.2020
1095 Clouds 21 1015 40 10000 5.7 140 07:38 13.03.2020
1096 Clouds 21 1015 40 10000 5.7 140 07:18 13.03.2020
1097 Clouds 20 1014 45 10000 4.6 120 06:43 13.03.2020
1098 Clouds 19 1014 48 10000 3.6 130 05:56 13.03.2020
1099 Clouds 19 1014 48 10000 3.6 130 05:37 13.03.2020
1100 Clouds 20 1014 42 10000 4.6 110 04:38 13.03.2020
1101 Clouds 21 1014 40 10000 4.1 110 03:46 13.03.2020
1102 Clouds 21 1013 43 10000 3.1 70 01:48 13.03.2020
1103 Clouds 21 1013 43 10000 3.1 70 01:19 13.03.2020
1104 Clouds 21 1014 37 10000 4.1 130 00:56 13.03.2020
1105 Clouds 21 1014 37 10000 4.1 130 00:29 13.03.2020
1106 Clouds 23 1014 35 10000 3.6 70 23:59 12.03.2020
1107 Clouds 23 1014 35 10000 3.6 70 23:29 12.03.2020
1108 Clouds 22 1014 37 10000 3.1 60 22:58 12.03.2020
1109 Clouds 22 1014 37 10000 3.1 60 22:40 12.03.2020
1110 Clouds 22 1014 37 10000 3.1 60 22:22 12.03.2020
1111 Clouds 23 1014 35 10000 3.1 70 21:46 12.03.2020
1112 Clouds 23 1014 35 10000 3.1 70 21:28 12.03.2020
1113 Clouds 23 1014 35 10000 2.6 60 20:59 12.03.2020
1114 Clouds 23 1014 35 10000 2.6 60 20:40 12.03.2020
1115 Clouds 23 1014 35 10000 2.6 60 20:19 12.03.2020
1116 Clouds 23 1014 38 10000 3.6 80 19:42 12.03.2020
1117 Clouds 23 1014 38 10000 3.6 80 19:21 12.03.2020
1118 Clouds 24 1014 38 10000 3.1 90 18:45 12.03.2020
1119 Clouds 24 1014 38 10000 3.1 90 18:25 12.03.2020
1120 Clouds 24 1014 38 10000 3.1 90 17:57 12.03.2020
1121 Clouds 24 1014 41 10000 2.1 70 17:39 12.03.2020
1122 Clouds 24 1014 41 10000 2.1 70 17:21 12.03.2020
1123 Clouds 24 1014 41 10000 2.1 70 17:21 12.03.2020
1124 Clouds 25 1014 36 10000 2.6 130 16:58 12.03.2020
1125 Clouds 25 1014 36 10000 2.6 130 16:39 12.03.2020
1126 Clouds 25 1014 36 10000 2.6 130 16:20 12.03.2020
1127 Clouds 27 1015 28 10000 4.1 110 15:47 12.03.2020
1128 Clouds 27 1015 28 10000 4.1 110 15:27 12.03.2020
1129 Clouds 28 1015 24 8000 3.6 100 14:43 12.03.2020
1130 Clouds 28 1015 24 8000 3.6 100 14:24 12.03.2020
1131 Clouds 28 1015 23 10000 3.6 100 13:58 12.03.2020
1132 Clouds 28 1015 23 10000 3.6 100 13:37 12.03.2020
1133 Clouds 28 1015 23 10000 3.6 100 13:19 12.03.2020
1134 Clouds 28 1015 21 10000 4.6 100 12:41 12.03.2020
1135 Clouds 28 1015 21 10000 4.6 100 12:22 12.03.2020
1136 Clouds 28 1016 23 10000 4.6 120 11:58 12.03.2020
1137 Clouds 28 1016 23 10000 4.6 120 11:39 12.03.2020
1138 Clouds 28 1016 23 10000 4.6 120 11:39 12.03.2020
1139 Clouds 28 1016 23 10000 4.6 120 11:20 12.03.2020
1140 Clouds 27 1017 26 10000 3.6 110 10:59 12.03.2020
1141 Clouds 27 1017 26 10000 3.6 110 10:41 12.03.2020
1142 Clouds 27 1017 26 10000 3.6 110 10:22 12.03.2020
1143 Clouds 26 1018 26 10000 3.1 90 09:48 12.03.2020
1144 Clouds 26 1018 26 10000 3.1 90 09:28 12.03.2020
1145 Clouds 26 1018 26 10000 3.1 90 09:28 12.03.2020
1146 Clouds 24 1018 31 10000 3.1 90 08:54 12.03.2020
1147 Clouds 24 1018 31 10000 3.1 90 08:36 12.03.2020
1148 Clouds 24 1018 31 10000 3.1 90 08:18 12.03.2020
1149 Clouds 22 1017 33 10000 3.1 100 07:45 12.03.2020
1150 Clouds 22 1017 33 10000 3.1 100 07:21 12.03.2020
1151 Clouds 17 1017 45 10000 3.1 100 05:59 12.03.2020
1152 Clouds 17 1017 45 10000 3.1 100 05:27 12.03.2020
1153 Clouds 17 1016 42 10000 2.1 90 02:47 12.03.2020
1154 Clouds 18 1016 45 10000 3.1 70 01:39 12.03.2020
1155 Clear 18 1016 45 10000 3.1 70 01:20 12.03.2020
1156 Clear 19 1017 39 10000 2.6 80 00:41 12.03.2020
1157 Clear 20 1017 42 10000 2.6 80 23:56 11.03.2020
1158 Clear 20 1017 42 10000 2.6 80 23:27 11.03.2020
1159 Clear 20 1017 42 10000 3.1 70 22:55 11.03.2020
1160 Clear 20 1017 45 10000 2.6 70 22:37 11.03.2020
1161 Clear 20 1017 45 10000 2.6 70 22:18 11.03.2020
1162 Clear 21 1017 43 10000 2.6 70 21:54 11.03.2020
1163 Clear 21 1017 43 10000 2.6 70 21:36 11.03.2020
1164 Clear 21 1017 43 10000 2.6 70 21:18 11.03.2020
1165 Clear 21 1017 43 10000 2.1 60 20:55 11.03.2020
1166 Clear 21 1017 43 10000 2.1 60 20:36 11.03.2020
1167 Clear 21 1017 43 10000 2.1 60 20:18 11.03.2020
1168 Clear 21 1017 43 10000 2.6 80 19:41 11.03.2020
1169 Clear 21 1017 43 10000 2.6 80 19:22 11.03.2020
1170 Clear 21 1017 40 10000 2.6 90 18:56 11.03.2020
1171 Clear 22 1017 40 10000 2.1 100 18:36 11.03.2020
1172 Clear 22 1017 40 10000 2.1 100 18:18 11.03.2020
1173 Clear 24 1016 33 10000 2.6 120 17:40 11.03.2020
1174 Clear 24 1016 33 10000 2.6 120 17:21 11.03.2020
1175 Clear 26 1015 31 10000 3.1 140 16:56 11.03.2020
1176 Clear 26 1015 31 10000 3.1 140 16:37 11.03.2020
1177 Clear 26 1015 31 10000 3.1 140 16:19 11.03.2020
1178 Clear 28 1015 24 10000 3.6 110 15:42 11.03.2020
1179 Clear 28 1015 24 10000 3.6 110 15:23 11.03.2020
1180 Clear 28 1015 26 10000 4.6 130 14:44 11.03.2020
1181 Clear 28 1015 26 10000 4.6 130 14:24 11.03.2020
1182 Clouds 28 1015 26 10000 3.1 120 13:59 11.03.2020
1183 Clouds 28 1015 26 10000 3.1 120 13:40 11.03.2020
1184 Clouds 29 1016 23 10000 3.6 150 13:22 11.03.2020
1185 Clouds 29 1016 23 10000 2.6 180 12:55 11.03.2020
1186 Clouds 29 1016 25 10000 3.6 140 12:37 11.03.2020
1187 Clouds 29 1016 25 10000 3.6 140 12:18 11.03.2020
1188 Clouds 28 1017 28 10000 5.1 170 11:40 11.03.2020
1189 Clouds 28 1017 28 10000 5.1 170 11:20 11.03.2020
1190 Clouds 27 1018 32 10000 5.1 150 10:46 11.03.2020
1191 Clouds 27 1018 32 10000 5.1 150 10:20 11.03.2020
1192 Clouds 26 1018 31 10000 5.1 150 09:55 11.03.2020
1193 Clouds 26 1018 31 10000 5.1 150 09:36 11.03.2020
1194 Clouds 26 1018 31 10000 5.1 150 09:18 11.03.2020
1195 Clouds 22 1018 37 10000 3.6 130 08:42 11.03.2020
1196 Clouds 22 1018 37 10000 3.6 130 08:42 11.03.2020
1197 Clouds 22 1018 37 10000 3.6 130 08:23 11.03.2020
1198 Clouds 20 1018 40 10000 3.1 100 07:47 11.03.2020
1199 Clouds 20 1018 40 10000 3.1 100 07:20 11.03.2020
1200 Clouds 19 1018 39 10000 2.6 100 06:49 11.03.2020
1201 Clouds 19 1018 39 10000 2.6 100 06:20 11.03.2020
1202 Clouds 16 1017 48 10000 1.5 60 05:32 11.03.2020
1203 Clouds 16 1016 51 10000 1 70 02:43 11.03.2020
1204 Clouds 16 1016 51 8000 2.1 70 01:51 11.03.2020
1205 Clouds 16 1017 48 10000 1 100 00:53 11.03.2020
1206 Clouds 16 1017 48 10000 1 100 00:32 11.03.2020
1207 Clouds 14 1017 50 10000 1 80 23:49 10.03.2020
1208 Clouds 14 1017 50 10000 1 80 23:26 10.03.2020
1209 Clouds 16 1017 55 10000 1 60 22:56 10.03.2020
1210 Clouds 16 1017 55 10000 1 60 22:37 10.03.2020
1211 Clouds 16 1017 55 10000 1 60 22:19 10.03.2020
1212 Clouds 18 1017 42 10000 1 140 21:56 10.03.2020
1213 Clouds 18 1017 42 10000 1 140 21:37 10.03.2020
1214 Clouds 18 1017 42 10000 1 140 21:18 10.03.2020
1215 Clouds 18 1017 42 10000 1 140 21:18 10.03.2020
1216 Clouds 18 1017 45 10000 1 120 20:42 10.03.2020
1217 Clear 18 1017 45 10000 1 120 20:20 10.03.2020
1218 Clear 18 1017 45 10000 1.5 120 19:59 10.03.2020
1219 Clear 18 1017 45 10000 1.5 120 19:40 10.03.2020
1220 Clear 18 1017 45 10000 1.5 120 19:22 10.03.2020
1221 Clear 21 1016 35 10000 2.6 130 18:56 10.03.2020
1222 Clear 21 1016 35 10000 2.6 130 18:37 10.03.2020
1223 Clear 21 1016 35 10000 2.6 130 18:19 10.03.2020
1224 Clear 22 1016 30 10000 3.1 150 17:55 10.03.2020
1225 Clear 22 1016 30 10000 3.1 150 17:37 10.03.2020
1226 Clear 22 1016 30 10000 3.1 150 17:18 10.03.2020
1227 Clear 25 1016 27 10000 3.1 140 16:37 10.03.2020
1228 Clear 25 1016 27 10000 3.1 140 16:18 10.03.2020
1229 Clear 25 1016 27 10000 3.1 140 16:18 10.03.2020
1230 Clear 28 1015 23 10000 4.1 120 15:42 10.03.2020
1231 Clear 28 1015 23 10000 4.1 120 15:20 10.03.2020
1232 Clear 24 1016 20 0 2.26 106 14:59 10.03.2020
1233 Clear 24 1016 20 0 2.26 106 14:40 10.03.2020
1234 Clear 29 1016 17 10000 3.6 90 14:19 10.03.2020
1235 Clear 29 1016 17 10000 3.6 90 13:44 10.03.2020
1236 Clear 29 1016 17 10000 3.6 90 13:26 10.03.2020
1237 Clear 29 1016 17 10000 4.1 130 12:56 10.03.2020
1238 Clear 29 1016 17 10000 4.1 130 12:37 10.03.2020
1239 Clear 29 1016 17 10000 4.1 130 12:18 10.03.2020
1240 Clear 28 1017 23 10000 2.6 200 11:42 10.03.2020
1241 Clear 28 1017 23 10000 2.6 200 11:24 10.03.2020
1242 Clear 27 1018 24 10000 2.6 190 10:58 10.03.2020
1243 Clear 27 1018 24 10000 2.6 190 10:39 10.03.2020
1244 Clear 27 1018 24 10000 2.6 190 10:19 10.03.2020
1245 Clear 25 1018 33 10000 2.6 200 09:55 10.03.2020
1246 Clear 25 1018 33 10000 2.6 200 09:36 10.03.2020
1247 Clear 25 1018 33 10000 2.6 200 09:18 10.03.2020
1248 Clear 27 1017 18 0 2.32 188 08:42 10.03.2020
1249 Clear 20 1018 49 8000 1.5 140 08:24 10.03.2020
1250 Clouds 20 1018 49 8000 1.5 140 07:45 10.03.2020
1251 Clouds 20 1018 49 8000 1.5 140 07:27 10.03.2020
1252 Clouds 16 1018 59 7000 1.5 130 06:38 10.03.2020
1253 Clouds 10 1017 76 10000 1.5 150 05:58 10.03.2020
1254 Clouds 10 1017 76 10000 1.5 150 05:38 10.03.2020
1255 Clouds 12 1016 71 10000 1 0 04:34 10.03.2020
1256 Clouds 11 1016 71 10000 1 0 03:31 10.03.2020
1257 Clouds 13 1015 66 10000 1 290 01:43 10.03.2020
1258 Clouds 14 1015 62 10000 1 160 00:52 10.03.2020
1259 Clouds 14 1015 62 10000 1 160 00:30 10.03.2020
1260 Clouds 13 1016 62 10000 0.5 140 23:56 09.03.2020
1261 Clouds 13 1016 62 10000 0.5 140 23:37 09.03.2020
1262 Clouds 13 1016 62 10000 0.5 140 23:19 09.03.2020
1263 Clouds 15 1016 58 10000 1.47 244 22:40 09.03.2020
1264 Clouds 15 1016 58 10000 1.47 244 22:21 09.03.2020
1265 Clouds 17 1016 51 10000 1.5 300 21:47 09.03.2020
1266 Clouds 17 1016 51 10000 1.5 300 21:22 09.03.2020
1267 Clouds 18 1016 48 10000 1.5 330 20:59 09.03.2020
1268 Clouds 18 1016 48 10000 1.5 330 20:41 09.03.2020
1269 Clouds 18 1016 48 10000 1.5 330 20:41 09.03.2020
1270 Clouds 18 1016 48 10000 1.5 330 20:23 09.03.2020
1271 Clear 18 1015 45 10000 2.1 300 19:59 09.03.2020
1272 Clear 18 1015 45 10000 2.1 300 19:41 09.03.2020
1273 Clear 18 1015 45 10000 2.1 300 19:20 09.03.2020
1274 Clear 22 1015 35 10000 2.1 280 18:57 09.03.2020
1275 Clear 22 1015 35 10000 2.1 280 18:38 09.03.2020
1276 Clear 22 1015 35 10000 2.1 280 18:18 09.03.2020
1277 Clear 22 1015 33 10000 2.6 290 17:56 09.03.2020
1278 Clear 22 1015 33 10000 2.6 290 17:37 09.03.2020
1279 Clear 22 1015 33 10000 2.6 290 17:19 09.03.2020
1280 Clear 26 1014 24 10000 3.1 320 16:56 09.03.2020
1281 Clear 26 1014 24 10000 3.1 320 16:38 09.03.2020
1282 Clear 28 1014 18 10000 2.6 320 16:20 09.03.2020
1283 Clear 28 1014 18 10000 2.6 320 15:56 09.03.2020
1284 Clear 28 1014 18 10000 2.6 320 15:38 09.03.2020
1285 Clear 28 1014 18 10000 2.6 320 15:18 09.03.2020
1286 Clear 28 1014 20 10000 3.1 310 14:39 09.03.2020
1287 Clear 28 1014 20 10000 3.1 310 14:21 09.03.2020
1288 Clear 28 1014 21 10000 4.1 330 13:59 09.03.2020
1289 Clear 28 1014 21 10000 4.1 330 13:59 09.03.2020
1290 Clear 28 1014 21 10000 4.1 330 13:39 09.03.2020
1291 Clear 28 1014 21 10000 4.1 330 13:39 09.03.2020
1292 Clear 28 1014 21 10000 4.1 330 13:21 09.03.2020
1293 Clear 28 1015 23 10000 4.6 300 12:59 09.03.2020
1294 Clear 28 1015 23 10000 4.6 300 12:39 09.03.2020
1295 Clear 28 1015 23 10000 4.6 300 12:19 09.03.2020
1296 Clear 27 1015 26 10000 4.1 300 11:40 09.03.2020
1297 Clear 27 1015 26 10000 4.1 300 11:40 09.03.2020
1298 Clear 27 1015 26 10000 4.1 300 11:20 09.03.2020
1299 Clear 25 1016 33 10000 3.6 290 10:58 09.03.2020
1300 Clear 25 1016 33 10000 3.6 290 10:40 09.03.2020
1301 Clear 25 1016 33 10000 3.6 290 10:19 09.03.2020
1302 Clear 23 1017 40 10000 3.6 320 09:42 09.03.2020
1303 Clear 23 1017 40 10000 3.6 320 09:24 09.03.2020
1304 Clear 19 1017 52 10000 3.6 330 08:54 09.03.2020
1305 Clear 19 1017 52 10000 3.6 330 08:36 09.03.2020
1306 Clear 19 1017 52 10000 3.6 330 08:18 09.03.2020
1307 Clear 17 1017 59 10000 4.6 300 07:39 09.03.2020
1308 Clear 17 1017 59 10000 4.6 300 07:21 09.03.2020
1309 Clear 15 1017 67 10000 4.6 290 06:43 09.03.2020
1310 Clear 15 1017 67 10000 4.6 290 06:23 09.03.2020
1311 Clear 13 1016 76 10000 3.6 290 05:46 09.03.2020
1312 Clear 14 1016 67 10000 3.6 290 04:59 09.03.2020
1313 Clear 14 1016 67 10000 3.6 290 04:40 09.03.2020
1314 Clear 14 1016 67 10000 3.6 290 04:21 09.03.2020
1315 Clear 15 1016 62 10000 3.6 270 02:56 09.03.2020
1316 Clear 16 1016 59 10000 3.6 280 00:46 09.03.2020
1317 Clear 16 1016 59 10000 3.6 280 00:28 09.03.2020
1318 Clear 15 1016 58 10000 2.6 290 23:59 08.03.2020
1319 Clear 15 1016 58 10000 2.6 290 23:41 08.03.2020
1320 Clear 15 1016 58 10000 2.6 290 23:21 08.03.2020
1321 Clear 16 1017 55 10000 2.6 280 22:55 08.03.2020
1322 Clear 16 1017 55 10000 2.6 280 22:37 08.03.2020
1323 Clear 16 1017 55 10000 2.6 280 22:18 08.03.2020
1324 Clear 16 1017 55 10000 2.1 280 21:42 08.03.2020
1325 Clear 16 1017 55 10000 2.1 280 21:42 08.03.2020
1326 Clear 16 1017 55 10000 2.1 280 21:23 08.03.2020
1327 Clear 18 1017 52 10000 2.1 280 20:59 08.03.2020
1328 Clear 18 1017 52 10000 2.1 280 20:39 08.03.2020
1329 Clear 18 1017 52 10000 2.1 280 20:20 08.03.2020
1330 Clear 18 1017 52 10000 2.6 310 19:41 08.03.2020
1331 Clear 18 1017 52 10000 2.6 310 19:20 08.03.2020
1332 Clear 18 1017 52 10000 2.6 310 18:58 08.03.2020
1333 Clear 18 1017 48 10000 3.1 310 18:39 08.03.2020
1334 Clear 18 1017 48 10000 3.1 310 18:20 08.03.2020
1335 Clear 20 1016 41 0 4.97 306 17:41 08.03.2020
1336 Clear 23 1016 35 10000 4.6 310 17:22 08.03.2020
1337 Clear 23 1016 35 10000 4.6 310 16:59 08.03.2020
1338 Clear 23 1016 35 10000 4.6 310 16:41 08.03.2020
1339 Clear 23 1016 35 10000 4.6 310 16:22 08.03.2020
1340 Clear 24 1016 33 10000 5.7 330 15:55 08.03.2020
1341 Clear 24 1016 33 10000 5.7 330 15:37 08.03.2020
1342 Clear 24 1016 33 10000 5.7 330 15:18 08.03.2020
1343 Clear 25 1015 33 10000 5.1 330 14:40 08.03.2020
1344 Clear 25 1015 33 10000 5.1 330 14:21 08.03.2020
1345 Clear 25 1016 33 10000 4.1 320 13:55 08.03.2020
1346 Clear 25 1016 33 10000 4.1 320 13:36 08.03.2020
1347 Clear 25 1016 33 10000 4.1 320 13:18 08.03.2020
1348 Clear 24 1016 38 10000 5.7 290 12:38 08.03.2020
1349 Clear 24 1016 38 10000 5.7 290 12:18 08.03.2020
1350 Clear 24 1016 36 10000 3.1 330 11:42 08.03.2020
1351 Clear 22 1017 37 9000 3.1 340 11:24 08.03.2020
1352 Clear 22 1017 37 9000 3.1 340 10:58 08.03.2020
1353 Clear 22 1017 37 9000 3.1 340 10:40 08.03.2020
1354 Clear 22 1017 37 9000 3.1 340 10:21 08.03.2020
1355 Dust 21 1017 43 5000 3.6 340 09:40 08.03.2020
1356 Dust 21 1017 43 5000 3.6 340 09:22 08.03.2020
1357 Dust 18 1017 55 5000 3.1 360 08:49 08.03.2020
1358 Dust 18 1017 55 5000 3.1 360 08:24 08.03.2020
1359 Clear 16 1017 63 6000 4.1 320 07:50 08.03.2020
1360 Clear 16 1017 63 6000 4.1 320 07:28 08.03.2020
1361 -273 0 0 0 0 0 06:51 08.03.2020
1362 Clear 14 1017 67 8000 3.1 300 06:33 08.03.2020
1363 Clear 12 1016 71 10000 2.1 300 05:49 08.03.2020
1364 Clouds 12 1015 71 10000 2.6 310 04:24 08.03.2020
1365 Clouds 12 1015 76 10000 2.6 340 03:19 08.03.2020
1366 Clear 13 1015 71 10000 2.6 330 02:27 08.03.2020
1367 Clouds 15 1014 58 10000 5.7 290 01:21 08.03.2020
1368 Clouds 15 1014 58 10000 5.7 290 00:42 08.03.2020
1369 Clouds 15 1014 58 10000 5.1 300 00:22 08.03.2020
1370 Clouds 15 1014 58 10000 5.1 300 23:43 07.03.2020
1371 Clouds 16 1013 55 10000 4.1 80 23:21 07.03.2020
1372 Clouds 17 1014 51 10000 5.1 30 22:38 07.03.2020
1373 Clouds 17 1014 51 10000 5.1 30 22:20 07.03.2020
1374 Clouds 17 1014 51 10000 4.1 40 21:47 07.03.2020
1375 Clouds 17 1013 55 10000 4.1 50 21:24 07.03.2020
1376 Clouds 17 1013 59 10000 4.1 50 20:42 07.03.2020
1377 Clouds 17 1013 59 10000 3.1 30 20:23 07.03.2020
1378 Clouds 17 1013 59 10000 3.1 30 20:23 07.03.2020
1379 Haze 16 1015 41 9000 3.6 320 19:58 07.03.2020
1380 Haze 16 1015 41 9000 3.6 320 19:40 07.03.2020
1381 Rain 17 1012 59 10000 3.1 360 19:20 07.03.2020
1382 Rain 18 1011 55 10000 2.1 50 18:41 07.03.2020
1383 Rain 18 1011 55 10000 2.1 50 18:22 07.03.2020
1384 Rain 19 1010 52 10000 3.1 110 17:54 07.03.2020
1385 Rain 19 1010 52 10000 3.1 110 17:36 07.03.2020
1386 Clouds 19 1010 52 10000 3.1 110 17:18 07.03.2020
1387 Clouds 20 1009 42 0 2.82 112 16:42 07.03.2020
1388 Clouds 21 1009 43 10000 6.2 130 16:23 07.03.2020
1389 Clouds 21 1009 43 10000 6.2 130 15:57 07.03.2020
1390 Clouds 21 1009 43 10000 6.2 130 15:39 07.03.2020
1391 Clouds 21 1009 43 10000 6.2 130 15:39 07.03.2020
1392 Clouds 21 1009 43 10000 6.2 130 15:21 07.03.2020
1393 Clouds 22 1009 40 10000 6.2 120 14:56 07.03.2020
1394 Clouds 22 1009 40 10000 6.2 120 14:37 07.03.2020
1395 Clouds 22 1009 40 10000 6.2 120 14:19 07.03.2020
1396 Clouds 22 1008 40 10000 6.2 130 13:40 07.03.2020
1397 Clouds 22 1008 40 10000 6.2 130 13:20 07.03.2020
1398 Clouds 21 1009 43 10000 6.2 140 12:43 07.03.2020
1399 Clouds 21 1009 43 10000 6.2 140 12:21 07.03.2020
1400 Clouds 21 1008 43 10000 6.7 160 11:58 07.03.2020
1401 Clouds 21 1008 43 10000 6.7 160 11:39 07.03.2020
1402 Clouds 21 1008 43 10000 6.7 160 11:21 07.03.2020
1403 Clouds 21 1009 40 10000 7.2 180 10:42 07.03.2020
1404 Clouds 20 1009 45 10000 5.1 160 10:21 07.03.2020
1405 Clouds 19 1009 48 10000 5.7 170 09:58 07.03.2020
1406 Clouds 19 1009 48 10000 5.7 170 09:39 07.03.2020
1407 Clouds 19 1009 48 10000 5.7 170 09:19 07.03.2020
1408 Clouds 18 1009 48 10000 3.6 190 08:44 07.03.2020
1409 Clouds 18 1009 48 10000 3.6 190 08:21 07.03.2020
1410 Clouds 17 1008 51 10000 5.1 210 07:56 07.03.2020
1411 Clouds 19 1008 41 0 3.39 221 07:37 07.03.2020
1412 Clouds 19 1008 41 0 3.39 221 07:19 07.03.2020
1413 Clouds 19 1008 41 0 3.39 221 06:37 07.03.2020
1414 Clouds 19 1008 41 0 3.39 221 05:57 07.03.2020
1415 Clouds 19 1008 41 0 3.39 221 05:33 07.03.2020
1416 Clouds 17 1006 39 0 5.98 164 02:58 07.03.2020
1417 Clouds 17 1006 39 0 5.98 164 02:35 07.03.2020
1418 Rain 21 1005 37 10000 8.7 140 01:46 07.03.2020
1419 Rain 21 1005 37 10000 9.8 140 00:42 07.03.2020
1420 Rain 21 1005 37 10000 9.8 140 00:23 07.03.2020
1421 Rain 21 1005 40 10000 11.3 140 23:56 06.03.2020
1422 Rain 21 1005 40 10000 11.3 140 23:38 06.03.2020
1423 Clouds 21 1005 40 10000 11.3 140 23:19 06.03.2020
1424 Clouds 22 1005 35 10000 10.3 130 22:42 06.03.2020
1425 Clouds 22 1005 35 10000 10.3 130 22:18 06.03.2020
1426 Clouds 22 1004 37 10000 11.3 120 21:45 06.03.2020
1427 Clouds 22 1004 37 10000 11.3 120 21:19 06.03.2020
1428 Clouds 22 1005 37 10000 10.3 120 20:40 06.03.2020
1429 Clouds 22 1005 37 10000 10.3 120 20:21 06.03.2020
1430 Clear 22 1006 35 10000 10.3 120 19:54 06.03.2020
1431 Clear 22 1006 35 10000 10.3 120 19:36 06.03.2020
1432 Clear 22 1006 35 10000 10.3 120 19:18 06.03.2020
1433 Clear 22 1006 43 10000 8.2 120 18:41 06.03.2020
1434 Clear 22 1006 43 10000 8.2 120 18:20 06.03.2020
1435 Clear 22 1006 43 10000 8.2 120 18:19 06.03.2020
1436 Clear 23 1007 38 10000 8.7 120 17:56 06.03.2020
1437 Clear 23 1007 38 10000 8.7 120 17:36 06.03.2020
1438 Clear 24 1007 38 10000 8.2 140 17:18 06.03.2020
1439 Clear 24 1007 38 10000 8.2 140 16:42 06.03.2020
1440 Clear 24 1007 38 10000 8.2 140 16:20 06.03.2020
1441 Clear 25 1007 33 10000 9.8 130 15:58 06.03.2020
1442 Clear 25 1007 33 10000 9.8 130 15:39 06.03.2020
1443 Clear 25 1007 33 10000 9.8 130 15:20 06.03.2020
1444 Clear 25 1007 31 10000 10.8 110 14:39 06.03.2020
1445 Clear 25 1007 31 10000 10.8 110 14:20 06.03.2020
1446 Clear 26 1009 29 10000 9.3 120 13:43 06.03.2020
1447 Clear 26 1009 29 10000 9.3 120 13:23 06.03.2020
1448 Clear 26 1010 29 10000 8.7 130 12:58 06.03.2020
1449 Clear 26 1010 29 10000 8.7 130 12:38 06.03.2020
1450 Clear 26 1010 29 10000 8.7 130 12:38 06.03.2020
1451 Clear 26 1010 29 10000 8.7 130 12:20 06.03.2020
1452 Clear 25 1010 33 10000 8.7 130 11:58 06.03.2020
1453 Clear 26 1009 18 0 9.83 129 11:40 06.03.2020
1454 Clear 25 1013 21 0 7.42 141 11:20 06.03.2020
1455 Clear 25 1013 21 0 7.42 141 10:40 06.03.2020
1456 Clear 23 1014 35 10000 6.7 140 10:21 06.03.2020
1457 Clear 23 1014 35 10000 6.7 140 09:56 06.03.2020
1458 Clear 23 1014 35 10000 6.7 140 09:37 06.03.2020
1459 Clear 23 1014 35 10000 6.7 140 09:19 06.03.2020
1460 Clear 21 1014 43 10000 5.7 140 08:46 06.03.2020
1461 Clear 21 1014 43 10000 5.7 140 08:27 06.03.2020
1462 Clouds 19 1015 45 10000 3.6 110 07:58 06.03.2020
1463 Clouds 19 1015 45 10000 3.6 110 07:39 06.03.2020
1464 Clouds 15 1014 58 7000 1.5 130 06:59 06.03.2020
1465 Clouds 15 1014 58 7000 1.5 130 06:41 06.03.2020
1466 Clouds 11 1014 71 6000 2.6 120 05:50 06.03.2020
1467 Clouds 11 1014 71 6000 2.6 120 05:31 06.03.2020
1468 Clouds 11 1014 71 8000 0.5 0 04:58 06.03.2020
1469 Clouds 11 1014 66 10000 2.23 123 02:56 06.03.2020
1470 Clouds 12 1014 62 10000 0.5 0 01:42 06.03.2020
1471 Clouds 12 1014 62 10000 0.5 0 01:23 06.03.2020
1472 Clouds 11 1014 71 10000 1 80 00:39 06.03.2020
1473 Clouds 11 1014 71 10000 1 80 00:19 06.03.2020
1474 Clouds 13 1015 62 10000 1.5 160 23:42 05.03.2020
1475 Clouds 13 1015 62 10000 1.5 160 23:22 05.03.2020
1476 Clear 13 1016 58 9000 1 0 22:41 05.03.2020
1477 Clear 13 1016 58 9000 1 0 22:23 05.03.2020
1478 Clear 14 1016 58 10000 1.5 10 21:58 05.03.2020
1479 Clear 14 1016 58 10000 1.5 10 21:39 05.03.2020
1480 Clear 14 1016 58 10000 1.5 10 21:21 05.03.2020
1481 Clear 16 1016 48 10000 0.5 0 20:59 05.03.2020
1482 Clear 16 1016 48 10000 0.5 0 20:41 05.03.2020
1483 Clear 16 1016 48 10000 0.5 0 20:41 05.03.2020
1484 Clear 16 1016 48 10000 0.5 0 20:20 05.03.2020
1485 Clear 18 1016 45 10000 1 0 19:58 05.03.2020
1486 Clear 18 1016 45 10000 1 0 19:39 05.03.2020
1487 Clear 18 1016 45 10000 1 0 19:19 05.03.2020
1488 Clear 20 1016 40 10000 1.5 260 18:58 05.03.2020
1489 Clear 20 1016 40 10000 1.5 260 18:37 05.03.2020
1490 Clear 20 1016 40 10000 1.5 260 18:18 05.03.2020
1491 Clear 20 1016 42 10000 2.1 330 17:54 05.03.2020
1492 Clear 20 1016 42 10000 2.1 330 17:36 05.03.2020
1493 Clear 20 1016 42 10000 2.1 330 17:18 05.03.2020
1494 Clear 22 1016 35 10000 2.6 330 16:41 05.03.2020
1495 Clear 22 1016 35 10000 2.6 330 16:22 05.03.2020
1496 Clear 24 1015 29 10000 1.5 290 15:46 05.03.2020
1497 Clear 24 1015 29 10000 1.5 290 15:24 05.03.2020
1498 Clear 25 1016 29 10000 3.6 280 14:59 05.03.2020
1499 Clear 25 1016 29 10000 3.6 280 14:41 05.03.2020
1500 Clear 25 1016 29 10000 3.6 280 14:22 05.03.2020
1501 Clear 25 1016 29 10000 2.1 0 13:57 05.03.2020
1502 Clear 25 1016 29 10000 2.1 0 13:38 05.03.2020
1503 Clear 25 1016 29 10000 2.1 0 13:20 05.03.2020
1504 Clear 24 1016 31 10000 3.6 260 12:43 05.03.2020
1505 Clear 24 1016 31 10000 3.6 260 12:21 05.03.2020
1506 Clear 24 1017 31 10000 4.6 250 11:58 05.03.2020
1507 Clear 24 1017 31 10000 4.6 250 11:39 05.03.2020
1508 Clear 24 1017 31 10000 4.6 250 11:20 05.03.2020
1509 Clear 22 1017 35 10000 4.1 280 10:58 05.03.2020
1510 Clear 22 1017 35 10000 4.1 280 10:58 05.03.2020
1511 Clear 22 1017 35 10000 4.1 280 10:40 05.03.2020
1512 Clear 22 1017 35 10000 4.1 280 10:21 05.03.2020
1513 Clear 21 1018 40 10000 4.1 290 09:59 05.03.2020
1514 Clear 21 1018 40 10000 4.1 290 09:40 05.03.2020
1515 Clear 21 1018 40 10000 4.1 290 09:21 05.03.2020
1516 Clear 19 1018 45 10000 3.6 300 08:43 05.03.2020
1517 Clear 19 1018 45 10000 3.6 300 08:24 05.03.2020
1518 Clear 17 1018 51 10000 4.1 300 07:45 05.03.2020
1519 Clear 17 1018 51 10000 4.1 300 07:22 05.03.2020
1520 Clear 13 1018 62 10000 2.6 310 06:46 05.03.2020
1521 Clear 13 1018 62 10000 2.6 310 06:21 05.03.2020
1522 Clear 10 1017 66 10000 1.5 310 05:38 05.03.2020
1523 Clear 11 1017 62 10000 2.1 280 04:26 05.03.2020
1524 Clear 12 1016 58 10000 2.6 270 03:59 05.03.2020
1525 Clear 12 1016 58 10000 2.6 270 03:19 05.03.2020
1526 Clear 12 1016 62 10000 3.1 280 01:29 05.03.2020
1527 Clear 12 1017 62 10000 2.6 260 00:58 05.03.2020
1528 Clear 12 1017 62 10000 2.6 260 00:25 05.03.2020
1529 Clear 13 1017 58 10000 2.6 280 23:42 04.03.2020
1530 Clear 13 1017 58 10000 2.6 280 23:22 04.03.2020
1531 Clear 13 1017 58 10000 2.6 270 22:57 04.03.2020
1532 Clear 13 1017 58 10000 2.6 270 22:39 04.03.2020
1533 Clear 13 1017 58 10000 2.6 270 22:19 04.03.2020
1534 Clear 13 1017 58 10000 2.6 270 22:19 04.03.2020
1535 Clear 15 1017 51 10000 2.6 280 21:57 04.03.2020
1536 Clear 15 1017 51 10000 2.6 280 21:38 04.03.2020
1537 Clear 15 1017 51 10000 2.6 280 21:20 04.03.2020
1538 Clear 15 1017 51 10000 2.1 260 20:54 04.03.2020
1539 Clear 15 1017 51 10000 2.1 260 20:36 04.03.2020
1540 Clear 15 1017 51 10000 2.1 260 20:18 04.03.2020
1541 Clear 16 1017 44 10000 3.1 290 19:42 04.03.2020
1542 Clear 16 1017 44 10000 3.1 290 19:22 04.03.2020
1543 Clear 16 1017 44 10000 3.1 300 18:54 04.03.2020
1544 Clear 16 1017 44 10000 3.1 300 18:36 04.03.2020
1545 Clear 16 1017 44 10000 3.1 300 18:18 04.03.2020
1546 Clear 19 1017 39 10000 4.6 290 17:40 04.03.2020
1547 Clear 19 1017 39 10000 4.6 290 17:21 04.03.2020
1548 Clear 21 1017 37 10000 6.2 290 16:59 04.03.2020
1549 Clear 21 1017 37 10000 6.2 290 16:40 04.03.2020
1550 Clear 21 1017 37 10000 6.2 290 16:22 04.03.2020
1551 Clear 22 1017 35 10000 7.2 310 15:55 04.03.2020
1552 Clear 22 1017 35 10000 7.2 310 15:36 04.03.2020
1553 Clear 22 1017 35 10000 7.2 310 15:18 04.03.2020
1554 Clear 23 1017 33 10000 7.2 300 14:41 04.03.2020
1555 Clear 23 1017 33 10000 7.2 300 14:21 04.03.2020
1556 Clear 23 1017 31 10000 7.7 310 13:59 04.03.2020
1557 Clear 23 1017 31 10000 7.7 310 13:40 04.03.2020
1558 Clear 23 1017 31 10000 7.7 310 13:21 04.03.2020
1559 Clear 23 1017 31 10000 7.7 310 13:21 04.03.2020
1560 Clear 23 1017 28 10000 7.7 310 12:59 04.03.2020
1561 Clear 23 1017 28 10000 7.7 310 12:41 04.03.2020
1562 -273 0 0 0 0 0 12:23 04.03.2020
1563 Clear 22 1018 33 10000 6.7 320 11:55 04.03.2020
1564 Clear 22 1018 33 10000 6.7 320 11:37 04.03.2020
1565 Clear 22 1018 33 10000 6.7 320 11:19 04.03.2020
1566 Clear 21 1019 35 10000 7.2 310 10:44 04.03.2020
1567 Clear 21 1019 35 10000 7.2 310 10:25 04.03.2020
1568 Clear 20 1020 40 10000 7.7 290 09:56 04.03.2020
1569 Clear 20 1020 40 10000 7.7 290 09:38 04.03.2020
1570 Clear 20 1020 40 10000 7.7 290 09:18 04.03.2020
1571 Clear 18 1020 48 10000 7.2 310 08:41 04.03.2020
1572 Clear 18 1020 48 10000 7.2 310 08:23 04.03.2020
1573 Clear 16 1020 55 10000 6.7 300 07:48 04.03.2020
1574 Clear 16 1020 55 10000 6.7 300 07:29 04.03.2020
1575 Clear 13 1020 66 10000 5.1 290 06:51 04.03.2020
1576 Clear 13 1020 66 10000 5.1 290 06:26 04.03.2020
1577 Clear 11 1020 76 10000 3.1 290 05:58 04.03.2020
1578 -273 0 0 0 0 0 05:21 04.03.2020
1579 Clear 11 1020 76 10000 3.1 290 05:21 04.03.2020
1580 Clear 9 1019 76 10000 3.6 310 03:54 04.03.2020
1581 Clear 9 1019 76 10000 3.6 310 03:35 04.03.2020
1582 Clear 10 1019 76 10000 4.1 320 02:58 04.03.2020
1583 Clear 10 1019 76 10000 4.1 320 02:27 04.03.2020
1584 Clear 10 1020 71 10000 3.1 300 01:56 04.03.2020
1585 Clear 10 1020 71 10000 3.1 300 01:33 04.03.2020
1586 Clear 11 1020 66 10000 3.6 300 00:41 04.03.2020
1587 Clear 11 1020 66 10000 3.6 300 00:21 04.03.2020
1588 Clear 13 1021 62 10000 4.1 300 23:43 03.03.2020
1589 Clear 13 1021 62 10000 4.1 300 23:23 03.03.2020
1590 Clear 13 1021 62 10000 4.1 300 22:56 03.03.2020
1591 Clear 13 1021 62 10000 4.1 300 22:37 03.03.2020
1592 Clear 13 1021 62 10000 4.1 300 22:18 03.03.2020
1593 Clear 12 1021 66 10000 3.1 300 21:43 03.03.2020
1594 Clear 12 1021 66 10000 3.1 300 21:22 03.03.2020
1595 Clear 15 1021 54 10000 3.1 290 20:58 03.03.2020
1596 Clear 15 1021 54 10000 3.1 290 20:39 03.03.2020
1597 Clear 15 1021 54 10000 3.1 290 20:19 03.03.2020
1598 Clear 16 1021 55 10000 3.6 280 19:56 03.03.2020
1599 Clear 16 1021 55 10000 3.6 280 19:56 03.03.2020
1600 Clear 16 1021 55 10000 3.6 280 19:37 03.03.2020
1601 Clear 16 1021 55 10000 3.6 280 19:37 03.03.2020
1602 Clear 16 1021 55 10000 3.6 280 19:18 03.03.2020
1603 Clear 17 1021 51 10000 4.6 280 18:57 03.03.2020
1604 Clear 17 1021 51 10000 4.6 280 18:38 03.03.2020
1605 Clear 17 1021 51 10000 4.6 280 18:19 03.03.2020
1606 Clear 17 1021 51 10000 5.1 290 17:55 03.03.2020
1607 Clear 17 1021 51 10000 5.1 290 17:36 03.03.2020
1608 Clear 17 1021 51 10000 5.1 290 17:18 03.03.2020
1609 Clouds 18 1020 45 10000 4.6 310 16:55 03.03.2020
1610 Clouds 18 1020 45 10000 4.6 310 16:36 03.03.2020
1611 Clouds 18 1020 45 10000 4.6 310 16:18 03.03.2020
1612 Clouds 20 1020 37 10000 7.2 310 15:41 03.03.2020
1613 Clouds 20 1020 37 10000 7.2 310 15:21 03.03.2020
1614 Clouds 21 1020 37 10000 5.1 330 14:54 03.03.2020
1615 Clouds 21 1020 37 10000 5.1 330 14:54 03.03.2020
1616 Clouds 21 1020 37 10000 5.1 330 14:36 03.03.2020
1617 Clouds 21 1020 37 10000 5.1 330 14:18 03.03.2020
1618 Clouds 20 1020 40 10000 5.7 320 13:42 03.03.2020
1619 Clouds 20 1020 40 10000 5.7 320 13:24 03.03.2020
1620 Clouds 20 1020 40 10000 5.7 310 12:55 03.03.2020
1621 Clouds 21 1021 37 10000 4.1 310 12:36 03.03.2020
1622 Clouds 21 1021 37 10000 4.1 310 12:18 03.03.2020
1623 Clouds 20 1021 40 10000 4.6 330 11:38 03.03.2020
1624 Clouds 20 1021 40 10000 4.6 330 11:19 03.03.2020
1625 Clouds 20 1022 40 10000 4.1 330 10:57 03.03.2020
1626 Clouds 20 1022 40 10000 4.1 330 10:39 03.03.2020
1627 Clouds 20 1022 40 10000 4.1 330 10:19 03.03.2020
1628 Clear 19 1023 39 10000 3.1 340 09:45 03.03.2020
1629 Clear 19 1023 39 10000 3.1 340 09:23 03.03.2020
1630 Clear 17 1023 48 10000 2.6 340 08:59 03.03.2020
1631 Clear 17 1023 48 10000 2.6 340 08:40 03.03.2020
1632 Clear 17 1023 48 10000 2.6 340 08:22 03.03.2020
1633 Clear 14 1023 62 10000 2.1 300 07:44 03.03.2020
1634 Clear 14 1023 62 10000 2.1 300 07:24 03.03.2020
1635 Clear 11 1023 71 10000 2.6 290 06:55 03.03.2020
1636 Clear 11 1023 71 10000 2.6 290 06:27 03.03.2020
1637 Clear 8 1022 70 9000 2.1 270 05:49 03.03.2020
1638 Clear 8 1022 70 9000 2.1 270 05:31 03.03.2020
1639 Clear 7 1021 75 10000 2.1 310 04:48 03.03.2020
1640 Clear 9 1020 66 10000 1.5 260 02:37 03.03.2020
1641 Clear 10 1020 61 10000 1 230 01:21 03.03.2020
1642 Clear 8 1020 70 10000 1 0 00:40 03.03.2020
1643 Clear 8 1020 70 10000 1 0 00:20 03.03.2020
1644 Clear 11 1021 62 10000 0.5 0 23:46 02.03.2020
1645 Clear 11 1021 62 10000 0.5 0 23:23 02.03.2020
1646 Clear 11 1021 66 10000 1 200 22:57 02.03.2020
1647 Clear 11 1021 66 10000 1 200 22:38 02.03.2020
1648 Clear 11 1021 66 10000 1 200 22:19 02.03.2020
1649 Clear 11 1021 62 10000 1 0 21:55 02.03.2020
1650 Clear 11 1021 62 10000 1 0 21:36 02.03.2020
1651 Clear 11 1021 62 10000 1 0 21:18 02.03.2020
1652 Clear 13 1021 54 10000 0.5 0 20:41 02.03.2020
1653 Clear 13 1021 54 10000 0.5 0 20:22 02.03.2020
1654 Clear 14 1020 50 10000 3.11 305 19:59 02.03.2020
1655 Clear 14 1020 50 10000 3.11 305 19:39 02.03.2020
1656 Clear 14 1020 50 10000 3.11 305 19:21 02.03.2020
1657 Clear 15 1020 47 10000 0.5 60 18:56 02.03.2020
1658 Clear 15 1020 47 10000 0.5 60 18:38 02.03.2020
1659 Clear 15 1020 47 10000 0.5 60 18:18 02.03.2020
1660 Clear 16 1019 44 10000 1.5 330 17:56 02.03.2020
1661 Clear 16 1019 44 10000 1.5 330 17:38 02.03.2020
1662 Clear 16 1019 44 10000 1.5 330 17:20 02.03.2020
1663 Clouds 18 1019 36 10000 4.1 330 16:42 02.03.2020
1664 Clouds 18 1019 36 10000 4.1 330 16:23 02.03.2020
1665 Clouds 19 1019 32 10000 5.7 290 15:56 02.03.2020
1666 Clouds 19 1019 32 10000 5.7 290 15:56 02.03.2020
1667 Clouds 19 1019 32 10000 5.7 290 15:38 02.03.2020
1668 Clouds 19 1019 32 10000 5.7 290 15:18 02.03.2020
1669 Clouds 20 1018 32 10000 5.7 280 14:39 02.03.2020
1670 Clouds 20 1018 32 10000 5.7 280 14:19 02.03.2020
1671 Clouds 20 1018 30 10000 4.6 290 13:55 02.03.2020
1672 Clouds 20 1018 30 10000 4.6 290 13:36 02.03.2020
1673 Clouds 20 1018 30 10000 4.6 290 13:18 02.03.2020
1674 Clouds 19 1018 32 10000 6.7 280 12:41 02.03.2020
1675 Clouds 19 1018 32 10000 6.7 280 12:19 02.03.2020
1676 Clear 19 1018 37 10000 6.7 300 11:39 02.03.2020
1677 Clear 19 1018 37 10000 6.7 300 11:21 02.03.2020
1678 Clouds 18 1019 39 10000 6.2 270 10:58 02.03.2020
1679 Clouds 18 1019 39 10000 6.2 270 10:38 02.03.2020
1680 Clouds 18 1019 39 10000 6.2 270 10:19 02.03.2020
1681 Clear 17 1019 51 10000 4.1 260 09:51 02.03.2020
1682 Clear 17 1019 51 10000 4.1 260 09:31 02.03.2020
1683 Clear 15 1019 58 10000 4.1 260 08:49 02.03.2020
1684 Clear 15 1019 58 10000 4.1 260 08:24 02.03.2020
1685 Clear 14 1019 62 10000 5.1 270 07:52 02.03.2020
1686 Clear 14 1019 62 10000 5.1 270 07:33 02.03.2020
1687 Clear 11 1018 76 10000 4.1 260 06:53 02.03.2020
1688 Clear 11 1018 76 10000 4.1 260 06:28 02.03.2020
1689 Clear 10 1017 76 10000 2.6 230 05:27 02.03.2020
1690 Clear 10 1015 76 10000 3.1 210 03:59 02.03.2020
1691 Clear 10 1015 76 10000 3.1 210 03:19 02.03.2020
1692 Clear 10 1015 76 10000 2.6 200 02:32 02.03.2020
1693 Clouds 11 1014 71 10000 3.1 230 01:40 02.03.2020
1694 Clouds 11 1014 71 10000 3.1 230 01:22 02.03.2020
1695 Clouds 12 1015 66 10000 4.1 200 00:22 02.03.2020
1696 Clouds 12 1014 71 10000 2.6 210 23:56 01.03.2020
1697 Clouds 12 1014 71 10000 2.6 210 23:37 01.03.2020
1698 Clouds 12 1014 71 10000 2.6 210 23:18 01.03.2020
1699 Clouds 12 1014 66 10000 3.1 240 22:36 01.03.2020
1700 Clouds 12 1014 66 10000 3.1 240 22:18 01.03.2020
1701 Clouds 12 1014 66 10000 3.6 220 21:42 01.03.2020
1702 Clouds 12 1014 66 10000 3.6 220 21:24 01.03.2020
1703 Clouds 12 1014 62 10000 4.1 220 20:58 01.03.2020
1704 Clouds 12 1014 62 10000 4.1 220 20:39 01.03.2020
1705 Clouds 12 1014 62 10000 4.1 220 20:21 01.03.2020
1706 Clouds 13 1013 58 10000 3.6 210 19:42 01.03.2020
1707 Clouds 13 1013 58 10000 3.6 210 19:23 01.03.2020
1708 Clouds 15 1012 51 10000 4.1 250 18:58 01.03.2020
1709 Clouds 15 1012 51 10000 4.1 250 18:39 01.03.2020
1710 Clouds 15 1012 51 10000 4.1 250 18:19 01.03.2020
1711 Clouds 15 1011 51 10000 3.6 250 17:57 01.03.2020
1712 Clouds 15 1011 51 10000 3.6 250 17:38 01.03.2020
1713 Clouds 15 1011 51 10000 3.6 250 17:20 01.03.2020
1714 Clouds 15 1011 51 10000 8.2 230 16:55 01.03.2020
1715 Clouds 15 1011 51 10000 8.2 230 16:37 01.03.2020
1716 Clouds 15 1011 51 10000 8.2 230 16:18 01.03.2020
1717 Clouds 18 1009 45 10000 4.1 290 15:56 01.03.2020
1718 Clouds 18 1009 45 10000 4.1 290 15:37 01.03.2020
1719 Clouds 18 1009 45 10000 4.1 290 15:37 01.03.2020
1720 Clouds 18 1009 45 10000 4.1 290 15:18 01.03.2020
1721 Clouds 20 1009 34 10000 6.2 250 14:55 01.03.2020
1722 Clouds 20 1009 34 10000 6.2 250 14:37 01.03.2020
1723 Clouds 20 1009 34 10000 6.2 250 14:18 01.03.2020
1724 Clouds 19 1009 39 10000 7.2 270 13:44 01.03.2020
1725 Clouds 19 1009 39 10000 7.2 270 13:21 01.03.2020
1726 Clouds 19 1009 39 10000 6.7 280 12:59 01.03.2020
1727 Clouds 19 1009 39 10000 6.7 280 12:41 01.03.2020
1728 Clouds 19 1009 39 10000 6.7 280 12:20 01.03.2020
1729 Clouds 19 1009 39 10000 7.7 280 11:42 01.03.2020
1730 Clouds 19 1009 39 10000 7.7 280 11:23 01.03.2020
1731 Clouds 19 1010 39 10000 6.2 270 10:57 01.03.2020
1732 Clouds 19 1010 39 10000 6.2 270 10:38 01.03.2020
1733 Clouds 19 1010 39 10000 6.2 270 10:19 01.03.2020
1734 Clouds 19 1010 39 10000 6.2 270 10:19 01.03.2020
1735 Clouds 19 1010 45 10000 8.2 250 09:55 01.03.2020
1736 Clouds 19 1010 45 10000 8.2 250 09:36 01.03.2020
1737 Clear 19 1010 45 10000 8.2 250 09:18 01.03.2020
1738 Haze 19 1010 52 3800 4.1 270 08:39 01.03.2020
1739 Haze 19 1010 52 3800 4.1 270 08:19 01.03.2020
1740 Clear 16 1011 67 6000 1.5 200 07:42 01.03.2020
1741 Clear 16 1011 67 6000 1.5 200 07:23 01.03.2020
1742 Mist 13 1010 76 4600 1 90 06:54 01.03.2020
1743 Mist 13 1010 76 4600 1 90 06:36 01.03.2020
1744 Clear 11 1009 81 8000 1.5 270 04:26 01.03.2020
1745 Clear 13 1009 76 9000 2.6 180 02:54 01.03.2020
1746 Clear 13 1009 76 9000 3.1 130 01:53 01.03.2020
1747 Clear 13 1009 76 9000 3.1 130 01:22 01.03.2020
1748 Clear 14 1009 71 10000 4.1 140 00:43 01.03.2020
1749 Clear 14 1009 71 10000 4.1 140 00:21 01.03.2020
1750 Clear 15 1009 72 10000 3.6 110 23:51 29.02.2020
1751 Clear 15 1009 72 10000 3.6 110 23:32 29.02.2020
1752 Clear 15 1010 67 10000 3.1 100 22:44 29.02.2020
1753 Clear 15 1010 67 10000 3.1 100 22:25 29.02.2020
1754 Clear 15 1010 67 10000 4.1 100 21:44 29.02.2020
1755 Clear 15 1010 67 10000 4.1 100 21:26 29.02.2020
1756 Clear 16 1011 63 10000 2.6 110 20:45 29.02.2020
1757 Clear 16 1011 63 10000 2.6 110 20:22 29.02.2020
1758 Clear 16 1011 63 10000 3.1 100 19:58 29.02.2020
1759 Clear 16 1011 63 10000 3.1 100 19:39 29.02.2020
1760 Clear 16 1011 63 10000 3.1 100 19:39 29.02.2020
1761 Clear 16 1011 63 10000 3.1 100 19:21 29.02.2020
1762 Clear 17 1011 59 10000 2.6 110 18:44 29.02.2020
1763 Clear 17 1011 59 10000 2.6 110 18:25 29.02.2020
1764 Clear 18 1010 55 10000 2.6 120 17:59 29.02.2020
1765 Clear 18 1010 55 10000 2.6 120 17:40 29.02.2020
1766 Clear 18 1010 55 10000 2.6 120 17:21 29.02.2020
1767 Clear 21 1010 46 10000 4.1 130 16:57 29.02.2020
1768 Clear 21 1010 46 10000 4.1 130 16:39 29.02.2020
1769 Clear 21 1010 46 10000 4.1 130 16:18 29.02.2020
1770 Clear 21 1010 35 0 4.05 125 15:42 29.02.2020
1771 Clear 23 1010 35 10000 4.1 110 15:23 29.02.2020
1772 Clear 23 1010 35 10000 4.1 110 14:56 29.02.2020
1773 Clear 23 1010 35 10000 4.1 110 14:38 29.02.2020
1774 Clear 23 1010 35 10000 4.1 110 14:20 29.02.2020
1775 Clouds 22 1010 40 10000 4.6 120 13:42 29.02.2020
1776 Clouds 22 1010 40 10000 4.6 120 13:23 29.02.2020
1777 Clear 23 1010 38 9000 4.6 130 12:43 29.02.2020
1778 Clear 23 1010 38 9000 4.6 130 12:23 29.02.2020
1779 Clear 22 1011 40 10000 3.6 130 11:59 29.02.2020
1780 Clear 22 1011 40 10000 3.6 130 11:40 29.02.2020
1781 Clear 22 1011 40 10000 3.6 130 11:22 29.02.2020
1782 Clear 21 1012 46 6000 3.6 130 10:49 29.02.2020
1783 Clear 21 1012 46 6000 3.6 130 10:29 29.02.2020
1784 Dust 20 1013 49 2700 4.1 130 09:51 29.02.2020
1785 Dust 20 1013 49 2700 4.1 130 09:27 29.02.2020
1786 Clear 19 1013 52 4200 3.1 120 08:58 29.02.2020
1787 Clear 19 1013 52 4200 3.1 120 08:38 29.02.2020
1788 Clear 19 1013 52 4200 3.1 120 08:19 29.02.2020
1789 Clear 16 1014 63 8000 2.1 140 07:45 29.02.2020
1790 Clear 16 1014 63 8000 2.1 140 07:19 29.02.2020
1791 Clear 14 1014 71 5000 1.5 130 06:51 29.02.2020
1792 Clear 14 1014 71 5000 1.5 130 06:26 29.02.2020
1793 Clear 11 1014 81 3900 0.5 110 05:48 29.02.2020
1794 Clear 10 1014 81 6000 1 150 05:21 29.02.2020
1795 Clear 11 1013 87 7000 1 90 03:44 29.02.2020
1796 Clear 11 1013 87 7000 1 90 03:23 29.02.2020
1797 Clear 10 1013 87 8000 1 50 02:42 29.02.2020
1798 Clear 11 1013 87 8000 0.5 0 01:32 29.02.2020
1799 Clear 11 1014 76 9000 0.5 120 00:44 29.02.2020
1800 Clear 11 1014 76 9000 0.5 120 00:25 29.02.2020
1801 Clear 13 1015 71 9000 1.5 140 23:38 28.02.2020
1802 Clear 13 1015 71 9000 1.5 140 23:38 28.02.2020
1803 Clear 13 1015 71 9000 1.5 140 23:20 28.02.2020
1804 Clear 14 1015 67 9000 1.5 120 22:42 28.02.2020
1805 Clear 14 1015 67 9000 1.5 120 22:22 28.02.2020
1806 Clear 15 1015 58 9000 1.5 150 21:42 28.02.2020
1807 Clear 15 1015 58 9000 1.5 150 21:21 28.02.2020
1808 Clear 15 1016 62 9000 1 0 20:56 28.02.2020
1809 Clear 15 1016 62 9000 1 0 20:38 28.02.2020
1810 Clear 15 1016 62 9000 1 0 20:38 28.02.2020
1811 Clouds 15 1016 62 9000 1 0 20:19 28.02.2020
1812 Clouds 15 1016 62 9000 1 150 19:56 28.02.2020
1813 Clouds 15 1016 62 9000 1 150 19:37 28.02.2020
1814 Clouds 15 1016 62 9000 1 150 19:19 28.02.2020
1815 Clouds 17 1016 59 10000 1.5 350 18:46 28.02.2020
1816 Clouds 17 1016 59 10000 1.5 350 18:23 28.02.2020
1817 Clouds 18 1015 52 10000 1.5 350 17:41 28.02.2020
1818 Clouds 18 1015 52 10000 1.5 350 17:23 28.02.2020
1819 Clouds 18 1015 52 10000 1.5 350 17:23 28.02.2020
1820 Clouds 20 1015 45 10000 2.1 340 16:57 28.02.2020
1821 Clouds 20 1015 45 10000 2.1 340 16:38 28.02.2020
1822 Clouds 20 1015 45 10000 2.1 340 16:19 28.02.2020
1823 Clouds 21 1016 43 10000 2.6 340 15:55 28.02.2020
1824 Clouds 21 1016 43 10000 2.6 340 15:37 28.02.2020
1825 Clouds 21 1016 43 10000 2.6 340 15:18 28.02.2020
1826 Clouds 22 1016 40 10000 2.1 310 14:42 28.02.2020
1827 Clouds 22 1016 40 10000 2.1 310 14:19 28.02.2020
1828 Clouds 22 1016 40 10000 3.1 300 13:58 28.02.2020
1829 Clouds 22 1016 40 10000 3.1 300 13:40 28.02.2020
1830 Clouds 22 1016 40 10000 3.1 300 13:19 28.02.2020
1831 Clouds 22 1017 43 9000 3.1 240 12:44 28.02.2020
1832 Clouds 22 1017 43 9000 3.1 240 12:26 28.02.2020
1833 Clouds 21 1017 46 9000 2.6 220 11:56 28.02.2020
1834 Clouds 21 1017 46 9000 2.6 220 11:37 28.02.2020
1835 Clouds 21 1017 46 9000 2.6 220 11:19 28.02.2020
1836 Clouds 20 1018 52 8000 3.1 250 10:43 28.02.2020
1837 Clouds 20 1018 52 8000 3.1 250 10:23 28.02.2020
1838 Clouds 19 1018 52 9000 2.1 250 09:49 28.02.2020
1839 Clouds 19 1018 52 9000 2.1 250 09:49 28.02.2020
1840 Clouds 19 1018 52 9000 2.1 250 09:49 28.02.2020
1841 Clouds 19 1018 52 9000 2.1 250 09:49 28.02.2020
1842 Clouds 19 1018 52 9000 2.1 250 09:49 28.02.2020
1843 Clouds 19 1018 52 9000 2.1 250 09:22 28.02.2020
1844 Clouds 18 1019 55 6000 2.6 260 08:59 28.02.2020
1845 Clouds 18 1019 55 6000 2.6 260 08:41 28.02.2020
1846 Clouds 18 1019 55 6000 2.6 260 08:41 28.02.2020
1847 Clouds 18 1019 55 6000 2.6 260 08:20 28.02.2020
1848 Clouds 18 1019 55 6000 2.1 260 07:45 28.02.2020
1849 Clouds 15 1019 62 5000 2.25 298 07:25 28.02.2020
1850 Clouds 15 1019 62 5000 2.25 298 06:48 28.02.2020
1851 Mist 11 1019 81 4600 2.25 298 06:28 28.02.2020
1852 Mist 10 1018 93 3300 0.5 330 05:22 28.02.2020
1853 Clouds 10 1018 93 6000 1 320 04:31 28.02.2020
1854 Clouds 10 1018 87 6000 1.5 300 02:47 28.02.2020
1855 Clouds 10 1018 87 6000 1.5 300 02:28 28.02.2020
1856 Mist 11 1018 81 5000 1.5 300 01:38 28.02.2020
1857 Clouds 11 1019 81 6000 1.5 280 00:31 28.02.2020
1858 Clouds 12 1018 81 6000 1 280 23:45 27.02.2020
1859 Clouds 12 1018 81 6000 1 280 23:22 27.02.2020
1860 Mist 13 1019 76 7000 1.5 270 22:56 27.02.2020
1861 Mist 13 1019 76 7000 1.5 270 22:37 27.02.2020
1862 Mist 13 1019 76 7000 1.5 270 22:19 27.02.2020
1863 Clouds 13 1019 76 7000 2.1 290 21:41 27.02.2020
1864 Clouds 13 1019 76 7000 2.1 290 21:22 27.02.2020
1865 Clouds 15 1020 72 7000 2.6 270 20:58 27.02.2020
1866 Clouds 15 1020 72 7000 2.6 270 20:40 27.02.2020
1867 Clouds 15 1020 72 7000 2.6 270 20:21 27.02.2020
1868 Clear 16 1020 67 7000 2.6 280 19:56 27.02.2020
1869 Clear 16 1020 67 7000 2.6 280 19:38 27.02.2020
1870 Clear 16 1020 67 7000 2.6 280 19:19 27.02.2020
1871 Clear 17 1020 67 8000 3.1 300 18:42 27.02.2020
1872 Clear 17 1020 67 8000 3.1 300 18:24 27.02.2020
1873 Clear 18 1020 63 8000 3.6 290 17:58 27.02.2020
1874 Clear 18 1020 63 8000 3.6 290 17:40 27.02.2020
1875 Clear 18 1020 63 8000 3.6 290 17:19 27.02.2020
1876 Clear 19 1020 48 9000 4.1 310 16:58 27.02.2020
1877 Clear 19 1020 48 9000 4.1 310 16:39 27.02.2020
1878 Clear 19 1020 48 9000 4.1 310 16:19 27.02.2020
1879 Clear 21 1020 43 10000 4.1 300 15:57 27.02.2020
1880 Clear 21 1020 43 10000 4.1 300 15:37 27.02.2020
1881 Clear 21 1020 43 10000 4.1 300 15:18 27.02.2020
1882 Clear 22 1020 37 10000 4.1 280 14:55 27.02.2020
1883 Clear 22 1020 37 10000 4.1 280 14:36 27.02.2020
1884 Clear 22 1020 37 10000 4.1 280 14:18 27.02.2020
1885 Clear 22 1020 37 10000 2.6 0 13:41 27.02.2020
1886 Clear 22 1020 37 10000 2.6 0 13:21 27.02.2020
1887 Clear 21 1020 40 10000 2.6 290 12:47 27.02.2020
1888 Clear 21 1020 40 10000 2.6 290 12:25 27.02.2020
1889 Clear 21 1021 40 10000 2.6 270 11:59 27.02.2020
1890 Clear 21 1021 40 10000 2.6 270 11:39 27.02.2020
1891 Clear 21 1021 40 10000 2.6 270 11:21 27.02.2020
1892 Clear 21 1021 40 10000 2.6 270 11:21 27.02.2020
1893 Clear 20 1023 49 8000 2.6 270 10:43 27.02.2020
1894 Clear 20 1023 49 8000 2.6 270 10:22 27.02.2020
1895 Clear 18 1023 55 10000 1.5 260 09:48 27.02.2020
1896 Clear 18 1023 55 10000 1.5 260 09:29 27.02.2020
1897 Clear 16 1023 63 7000 2.1 300 08:57 27.02.2020
1898 Clear 16 1023 63 7000 2.1 300 08:39 27.02.2020
1899 Clear 16 1023 63 7000 2.1 300 08:21 27.02.2020
1900 Mist 14 1023 67 5000 2.1 290 07:44 27.02.2020
1901 Mist 14 1023 67 5000 2.1 290 07:25 27.02.2020
1902 Clear 11 1023 87 5000 1.5 310 06:45 27.02.2020
1903 Mist 8 1022 93 1900 1 320 05:34 27.02.2020
1904 Clear 9 1021 93 10000 1 300 03:35 27.02.2020
1905 Clear 9 1021 93 9000 1 80 02:20 27.02.2020
1906 Clear 10 1021 87 10000 1.5 80 00:44 27.02.2020
1907 Clear 10 1021 87 10000 1.5 80 00:25 27.02.2020
1908 Clear 11 1021 81 10000 1.5 240 23:39 26.02.2020
1909 Clear 11 1021 81 10000 1.5 240 23:19 26.02.2020
1910 Clear 11 1020 76 10000 1.5 230 22:57 26.02.2020
1911 Clear 11 1020 76 10000 1.5 230 22:38 26.02.2020
1912 Clear 11 1020 76 10000 1.5 230 22:19 26.02.2020
1913 Clear 12 1020 71 10000 1 0 21:55 26.02.2020
1914 Clear 12 1020 71 10000 1 0 21:36 26.02.2020
1915 Clear 12 1020 71 10000 1 0 21:18 26.02.2020
1916 Clear 12 1020 71 10000 1.5 100 20:54 26.02.2020
1917 Clear 12 1020 71 10000 1.5 100 20:54 26.02.2020
1918 Clear 12 1020 71 10000 1.5 100 20:36 26.02.2020
1919 Clear 12 1020 71 10000 1.5 100 20:18 26.02.2020
1920 Clear 13 1019 66 10000 1 120 19:44 26.02.2020
1921 Clear 13 1019 66 10000 1 120 19:20 26.02.2020
1922 Clear 14 1018 62 10000 1 240 18:57 26.02.2020
1923 Clear 14 1018 62 10000 1 240 18:39 26.02.2020
1924 Clear 14 1018 62 10000 1 240 18:20 26.02.2020
1925 Clear 15 1018 58 10000 1 240 17:42 26.02.2020
1926 Clear 15 1018 58 10000 1 240 17:23 26.02.2020
1927 Clear 16 1017 59 10000 3.1 260 16:57 26.02.2020
1928 Clear 16 1017 59 10000 3.1 260 16:39 26.02.2020
1929 Clear 16 1017 59 10000 3.1 260 16:39 26.02.2020
1930 Clear 16 1017 59 10000 3.1 260 16:21 26.02.2020
1931 Clear 17 1016 55 10000 3.6 290 15:47 26.02.2020
1932 Clear 17 1016 55 10000 3.6 290 15:28 26.02.2020
1933 Clear 18 1015 55 10000 4.1 270 14:59 26.02.2020
1934 Clear 18 1015 55 10000 4.1 270 14:40 26.02.2020
1935 Clear 18 1015 55 10000 4.1 270 14:21 26.02.2020
1936 Clear 18 1014 55 10000 4.6 270 13:43 26.02.2020
1937 Clear 18 1014 55 10000 4.6 270 13:21 26.02.2020
1938 Clear 17 1014 55 10000 4.1 270 12:40 26.02.2020
1939 Clear 17 1014 55 10000 4.1 270 12:22 26.02.2020
1940 Clear 16 1014 63 10000 5.1 290 11:58 26.02.2020
1941 Clear 16 1014 63 10000 5.1 290 11:40 26.02.2020
1942 Clear 16 1014 63 10000 5.1 290 11:21 26.02.2020
1943 Dust 15 1014 67 1800 5.7 300 10:43 26.02.2020
1944 Dust 15 1014 67 1800 5.7 300 10:43 26.02.2020
1945 Dust 15 1014 67 1800 5.7 300 10:24 26.02.2020
1946 Dust 14 1013 76 1600 6.2 290 09:57 26.02.2020
1947 Dust 14 1013 76 1600 6.2 290 09:39 26.02.2020
1948 Dust 14 1013 76 1600 6.2 290 09:21 26.02.2020
1949 Mist 14 1012 87 2000 5.1 290 08:39 26.02.2020
1950 Mist 14 1012 87 2000 5.1 290 08:20 26.02.2020
1951 Haze 13 1010 87 1900 5.1 290 07:51 26.02.2020
1952 Haze 13 1010 87 1900 5.1 290 07:30 26.02.2020
1953 Clouds 11 1009 93 10000 6.2 280 06:59 26.02.2020
1954 Clouds 11 1009 93 10000 6.2 280 06:40 26.02.2020
1955 Clouds 11 1009 93 10000 6.2 280 06:21 26.02.2020
1956 Clouds 12 1008 93 10000 5.7 300 05:48 26.02.2020
1957 Clouds 11 1006 100 10000 3.6 290 04:58 26.02.2020
1958 Clouds 12 1003 81 10000 9.3 280 02:56 26.02.2020
1959 Clouds 12 1002 87 7000 4.6 160 01:56 26.02.2020
1960 Clouds 12 1002 87 7000 4.6 160 01:24 26.02.2020
1961 Clouds 12 1001 81 7000 5.1 160 00:38 26.02.2020
1962 Clouds 12 1001 81 7000 5.1 160 00:19 26.02.2020
1963 Rain 12 1000 81 10000 5.1 150 23:41 25.02.2020
1964 Rain 12 1000 81 10000 5.1 150 23:21 25.02.2020
1965 Rain 13 1000 76 10000 4.6 160 22:56 25.02.2020
1966 Rain 15 1001 70 0 4.43 163 22:36 25.02.2020
1967 Rain 15 1000 72 10000 5.7 200 22:18 25.02.2020
1968 Rain 15 1000 72 10000 5.7 200 21:38 25.02.2020
1969 Rain 15 1000 72 10000 5.7 200 21:20 25.02.2020
1970 Clouds 16 1000 67 10000 4.6 210 20:57 25.02.2020
1971 Clouds 16 1000 67 10000 4.6 210 20:38 25.02.2020
1972 Clouds 16 1000 67 10000 4.6 210 20:19 25.02.2020
1973 Mist 17 1000 93 4500 7.7 140 19:45 25.02.2020
1974 Mist 17 1000 93 4500 7.7 140 19:23 25.02.2020
1975 Mist 17 1001 93 5000 6.7 130 18:59 25.02.2020
1976 Mist 17 1001 93 5000 6.7 130 18:40 25.02.2020
1977 Mist 17 1001 93 5000 6.7 130 18:21 25.02.2020
1978 Mist 17 1002 93 6000 4.6 120 17:56 25.02.2020
1979 Mist 17 1002 93 6000 4.6 120 17:37 25.02.2020
1980 Mist 17 1002 93 6000 4.6 120 17:18 25.02.2020
1981 Rain 17 1002 93 4000 3.1 100 16:55 25.02.2020
1982 Rain 17 1002 93 4000 3.1 100 16:37 25.02.2020
1983 Rain 17 1002 93 4000 3.1 100 16:19 25.02.2020
1984 Clouds 17 1002 100 8000 4.6 130 15:45 25.02.2020
1985 Clouds 17 1002 100 8000 4.6 130 15:45 25.02.2020
1986 Clouds 17 1002 100 8000 4.6 130 15:20 25.02.2020
1987 Clouds 18 1003 93 5000 3.6 130 14:59 25.02.2020
1988 Clouds 18 1003 93 5000 3.6 130 14:39 25.02.2020
1989 Clouds 18 1003 93 5000 3.6 130 14:39 25.02.2020
1990 Clouds 18 1003 93 5000 3.6 130 14:18 25.02.2020
1991 Clouds 18 1003 93 5000 3.6 130 14:18 25.02.2020
1992 Clouds 18 1004 93 8000 4.6 130 13:58 25.02.2020
1993 Clouds 18 1004 93 8000 4.6 130 13:40 25.02.2020
1994 Clouds 18 1004 93 8000 4.6 130 13:20 25.02.2020
1995 Clouds 18 1004 93 8000 4.6 130 13:20 25.02.2020
1996 Mist 17 1004 100 4000 6.2 130 12:56 25.02.2020
1997 Mist 17 1004 100 4000 6.2 130 12:37 25.02.2020
1998 Mist 17 1004 100 4000 6.2 130 12:19 25.02.2020
1999 Mist 17 1005 93 1400 7.2 130 11:56 25.02.2020
2000 Mist 17 1005 93 1400 7.2 130 11:37 25.02.2020
2001 Mist 17 1005 93 1400 7.2 130 11:18 25.02.2020
2002 Rain 17 1006 93 1400 7.2 130 10:42 25.02.2020
2003 Rain 17 1006 93 1400 7.2 130 10:23 25.02.2020
2004 Rain 16 1008 93 1100 5.7 130 09:43 25.02.2020
2005 Rain 16 1008 93 1100 5.7 130 09:23 25.02.2020
2006 Rain 17 1008 93 1700 5.7 120 08:59 25.02.2020
2007 Rain 17 1008 93 1700 5.7 120 08:41 25.02.2020
2008 Rain 17 1008 93 1700 5.7 120 08:22 25.02.2020
2009 Mist 17 1008 93 2200 4.6 130 07:48 25.02.2020
2010 Mist 17 1008 93 2200 4.6 130 07:23 25.02.2020
2011 Clouds 17 1009 88 8000 3.1 140 06:53 25.02.2020
2012 Clouds 18 1008 81 0 7.03 143 05:44 25.02.2020
2013 Clouds 17 1008 77 10000 6.2 130 03:54 25.02.2020
2014 Clouds 18 1008 72 10000 6.7 120 02:32 25.02.2020
2015 Rain 18 1010 63 10000 3.6 100 00:57 25.02.2020
2016 Rain 18 1010 63 10000 3.6 100 00:31 25.02.2020
2017 Rain 19 1010 59 10000 2.1 60 23:48 24.02.2020
2018 Rain 19 1010 59 10000 2.1 60 23:29 24.02.2020
2019 Clouds 18 1010 63 10000 2.1 50 22:56 24.02.2020
2020 Clouds 18 1010 63 10000 2.1 50 22:37 24.02.2020
2021 Clouds 18 1010 63 10000 2.1 50 22:18 24.02.2020
2022 Clouds 18 1011 63 10000 2.6 60 21:54 24.02.2020
2023 Clouds 18 1011 63 10000 2.6 60 21:36 24.02.2020
2024 Clouds 18 1011 63 10000 2.6 60 21:18 24.02.2020
2025 Clouds 18 1011 68 10000 1 30 20:41 24.02.2020
2026 Clouds 18 1011 68 10000 1 30 20:21 24.02.2020
2027 Clouds 19 1011 63 10000 1 100 19:59 24.02.2020
2028 Clouds 19 1011 63 10000 1 100 19:41 24.02.2020
2029 Clouds 19 1011 63 10000 1 100 19:22 24.02.2020
2030 Clouds 19 1011 68 10000 1.5 120 18:58 24.02.2020
2031 Clouds 19 1011 68 10000 1.5 120 18:40 24.02.2020
2032 Clouds 19 1011 68 10000 1.5 120 18:21 24.02.2020
2033 Clouds 20 1011 68 10000 3.6 110 17:54 24.02.2020
2034 Clouds 20 1011 68 10000 3.6 110 17:36 24.02.2020
2035 Rain 20 1011 68 10000 3.6 110 17:18 24.02.2020
2036 Clouds 20 1011 68 10000 3.6 110 16:54 24.02.2020
2037 Clouds 21 1011 56 10000 3.1 100 16:36 24.02.2020
2038 Clouds 21 1011 56 10000 3.1 100 16:18 24.02.2020
2039 -273 0 0 0 0 0 15:54 24.02.2020
2040 Rain 22 1010 49 10000 5.1 100 15:36 24.02.2020
2041 Rain 22 1010 49 10000 5.1 100 15:18 24.02.2020
2042 Rain 23 1010 40 10000 6.2 90 14:40 24.02.2020
2043 Clouds 23 1010 40 10000 6.2 90 14:19 24.02.2020
2044 Clouds 23 1011 38 10000 5.1 70 13:57 24.02.2020
2045 Clouds 23 1011 38 10000 5.1 70 13:38 24.02.2020
2046 Clouds 23 1011 38 10000 5.1 70 13:20 24.02.2020
2047 Clouds 23 1011 38 10000 5.1 40 12:56 24.02.2020
2048 Clouds 23 1011 38 10000 5.1 40 12:38 24.02.2020
2049 Clouds 23 1011 38 10000 5.1 40 12:19 24.02.2020
2050 Clouds 23 1013 38 10000 5.7 20 11:44 24.02.2020
2051 Clouds 23 1013 38 10000 5.7 20 11:26 24.02.2020
2052 Clouds 23 1014 35 10000 6.2 30 10:45 24.02.2020
2053 Clouds 23 1014 35 10000 6.2 30 10:26 24.02.2020
2054 Clouds 22 1015 33 10000 6.7 30 09:54 24.02.2020
2055 Clouds 22 1015 33 10000 6.7 30 09:54 24.02.2020
2056 Clouds 22 1015 33 10000 6.7 30 09:36 24.02.2020
2057 Clouds 22 1015 33 10000 6.7 30 09:18 24.02.2020
2058 Clouds 20 1016 45 10000 4.1 10 08:44 24.02.2020
2059 Clouds 20 1016 45 10000 4.1 10 08:24 24.02.2020
2060 Clouds 18 1017 55 9000 4.1 360 07:44 24.02.2020
2061 Clouds 18 1017 55 9000 4.1 360 07:24 24.02.2020
2062 Clouds 16 1017 63 9000 3.6 10 06:36 24.02.2020
2063 Clouds 16 1017 63 9000 3.6 10 06:18 24.02.2020
2064 Clouds 15 1017 67 8000 2.1 360 05:28 24.02.2020
2065 Clouds 14 1017 67 8000 2.6 350 03:45 24.02.2020
2066 Clouds 14 1017 67 9000 2.1 20 02:52 24.02.2020
2067 Clouds 14 1017 67 10000 3.1 30 01:43 24.02.2020
2068 Clouds 13 1017 66 10000 3.1 350 00:57 24.02.2020
2069 Clouds 13 1017 66 10000 3.1 350 00:27 24.02.2020
2070 Clouds 13 1018 66 9000 3.6 330 23:59 23.02.2020
2071 Clouds 13 1018 66 9000 3.6 330 23:40 23.02.2020
2072 Clouds 13 1018 66 9000 3.6 330 23:18 23.02.2020
2073 Clouds 13 1018 66 9000 1.5 340 22:56 23.02.2020
2074 Clouds 13 1018 66 9000 1.5 340 22:37 23.02.2020
2075 Clouds 13 1018 66 9000 1.5 340 22:18 23.02.2020
2076 Clouds 15 1019 62 10000 0.5 0 21:43 23.02.2020
2077 Clouds 15 1019 62 10000 0.5 0 21:43 23.02.2020
2078 Clouds 15 1019 62 10000 0.5 0 21:43 23.02.2020
2079 Clouds 15 1019 62 10000 0.5 0 21:19 23.02.2020
2080 Clouds 15 1019 58 10000 0.5 0 20:56 23.02.2020
2081 Clouds 15 1019 58 10000 0.5 0 20:38 23.02.2020
2082 Clouds 15 1019 58 10000 0.5 0 20:20 23.02.2020
2083 Clouds 16 1019 59 10000 1.5 50 19:56 23.02.2020
2084 Clouds 16 1019 59 10000 1.5 50 19:37 23.02.2020
2085 Clouds 16 1019 59 10000 1.5 50 19:18 23.02.2020
2086 Clouds 16 1019 59 10000 1.5 50 19:18 23.02.2020
2087 Clouds 17 1018 51 10000 1 310 18:54 23.02.2020
2088 Clouds 17 1018 51 10000 1 310 18:36 23.02.2020
2089 Clouds 17 1018 51 10000 1 310 18:18 23.02.2020
2090 Clouds 17 1018 51 10000 1 310 18:18 23.02.2020
2091 Clouds 18 1018 48 10000 1 300 17:54 23.02.2020
2092 Clouds 18 1018 48 10000 1 300 17:36 23.02.2020
2093 Clouds 18 1018 48 10000 1 300 17:18 23.02.2020
2094 Clouds 20 1018 42 10000 1.5 280 16:42 23.02.2020
2095 Clouds 20 1018 42 10000 1.5 280 16:23 23.02.2020
2096 Clouds 21 1018 43 10000 2.6 250 15:56 23.02.2020
2097 Clouds 21 1018 43 10000 2.6 250 15:37 23.02.2020
2098 Clouds 21 1018 43 10000 2.6 250 15:19 23.02.2020
2099 Clouds 22 1018 43 10000 2.6 240 14:55 23.02.2020
2100 Clouds 22 1018 43 10000 2.6 240 14:37 23.02.2020
2101 Clear 22 1018 43 10000 2.6 240 14:19 23.02.2020
2102 Clouds 22 1018 43 10000 3.1 240 13:56 23.02.2020
2103 Clouds 22 1018 43 10000 3.1 240 13:38 23.02.2020
2104 Clouds 22 1018 43 10000 3.1 240 13:19 23.02.2020
2105 Clear 21 1019 49 10000 4.1 250 12:41 23.02.2020
2106 Clear 21 1019 49 10000 4.1 250 12:21 23.02.2020
2107 Clear 20 1019 52 10000 2.6 240 11:39 23.02.2020
2108 Clear 20 1019 52 10000 2.6 240 11:21 23.02.2020
2109 Clear 19 1020 55 10000 3.1 240 10:59 23.02.2020
2110 Clear 19 1020 55 10000 3.1 240 10:41 23.02.2020
2111 Clear 19 1020 55 10000 3.1 240 10:23 23.02.2020
2112 Clear 17 1020 63 9000 4.6 230 09:56 23.02.2020
2113 Clear 17 1020 63 9000 4.6 230 09:38 23.02.2020
2114 Clear 17 1020 63 9000 4.6 230 09:19 23.02.2020
2115 Clear 16 1020 67 7000 4.6 220 08:50 23.02.2020
2116 Clear 16 1020 67 7000 4.6 220 08:29 23.02.2020
2117 Clear 13 1019 76 6000 4.6 230 07:48 23.02.2020
2118 Clear 13 1019 76 6000 4.6 230 07:30 23.02.2020
2119 Clear 11 1019 87 6000 4.6 200 06:27 23.02.2020
2120 Mist 10 1018 93 1900 4.1 160 05:39 23.02.2020
2121 Mist 10 1018 87 4000 3.6 180 04:24 23.02.2020
2122 Clear 12 1017 81 4500 5.7 170 02:58 23.02.2020
2123 Clear 12 1017 81 4500 5.7 170 02:25 23.02.2020
2124 Clouds 13 1017 76 10000 5.1 150 01:23 23.02.2020
2125 Clouds 13 1016 76 10000 6.7 160 00:45 23.02.2020
2126 Clouds 13 1016 76 10000 6.7 160 00:24 23.02.2020
2127 Clouds 14 1016 67 10000 5.7 150 23:44 22.02.2020
2128 Clouds 14 1016 67 10000 5.7 150 23:26 22.02.2020
2129 Clouds 14 1017 67 10000 5.1 150 22:55 22.02.2020
2130 Clouds 14 1017 67 10000 5.1 150 22:36 22.02.2020
2131 Clouds 14 1017 67 10000 5.1 150 22:18 22.02.2020
2132 Clouds 16 1017 59 10000 6.2 140 21:40 22.02.2020
2133 Clouds 16 1017 59 10000 6.2 140 21:21 22.02.2020
2134 Clouds 17 1016 55 10000 6.2 120 20:43 22.02.2020
2135 Clouds 17 1016 55 10000 6.2 120 20:24 22.02.2020
2136 Clouds 18 1016 48 10000 6.2 120 19:54 22.02.2020
2137 Clouds 18 1016 48 10000 6.2 120 19:54 22.02.2020
2138 Clouds 18 1016 48 10000 6.2 120 19:36 22.02.2020
2139 Clouds 18 1016 48 10000 6.2 120 19:18 22.02.2020
2140 Clouds 18 1016 48 10000 6.2 120 19:18 22.02.2020
2141 Clouds 20 1016 45 10000 6.7 110 18:39 22.02.2020
2142 Clouds 20 1016 45 10000 6.7 110 18:21 22.02.2020
2143 Clouds 21 1015 43 10000 7.2 110 17:57 22.02.2020
2144 Clouds 21 1015 43 10000 7.2 110 17:37 22.02.2020
2145 Clouds 21 1015 43 10000 7.2 110 17:19 22.02.2020
2146 Clouds 22 1014 40 10000 6.7 100 16:55 22.02.2020
2147 Clouds 22 1014 40 10000 6.7 100 16:37 22.02.2020
2148 Clouds 22 1014 40 10000 6.7 100 16:19 22.02.2020
2149 Clouds 23 1014 33 10000 7.2 110 15:42 22.02.2020
2150 Clouds 23 1014 33 10000 7.2 110 15:22 22.02.2020
2151 Clouds 24 1014 33 10000 8.2 120 14:43 22.02.2020
2152 Clouds 24 1014 33 10000 8.2 120 14:22 22.02.2020
2153 Clouds 24 1015 31 10000 7.7 130 13:56 22.02.2020
2154 Clouds 24 1015 31 10000 7.7 130 13:38 22.02.2020
2155 Clouds 24 1015 31 10000 7.7 130 13:18 22.02.2020
2156 Clouds 24 1015 29 10000 7.7 120 12:42 22.02.2020
2157 Clouds 24 1015 29 10000 7.7 120 12:23 22.02.2020
2158 Clouds 23 1016 33 10000 7.7 140 11:46 22.02.2020
2159 Clouds 23 1016 33 10000 7.7 140 11:28 22.02.2020
2160 Clouds 23 1017 33 10000 8.2 140 10:57 22.02.2020
2161 Clouds 23 1017 33 10000 8.2 140 10:39 22.02.2020
2162 Clouds 23 1017 33 10000 8.2 140 10:19 22.02.2020
2163 Clouds 21 1017 43 10000 7.2 140 09:57 22.02.2020
2164 Clouds 21 1017 43 10000 7.2 140 09:38 22.02.2020
2165 Clouds 21 1017 43 10000 7.2 140 09:19 22.02.2020
2166 Clouds 19 1018 45 10000 6.7 160 08:46 22.02.2020
2167 Clouds 19 1018 45 10000 6.7 160 08:27 22.02.2020
2168 Clouds 15 1018 62 10000 4.6 150 07:45 22.02.2020
2169 Clouds 15 1018 62 10000 4.6 150 07:19 22.02.2020
2170 Clouds 13 1017 66 9000 2.6 110 06:47 22.02.2020
2171 Clouds 13 1017 66 9000 2.6 110 06:27 22.02.2020
2172 Clear 9 1016 81 9000 1 0 04:32 22.02.2020
2173 Clear 10 1016 76 10000 1 0 03:21 22.02.2020
2174 Clear 10 1015 76 10000 2.6 140 02:28 22.02.2020
2175 Clouds 12 1015 71 9000 2.1 60 01:41 22.02.2020
2176 Clouds 12 1015 71 9000 2.1 60 01:23 22.02.2020
2177 Clouds 12 1016 71 10000 1 70 00:41 22.02.2020
2178 Clouds 12 1016 71 10000 1 70 00:21 22.02.2020
2179 Clouds 13 1016 66 10000 0.5 0 23:43 21.02.2020
2180 Clouds 13 1016 66 10000 0.5 0 23:21 21.02.2020
2181 Clouds 16 1016 55 9000 2.1 70 22:45 21.02.2020
2182 Clouds 16 1016 55 9000 2.1 70 22:27 21.02.2020
2183 Clouds 16 1017 55 8000 3.1 80 21:59 21.02.2020
2184 Clouds 16 1017 55 8000 3.1 80 21:40 21.02.2020
2185 Clouds 16 1017 55 8000 3.1 80 21:22 21.02.2020
2186 Clouds 16 1017 55 9000 2.6 80 20:48 21.02.2020
2187 Clouds 16 1017 55 9000 2.6 80 20:29 21.02.2020
2188 Clouds 16 1017 55 10000 2.1 70 19:42 21.02.2020
2189 Clouds 16 1017 55 10000 2.1 70 19:23 21.02.2020
2190 Clouds 17 1017 51 10000 1.5 50 18:56 21.02.2020
2191 Clouds 17 1017 51 10000 1.5 50 18:38 21.02.2020
2192 Clouds 17 1017 51 10000 1.5 50 18:19 21.02.2020
2193 Clouds 17 1017 55 10000 0.5 330 17:40 21.02.2020
2194 Clouds 17 1017 55 10000 0.5 330 17:21 21.02.2020
2195 Clouds 17 1017 55 10000 0.5 330 17:21 21.02.2020
2196 Clouds 20 1016 40 10000 1.99 320 16:57 21.02.2020
2197 Clouds 20 1016 40 10000 1.99 320 16:39 21.02.2020
2198 Clouds 20 1016 40 10000 1.99 320 16:20 21.02.2020
2199 Clouds 22 1016 37 10000 2.1 230 15:46 21.02.2020
2200 Clouds 22 1016 37 10000 2.1 230 15:19 21.02.2020
2201 Clouds 22 1016 37 10000 2.1 230 15:19 21.02.2020
2202 Clouds 22 1016 37 10000 2.1 230 15:19 21.02.2020
2203 Clouds 22 1016 35 10000 2.1 280 14:59 21.02.2020
2204 Clouds 22 1016 35 10000 2.1 280 14:41 21.02.2020
2205 Clouds 22 1016 35 10000 2.1 280 14:19 21.02.2020
2206 Clouds 22 1016 35 10000 2.6 230 13:42 21.02.2020
2207 Clouds 22 1016 35 10000 2.6 230 13:24 21.02.2020
2208 Clear 22 1017 37 10000 2.6 240 12:54 21.02.2020
2209 Clear 22 1017 37 10000 2.6 240 12:36 21.02.2020
2210 Clear 22 1017 37 10000 2.6 240 12:18 21.02.2020
2211 Clear 21 1017 43 10000 1.5 0 11:40 21.02.2020
2212 Clear 21 1017 43 10000 1.5 0 11:21 21.02.2020
2213 Clear 20 1018 42 10000 1.5 0 10:56 21.02.2020
2214 Clear 20 1018 42 10000 1.5 0 10:38 21.02.2020
2215 Clear 20 1018 42 10000 1.5 0 10:19 21.02.2020
2216 Clear 18 1019 52 10000 1 0 09:56 21.02.2020
2217 Clear 18 1019 52 10000 1 0 09:37 21.02.2020
2218 Clear 18 1019 52 10000 1 0 09:18 21.02.2020
2219 Clear 16 1019 63 10000 2.6 280 08:41 21.02.2020
2220 Clear 16 1019 63 10000 2.6 280 08:22 21.02.2020
2221 Clear 13 1019 71 10000 2.6 260 07:59 21.02.2020
2222 Clear 13 1019 71 10000 2.6 260 07:40 21.02.2020
2223 Clear 13 1019 71 10000 2.6 260 07:18 21.02.2020
2224 Clear 11 1019 76 8000 1.5 230 06:50 21.02.2020
2225 Clear 11 1019 76 8000 1.5 230 06:30 21.02.2020
2226 Clear 10 1019 81 8000 1.5 240 05:43 21.02.2020
2227 Clear 8 1017 87 10000 1 180 04:36 21.02.2020
2228 Clear 8 1017 87 10000 1 180 04:18 21.02.2020
2229 Clear 9 1017 81 10000 1 240 03:31 21.02.2020
2230 Clear 9 1016 76 10000 0.5 0 02:29 21.02.2020
2231 Clear 10 1016 76 10000 1.5 220 01:24 21.02.2020
2232 Clear 11 1017 71 10000 2.6 220 00:45 21.02.2020
2233 Clear 11 1017 71 10000 2.6 220 00:23 21.02.2020
2234 Clear 12 1016 66 10000 0.5 0 23:46 20.02.2020
2235 Clear 12 1016 66 10000 0.5 0 23:46 20.02.2020
2236 Clear 12 1016 66 10000 0.5 0 23:46 20.02.2020
2237 Clear 12 1016 66 10000 0.5 0 23:25 20.02.2020
2238 Clear 12 1016 66 10000 1.5 190 22:57 20.02.2020
2239 Clear 12 1016 66 10000 1.5 190 22:38 20.02.2020
2240 Clear 12 1016 66 10000 1.5 190 22:20 20.02.2020
2241 Clear 13 1016 66 10000 2.6 240 21:56 20.02.2020
2242 Clear 13 1016 66 10000 2.6 240 21:37 20.02.2020
2243 Clear 13 1016 66 10000 2.6 240 21:37 20.02.2020
2244 Clear 13 1016 66 10000 2.6 240 21:37 20.02.2020
2245 Clear 13 1016 66 10000 2.6 240 21:37 20.02.2020
2246 Clear 13 1016 66 10000 2.6 240 21:37 20.02.2020
2247 Clear 13 1016 66 10000 2.6 240 21:19 20.02.2020
2248 Clear 13 1016 66 10000 2.6 240 21:19 20.02.2020
2249 Clear 14 1016 62 10000 3.1 240 20:54 20.02.2020
2250 Clear 14 1016 62 10000 3.1 240 20:36 20.02.2020
2251 Clear 14 1016 62 10000 3.1 240 20:18 20.02.2020
2252 Clouds 15 1015 58 10000 2.6 250 19:57 20.02.2020
2253 Clouds 15 1015 58 10000 2.6 250 19:39 20.02.2020
2254 Clouds 15 1015 58 10000 2.6 250 19:20 20.02.2020
2255 Clouds 16 1015 63 10000 1.5 230 18:39 20.02.2020
2256 Clouds 16 1015 63 10000 1.5 230 18:20 20.02.2020
2257 Clouds 16 1014 63 10000 1 0 17:54 20.02.2020
2258 Clouds 16 1014 63 10000 1 0 17:36 20.02.2020
2259 Clouds 18 1013 55 10000 3.6 280 17:18 20.02.2020
2260 Clouds 18 1013 55 10000 3.6 280 16:54 20.02.2020
2261 Clouds 18 1013 55 10000 3.6 280 16:36 20.02.2020
2262 Clouds 18 1013 55 10000 3.6 280 16:18 20.02.2020
2263 Clouds 20 1012 49 10000 4.1 280 15:41 20.02.2020
2264 Clouds 20 1012 49 10000 4.1 280 15:20 20.02.2020
2265 Clouds 20 1012 52 10000 4.6 290 14:55 20.02.2020
2266 Clouds 20 1012 52 10000 4.6 290 14:37 20.02.2020
2267 Clouds 20 1012 52 10000 4.6 290 14:19 20.02.2020
2268 Clouds 19 1011 55 10000 4.1 290 13:44 20.02.2020
2269 Clouds 19 1011 55 10000 4.1 290 13:20 20.02.2020
2270 Clouds 19 1011 59 10000 4.1 280 12:58 20.02.2020
2271 Clouds 19 1011 59 10000 4.1 280 12:38 20.02.2020
2272 Clouds 19 1011 59 10000 4.1 280 12:19 20.02.2020
2273 Clouds 17 1011 67 10000 5.1 260 11:54 20.02.2020
2274 Clouds 17 1011 67 10000 5.1 260 11:36 20.02.2020
2275 Clouds 17 1011 67 10000 5.1 260 11:18 20.02.2020
2276 Clouds 17 1012 67 10000 5.1 260 10:42 20.02.2020
2277 Clouds 17 1012 67 10000 5.1 260 10:21 20.02.2020
2278 Clouds 17 1012 67 10000 5.1 260 10:21 20.02.2020
2279 Clouds 16 1011 72 9000 5.1 250 09:55 20.02.2020
2280 Rain 14 1012 82 10000 4.1 250 09:36 20.02.2020
2281 Rain 14 1012 82 10000 4.1 250 09:18 20.02.2020
2282 Clouds 14 1012 82 10000 4.6 280 08:39 20.02.2020
2283 Clouds 14 1012 82 10000 4.6 280 08:21 20.02.2020
2284 Rain 14 1012 82 10000 6.2 260 07:46 20.02.2020
2285 Clouds 14 1011 82 10000 7.2 270 07:26 20.02.2020
2286 Clouds 13 1011 93 10000 4.6 250 06:56 20.02.2020
2287 Clouds 13 1011 93 10000 4.6 250 06:30 20.02.2020
2288 Clouds 13 1010 93 5500 3.1 240 05:47 20.02.2020
2289 Clouds 13 1010 93 5500 3.1 240 05:18 20.02.2020
2290 Clouds 13 1009 87 10000 3.1 240 04:28 20.02.2020
2291 Clouds 13 1008 87 10000 3.6 230 03:40 20.02.2020
2292 Clouds 13 1007 82 7000 3.6 200 02:37 20.02.2020
2293 Rain 14 1007 82 7000 4.6 160 01:21 20.02.2020
2294 Rain 15 1007 77 7000 5.1 180 00:35 20.02.2020
2295 Rain 14 1006 76 9000 4.6 150 23:55 19.02.2020
2296 Rain 14 1006 76 9000 4.6 150 23:24 19.02.2020
2297 Clouds 14 1006 76 10000 5.1 150 22:56 19.02.2020
2298 Clouds 14 1006 76 10000 5.1 150 22:38 19.02.2020
2299 Clouds 14 1006 76 10000 5.1 150 22:20 19.02.2020
2300 Clouds 15 1005 72 10000 4.1 180 21:56 19.02.2020
2301 Clouds 15 1005 72 10000 4.1 180 21:38 19.02.2020
2302 Clouds 15 1005 72 10000 4.1 180 21:18 19.02.2020
2303 Clouds 16 1004 67 10000 4.1 230 20:55 19.02.2020
2304 Clouds 16 1004 67 10000 4.1 230 20:36 19.02.2020
2305 Clouds 16 1004 67 10000 4.1 230 20:18 19.02.2020
2306 Clouds 17 1005 67 10000 4.1 210 19:56 19.02.2020
2307 Clouds 17 1005 67 10000 4.1 210 19:37 19.02.2020
2308 Clouds 17 1005 67 10000 4.1 210 19:18 19.02.2020
2309 Clouds 17 1005 63 10000 2.1 180 18:56 19.02.2020
2310 Clouds 17 1005 63 10000 2.1 180 18:38 19.02.2020
2311 Clouds 17 1005 63 10000 2.1 180 18:19 19.02.2020
2312 Clouds 19 1005 52 10000 2.6 180 17:42 19.02.2020
2313 Clouds 19 1005 52 10000 2.6 180 17:20 19.02.2020
2314 Clouds 22 1005 43 10000 3.6 100 16:44 19.02.2020
2315 Clouds 22 1005 43 10000 3.6 100 16:20 19.02.2020
2316 Clouds 23 1005 40 10000 3.6 110 15:59 19.02.2020
2317 Clouds 23 1005 40 10000 3.6 110 15:41 19.02.2020
2318 Clouds 23 1005 40 10000 3.6 110 15:23 19.02.2020
2319 Clouds 23 1006 40 10000 4.1 90 14:55 19.02.2020
2320 Clouds 23 1006 40 10000 4.1 90 14:37 19.02.2020
2321 Clouds 23 1006 40 10000 4.1 90 14:18 19.02.2020
2322 Clouds 23 1006 40 10000 4.1 110 13:41 19.02.2020
2323 Clouds 23 1006 40 10000 4.1 110 13:21 19.02.2020
2324 Clouds 22 1007 46 10000 3.6 130 12:42 19.02.2020
2325 Clouds 22 1007 46 10000 3.6 130 12:19 19.02.2020
2326 Clouds 21 1008 46 10000 4.1 110 11:59 19.02.2020
2327 Clouds 21 1008 46 10000 4.1 110 11:37 19.02.2020
2328 Clouds 21 1008 46 10000 4.1 110 11:19 19.02.2020
2329 Haze 20 1009 52 4600 2.1 70 10:57 19.02.2020
2330 Haze 20 1009 52 4600 2.1 70 10:38 19.02.2020
2331 Haze 20 1009 52 4600 2.1 70 10:19 19.02.2020
2332 Clouds 18 1011 63 7000 3.1 350 09:57 19.02.2020
2333 Clouds 18 1011 63 7000 3.1 350 09:37 19.02.2020
2334 Clouds 18 1011 63 7000 3.1 350 09:18 19.02.2020
2335 Clouds 18 1011 63 7000 3.1 350 09:18 19.02.2020
2336 Clouds 18 1011 63 7000 3.1 350 09:18 19.02.2020
2337 Clouds 15 1012 77 5000 3.6 310 08:44 19.02.2020
2338 Clouds 15 1012 77 5000 3.6 310 08:24 19.02.2020
2339 Clouds 16 1012 72 5000 0.5 0 07:41 19.02.2020
2340 Clouds 16 1012 72 5000 0.5 0 07:21 19.02.2020
2341 Clouds 16 1012 72 5000 0.5 0 07:21 19.02.2020
2342 Rain 14 1012 76 2000 1.5 10 06:53 19.02.2020
2343 Rain 14 1012 76 2000 1.5 10 06:23 19.02.2020
2344 Mist 12 1013 87 4400 1.5 20 04:21 19.02.2020
2345 Clouds 15 1014 72 10000 2.1 20 02:56 19.02.2020
2346 Clouds 15 1014 72 10000 2.1 20 02:31 19.02.2020
2347 Clouds 16 1014 67 10000 2.1 40 01:24 19.02.2020
2348 Clouds 16 1015 72 7000 2.6 20 00:51 19.02.2020
2349 Clouds 16 1015 72 7000 2.6 20 00:31 19.02.2020
2350 Clouds 17 1016 63 9000 2.6 40 23:44 18.02.2020
2351 Clouds 17 1016 63 9000 2.6 40 23:21 18.02.2020
2352 Clouds 17 1016 67 10000 2.1 50 22:59 18.02.2020
2353 Clouds 17 1016 67 10000 2.1 50 22:41 18.02.2020
2354 Clouds 17 1016 67 10000 2.1 50 22:19 18.02.2020
2355 Clouds 17 1017 72 10000 1.5 70 21:56 18.02.2020
2356 Clouds 17 1017 72 10000 1.5 70 21:38 18.02.2020
2357 Clouds 17 1017 72 10000 1.5 70 21:19 18.02.2020
2358 Clouds 18 1018 68 10000 2.1 110 20:58 18.02.2020
2359 Clouds 18 1018 68 10000 2.1 110 20:38 18.02.2020
2360 Clouds 18 1018 68 10000 2.1 110 20:20 18.02.2020
2361 Clouds 18 1018 68 10000 2.6 50 19:55 18.02.2020
2362 Clouds 18 1018 68 10000 2.6 50 19:36 18.02.2020
2363 Clouds 18 1018 68 10000 2.6 50 19:18 18.02.2020
2364 Haze 19 1018 68 4800 4.6 90 18:41 18.02.2020
2365 Haze 19 1018 68 4800 4.6 90 18:20 18.02.2020
2366 Clouds 20 1018 64 10000 6.2 90 17:57 18.02.2020
2367 Clouds 20 1018 64 10000 6.2 90 17:38 18.02.2020
2368 Clouds 20 1018 64 10000 6.2 90 17:19 18.02.2020
2369 Clouds 21 1018 52 10000 2.1 90 16:40 18.02.2020
2370 Clouds 21 1018 52 10000 2.1 90 16:40 18.02.2020
2371 Clouds 21 1018 52 10000 2.1 90 16:20 18.02.2020
2372 Clouds 22 1017 49 10000 3.1 90 15:42 18.02.2020
2373 Clouds 22 1017 49 10000 3.1 90 15:21 18.02.2020
2374 Clouds 22 1017 49 10000 3.1 80 14:58 18.02.2020
2375 Clouds 22 1017 49 10000 3.1 80 14:39 18.02.2020
2376 Clouds 22 1017 49 10000 3.1 80 14:21 18.02.2020
2377 Clouds 23 1018 46 10000 4.1 80 13:57 18.02.2020
2378 Clouds 23 1018 46 10000 4.1 80 13:38 18.02.2020
2379 Clouds 23 1018 46 10000 4.1 80 13:20 18.02.2020
2380 Clouds 22 1018 49 9000 2.1 50 12:43 18.02.2020
2381 Clouds 22 1018 49 9000 2.1 50 12:24 18.02.2020
2382 Clear 21 1019 52 9000 2.1 320 11:56 18.02.2020
2383 Clear 21 1019 52 9000 2.1 320 11:37 18.02.2020
2384 Clear 21 1019 52 9000 2.1 320 11:18 18.02.2020
2385 Haze 19 1020 55 3000 2.6 330 10:42 18.02.2020
2386 Haze 19 1020 55 3000 2.6 330 10:22 18.02.2020
2387 Haze 17 1021 63 3100 2.6 350 09:56 18.02.2020
2388 Haze 17 1021 63 3100 2.6 350 09:38 18.02.2020
2389 Haze 17 1021 63 3100 2.6 350 09:19 18.02.2020
2390 Haze 15 1021 67 3300 3.6 340 08:55 18.02.2020
2391 Haze 15 1021 67 3300 3.6 340 08:37 18.02.2020
2392 Haze 15 1021 67 3300 3.6 340 08:18 18.02.2020
2393 Mist 12 1022 76 2300 2.6 330 07:45 18.02.2020
2394 Mist 12 1022 76 2300 2.6 330 07:25 18.02.2020
2395 Clear 9 1021 100 5000 3.1 320 06:50 18.02.2020
2396 Clear 9 1021 100 5000 3.1 320 06:28 18.02.2020
2397 Mist 9 1021 93 4000 2.6 330 05:48 18.02.2020
2398 Mist 8 1021 93 1900 3.6 320 05:20 18.02.2020
2399 Mist 9 1020 93 3800 3.6 320 03:49 18.02.2020
2400 Clear 9 1020 93 8000 3.6 310 02:58 18.02.2020
2401 Clouds 10 1020 87 9000 3.6 300 01:25 18.02.2020
2402 Clouds 10 1020 81 9000 4.1 290 00:40 18.02.2020
2403 Clouds 10 1020 81 9000 4.1 290 00:18 18.02.2020
2404 Clouds 10 1020 81 9000 3.6 310 23:39 17.02.2020
2405 Clouds 10 1020 81 9000 3.6 310 23:19 17.02.2020
2406 Clear 10 1020 81 9000 3.1 300 22:58 17.02.2020
2407 Clear 10 1020 87 9000 3.1 310 22:39 17.02.2020
2408 Clear 10 1020 87 9000 3.1 310 22:18 17.02.2020
2409 Clear 10 1020 87 9000 3.1 310 22:18 17.02.2020
2410 Clear 12 1020 76 10000 4.6 290 21:39 17.02.2020
2411 Clear 12 1020 76 10000 4.6 290 21:19 17.02.2020
2412 Clear 13 1020 71 10000 4.6 290 20:55 17.02.2020
2413 Clear 13 1020 71 10000 4.6 290 20:37 17.02.2020
2414 Clear 13 1020 71 10000 4.6 290 20:37 17.02.2020
2415 Clear 13 1020 71 10000 4.6 290 20:19 17.02.2020
2416 Clear 13 1020 71 10000 4.1 290 19:43 17.02.2020
2417 Clear 13 1020 71 10000 4.1 290 19:43 17.02.2020
2418 -273 0 0 0 0 0 19:21 17.02.2020
2419 Clear 14 1019 71 10000 3.6 290 18:57 17.02.2020
2420 Clear 14 1019 71 10000 3.6 290 18:36 17.02.2020
2421 Clear 14 1019 71 10000 3.6 290 18:18 17.02.2020
2422 Clear 15 1018 67 10000 3.6 290 17:38 17.02.2020
2423 Clear 15 1018 67 10000 3.6 290 17:38 17.02.2020
2424 Clear 15 1018 67 10000 3.6 290 17:20 17.02.2020
2425 Clear 16 1017 63 10000 4.6 290 16:59 17.02.2020
2426 Clear 16 1017 63 10000 4.6 290 16:59 17.02.2020
2427 Clear 16 1017 63 10000 4.6 290 16:40 17.02.2020
2428 Clear 16 1017 63 10000 4.6 290 16:22 17.02.2020
2429 Clear 17 1017 59 10000 5.7 290 15:48 17.02.2020
2430 Clear 17 1017 59 10000 5.7 290 15:29 17.02.2020
2431 Clear 18 1016 59 10000 5.1 280 14:59 17.02.2020
2432 Clear 18 1016 59 10000 5.1 280 14:41 17.02.2020
2433 Clear 18 1016 59 10000 5.1 280 14:22 17.02.2020
2434 Clouds 19 1016 55 10000 4.6 280 13:57 17.02.2020
2435 Clouds 19 1016 55 10000 4.6 280 13:57 17.02.2020
2436 Clouds 19 1016 55 10000 4.6 280 13:38 17.02.2020
2437 Clear 19 1016 55 10000 4.6 280 13:18 17.02.2020
2438 Clouds 19 1015 55 10000 3.1 290 12:43 17.02.2020
2439 Clouds 19 1015 55 10000 3.1 290 12:24 17.02.2020
2440 Clouds 19 1016 55 10000 2.6 310 11:58 17.02.2020
2441 Clouds 19 1016 55 10000 2.6 310 11:39 17.02.2020
2442 Clouds 19 1016 55 10000 2.6 310 11:20 17.02.2020
2443 Clouds 17 1016 67 10000 3.6 300 10:54 17.02.2020
2444 Clouds 17 1016 67 10000 3.6 300 10:36 17.02.2020
2445 Clouds 17 1016 67 10000 3.6 300 10:18 17.02.2020
2446 Clouds 16 1016 72 10000 4.6 310 09:41 17.02.2020
2447 Clouds 16 1016 72 10000 4.6 310 09:21 17.02.2020
2448 Clouds 14 1016 76 10000 5.1 290 08:57 17.02.2020
2449 Clouds 14 1016 76 10000 5.1 290 08:39 17.02.2020
2450 Clouds 14 1016 76 10000 5.1 290 08:19 17.02.2020
2451 Clouds 13 1016 82 10000 3.1 330 07:44 17.02.2020
2452 Clouds 13 1016 82 10000 3.1 330 07:23 17.02.2020
2453 Mist 11 1016 93 2000 3.6 310 06:52 17.02.2020
2454 Mist 11 1016 93 2000 3.6 310 06:32 17.02.2020
2455 Mist 11 1015 93 5000 3.6 290 05:56 17.02.2020
2456 Mist 11 1015 93 5000 3.6 290 05:37 17.02.2020
2457 Clouds 13 1013 76 10000 4.1 280 03:21 17.02.2020
2458 Clouds 13 1012 76 10000 5.7 50 01:49 17.02.2020
2459 Clouds 12 1014 87 10000 4.1 340 00:44 17.02.2020
2460 Clouds 12 1014 87 10000 4.1 340 00:21 17.02.2020
2461 Clouds 12 1015 81 10000 3.6 310 23:53 16.02.2020
2462 Clouds 12 1015 81 10000 3.6 310 23:32 16.02.2020
2463 Clouds 13 1015 76 10000 5.7 280 22:58 16.02.2020
2464 Clouds 13 1015 76 10000 5.7 280 22:39 16.02.2020
2465 Clouds 13 1015 76 10000 5.7 280 22:39 16.02.2020
2466 Clouds 13 1015 76 10000 5.7 280 22:21 16.02.2020
2467 Rain 13 1015 82 10000 3.6 260 21:57 16.02.2020
2468 Rain 13 1015 82 10000 3.6 260 21:57 16.02.2020
2469 Rain 13 1015 82 10000 3.6 260 21:39 16.02.2020
2470 Rain 13 1015 82 10000 3.6 260 21:21 16.02.2020
2471 Clouds 14 1013 76 10000 2.6 360 20:57 16.02.2020
2472 Clouds 14 1013 76 10000 2.6 360 20:39 16.02.2020
2473 Clouds 14 1013 76 10000 2.6 360 20:20 16.02.2020
2474 Rain 13 1015 93 10000 2.1 330 19:58 16.02.2020
2475 Rain 13 1015 93 10000 2.1 330 19:38 16.02.2020
2476 Rain 13 1015 93 10000 2.1 330 19:18 16.02.2020
2477 Rain 13 1014 76 7000 1.5 50 18:43 16.02.2020
2478 Rain 13 1014 76 7000 1.5 50 18:23 16.02.2020
2479 Rain 16 1015 48 10000 5.1 130 17:57 16.02.2020
2480 Rain 16 1015 48 10000 5.1 130 17:39 16.02.2020
2481 Rain 16 1015 48 10000 5.1 130 17:19 16.02.2020
2482 Clouds 18 1013 36 10000 4.6 80 16:54 16.02.2020
2483 Clouds 18 1013 36 10000 4.6 80 16:36 16.02.2020
2484 Clouds 18 1013 36 10000 4.6 80 16:18 16.02.2020
2485 Clouds 18 1014 39 10000 4.6 70 15:41 16.02.2020
2486 Clouds 18 1014 39 10000 4.6 70 15:41 16.02.2020
2487 Clouds 18 1014 39 10000 4.6 70 15:22 16.02.2020
2488 Clouds 18 1014 39 10000 5.1 80 14:44 16.02.2020
2489 Clouds 18 1014 39 10000 5.1 80 14:24 16.02.2020
2490 Clouds 18 1014 39 10000 4.6 40 13:59 16.02.2020
2491 Clouds 18 1014 39 10000 4.6 40 13:41 16.02.2020
2492 Clouds 18 1014 39 10000 4.6 40 13:22 16.02.2020
2493 Clouds 18 1014 36 10000 6.7 70 12:39 16.02.2020
2494 Clouds 18 1014 36 10000 6.7 70 12:20 16.02.2020
2495 Clouds 21 1015 15 0 6.23 86 11:41 16.02.2020
2496 Clouds 17 1017 36 10000 3.6 90 11:20 16.02.2020
2497 Clouds 17 1017 36 10000 3.6 90 10:59 16.02.2020
2498 Clouds 17 1017 36 10000 3.6 90 10:41 16.02.2020
2499 Clouds 17 1017 36 10000 3.6 90 10:22 16.02.2020
2500 Haze 16 1018 38 5000 3.1 70 09:59 16.02.2020
2501 Haze 16 1018 38 5000 3.1 70 09:39 16.02.2020
2502 Haze 16 1018 38 5000 3.1 70 09:20 16.02.2020
2503 Haze 13 1019 47 5000 2.1 70 08:57 16.02.2020
2504 Haze 13 1019 47 5000 2.1 70 08:57 16.02.2020
2505 Haze 13 1019 47 5000 2.1 70 08:39 16.02.2020
2506 Haze 13 1019 47 5000 2.1 70 08:19 16.02.2020
2507 Clouds 12 1019 50 7000 1.5 50 07:42 16.02.2020
2508 Clouds 10 1019 53 9000 1 80 06:58 16.02.2020
2509 Clouds 10 1019 53 9000 1 80 06:31 16.02.2020
2510 Clouds 7 1018 56 10000 1 50 04:37 16.02.2020
2511 Clouds 8 1018 52 10000 1 360 03:22 16.02.2020
2512 Clouds 7 1019 56 10000 1 360 01:58 16.02.2020
2513 Clouds 7 1019 56 10000 1 360 01:39 16.02.2020
2514 Clouds 7 1019 56 10000 1 360 01:20 16.02.2020
2515 Clouds 9 1019 42 10000 2.1 330 00:51 16.02.2020
2516 Clouds 9 1019 42 10000 2.1 330 00:27 16.02.2020
2517 Clouds 7 1020 56 6000 2.1 320 23:44 15.02.2020
2518 Clouds 7 1020 56 6000 2.1 320 23:25 15.02.2020
2519 Clouds 9 1020 45 10000 1 270 22:59 15.02.2020
2520 Clouds 9 1020 45 10000 1 270 22:40 15.02.2020
2521 Clouds 9 1020 45 10000 1 270 22:19 15.02.2020
2522 Mist 9 1019 45 10000 2.1 300 21:56 15.02.2020
2523 Mist 9 1019 45 10000 2.1 300 21:37 15.02.2020
2524 Mist 9 1019 45 10000 2.1 300 21:19 15.02.2020
2525 Clouds 11 1020 43 10000 1 320 20:39 15.02.2020
2526 Clouds 11 1020 43 10000 1 320 20:20 15.02.2020
2527 Clouds 11 1020 33 10000 1.5 350 19:44 15.02.2020
2528 Clouds 11 1020 33 10000 1.5 350 19:22 15.02.2020
2529 Clouds 11 1020 33 10000 1.5 350 19:22 15.02.2020
2530 Clouds 11 1020 33 10000 1.5 340 18:43 15.02.2020
2531 Clouds 11 1020 33 10000 1.5 340 18:23 15.02.2020
2532 Clouds 13 1020 37 10000 2.1 310 17:58 15.02.2020
2533 Clouds 13 1020 37 10000 2.1 310 17:38 15.02.2020
2534 Clouds 13 1020 37 10000 2.1 310 17:19 15.02.2020
2535 Clouds 14 1020 41 10000 3.1 320 16:43 15.02.2020
2536 Clouds 14 1020 41 10000 3.1 320 16:24 15.02.2020
2537 Clouds 16 1021 36 10000 4.1 330 15:58 15.02.2020
2538 Clouds 16 1021 36 10000 4.1 330 15:40 15.02.2020
2539 Clouds 16 1021 36 10000 4.1 330 15:21 15.02.2020
2540 Clouds 18 1020 26 10000 3.6 320 14:44 15.02.2020
2541 Clouds 18 1020 19 10000 3.6 320 14:19 15.02.2020
2542 Clouds 18 1021 23 10000 3.6 300 13:56 15.02.2020
2543 Clouds 18 1021 23 10000 3.6 300 13:37 15.02.2020
2544 Clouds 18 1021 23 10000 3.6 300 13:19 15.02.2020
2545 Clouds 17 1021 27 10000 3.6 300 12:42 15.02.2020
2546 Clouds 17 1021 27 10000 3.6 300 12:23 15.02.2020
2547 Clouds 17 1022 20 10000 3.1 280 11:49 15.02.2020
2548 Clouds 17 1022 20 10000 3.1 280 11:31 15.02.2020
2549 Clouds 15 1023 23 10000 3.6 280 10:57 15.02.2020
2550 Clouds 15 1023 23 10000 3.6 280 10:38 15.02.2020
2551 Clouds 15 1023 23 10000 3.6 280 10:19 15.02.2020
2552 Clouds 13 1024 43 10000 3.1 270 09:43 15.02.2020
2553 Clouds 13 1024 43 10000 3.1 270 09:25 15.02.2020
2554 Clouds 11 1025 50 10000 4.1 270 08:44 15.02.2020
2555 Clouds 11 1025 50 10000 4.1 270 08:25 15.02.2020
2556 Clouds 8 1025 61 10000 3.6 270 07:59 15.02.2020
2557 Clouds 8 1025 61 10000 3.6 270 07:39 15.02.2020
2558 Clouds 8 1025 61 10000 3.6 270 07:18 15.02.2020
2559 Clouds 7 1024 45 10000 2.6 310 06:37 15.02.2020
2560 Clouds 6 1024 45 9000 3.1 320 05:55 15.02.2020
2561 Clouds 7 1024 47 10000 3.1 300 04:48 15.02.2020
2562 Clouds 6 1024 47 10000 2.6 310 03:45 15.02.2020
2563 Clouds 6 1024 47 10000 2.6 330 02:58 15.02.2020
2564 Clouds 6 1024 47 10000 2.6 330 02:23 15.02.2020
2565 Clouds 7 1025 41 10000 3.1 320 01:41 15.02.2020
2566 Clouds 7 1025 40 10000 3.1 320 00:56 15.02.2020
2567 Clouds 7 1025 40 10000 3.1 320 00:26 15.02.2020
2568 Clouds 8 1025 52 10000 3.1 320 23:44 14.02.2020
2569 Clouds 8 1025 52 10000 3.1 320 23:20 14.02.2020
2570 Clouds 9 1026 49 10000 3.6 330 22:54 14.02.2020
2571 Clouds 9 1026 49 10000 3.6 330 22:36 14.02.2020
2572 Clouds 9 1026 49 10000 3.6 330 22:18 14.02.2020
2573 Clouds 10 1026 46 10000 3.1 340 21:40 14.02.2020
2574 Clouds 10 1026 46 10000 3.1 340 21:20 14.02.2020
2575 Clouds 11 1027 40 10000 5.1 330 20:43 14.02.2020
2576 Clouds 11 1027 40 10000 5.1 330 20:20 14.02.2020
2577 Clouds 11 1026 40 10000 5.7 330 19:56 14.02.2020
2578 Clouds 11 1026 40 10000 5.7 330 19:56 14.02.2020
2579 Clouds 11 1026 40 10000 5.7 330 19:56 14.02.2020
2580 Clouds 11 1026 40 10000 5.7 330 19:38 14.02.2020
2581 Clouds 11 1026 40 10000 5.7 330 19:18 14.02.2020
2582 Clouds 11 1026 40 10000 5.1 320 18:56 14.02.2020
2583 Clouds 11 1026 40 10000 5.1 320 18:37 14.02.2020
2584 Clouds 11 1026 40 10000 5.1 320 18:18 14.02.2020
2585 Clouds 12 1026 40 10000 4.1 310 17:42 14.02.2020
2586 Clouds 12 1026 40 10000 4.1 310 17:20 14.02.2020
2587 Clouds 14 1026 34 10000 5.1 310 16:57 14.02.2020
2588 Clouds 14 1026 34 10000 5.1 310 16:39 14.02.2020
2589 Clouds 14 1026 34 10000 5.1 310 16:20 14.02.2020
2590 Clouds 17 1025 33 10000 5.7 320 15:55 14.02.2020
2591 Clouds 17 1025 33 10000 5.7 320 15:37 14.02.2020
2592 Clouds 17 1025 33 10000 5.7 320 15:19 14.02.2020
2593 Clouds 17 1025 33 10000 5.7 320 15:19 14.02.2020
2594 Clouds 18 1025 36 10000 5.7 320 14:55 14.02.2020
2595 Clouds 18 1025 36 10000 5.7 320 14:37 14.02.2020
2596 Clear 18 1025 36 10000 5.7 320 14:18 14.02.2020
2597 Clear 18 1026 36 10000 6.7 320 13:39 14.02.2020
2598 Clear 18 1026 36 10000 6.7 320 13:21 14.02.2020
2599 Clear 18 1026 36 10000 6.2 320 12:58 14.02.2020
2600 Clear 18 1026 36 10000 6.2 320 12:58 14.02.2020
2601 Clear 18 1026 36 10000 6.2 320 12:39 14.02.2020
2602 Clear 18 1026 36 10000 6.2 320 12:21 14.02.2020
2603 Clear 16 1026 41 10000 5.7 320 11:58 14.02.2020
2604 Clear 16 1026 41 10000 5.7 320 11:40 14.02.2020
2605 Clear 16 1026 41 10000 5.7 320 11:20 14.02.2020
2606 Clear 15 1027 44 10000 5.7 300 10:55 14.02.2020
2607 Clear 15 1027 44 10000 5.7 300 10:37 14.02.2020
2608 Clear 15 1027 44 10000 5.7 300 10:19 14.02.2020
2609 Clear 15 1027 47 10000 5.1 310 09:40 14.02.2020
2610 Clear 15 1027 44 10000 4.6 300 09:20 14.02.2020
2611 Clear 12 1027 46 10000 4.6 310 08:43 14.02.2020
2612 Clear 12 1027 46 10000 4.6 310 08:25 14.02.2020
2613 Clouds 10 1027 36 10000 4.1 320 07:56 14.02.2020
2614 Clouds 10 1027 36 10000 4.1 320 07:38 14.02.2020
2615 Clouds 10 1027 36 10000 4.1 320 07:18 14.02.2020
2616 Clouds 8 1026 36 10000 1.5 340 06:29 14.02.2020
2617 Clouds 8 1025 52 10000 2.6 30 05:47 14.02.2020
2618 Clouds 9 1025 51 10000 3.1 20 04:46 14.02.2020
2619 Clouds 8 1025 51 10000 3.6 350 03:29 14.02.2020
2620 Clouds 8 1025 51 10000 5.1 310 02:30 14.02.2020
2621 Clear 9 1024 49 10000 4.6 330 01:27 14.02.2020
2622 Clear 9 1023 45 10000 3.6 120 00:43 14.02.2020
2623 Clear 9 1023 45 10000 3.6 120 00:43 14.02.2020
2624 Clear 10 1023 45 10000 4.1 130 00:23 14.02.2020
2625 Clear 10 1023 45 10000 4.6 130 23:45 13.02.2020
2626 Clear 10 1023 45 10000 4.6 130 23:22 13.02.2020
2627 Clear 10 1023 42 10000 5.1 130 22:44 13.02.2020
2628 Clear 10 1023 42 10000 5.1 130 22:20 13.02.2020
2629 Clear 10 1023 42 10000 5.1 130 22:20 13.02.2020
2630 Clear 10 1023 42 10000 5.1 130 22:20 13.02.2020
2631 Clear 10 1023 42 10000 5.7 130 21:59 13.02.2020
2632 Clear 10 1023 42 10000 5.7 130 21:40 13.02.2020
2633 Clear 10 1023 42 10000 5.7 130 21:22 13.02.2020
2634 Clear 11 1024 42 10000 6.2 120 20:58 13.02.2020
2635 Clear 11 1024 42 10000 6.2 120 20:39 13.02.2020
2636 Clouds 11 1024 38 10000 6.2 120 20:21 13.02.2020
2637 Clouds 13 1024 38 10000 7.2 120 19:56 13.02.2020
2638 Clouds 13 1024 38 10000 7.2 120 19:37 13.02.2020
2639 Clouds 13 1024 38 10000 7.2 120 19:18 13.02.2020
2640 Clouds 13 1024 38 10000 7.2 120 19:18 13.02.2020
2641 Clouds 14 1024 33 10000 6.7 120 18:44 13.02.2020
2642 Clouds 14 1024 33 10000 6.7 120 18:44 13.02.2020
2643 Clouds 14 1024 33 10000 6.7 120 18:24 13.02.2020
2644 Clouds 14 1024 33 10000 6.7 120 18:24 13.02.2020
2645 Clouds 14 1024 33 10000 6.2 110 17:59 13.02.2020
2646 Clouds 14 1024 33 10000 6.2 110 17:40 13.02.2020
2647 Clouds 14 1024 33 10000 6.2 110 17:21 13.02.2020
2648 Clouds 15 1024 33 10000 6.2 120 16:58 13.02.2020
2649 Clouds 15 1024 33 10000 6.2 120 16:38 13.02.2020
2650 Clouds 15 1024 33 10000 6.2 120 16:19 13.02.2020
2651 Clouds 15 1024 33 10000 6.2 120 16:19 13.02.2020
2652 Clouds 17 1024 27 10000 7.2 140 15:56 13.02.2020
2653 Clouds 17 1024 27 10000 7.2 140 15:38 13.02.2020
2654 Clouds 17 1024 27 10000 7.2 140 15:19 13.02.2020
2655 Clouds 17 1024 27 10000 7.7 130 14:57 13.02.2020
2656 Clouds 17 1024 27 10000 7.7 130 14:38 13.02.2020
2657 Clouds 17 1024 27 10000 7.7 130 14:20 13.02.2020
2658 Clouds 17 1024 25 10000 7.7 140 13:47 13.02.2020
2659 Clouds 17 1024 25 10000 7.7 140 13:19 13.02.2020
2660 Clouds 17 1025 25 10000 8.2 140 12:56 13.02.2020
2661 Clouds 17 1025 25 10000 8.2 140 12:37 13.02.2020
2662 Clouds 17 1025 25 10000 8.2 140 12:37 13.02.2020
2663 Clouds 17 1025 25 10000 8.2 140 12:19 13.02.2020
2664 Clouds 15 1026 26 10000 7.7 140 11:43 13.02.2020
2665 Clouds 15 1026 26 10000 7.7 140 11:20 13.02.2020
2666 Clouds 14 1027 26 10000 7.7 130 10:49 13.02.2020
2667 Clouds 14 1027 26 10000 7.7 130 10:28 13.02.2020
2668 Clouds 12 1028 27 10000 8.2 140 09:57 13.02.2020
2669 Clouds 12 1028 27 10000 8.2 140 09:38 13.02.2020
2670 Clouds 12 1028 27 10000 8.2 140 09:20 13.02.2020
2671 Clouds 10 1028 31 10000 9.8 140 08:42 13.02.2020
2672 Clouds 10 1028 31 10000 9.8 140 08:19 13.02.2020
2673 Clouds 8 1029 36 10000 7.2 130 07:41 13.02.2020
2674 Clouds 8 1029 36 10000 7.2 130 07:22 13.02.2020
2675 Clouds 8 1029 36 10000 7.2 130 07:21 13.02.2020
2676 Clouds 8 1028 33 10000 7.2 130 06:49 13.02.2020
2677 Clouds 8 1028 33 10000 7.2 130 06:29 13.02.2020
2678 Clouds 7 1028 36 10000 7.2 130 05:37 13.02.2020
2679 Clouds 7 1028 36 10000 5.7 130 04:28 13.02.2020
2680 Clouds 7 1028 39 10000 5.7 130 03:52 13.02.2020
2681 Clouds 7 1028 39 10000 5.7 130 03:26 13.02.2020
2682 Clouds 8 1028 36 10000 6.7 130 02:53 13.02.2020
2683 Clouds 8 1028 36 10000 6.7 130 02:19 13.02.2020
2684 Clouds 8 1028 33 10000 6.2 130 01:35 13.02.2020
2685 Clouds 8 1029 33 10000 5.1 120 00:43 13.02.2020
2686 Clouds 8 1029 33 10000 5.1 120 00:22 13.02.2020
2687 Clouds 8 1029 33 10000 5.1 120 23:41 12.02.2020
2688 Clouds 8 1029 33 10000 5.1 120 23:22 12.02.2020
2689 Clouds 8 1029 31 10000 5.7 120 22:48 12.02.2020
2690 Clouds 8 1029 31 10000 5.7 120 22:28 12.02.2020
2691 Clouds 8 1029 33 10000 5.7 120 21:59 12.02.2020
2692 Clouds 8 1029 33 10000 5.7 120 21:40 12.02.2020
2693 Clouds 9 1030 29 10000 5.1 110 21:20 12.02.2020
2694 Clouds 9 1030 31 10000 5.1 110 20:58 12.02.2020
2695 Clouds 9 1030 31 10000 5.1 110 20:39 12.02.2020
2696 Clouds 9 1030 31 10000 5.1 110 20:20 12.02.2020
2697 Clouds 8 1029 33 10000 4.6 120 19:56 12.02.2020
2698 Clouds 8 1029 33 10000 4.6 120 19:37 12.02.2020
2699 Clouds 8 1029 33 10000 4.6 120 19:18 12.02.2020
2700 Clouds 9 1030 31 10000 4.6 120 18:46 12.02.2020
2701 Clouds 9 1030 31 10000 4.6 120 18:19 12.02.2020
2702 Clouds 9 1030 31 10000 3.6 120 17:56 12.02.2020
2703 Clouds 8 1029 36 10000 2.6 120 17:37 12.02.2020
2704 Clear 8 1029 36 10000 2.6 120 17:18 12.02.2020
2705 Clear 9 1029 31 10000 4.6 130 16:40 12.02.2020
2706 Clouds 9 1029 31 10000 4.6 130 16:20 12.02.2020
2707 Clouds 10 1028 27 10000 4.1 120 15:57 12.02.2020
2708 Clouds 10 1028 27 10000 4.1 120 15:36 12.02.2020
2709 Clouds 10 1028 27 10000 4.1 120 15:36 12.02.2020
2710 Clouds 10 1028 27 10000 4.1 120 15:18 12.02.2020
2711 Clouds 11 1029 25 10000 2.6 130 14:42 12.02.2020
2712 Clouds 11 1029 25 10000 2.6 130 14:21 12.02.2020
2713 Clear 10 1030 27 10000 3.1 200 13:58 12.02.2020
2714 Clear 10 1030 27 10000 3.1 200 13:40 12.02.2020
2715 Clear 10 1030 27 10000 3.1 200 13:20 12.02.2020
2716 Clear 10 1030 25 10000 1 0 12:57 12.02.2020
2717 Clear 10 1030 25 10000 1 0 12:57 12.02.2020
2718 Clear 10 1030 25 10000 1 0 12:38 12.02.2020
2719 Clear 10 1030 25 10000 1 0 12:18 12.02.2020
2720 Clear 9 1030 26 10000 2.6 190 11:58 12.02.2020
2721 Clear 9 1030 26 10000 2.6 190 11:39 12.02.2020
2722 Clear 9 1030 26 10000 2.6 190 11:20 12.02.2020
2723 Clear 8 1031 28 10000 1.5 0 10:56 12.02.2020
2724 Clear 8 1031 28 10000 1.5 0 10:38 12.02.2020
2725 Clear 8 1031 28 10000 1.5 0 10:19 12.02.2020
2726 Clear 7 1032 33 10000 1.5 0 09:42 12.02.2020
2727 Clear 7 1032 33 10000 1.5 0 09:24 12.02.2020
2728 Clear 6 1032 35 10000 2.1 150 08:58 12.02.2020
2729 Clear 6 1032 35 10000 2.1 150 08:38 12.02.2020
2730 Clear 6 1032 35 10000 2.1 150 08:20 12.02.2020
2731 Clear 6 1032 35 10000 2.1 150 08:20 12.02.2020
2732 Clear 6 1032 35 10000 2.1 150 08:20 12.02.2020
2733 Clear 4 1032 44 10000 1.5 220 07:45 12.02.2020
2734 Clear 4 1032 44 10000 1.5 220 07:24 12.02.2020
2735 Clear 1 1031 64 10000 0.42 78 06:59 12.02.2020
2736 Clear 1 1031 64 10000 0.42 78 06:24 12.02.2020
2737 Clear -2 1030 79 10000 0.42 78 05:44 12.02.2020
2738 Clear -2 1030 79 10000 1.06 324 05:21 12.02.2020
2739 Clear -2 1029 86 10000 0.5 0 04:40 12.02.2020
2740 Clear 0 1029 32 10000 1 210 03:43 12.02.2020
2741 Clear 0 1029 32 10000 1 210 03:24 12.02.2020
2742 Clear -1 1029 74 10000 1 0 02:32 12.02.2020
2743 Clouds -1 1028 80 10000 0.5 20 01:59 12.02.2020
2744 Clouds 0 1028 30 10000 0.5 0 00:58 12.02.2020
2745 Clouds 0 1028 30 10000 0.5 0 00:39 12.02.2020
2746 Clouds 0 1028 30 10000 0.5 0 00:21 12.02.2020
2747 Clouds 2 1028 55 10000 1.5 220 23:45 11.02.2020
2748 Clouds 2 1028 55 10000 1.5 220 23:27 11.02.2020
2749 Clouds 2 1028 55 10000 1 180 22:56 11.02.2020
2750 Clouds 2 1028 55 10000 1 180 22:38 11.02.2020
2751 Clouds 2 1028 55 10000 1 180 22:20 11.02.2020
2752 Clouds 2 1028 55 10000 0.5 0 21:56 11.02.2020
2753 Clouds 2 1028 55 10000 0.5 0 21:38 11.02.2020
2754 Clouds 2 1028 55 10000 0.5 0 21:18 11.02.2020
2755 Clouds 2 1028 55 10000 0.5 0 21:18 11.02.2020
2756 Clouds 2 1028 51 10000 2.13 286 20:57 11.02.2020
2757 Clouds 2 1028 51 10000 2.13 286 20:38 11.02.2020
2758 Clouds 2 1028 51 10000 3.29 298 20:19 11.02.2020
2759 Clouds 4 1028 44 10000 1 250 19:54 11.02.2020
2760 Clouds 4 1028 44 10000 1 250 19:36 11.02.2020
2761 Clouds 4 1028 44 10000 1 250 19:18 11.02.2020
2762 Clouds 3 1028 47 10000 2.1 290 18:43 11.02.2020
2763 Clouds 3 1028 47 10000 2.1 290 18:25 11.02.2020
2764 Clouds 3 1028 44 10000 3.1 300 17:55 11.02.2020
2765 Clouds 3 1028 44 10000 3.1 300 17:37 11.02.2020
2766 Clouds 3 1028 44 10000 3.1 300 17:18 11.02.2020
2767 Clouds 5 1027 32 10000 4.1 300 16:58 11.02.2020
2768 Clouds 5 1027 32 10000 4.1 300 16:38 11.02.2020
2769 Clouds 5 1027 32 10000 4.1 300 16:20 11.02.2020
2770 Clouds 6 1027 26 10000 5.1 300 15:47 11.02.2020
2771 Clouds 6 1027 26 10000 5.1 300 15:29 11.02.2020
2772 Clouds 6 1026 28 10000 5.1 320 14:59 11.02.2020
2773 Clouds 6 1026 28 10000 5.1 320 14:41 11.02.2020
2774 Clouds 6 1026 28 10000 5.1 320 14:19 11.02.2020
2775 Clouds 6 1026 30 10000 4.1 290 13:42 11.02.2020
2776 Clouds 6 1026 30 10000 4.1 290 13:23 11.02.2020
2777 Clouds 6 1026 30 10000 4.6 280 12:59 11.02.2020
2778 Clouds 6 1026 30 10000 4.6 280 12:41 11.02.2020
2779 Clouds 6 1026 30 10000 4.6 280 12:41 11.02.2020
2780 Clouds 6 1026 30 10000 4.6 280 12:21 11.02.2020
2781 Clouds 5 1026 32 10000 5.7 300 11:57 11.02.2020
2782 Clouds 5 1026 32 10000 5.7 300 11:39 11.02.2020
2783 Clouds 5 1026 32 10000 5.7 300 11:19 11.02.2020
2784 Clouds 5 1026 38 10000 5.1 310 10:40 11.02.2020
2785 Clouds 5 1026 38 10000 5.1 310 10:21 11.02.2020
2786 Clouds 4 1026 55 10000 4.6 300 09:58 11.02.2020
2787 Clouds 4 1026 55 10000 4.6 300 09:40 11.02.2020
2788 Clouds 4 1026 55 10000 4.6 300 09:21 11.02.2020
2789 Clouds 2 1026 74 10000 4.6 290 08:49 11.02.2020
2790 Clouds 2 1026 74 10000 4.6 290 08:25 11.02.2020
2791 Clouds 2 1026 74 10000 4.6 290 08:25 11.02.2020
2792 Clouds 2 1026 74 10000 4.6 290 08:25 11.02.2020
2793 Clouds 0 1026 61 6000 3.1 270 07:55 11.02.2020
2794 Clouds 0 1026 61 6000 3.1 270 07:55 11.02.2020
2795 Snow 2 1025 61 0 4.18 312 07:33 11.02.2020
2796 Clouds -1 1025 100 10000 2.1 320 06:58 11.02.2020
2797 Clouds -1 1025 100 10000 2.1 320 06:58 11.02.2020
2798 Clouds -1 1025 100 10000 2.1 320 06:38 11.02.2020
2799 Clouds -1 1025 100 10000 2.1 320 06:38 11.02.2020
2800 Clouds -1 1025 100 10000 2.1 320 06:20 11.02.2020
2801 Mist -1 1025 100 2300 4.1 320 05:41 11.02.2020
2802 Mist -1 1025 100 2300 4.1 320 05:20 11.02.2020
2803 Snow 0 1024 74 6000 5.1 280 03:32 11.02.2020
2804 Snow 0 1024 74 6000 5.1 280 03:32 11.02.2020
2805 Clouds 2 1023 59 10000 5.7 290 02:37 11.02.2020
2806 Clouds 4 1023 35 10000 2.1 270 01:53 11.02.2020
2807 Clouds 4 1023 35 10000 2.1 270 01:30 11.02.2020
2808 Clouds 4 1023 35 10000 2.6 290 00:26 11.02.2020
2809 Clouds 3 1023 40 10000 1 0 23:47 10.02.2020
2810 Clouds 3 1023 40 10000 1 0 23:29 10.02.2020
2811 Clouds 4 1023 27 10000 1.5 190 22:57 10.02.2020
2812 Clouds 4 1023 27 10000 1.5 190 22:37 10.02.2020
2813 Clouds 4 1023 27 10000 1.5 190 22:19 10.02.2020
2814 Clouds 4 1023 29 10000 1.5 190 21:40 10.02.2020
2815 Clouds 4 1023 29 10000 1.5 190 21:40 10.02.2020
2816 Clouds 4 1023 29 10000 1.5 190 21:22 10.02.2020
2817 Clouds 4 1023 27 10000 1.5 40 20:56 10.02.2020
2818 Clouds 4 1023 27 10000 1.5 40 20:56 10.02.2020
2819 Clouds 4 1023 27 10000 1.5 40 20:38 10.02.2020
2820 Clouds 4 1023 27 10000 1.5 40 20:19 10.02.2020
2821 Clear 4 1023 27 10000 2.1 40 19:57 10.02.2020
2822 Clear 4 1023 27 10000 2.1 40 19:57 10.02.2020
2823 Clear 4 1023 27 10000 2.1 40 19:37 10.02.2020
2824 Clear 4 1023 27 10000 2.1 40 19:18 10.02.2020
2825 Clear 4 1023 27 10000 2.1 20 18:58 10.02.2020
2826 Clear 4 1023 27 10000 2.1 20 18:38 10.02.2020
2827 Clear 4 1023 27 10000 2.1 20 18:20 10.02.2020
2828 Clear 4 1023 27 10000 2.1 20 18:20 10.02.2020
2829 Clear 4 1023 27 10000 2.6 340 17:54 10.02.2020
2830 Clear 4 1023 27 10000 2.6 340 17:54 10.02.2020
2831 Clear 4 1023 27 10000 2.6 340 17:36 10.02.2020
2832 Clear 4 1023 27 10000 2.6 340 17:18 10.02.2020
2833 Clear 5 1023 23 10000 4.1 320 16:56 10.02.2020
2834 Clear 5 1023 23 10000 4.1 320 16:37 10.02.2020
2835 Clear 5 1023 23 10000 4.1 320 16:18 10.02.2020
2836 Clear 6 1023 18 10000 5.1 320 15:41 10.02.2020
2837 Clear 6 1023 18 10000 5.1 320 15:22 10.02.2020
2838 Clouds 7 1023 19 10000 7.2 310 14:59 10.02.2020
2839 Clouds 7 1023 19 10000 7.2 310 14:40 10.02.2020
2840 Clouds 7 1023 19 10000 7.2 310 14:19 10.02.2020
2841 Clouds 8 1023 19 10000 6.7 300 13:56 10.02.2020
2842 Clouds 8 1023 19 10000 6.7 300 13:37 10.02.2020
2843 Clouds 8 1023 19 10000 6.7 300 13:18 10.02.2020
2844 Clouds 7 1023 19 10000 7.2 290 12:43 10.02.2020
2845 Clouds 7 1023 19 10000 7.2 290 12:24 10.02.2020
2846 Clouds 7 1023 16 10000 6.7 290 11:54 10.02.2020
2847 Clouds 7 1023 16 10000 6.7 290 11:36 10.02.2020
2848 Clouds 7 1023 16 10000 6.7 290 11:18 10.02.2020
2849 Clouds 6 1024 20 10000 6.7 290 10:44 10.02.2020
2850 Clouds 6 1024 20 10000 6.7 290 10:26 10.02.2020
2851 Clouds 5 1025 27 10000 6.2 280 09:45 10.02.2020
2852 Clouds 5 1025 27 10000 6.2 280 09:24 10.02.2020
2853 Clear 4 1025 29 10000 6.2 270 08:43 10.02.2020
2854 Clear 4 1025 29 10000 6.2 270 08:22 10.02.2020
2855 Clouds 2 1025 37 10000 6.2 260 07:58 10.02.2020
2856 Clouds 2 1025 37 10000 6.2 260 07:36 10.02.2020
2857 Clouds 1 1024 40 10000 5.1 260 06:59 10.02.2020
2858 Clouds 1 1024 47 10000 3.1 270 05:42 10.02.2020
2859 Clouds 2 1023 40 10000 2.6 260 04:26 10.02.2020
2860 Clouds 3 1023 44 10000 2.6 260 03:31 10.02.2020
2861 Clouds 4 1023 38 10000 3.1 320 02:53 10.02.2020
2862 Clouds 5 1023 32 10000 3.1 300 01:36 10.02.2020
2863 Clouds 5 1024 41 10000 6.2 310 00:48 10.02.2020
2864 Clouds 5 1024 41 10000 6.2 310 00:28 10.02.2020
2865 Clouds 6 1024 30 10000 6.2 310 23:45 09.02.2020
2866 Clouds 6 1024 30 10000 6.2 310 23:26 09.02.2020
2867 Clouds 7 1024 39 10000 6.7 300 22:58 09.02.2020
2868 Clouds 7 1024 39 10000 6.7 300 22:38 09.02.2020
2869 Clouds 7 1024 39 10000 6.7 300 22:19 09.02.2020
2870 Clouds 7 1023 45 10000 5.1 330 21:41 09.02.2020
2871 Clouds 7 1023 45 10000 5.1 330 21:22 09.02.2020
2872 Clouds 7 1023 45 10000 5.1 330 21:22 09.02.2020
2873 Clouds 8 1023 42 10000 4.1 340 20:47 09.02.2020
2874 Clouds 8 1023 42 10000 4.1 340 20:23 09.02.2020
2875 Clouds 8 1023 49 10000 3.6 340 19:57 09.02.2020
2876 Clouds 8 1023 49 10000 3.6 340 19:39 09.02.2020
2877 Clouds 8 1023 49 10000 3.6 340 19:20 09.02.2020
2878 Clouds 8 1023 49 10000 3.6 340 19:20 09.02.2020
2879 Clouds 9 1023 42 10000 5.1 320 18:42 09.02.2020
2880 Clouds 9 1023 42 10000 5.1 320 18:24 09.02.2020
2881 Clouds 9 1023 45 10000 5.1 330 17:59 09.02.2020
2882 Clouds 9 1023 45 10000 5.1 330 17:39 09.02.2020
2883 Clouds 9 1023 45 10000 5.1 330 17:39 09.02.2020
2884 Clouds 9 1023 45 10000 5.1 330 17:21 09.02.2020
2885 Clouds 10 1022 43 10000 3.6 320 16:43 09.02.2020
2886 Clouds 10 1022 43 10000 3.6 320 16:24 09.02.2020
2887 Clouds 10 1022 43 10000 3.1 330 15:59 09.02.2020
2888 Clouds 10 1022 43 10000 3.1 330 15:41 09.02.2020
2889 Clouds 10 1022 43 10000 3.1 330 15:41 09.02.2020
2890 Clouds 10 1022 43 10000 3.1 330 15:22 09.02.2020
2891 Clouds 11 1022 40 10000 3.6 330 14:57 09.02.2020
2892 Clouds 11 1022 40 10000 3.6 330 14:39 09.02.2020
2893 Clouds 11 1022 40 10000 3.6 330 14:20 09.02.2020
2894 Clouds 11 1022 40 10000 4.6 340 13:44 09.02.2020
2895 Clouds 11 1022 40 10000 4.6 340 13:26 09.02.2020
2896 Clouds 11 1022 43 10000 4.6 340 12:56 09.02.2020
2897 Clouds 11 1022 43 10000 4.6 340 12:38 09.02.2020
2898 Clouds 11 1022 43 10000 4.6 340 12:18 09.02.2020
2899 Clouds 12 1021 36 0 6.56 285 11:41 09.02.2020
2900 Clouds 11 1023 40 10000 5.7 300 11:22 09.02.2020
2901 Clouds 11 1023 40 10000 5.7 300 10:59 09.02.2020
2902 Clouds 11 1023 40 10000 5.7 300 10:41 09.02.2020
2903 Clouds 11 1023 40 10000 5.7 300 10:21 09.02.2020
2904 Clouds 10 1023 43 10000 4.1 300 09:46 09.02.2020
2905 Clouds 10 1023 43 10000 4.1 300 09:27 09.02.2020
2906 Clouds 10 1023 46 10000 4.1 300 08:45 09.02.2020
2907 Clouds 10 1023 46 10000 4.1 300 08:27 09.02.2020
2908 Clouds 9 1022 45 10000 3.6 300 07:59 09.02.2020
2909 Clouds 9 1022 45 10000 3.6 300 07:39 09.02.2020
2910 Clouds 8 1021 49 10000 2.6 310 06:47 09.02.2020
2911 Clouds 8 1021 49 10000 2.6 310 06:28 09.02.2020
2912 Clouds 8 1021 45 10000 3.1 280 05:43 09.02.2020
2913 Clouds 8 1021 45 10000 3.1 280 05:18 09.02.2020
2914 Clouds 8 1019 45 10000 4.6 280 03:52 09.02.2020
2915 Clouds 9 1019 42 10000 5.1 280 02:45 09.02.2020
2916 Clouds 9 1019 42 10000 5.1 280 02:26 09.02.2020
2917 Clouds 11 1019 46 10000 7.2 280 01:35 09.02.2020
2918 Clouds 12 1018 46 10000 8.2 260 00:46 09.02.2020
2919 Clouds 12 1018 46 10000 8.2 260 00:25 09.02.2020
2920 Clouds 12 1018 46 9000 7.7 260 23:44 08.02.2020
2921 Dust 13 1017 50 4000 6.7 260 23:21 08.02.2020
2922 Dust 14 1017 44 3600 8.2 250 22:43 08.02.2020
2923 Dust 14 1017 44 3600 8.2 250 22:22 08.02.2020
2924 Dust 14 1017 44 4500 9.3 250 21:59 08.02.2020
2925 Dust 14 1017 44 4500 9.3 250 21:40 08.02.2020
2926 Clouds 14 1016 47 8000 7.2 260 21:21 08.02.2020
2927 Clouds 16 1016 38 10000 7.2 260 20:57 08.02.2020
2928 Clouds 16 1016 38 10000 7.2 260 20:38 08.02.2020
2929 Clouds 16 1016 38 10000 7.2 260 20:19 08.02.2020
2930 Clouds 16 1015 38 10000 5.7 240 19:55 08.02.2020
2931 Clouds 16 1015 38 10000 5.7 240 19:37 08.02.2020
2932 Clouds 16 1015 38 10000 5.7 240 19:19 08.02.2020
2933 Clouds 15 1014 41 10000 2.6 210 18:43 08.02.2020
2934 Clouds 16 1014 38 10000 3.1 230 18:24 08.02.2020
2935 Clouds 16 1014 36 10000 3.1 230 17:44 08.02.2020
2936 Clouds 17 1013 36 10000 4.6 250 17:22 08.02.2020
2937 Clouds 18 1012 34 10000 4.6 220 16:59 08.02.2020
2938 Clouds 18 1012 34 10000 4.6 220 16:40 08.02.2020
2939 Clouds 18 1012 34 10000 4.6 220 16:21 08.02.2020
2940 Clouds 19 1012 32 10000 5.1 210 15:43 08.02.2020
2941 Clouds 19 1012 32 10000 5.1 210 15:19 08.02.2020
2942 Clouds 19 1012 29 10000 6.7 220 14:59 08.02.2020
2943 Clouds 19 1012 29 10000 6.7 220 14:41 08.02.2020
2944 Clouds 19 1012 29 10000 6.7 220 14:19 08.02.2020
2945 Clouds 19 1012 29 10000 7.7 220 13:43 08.02.2020
2946 Clouds 19 1012 29 10000 7.7 220 13:23 08.02.2020
2947 Clouds 19 1013 34 10000 6.7 200 12:57 08.02.2020
2948 Clouds 19 1013 34 10000 6.7 200 12:38 08.02.2020
2949 Clouds 19 1013 34 10000 6.7 200 12:19 08.02.2020
2950 Clouds 18 1014 36 10000 6.2 220 11:43 08.02.2020
2951 Clouds 18 1014 36 10000 6.2 220 11:22 08.02.2020
2952 Clear 17 1015 39 10000 6.2 210 10:57 08.02.2020
2953 Clear 17 1015 39 10000 6.2 210 10:39 08.02.2020
2954 Clear 17 1015 39 10000 6.2 210 10:20 08.02.2020
2955 Clouds 15 1016 58 10000 6.7 210 09:50 08.02.2020
2956 Clouds 15 1016 58 10000 6.7 210 09:24 08.02.2020
2957 Clouds 15 1016 54 10000 6.7 210 08:47 08.02.2020
2958 Clouds 15 1016 58 10000 2.6 180 08:27 08.02.2020
2959 Clouds 14 1016 67 10000 2.6 150 07:53 08.02.2020
2960 Clouds 14 1016 67 10000 2.6 150 07:34 08.02.2020
2961 Clouds 13 1016 66 10000 2.1 140 06:55 08.02.2020
2962 Clouds 12 1015 71 10000 1.5 160 06:22 08.02.2020
2963 Clouds 12 1015 71 10000 1 40 05:34 08.02.2020
2964 Clouds 11 1014 76 10000 1 330 04:55 08.02.2020
2965 Clouds 11 1014 76 10000 1 330 04:26 08.02.2020
2966 Clouds 11 1014 76 10000 2.1 300 03:39 08.02.2020
2967 Clouds 11 1013 76 10000 2.6 320 02:29 08.02.2020
2968 Clouds 11 1013 76 10000 2.6 320 02:29 08.02.2020
2969 Clear 12 1013 71 10000 3.1 320 01:34 08.02.2020
2970 Clear 13 1013 66 10000 4.1 320 00:57 08.02.2020
2971 Clear 13 1013 66 10000 4.1 320 00:25 08.02.2020
2972 Clear 14 1013 67 10000 6.7 300 23:59 07.02.2020
2973 Clear 14 1013 67 10000 6.7 300 23:39 07.02.2020
2974 Clear 14 1013 67 10000 6.7 300 23:20 07.02.2020
2975 Clear 15 1013 67 10000 6.2 250 22:55 07.02.2020
2976 Clear 15 1013 67 10000 6.2 250 22:36 07.02.2020
2977 Clear 15 1013 67 10000 6.2 250 22:18 07.02.2020
2978 Clear 14 1012 71 9000 4.1 150 21:41 07.02.2020
2979 Clear 14 1012 71 9000 4.1 150 21:21 07.02.2020
2980 Clear 15 1012 71 10000 4.1 140 20:40 07.02.2020
2981 Clear 15 1012 71 10000 4.1 140 20:21 07.02.2020
2982 Haze 16 1015 41 9000 3.6 320 19:56 07.02.2020
2983 Haze 16 1015 41 9000 3.6 320 19:37 07.02.2020
2984 Clear 15 1012 67 10000 4.1 140 19:19 07.02.2020
2985 Clear 16 1012 63 10000 4.6 140 18:45 07.02.2020
2986 Clear 16 1012 63 10000 4.6 140 18:26 07.02.2020
2987 Clear 16 1012 63 10000 3.1 140 17:57 07.02.2020
2988 Clear 16 1012 63 10000 3.1 140 17:39 07.02.2020
2989 Clear 16 1012 63 10000 3.1 140 17:19 07.02.2020
2990 Clear 19 1011 55 10000 2.6 180 16:50 07.02.2020
2991 Clear 19 1011 55 10000 2.6 180 16:24 07.02.2020
2992 Clear 22 1011 46 10000 5.1 160 15:55 07.02.2020
2993 Clear 22 1011 46 10000 5.1 160 15:29 07.02.2020
2994 Clear 23 1011 40 10000 5.7 170 14:58 07.02.2020
2995 Clear 23 1011 40 10000 5.7 170 14:40 07.02.2020
2996 Clear 23 1011 40 10000 5.7 170 14:21 07.02.2020
2997 Clear 23 1011 40 10000 5.1 180 13:57 07.02.2020
2998 Clear 23 1011 40 10000 5.1 180 13:38 07.02.2020
2999 Clear 23 1011 40 10000 5.1 180 13:20 07.02.2020
3000 Clear 22 1011 43 10000 5.7 150 12:42 07.02.2020
3001 Clear 22 1011 43 10000 5.7 150 12:24 07.02.2020
3002 Clear 22 1012 40 10000 5.1 140 11:58 07.02.2020
3003 Clear 22 1012 40 10000 5.1 140 11:39 07.02.2020
3004 Clear 22 1012 40 10000 5.1 140 11:18 07.02.2020
3005 Clear 20 1013 45 10000 4.6 160 10:40 07.02.2020
3006 Clear 20 1013 45 10000 4.6 160 10:20 07.02.2020
3007 Clear 19 1015 45 10000 5.7 180 09:46 07.02.2020
3008 Clear 19 1015 45 10000 5.7 180 09:26 07.02.2020
3009 Clear 18 1015 45 10000 5.7 130 08:58 07.02.2020
3010 Clear 18 1015 45 10000 5.7 130 08:37 07.02.2020
3011 Clear 18 1015 45 10000 5.7 130 08:19 07.02.2020
3012 Clear 14 1015 54 10000 3.1 160 07:40 07.02.2020
3013 Clear 14 1015 54 10000 3.1 160 07:22 07.02.2020
3014 Clear 12 1015 62 10000 3.1 190 06:43 07.02.2020
3015 Clear 12 1015 62 10000 3.1 190 06:23 07.02.2020
3016 Clear 11 1015 62 10000 1.5 130 05:43 07.02.2020
3017 Clear 13 1015 58 10000 2.1 70 03:58 07.02.2020
3018 Clear 15 1015 51 10000 3.6 80 02:30 07.02.2020
3019 Clear 15 1016 51 10000 2.6 60 01:34 07.02.2020
3020 Clear 15 1015 41 0 3.9 124 00:38 07.02.2020
3021 Clear 15 1016 47 10000 2.6 30 23:56 06.02.2020
3022 Clear 15 1016 47 10000 2.6 30 23:36 06.02.2020
3023 Clear 15 1016 47 10000 2.6 30 23:36 06.02.2020
3024 Clear 15 1016 47 10000 2.6 30 23:18 06.02.2020
3025 Clear 17 1016 42 10000 3.6 90 22:42 06.02.2020
3026 Clear 17 1016 42 10000 3.6 90 22:42 06.02.2020
3027 Clear 17 1016 42 10000 3.6 90 22:23 06.02.2020
3028 Clear 16 1017 48 10000 3.1 90 21:37 06.02.2020
3029 Clear 16 1017 48 10000 3.1 90 21:19 06.02.2020
3030 Clear 16 1017 48 10000 3.1 100 20:56 06.02.2020
3031 Clear 16 1017 48 10000 3.1 100 20:37 06.02.2020
3032 Clear 16 1017 48 10000 3.1 100 20:18 06.02.2020
3033 Clear 16 1017 48 10000 2.6 80 19:58 06.02.2020
3034 Clear 16 1017 48 10000 2.6 80 19:39 06.02.2020
3035 Clear 16 1017 48 10000 2.6 80 19:21 06.02.2020
3036 Clear 15 1018 51 9000 2.1 70 18:57 06.02.2020
3037 Clear 15 1018 51 9000 2.1 70 18:38 06.02.2020
3038 Clear 15 1018 51 9000 2.1 70 18:20 06.02.2020
3039 Clear 17 1018 48 10000 2.1 80 17:42 06.02.2020
3040 Clear 17 1018 48 10000 2.1 80 17:21 06.02.2020
3041 Clear 19 1017 42 10000 2.6 100 16:57 06.02.2020
3042 Clear 19 1017 42 10000 2.6 100 16:39 06.02.2020
3043 Clear 19 1017 42 10000 2.6 100 16:20 06.02.2020
3044 Clear 22 1018 33 10000 3.1 100 15:42 06.02.2020
3045 Clear 22 1018 33 10000 3.1 100 15:21 06.02.2020
3046 Clear 23 1018 28 10000 4.6 100 14:47 06.02.2020
3047 Clear 23 1018 28 10000 4.6 100 14:26 06.02.2020
3048 Clear 23 1018 28 10000 5.1 110 13:55 06.02.2020
3049 Clear 23 1018 28 10000 5.1 110 13:36 06.02.2020
3050 Clear 23 1018 28 10000 5.1 110 13:18 06.02.2020
3051 Clear 23 1019 27 10000 4.1 100 12:43 06.02.2020
3052 Clear 23 1019 27 10000 4.1 100 12:19 06.02.2020
3053 Clear 22 1020 28 10000 4.6 90 11:56 06.02.2020
3054 Clear 22 1020 28 10000 4.6 90 11:37 06.02.2020
3055 Clear 22 1020 28 10000 4.6 90 11:18 06.02.2020
3056 Clear 21 1021 30 10000 4.1 100 10:56 06.02.2020
3057 Clear 21 1021 30 10000 4.1 100 10:37 06.02.2020
3058 Clear 21 1021 30 10000 4.1 100 10:18 06.02.2020
3059 Clear 19 1022 37 10000 4.1 100 09:43 06.02.2020
3060 Clear 19 1022 37 10000 4.1 100 09:43 06.02.2020
3061 Clear 19 1022 37 10000 4.1 100 09:20 06.02.2020
3062 Haze 16 1022 44 4500 4.6 110 08:47 06.02.2020
3063 Haze 16 1022 44 4500 4.6 110 08:25 06.02.2020
3064 Haze 14 1022 50 3300 2.1 80 07:59 06.02.2020
3065 Haze 14 1022 50 3300 2.1 80 07:39 06.02.2020
3066 Haze 14 1022 50 3300 2.1 80 07:21 06.02.2020
3067 Haze 11 1022 57 3200 2.6 70 06:21 06.02.2020
3068 Clear 8 1021 65 8000 2.1 100 05:44 06.02.2020
3069 Clear 9 1021 66 10000 1.5 70 04:18 06.02.2020
3070 Clear 10 1021 61 10000 1.5 20 03:19 06.02.2020
3071 Clouds 11 1021 57 10000 1.5 100 02:27 06.02.2020
3072 Clear 12 1021 54 10000 2.6 110 01:25 06.02.2020
3073 Clear 12 1021 54 10000 2.6 100 00:57 06.02.2020
3074 Clear 12 1021 54 10000 2.6 100 00:25 06.02.2020
3075 Clear 12 1021 58 10000 1.5 80 23:44 05.02.2020
3076 Clear 12 1021 58 10000 1.5 80 23:25 05.02.2020
3077 Clear 10 1021 66 10000 1 0 22:57 05.02.2020
3078 Clear 10 1021 66 10000 1 0 22:39 05.02.2020
3079 Clear 10 1021 66 10000 1 0 22:20 05.02.2020
3080 Clear 12 1021 58 9000 2.1 120 21:41 05.02.2020
3081 Clear 12 1021 58 9000 2.1 120 21:23 05.02.2020
3082 Clear 14 1021 41 0 3.02 107 20:57 05.02.2020
3083 Clear 14 1021 41 0 3.02 107 20:38 05.02.2020
3084 Clear 14 1021 41 0 3.02 107 20:38 05.02.2020
3085 Clear 14 1021 50 10000 2.1 120 20:19 05.02.2020
3086 Clear 14 1021 50 10000 2.1 120 19:55 05.02.2020
3087 Clear 14 1021 50 10000 2.1 120 19:37 05.02.2020
3088 Clear 14 1021 50 10000 2.1 120 19:18 05.02.2020
3089 Clear 14 1021 54 10000 2.1 110 18:44 05.02.2020
3090 Clear 14 1021 54 10000 2.1 110 18:21 05.02.2020
3091 Clear 16 1020 48 10000 3.1 130 17:58 05.02.2020
3092 Clear 16 1020 48 10000 3.1 130 17:37 05.02.2020
3093 Clear 16 1020 48 10000 3.1 130 17:18 05.02.2020
3094 Clear 17 1020 45 10000 3.1 130 16:44 05.02.2020
3095 Clear 17 1020 45 10000 3.1 130 16:25 05.02.2020
3096 Clear 19 1020 39 10000 2.1 120 15:59 05.02.2020
3097 Clear 19 1020 39 10000 2.1 120 15:59 05.02.2020
3098 Clear 19 1020 39 10000 2.1 120 15:40 05.02.2020
3099 Clear 19 1020 39 10000 2.1 120 15:19 05.02.2020
3100 Clear 20 1019 34 10000 4.6 130 14:54 05.02.2020
3101 Clear 20 1019 34 10000 4.6 130 14:36 05.02.2020
3102 Clear 20 1019 34 10000 4.6 130 14:18 05.02.2020
3103 Clear 20 1020 37 10000 4.1 110 13:40 05.02.2020
3104 Clear 20 1020 37 10000 4.1 110 13:22 05.02.2020
3105 Clear 19 1020 37 10000 3.6 150 12:43 05.02.2020
3106 Clear 19 1020 37 10000 3.6 150 12:24 05.02.2020
3107 Clear 19 1020 37 10000 3.1 130 11:57 05.02.2020
3108 Clear 19 1020 37 10000 3.1 130 11:38 05.02.2020
3109 Clear 19 1020 37 10000 3.1 130 11:20 05.02.2020
3110 Clear 18 1021 39 10000 4.1 150 10:43 05.02.2020
3111 Clear 18 1021 39 10000 4.1 150 10:24 05.02.2020
3112 Clear 16 1022 44 10000 4.1 140 09:58 05.02.2020
3113 Clear 16 1022 44 10000 4.1 140 09:38 05.02.2020
3114 Clear 16 1022 44 10000 4.1 140 09:20 05.02.2020
3115 Clear 14 1021 50 10000 4.6 150 08:44 05.02.2020
3116 Clear 14 1021 50 10000 4.6 150 08:24 05.02.2020
3117 Haze 10 1021 66 4600 4.1 150 07:55 05.02.2020
3118 Haze 10 1021 66 4600 4.1 150 07:33 05.02.2020
3119 Clear 7 1021 75 8000 2.6 150 06:50 05.02.2020
3120 Clear 7 1021 75 8000 2.6 150 06:23 05.02.2020
3121 Clear 6 1021 75 10000 2.6 130 05:58 05.02.2020
3122 Clear 6 1021 75 10000 2.6 130 05:19 05.02.2020
3123 Clear 6 1020 70 10000 3.6 140 04:52 05.02.2020
3124 Clear 7 1019 70 10000 3.1 130 03:56 05.02.2020
3125 Clear 7 1019 65 10000 3.6 150 02:28 05.02.2020
3126 Clear 8 1019 65 10000 3.6 140 01:53 05.02.2020
3127 Clear 8 1019 65 10000 3.6 140 00:53 05.02.2020
3128 Clear 10 1019 57 10000 3.6 130 23:58 04.02.2020
3129 Clear 10 1019 57 10000 3.6 130 23:39 04.02.2020
3130 Clear 10 1019 57 10000 3.6 130 23:18 04.02.2020
3131 Clear 10 1020 61 10000 3.1 130 22:56 04.02.2020
3132 Clear 10 1020 61 10000 3.1 130 22:38 04.02.2020
3133 Clear 10 1020 61 10000 3.1 130 22:19 04.02.2020
3134 Clear 10 1020 61 10000 3.1 130 21:54 04.02.2020
3135 Clear 10 1020 61 10000 3.1 130 21:54 04.02.2020
3136 Clear 11 1020 57 9000 3.1 130 21:36 04.02.2020
3137 Clear 11 1020 57 9000 3.1 130 21:18 04.02.2020
3138 Clear 11 1020 57 9000 3.1 130 20:42 04.02.2020
3139 Clouds 11 1020 53 10000 1.5 110 20:21 04.02.2020
3140 Clouds 11 1019 57 10000 2.1 100 19:58 04.02.2020
3141 Clouds 11 1019 57 10000 2.1 100 19:40 04.02.2020
3142 Clouds 11 1019 57 10000 2.1 100 19:22 04.02.2020
3143 Clouds 12 1019 54 10000 2.1 120 18:56 04.02.2020
3144 Clouds 12 1019 54 10000 2.1 120 18:37 04.02.2020
3145 Clouds 12 1019 54 10000 2.1 120 18:18 04.02.2020
3146 Clouds 13 1019 54 10000 2.1 140 17:43 04.02.2020
3147 Clear 13 1019 54 10000 2.1 140 17:21 04.02.2020
3148 Clear 14 1018 47 10000 3.6 150 16:56 04.02.2020
3149 Clear 14 1018 47 10000 3.6 150 16:37 04.02.2020
3150 Clear 14 1018 47 10000 3.6 150 16:19 04.02.2020
3151 Clear 17 1018 36 10000 4.1 130 15:56 04.02.2020
3152 Clear 17 1018 36 10000 4.1 130 15:37 04.02.2020
3153 Clear 17 1018 36 10000 4.1 130 15:18 04.02.2020
3154 Clear 17 1018 36 10000 3.6 130 14:42 04.02.2020
3155 Clear 17 1018 36 10000 3.6 130 14:23 04.02.2020
3156 Clear 17 1018 33 10000 3.1 110 13:57 04.02.2020
3157 Clear 17 1018 33 10000 3.1 110 13:39 04.02.2020
3158 Clear 17 1018 33 10000 3.1 110 13:20 04.02.2020
3159 Clear 17 1019 33 10000 2.1 110 12:44 04.02.2020
3160 Clear 17 1019 33 10000 2.1 110 12:26 04.02.2020
3161 Clear 16 1020 31 10000 2.1 100 11:58 04.02.2020
3162 Clear 16 1020 31 10000 2.1 100 11:39 04.02.2020
3163 Clear 16 1020 34 10000 2.1 100 11:21 04.02.2020
3164 Clear 16 1020 34 10000 2.6 130 10:56 04.02.2020
3165 Clear 15 1021 38 10000 2.1 170 10:36 04.02.2020
3166 Clear 15 1021 38 10000 2.1 170 10:18 04.02.2020
3167 Clear 14 1021 44 4100 3.6 170 09:41 04.02.2020
3168 Clear 14 1021 44 4100 3.6 170 09:23 04.02.2020
3169 Dust 12 1022 54 4700 3.6 140 08:50 04.02.2020
3170 Dust 12 1022 54 4700 3.6 140 08:29 04.02.2020
3171 Clouds 11 1022 62 4200 1 0 07:59 04.02.2020
3172 Clouds 11 1022 62 4200 1 0 07:39 04.02.2020
3173 Clouds 11 1022 62 4200 1 0 07:39 04.02.2020
3174 Clouds 11 1022 62 4200 1 0 07:21 04.02.2020
3175 Clouds 10 1022 66 4000 2.1 80 06:42 04.02.2020
3176 Mist 3 1022 43 2400 1 110 05:50 04.02.2020
3177 Mist 3 1022 43 2400 1 110 05:22 04.02.2020
3178 Clouds 4 1022 57 9000 0.71 70 03:50 04.02.2020
3179 Clouds 4 1022 57 9000 0.71 70 03:31 04.02.2020
3180 Clouds 5 1022 86 10000 0.71 70 02:51 04.02.2020
3181 Clouds 5 1022 86 10000 0.71 70 02:28 04.02.2020
3182 Clouds 5 1022 56 10000 0.5 270 01:52 04.02.2020
3183 Clouds 5 1022 56 10000 0.5 270 01:33 04.02.2020
3184 Clouds 5 1023 75 10000 0.5 50 00:41 04.02.2020
3185 Clouds 5 1023 75 10000 0.5 50 00:20 04.02.2020
3186 Clouds 6 1023 75 10000 0.93 22 23:39 03.02.2020
3187 Clouds 6 1023 75 10000 1.74 320 23:19 03.02.2020
3188 Clouds 7 1023 65 10000 0.5 0 22:39 03.02.2020
3189 Clouds 7 1023 65 10000 0.5 0 22:20 03.02.2020
3190 Clouds 8 1023 61 10000 1 270 21:54 03.02.2020
3191 Clouds 8 1023 61 10000 1 270 21:36 03.02.2020
3192 Clouds 8 1023 61 10000 1 270 21:18 03.02.2020
3193 Clouds 8 1024 61 10000 0.5 0 20:41 03.02.2020
3194 Clouds 8 1024 61 10000 0.5 0 20:19 03.02.2020
3195 Clouds 8 1024 61 10000 0.5 0 19:56 03.02.2020
3196 Clouds 8 1024 61 10000 0.5 0 19:38 03.02.2020
3197 Clouds 8 1024 61 10000 0.5 0 19:19 03.02.2020
3198 Clouds 9 1024 57 10000 2.1 320 18:45 03.02.2020
3199 Clouds 9 1024 57 10000 2.1 320 18:25 03.02.2020
3200 Clouds 9 1024 61 10000 2.6 310 17:59 03.02.2020
3201 Clouds 9 1024 61 10000 2.6 310 17:59 03.02.2020
3202 Clouds 9 1024 61 10000 2.6 310 17:40 03.02.2020
3203 Clouds 9 1024 61 10000 2.6 310 17:20 03.02.2020
3204 Clouds 9 1024 61 10000 2.6 310 17:20 03.02.2020
3205 Clouds 12 1024 50 10000 4.1 300 16:58 03.02.2020
3206 Clouds 12 1024 50 10000 4.1 300 16:58 03.02.2020
3207 Clouds 12 1024 50 10000 4.1 300 16:38 03.02.2020
3208 Clouds 12 1024 50 10000 4.1 300 16:20 03.02.2020
3209 Clouds 14 1024 44 10000 4.1 310 15:54 03.02.2020
3210 Clouds 14 1024 44 10000 4.1 310 15:36 03.02.2020
3211 Clouds 14 1024 44 10000 4.1 310 15:18 03.02.2020
3212 Clouds 14 1024 44 10000 4.1 300 14:41 03.02.2020
3213 Clouds 14 1024 44 10000 4.1 300 14:23 03.02.2020
3214 Clear 14 1024 41 10000 3.6 300 13:56 03.02.2020
3215 Clear 14 1024 41 10000 3.6 300 13:37 03.02.2020
3216 Clear 14 1024 41 10000 3.6 300 13:19 03.02.2020
3217 Clear 14 1024 44 10000 4.6 300 12:41 03.02.2020
3218 Clear 14 1024 44 10000 4.6 300 12:23 03.02.2020
3219 Clear 14 1025 44 10000 4.6 290 11:59 03.02.2020
3220 Clear 14 1025 44 10000 4.6 290 11:38 03.02.2020
3221 Clear 14 1025 44 10000 4.6 290 11:19 03.02.2020
3222 Clear 13 1026 47 10000 4.1 290 10:55 03.02.2020
3223 Clear 13 1026 47 10000 4.1 290 10:55 03.02.2020
3224 Clear 13 1026 47 10000 4.1 290 10:37 03.02.2020
3225 Clear 13 1026 47 10000 4.1 290 10:18 03.02.2020
3226 Clear 12 1027 58 10000 3.1 280 09:38 03.02.2020
3227 Clear 12 1027 58 10000 3.1 280 09:19 03.02.2020
3228 Clear 10 1027 66 10000 2.1 300 08:41 03.02.2020
3229 Clear 10 1027 66 10000 2.1 300 08:22 03.02.2020
3230 Clear 7 1027 75 7000 2.1 290 07:43 03.02.2020
3231 Clear 7 1027 75 7000 2.1 290 07:23 03.02.2020
3232 Mist 5 1027 86 4600 1 280 06:57 03.02.2020
3233 Mist 5 1027 86 4600 1 280 06:31 03.02.2020
3234 Mist 3 1026 100 4400 2.1 320 05:55 03.02.2020
3235 Mist 3 1026 100 4400 2.1 320 05:33 03.02.2020
3236 Clear 3 1026 100 10000 1.5 310 04:45 03.02.2020
3237 Clear 3 1026 100 10000 1.5 310 04:45 03.02.2020
3238 Clear 4 1026 86 10000 2.6 320 02:48 03.02.2020
3239 Clear 4 1026 86 10000 2.6 320 02:48 03.02.2020
3240 Clear 4 1026 86 10000 2.6 320 02:27 03.02.2020
3241 Clear 6 1026 70 10000 2.1 280 00:49 03.02.2020
3242 Clear 6 1026 70 10000 2.1 280 00:27 03.02.2020
3243 Clear 7 1026 65 10000 1 0 23:56 02.02.2020
3244 Clear 7 1026 65 10000 1 0 23:36 02.02.2020
3245 Clear 7 1026 65 10000 1 0 23:18 02.02.2020
3246 Clear 6 1026 70 10000 1.5 300 22:39 02.02.2020
3247 Clear 6 1026 70 10000 1.5 300 22:21 02.02.2020
3248 Clear 6 1026 70 10000 2.6 310 21:58 02.02.2020
3249 Clear 6 1026 70 10000 2.6 310 21:39 02.02.2020
3250 Clear 6 1026 70 10000 2.6 310 21:20 02.02.2020
3251 Clear 7 1026 65 10000 2.1 310 20:57 02.02.2020
3252 Clear 7 1026 65 10000 2.1 310 20:39 02.02.2020
3253 Clear 7 1026 65 10000 2.1 310 20:20 02.02.2020
3254 Clear 8 1026 61 10000 2.6 300 19:57 02.02.2020
3255 Clear 8 1026 61 10000 2.6 300 19:38 02.02.2020
3256 Clear 8 1026 61 10000 2.6 300 19:38 02.02.2020
3257 Clear 8 1026 61 10000 2.6 300 19:20 02.02.2020
3258 Clear 9 1026 48 10000 3.1 300 18:55 02.02.2020
3259 Clear 9 1026 48 10000 3.1 300 18:37 02.02.2020
3260 Clear 9 1026 48 10000 3.1 300 18:18 02.02.2020
3261 Clear 11 1025 50 10000 4.1 300 17:57 02.02.2020
3262 Clear 11 1025 50 10000 4.1 300 17:37 02.02.2020
3263 Clear 11 1025 50 10000 4.1 300 17:18 02.02.2020
3264 Clear 11 1024 50 10000 3.6 310 16:56 02.02.2020
3265 Clear 11 1024 50 10000 3.6 310 16:37 02.02.2020
3266 Clear 11 1024 50 10000 3.6 310 16:18 02.02.2020
3267 Clear 13 1024 33 10000 3.1 290 15:54 02.02.2020
3268 Clear 13 1024 33 10000 3.1 290 15:36 02.02.2020
3269 Clear 13 1024 33 10000 3.1 290 15:18 02.02.2020
3270 Clouds 14 1024 35 10000 4.6 300 14:41 02.02.2020
3271 Clouds 14 1024 35 10000 4.6 300 14:19 02.02.2020
3272 Clouds 14 1023 34 10000 4.1 320 13:58 02.02.2020
3273 Clouds 14 1023 34 10000 4.1 320 13:39 02.02.2020
3274 Clouds 14 1023 34 10000 4.1 320 13:20 02.02.2020
3275 Clouds 14 1023 44 10000 3.1 280 12:55 02.02.2020
3276 Clouds 14 1023 44 10000 3.1 280 12:36 02.02.2020
3277 Clouds 14 1023 44 10000 3.1 280 12:18 02.02.2020
3278 Clouds 14 1023 47 10000 3.1 300 11:41 02.02.2020
3279 Clouds 14 1023 47 10000 3.1 300 11:41 02.02.2020
3280 Clouds 14 1023 47 10000 3.1 300 11:19 02.02.2020
3281 Clouds 14 1024 47 10000 2.6 270 10:57 02.02.2020
3282 Clouds 14 1024 47 10000 2.6 270 10:38 02.02.2020
3283 Clouds 14 1024 47 10000 2.6 270 10:20 02.02.2020
3284 Clear 12 1024 54 10000 2.1 270 09:56 02.02.2020
3285 Clear 12 1024 54 10000 2.1 270 09:38 02.02.2020
3286 Clear 12 1024 54 10000 2.1 270 09:38 02.02.2020
3287 Clear 12 1024 54 10000 2.1 270 09:20 02.02.2020
3288 Clear 11 1024 57 10000 1 0 08:44 02.02.2020
3289 Clear 11 1024 57 10000 1 0 08:24 02.02.2020
3290 Clouds 8 1024 75 10000 1.5 260 07:47 02.02.2020
3291 Clouds 8 1024 75 10000 1.5 260 07:28 02.02.2020
3292 Clouds 6 1023 93 10000 1 0 06:45 02.02.2020
3293 Clouds 6 1023 93 10000 1 0 06:27 02.02.2020
3294 Mist 6 1023 87 3400 1 0 05:48 02.02.2020
3295 Clouds 6 1022 81 10000 1.5 240 04:52 02.02.2020
3296 Clouds 6 1021 87 10000 1 290 03:30 02.02.2020
3297 Clouds 8 1021 81 10000 1 250 02:35 02.02.2020
3298 Clouds 9 1021 70 10000 1 0 01:55 02.02.2020
3299 Clouds 9 1021 76 10000 1 260 01:26 02.02.2020
3300 Clouds 9 1020 70 10000 1.5 220 00:44 02.02.2020
3301 Clouds 9 1020 70 10000 1.5 220 00:23 02.02.2020
3302 Clouds 10 1020 61 10000 1 0 23:47 01.02.2020
3303 Clouds 10 1020 61 10000 1 0 23:47 01.02.2020
3304 Clouds 10 1020 61 10000 1 0 23:47 01.02.2020
3305 Clouds 10 1020 61 10000 1 0 23:23 01.02.2020
3306 Clouds 10 1020 61 10000 2.1 210 22:59 01.02.2020
3307 Clouds 10 1020 61 10000 2.1 210 22:41 01.02.2020
3308 Clouds 10 1020 61 10000 2.1 210 22:18 01.02.2020
3309 Clouds 11 1020 50 10000 4.6 220 21:39 01.02.2020
3310 Clouds 11 1020 50 10000 4.6 220 21:18 01.02.2020
3311 Clouds 11 1020 53 10000 2.6 220 20:41 01.02.2020
3312 Clouds 11 1020 53 10000 2.6 220 20:20 01.02.2020
3313 Clouds 11 1019 50 10000 1.5 180 19:57 01.02.2020
3314 Clouds 11 1019 50 10000 1.5 180 19:39 01.02.2020
3315 Clouds 11 1019 50 10000 1.5 180 19:20 01.02.2020
3316 Clouds 11 1019 50 10000 0.5 0 18:59 01.02.2020
3317 Clouds 11 1019 50 10000 0.5 0 18:40 01.02.2020
3318 Clouds 11 1019 50 10000 0.5 0 18:40 01.02.2020
3319 Clouds 11 1019 50 10000 0.5 0 18:22 01.02.2020
3320 Clouds 12 1018 37 10000 1.5 200 17:58 01.02.2020
3321 Clouds 12 1018 37 10000 1.5 200 17:40 01.02.2020
3322 Clouds 12 1018 34 10000 1.5 200 17:20 01.02.2020
3323 Clouds 13 1018 34 10000 2.6 260 16:57 01.02.2020
3324 Clouds 13 1018 34 10000 2.6 260 16:38 01.02.2020
3325 Clouds 13 1018 34 10000 2.6 260 16:20 01.02.2020
3326 Clouds 13 1017 37 10000 3.6 260 15:42 01.02.2020
3327 Clouds 13 1017 37 10000 3.6 260 15:24 01.02.2020
3328 Clouds 13 1017 37 10000 3.6 260 14:58 01.02.2020
3329 Clouds 14 1017 35 10000 3.6 240 14:39 01.02.2020
3330 Clouds 14 1017 35 10000 3.6 240 14:20 01.02.2020
3331 Clouds 13 1017 35 10000 4.6 250 13:43 01.02.2020
3332 Clouds 13 1017 35 10000 4.6 250 13:21 01.02.2020
3333 Clouds 14 1017 30 10000 6.2 240 12:44 01.02.2020
3334 Clouds 14 1017 30 10000 6.2 240 12:26 01.02.2020
3335 Clouds 14 1017 33 10000 6.2 250 11:56 01.02.2020
3336 Clouds 14 1017 33 10000 6.2 250 11:37 01.02.2020
3337 Clouds 14 1017 33 10000 6.2 250 11:18 01.02.2020
3338 Clear 13 1017 31 10000 4.1 260 10:55 01.02.2020
3339 Clear 13 1017 31 10000 4.1 260 10:37 01.02.2020
3340 Clear 13 1017 31 10000 4.1 260 10:19 01.02.2020
3341 Clear 12 1018 46 10000 5.7 260 09:41 01.02.2020
3342 Clear 12 1018 46 10000 5.7 260 09:41 01.02.2020
3343 Clear 12 1018 46 10000 5.7 260 09:23 01.02.2020
3344 Clear 10 1018 31 9000 5.1 260 08:59 01.02.2020
3345 Clear 10 1018 31 9000 5.1 260 08:38 01.02.2020
3346 Clear 10 1017 53 10000 5.7 240 07:47 01.02.2020
3347 Clear 10 1017 53 10000 5.7 240 07:25 01.02.2020
3348 Clear 9 1017 39 10000 4.6 230 06:50 01.02.2020
3349 Clear 9 1017 39 10000 4.6 230 06:50 01.02.2020
3350 Clear 9 1017 39 10000 4.6 230 06:19 01.02.2020
3351 Clear 8 1017 39 10000 4.1 230 05:51 01.02.2020
3352 Clear 8 1014 61 10000 3.6 240 03:40 01.02.2020
3353 Clear 8 1014 61 10000 3.6 240 03:20 01.02.2020
3354 Clear 8 1014 61 10000 3.6 220 02:43 01.02.2020
3355 Clear 8 1014 61 10000 3.6 220 02:24 01.02.2020
3356 Clouds 10 1013 57 10000 3.1 270 01:49 01.02.2020
3357 Clouds 10 1013 57 10000 3.1 270 01:30 01.02.2020
3358 Clouds 10 1013 66 10000 2.6 260 00:27 01.02.2020
3359 Clouds 12 1013 71 10000 3.1 300 23:43 31.01.2020
3360 Clouds 12 1013 71 10000 3.1 300 23:20 31.01.2020
3361 Clouds 12 1013 81 10000 3.1 310 22:59 31.01.2020
3362 Clouds 12 1013 81 10000 3.1 310 22:40 31.01.2020
3363 Clouds 12 1013 81 10000 3.1 310 22:21 31.01.2020
3364 Clouds 13 1012 76 10000 5.7 280 21:56 31.01.2020
3365 Clouds 13 1012 76 10000 5.7 280 21:37 31.01.2020
3366 Clouds 13 1012 76 10000 5.7 280 21:37 31.01.2020
3367 Clouds 13 1012 76 10000 5.7 280 21:19 31.01.2020
3368 Clouds 14 1011 54 10000 10.8 160 20:56 31.01.2020
3369 Clouds 14 1011 54 10000 10.8 160 20:37 31.01.2020
3370 Clouds 14 1011 58 10000 8.2 130 20:18 31.01.2020
3371 Clouds 14 1011 58 10000 8.2 130 19:55 31.01.2020
3372 Clouds 14 1011 58 10000 8.2 130 19:37 31.01.2020
3373 Clouds 14 1011 58 10000 8.2 130 19:18 31.01.2020
3374 Clear 14 1011 58 10000 6.2 120 18:41 31.01.2020
3375 Clear 14 1011 58 10000 6.2 120 18:23 31.01.2020
3376 Clear 15 1011 54 10000 6.2 110 17:54 31.01.2020
3377 Clear 15 1011 54 10000 6.2 110 17:36 31.01.2020
3378 Clear 15 1011 54 10000 6.2 110 17:18 31.01.2020
3379 Clear 16 1011 51 10000 6.7 110 16:54 31.01.2020
3380 Clear 16 1011 51 10000 6.7 110 16:36 31.01.2020
3381 Clear 16 1011 51 10000 6.7 110 16:18 31.01.2020
3382 Clear 18 1011 45 10000 7.7 120 15:41 31.01.2020
3383 Clear 18 1011 45 10000 7.7 120 15:20 31.01.2020
3384 Clear 19 1012 42 10000 8.2 130 14:55 31.01.2020
3385 Clear 19 1012 42 10000 8.2 130 14:36 31.01.2020
3386 Clear 19 1012 42 10000 8.2 130 14:36 31.01.2020
3387 Clouds 19 1012 42 10000 8.2 130 14:18 31.01.2020
3388 Clouds 19 1012 42 10000 7.2 130 13:43 31.01.2020
3389 Clouds 19 1012 42 10000 7.2 130 13:24 31.01.2020
3390 Clouds 19 1014 42 10000 7.7 140 12:45 31.01.2020
3391 Clouds 19 1014 42 10000 7.7 140 12:24 31.01.2020
3392 Clouds 19 1014 42 10000 7.2 140 11:56 31.01.2020
3393 Clouds 19 1015 45 10000 6.7 140 11:38 31.01.2020
3394 Clouds 19 1015 45 10000 6.7 140 11:19 31.01.2020
3395 Dust 17 1017 51 4400 6.7 130 10:55 31.01.2020
3396 Dust 17 1017 51 4400 6.7 130 10:37 31.01.2020
3397 Dust 17 1017 51 4400 6.7 130 10:18 31.01.2020
3398 Haze 16 1018 55 3500 5.7 150 09:42 31.01.2020
3399 Haze 16 1018 55 3500 5.7 150 09:22 31.01.2020
3400 Mist 14 1019 62 3000 4.6 140 08:56 31.01.2020
3401 Mist 14 1019 62 3000 4.6 140 08:38 31.01.2020
3402 Mist 14 1019 62 3000 4.6 140 08:20 31.01.2020
3403 Haze 11 1019 76 2500 4.1 140 07:47 31.01.2020
3404 Haze 11 1019 76 2500 4.1 140 07:19 31.01.2020
3405 Mist 8 1019 93 800 3.1 130 06:34 31.01.2020
3406 Mist 7 1019 93 2600 2.6 140 05:54 31.01.2020
3407 Mist 7 1019 93 2600 2.6 140 05:20 31.01.2020
3408 Mist 8 1019 93 2800 3.6 110 04:20 31.01.2020
3409 Mist 7 1019 93 2800 3.1 130 02:49 31.01.2020
3410 Mist 8 1019 93 3500 2.6 120 01:30 31.01.2020
3411 Mist 8 1019 100 3000 2.1 110 00:39 31.01.2020
3412 Mist 8 1019 100 3000 2.1 110 00:39 31.01.2020
3413 Mist 8 1019 100 3000 2.1 110 00:20 31.01.2020
3414 Mist 9 1020 93 3200 1 120 23:40 30.01.2020
3415 Mist 9 1020 93 3200 1 120 23:21 30.01.2020
3416 Mist 9 1020 93 3400 0.5 0 22:39 30.01.2020
3417 Mist 9 1020 93 3400 0.5 0 22:21 30.01.2020
3418 Mist 10 1020 93 4000 1 20 21:58 30.01.2020
3419 Mist 10 1020 93 4000 1 20 21:40 30.01.2020
3420 Mist 10 1020 93 4000 1 20 21:18 30.01.2020
3421 Smoke 11 1021 76 3800 1 360 20:56 30.01.2020
3422 Smoke 11 1021 76 3800 1 360 20:38 30.01.2020
3423 Smoke 11 1021 76 3800 1 360 20:19 30.01.2020
3424 Clear 12 1021 71 5000 2.1 270 19:44 30.01.2020
3425 Clear 12 1021 71 5000 2.1 270 19:19 30.01.2020
3426 Clear 14 1021 62 8000 1 0 18:58 30.01.2020
3427 Clear 14 1021 62 8000 1 0 18:58 30.01.2020
3428 Clear 14 1021 62 8000 1 0 18:37 30.01.2020
3429 Clear 14 1021 62 8000 1 0 18:18 30.01.2020
3430 Clear 14 1021 62 10000 1 140 17:41 30.01.2020
3431 Clear 14 1021 62 10000 1 140 17:19 30.01.2020
3432 Clear 16 1021 55 10000 1 0 16:58 30.01.2020
3433 Clear 16 1021 55 10000 1 0 16:39 30.01.2020
3434 Clear 16 1021 55 10000 1 0 16:21 30.01.2020
3435 Clear 17 1020 51 10000 2.1 170 15:44 30.01.2020
3436 Clear 17 1020 51 10000 2.1 170 15:21 30.01.2020
3437 Clear 18 1020 48 10000 2.6 150 14:57 30.01.2020
3438 Clear 18 1020 48 10000 2.6 150 14:38 30.01.2020
3439 Clear 18 1020 48 10000 2.6 150 14:20 30.01.2020
3440 Clear 18 1021 45 10000 1.5 150 13:41 30.01.2020
3441 Clear 18 1021 45 10000 1.5 150 13:41 30.01.2020
3442 Clear 18 1021 45 10000 1.5 150 13:23 30.01.2020
3443 Clear 18 1021 48 10000 1.5 160 12:55 30.01.2020
3444 Clear 18 1021 48 10000 1.5 160 12:37 30.01.2020
3445 Clear 18 1021 48 10000 1.5 160 12:37 30.01.2020
3446 Clear 18 1021 48 10000 1.5 160 12:18 30.01.2020
3447 Clear 17 1022 51 10000 1.5 70 11:41 30.01.2020
3448 Clear 17 1022 51 10000 1.5 70 11:22 30.01.2020
3449 Dust 16 1022 55 7000 1 0 10:58 30.01.2020
3450 Dust 16 1022 55 7000 1 0 10:39 30.01.2020
3451 Dust 16 1022 55 7000 1 0 10:20 30.01.2020
3452 Dust 14 1024 62 4400 1.5 150 09:45 30.01.2020
3453 Dust 14 1024 62 4400 1.5 150 09:24 30.01.2020
3454 Mist 13 1024 66 3100 1.54 251 08:43 30.01.2020
3455 Mist 13 1024 66 3100 0.85 277 08:22 30.01.2020
3456 Mist 9 1023 87 1400 1.5 270 07:58 30.01.2020
3457 Mist 9 1023 87 1400 1.5 270 07:39 30.01.2020
3458 Mist 9 1023 87 1400 1.5 270 07:18 30.01.2020
3459 Mist 8 1023 93 1200 2.1 250 06:44 30.01.2020
3460 Mist 8 1023 93 1200 2.1 250 06:25 30.01.2020
3461 Mist 6 1022 100 1800 0.5 70 05:30 30.01.2020
3462 Mist 7 1022 93 2100 1.5 90 04:57 30.01.2020
3463 Mist 6 1022 93 3800 0.5 80 03:48 30.01.2020
3464 Mist 8 1021 81 4500 1.5 110 03:00 30.01.2020
3465 Clear 8 1021 87 6000 1 40 01:35 30.01.2020
3466 Clear 8 1021 81 7000 1 70 00:37 30.01.2020
3467 Clear 8 1021 81 7000 1 70 00:18 30.01.2020
3468 Clear 10 1021 76 7000 2.1 100 23:43 29.01.2020
3469 Clear 10 1021 76 7000 2.1 100 23:20 29.01.2020
3470 Clear 11 1020 71 7000 2.6 100 22:56 29.01.2020
3471 Clear 11 1020 71 7000 2.6 100 22:56 29.01.2020
3472 Clear 11 1020 71 7000 2.6 100 22:37 29.01.2020
3473 Clear 11 1020 71 7000 2.6 100 22:18 29.01.2020
3474 Mist 10 1020 76 5000 2.1 90 21:56 29.01.2020
3475 Mist 10 1020 76 5000 2.1 90 21:37 29.01.2020
3476 Mist 10 1020 76 5000 2.1 90 21:18 29.01.2020
3477 Clear 11 1020 76 9000 2.1 70 20:54 29.01.2020
3478 Clear 11 1020 76 9000 2.1 70 20:36 29.01.2020
3479 Clouds 11 1020 76 9000 2.1 70 20:18 29.01.2020
3480 Clouds 12 1019 71 10000 2.6 40 19:54 29.01.2020
3481 Clouds 12 1019 71 10000 2.6 40 19:36 29.01.2020
3482 Clouds 12 1019 71 10000 2.6 40 19:18 29.01.2020
3483 Clouds 12 1019 71 10000 2.1 30 18:40 29.01.2020
3484 Clouds 12 1019 71 10000 2.1 30 18:19 29.01.2020
3485 Clouds 14 1018 62 10000 2.1 70 17:41 29.01.2020
3486 Clouds 14 1018 62 10000 2.1 70 17:41 29.01.2020
3487 Clouds 14 1018 62 10000 2.1 70 17:23 29.01.2020
3488 Clouds 14 1018 62 10000 2.1 70 17:23 29.01.2020
3489 Clouds 15 1017 54 10000 1.5 80 16:57 29.01.2020
3490 Clouds 15 1017 54 10000 1.5 80 16:39 29.01.2020
3491 Clouds 15 1017 54 10000 1.5 80 16:19 29.01.2020
3492 Clouds 17 1016 48 10000 2.6 90 15:40 29.01.2020
3493 Clouds 17 1016 48 10000 2.6 90 15:21 29.01.2020
3494 Clouds 18 1016 45 10000 4.1 110 14:57 29.01.2020
3495 Clouds 18 1016 45 10000 4.1 110 14:39 29.01.2020
3496 Clouds 18 1016 45 10000 4.1 110 14:18 29.01.2020
3497 Clouds 18 1016 45 10000 4.6 110 13:40 29.01.2020
3498 Clouds 18 1016 45 10000 4.6 110 13:22 29.01.2020
3499 Clouds 17 1015 48 10000 5.1 120 12:56 29.01.2020
3500 Clouds 17 1015 48 10000 5.1 120 12:38 29.01.2020
3501 Clouds 17 1015 48 10000 5.1 120 12:20 29.01.2020
3502 Clouds 16 1016 48 10000 4.1 100 11:47 29.01.2020
3503 Clouds 16 1016 48 10000 4.1 100 11:24 29.01.2020
3504 Clouds 15 1017 58 10000 4.6 100 10:58 29.01.2020
3505 Clouds 16 1018 36 0 4.25 85 10:40 29.01.2020
3506 Clouds 14 1017 58 10000 4.6 120 10:20 29.01.2020
3507 Clouds 14 1017 58 10000 4.6 120 09:40 29.01.2020
3508 Clouds 14 1017 58 10000 4.6 120 09:22 29.01.2020
3509 Clouds 12 1018 62 10000 4.1 120 08:58 29.01.2020
3510 Clouds 12 1018 62 10000 4.1 120 08:39 29.01.2020
3511 Clouds 12 1018 62 10000 4.1 120 08:20 29.01.2020
3512 Clouds 11 1018 66 9000 4.6 120 07:45 29.01.2020
3513 Clouds 11 1018 66 9000 4.6 120 07:24 29.01.2020
3514 Haze 10 1018 71 2800 4.1 90 06:55 29.01.2020
3515 Haze 10 1018 71 2800 4.1 90 06:37 29.01.2020
3516 Haze 10 1018 71 2800 4.1 90 06:18 29.01.2020
3517 Clouds 10 1018 71 7000 3.6 100 05:44 29.01.2020
3518 Clouds 10 1018 71 7000 3.6 100 05:25 29.01.2020
3519 Clouds 11 1017 62 10000 5.1 90 04:37 29.01.2020
3520 Clouds 11 1017 71 8000 4.1 80 02:50 29.01.2020
3521 Clouds 11 1018 66 9000 3.1 90 02:18 29.01.2020
3522 Clouds 11 1018 66 10000 3.6 80 00:43 29.01.2020
3523 Clouds 11 1018 66 10000 3.6 80 00:25 29.01.2020
3524 Clouds 11 1018 66 10000 3.1 100 23:58 28.01.2020
3525 Clouds 11 1018 66 10000 3.1 100 23:37 28.01.2020
3526 Clouds 11 1018 66 10000 3.1 100 23:18 28.01.2020
3527 Clouds 11 1019 66 10000 3.1 80 22:40 28.01.2020
3528 Clouds 11 1019 66 10000 3.1 80 22:21 28.01.2020
3529 Clouds 9 1019 76 8000 2.6 110 21:42 28.01.2020
3530 Clouds 9 1019 76 8000 2.6 110 21:42 28.01.2020
3531 Clouds 9 1019 76 8000 2.6 110 21:23 28.01.2020
3532 Clouds 9 1019 76 8000 2.6 110 21:23 28.01.2020
3533 Clouds 11 1019 66 6000 2.6 100 20:58 28.01.2020
3534 Clouds 11 1019 66 6000 2.6 100 20:40 28.01.2020
3535 Clouds 11 1019 66 6000 2.6 100 20:21 28.01.2020
3536 Clouds 10 1019 71 7000 2.6 110 19:39 28.01.2020
3537 Clouds 10 1019 71 7000 2.6 110 19:21 28.01.2020
3538 Clouds 12 1020 66 10000 2.6 70 18:59 28.01.2020
3539 Clouds 12 1020 66 10000 2.6 70 18:40 28.01.2020
3540 Clouds 12 1020 66 10000 2.6 70 18:22 28.01.2020
3541 Clouds 12 1020 66 10000 2.6 70 18:22 28.01.2020
3542 Clouds 13 1020 62 10000 1.5 120 17:59 28.01.2020
3543 Clouds 13 1020 62 10000 1.5 120 17:38 28.01.2020
3544 Clouds 13 1020 62 10000 1.5 120 17:19 28.01.2020
3545 Clouds 14 1020 62 10000 1.5 90 16:55 28.01.2020
3546 Clouds 14 1020 62 10000 1.5 90 16:37 28.01.2020
3547 Clouds 14 1020 62 10000 1.5 90 16:19 28.01.2020
3548 Clouds 15 1020 54 10000 2.1 160 15:44 28.01.2020
3549 Clouds 15 1020 54 10000 2.1 160 15:19 28.01.2020
3550 Clouds 16 1020 51 10000 0.5 0 14:55 28.01.2020
3551 Clouds 16 1020 51 10000 0.5 0 14:36 28.01.2020
3552 Clouds 16 1020 51 10000 0.5 0 14:18 28.01.2020
3553 Clouds 16 1020 51 10000 1.5 290 13:39 28.01.2020
3554 Clouds 16 1020 51 10000 1.5 290 13:21 28.01.2020
3555 Clouds 16 1020 51 10000 1.5 290 13:21 28.01.2020
3556 Clouds 16 1021 48 10000 2.1 230 12:42 28.01.2020
3557 Clouds 16 1021 48 10000 2.1 230 12:24 28.01.2020
3558 Clouds 15 1022 51 10000 1.5 0 11:55 28.01.2020
3559 Clouds 15 1022 51 10000 1.5 0 11:55 28.01.2020
3560 Clouds 15 1022 51 10000 1.5 0 11:37 28.01.2020
3561 Clouds 15 1022 51 10000 1.5 0 11:18 28.01.2020
3562 Clouds 14 1023 54 10000 1.5 240 10:40 28.01.2020
3563 Clouds 14 1023 54 10000 1.5 240 10:22 28.01.2020
3564 Haze 13 1024 54 4600 1 0 09:55 28.01.2020
3565 Haze 13 1024 54 4600 1 0 09:37 28.01.2020
3566 Haze 13 1024 54 4600 1 0 09:18 28.01.2020
3567 Haze 11 1024 66 4500 1 290 08:40 28.01.2020
3568 Haze 11 1024 66 4500 1 290 08:19 28.01.2020
3569 Clouds 8 1024 81 10000 1.5 330 07:38 28.01.2020
3570 Clouds 4 1024 100 10000 1.5 260 06:51 28.01.2020
3571 Clouds 4 1024 100 10000 1.5 260 06:28 28.01.2020
3572 Clouds 4 1023 93 10000 1.5 280 05:55 28.01.2020
3573 Clouds 4 1023 93 10000 1.5 280 05:33 28.01.2020
3574 Clouds 4 1023 100 10000 1 280 04:38 28.01.2020
3575 Clouds 3 1023 100 10000 1 330 03:33 28.01.2020
3576 Clouds 4 1023 93 10000 1.5 220 02:25 28.01.2020
3577 Clouds 4 1023 93 10000 1.5 220 02:25 28.01.2020
3578 Clouds 5 1023 93 10000 1 290 01:58 28.01.2020
3579 Clouds 5 1023 93 10000 1 290 01:40 28.01.2020
3580 Clouds 5 1024 86 10000 1.5 290 00:51 28.01.2020
3581 Clouds 5 1024 86 10000 1.5 290 00:29 28.01.2020
3582 Clouds 5 1024 93 10000 1.5 320 23:52 27.01.2020
3583 Clouds 5 1024 93 10000 1.5 320 23:30 27.01.2020
3584 Clouds 5 1024 100 10000 1 310 22:59 27.01.2020
3585 Clouds 5 1024 100 10000 1 310 22:41 27.01.2020
3586 Clouds 5 1024 100 10000 1 310 22:20 27.01.2020
3587 Clouds 7 1024 75 10000 1 0 21:57 27.01.2020
3588 Clouds 7 1024 75 10000 1 0 21:38 27.01.2020
3589 Clouds 7 1024 75 10000 1 0 21:18 27.01.2020
3590 Clouds 8 1024 70 10000 1 0 20:55 27.01.2020
3591 Clouds 8 1024 70 10000 1 0 20:37 27.01.2020
3592 Clouds 8 1024 70 10000 1 0 20:18 27.01.2020
3593 Clouds 8 1024 75 10000 1.5 300 19:41 27.01.2020
3594 Clouds 8 1024 75 10000 1.5 300 19:23 27.01.2020
3595 Clouds 10 1024 66 10000 2.1 290 18:56 27.01.2020
3596 Clouds 10 1024 66 10000 2.1 290 18:56 27.01.2020
3597 Clouds 10 1024 66 10000 2.1 290 18:38 27.01.2020
3598 Clouds 10 1024 66 10000 2.1 290 18:20 27.01.2020
3599 Clouds 11 1023 45 0 2.79 317 17:39 27.01.2020
3600 Clear 11 1024 66 10000 2.1 300 17:21 27.01.2020
3601 Clear 11 1024 66 10000 2.1 300 16:59 27.01.2020
3602 Clear 11 1024 66 10000 2.1 300 16:41 27.01.2020
3603 Clear 11 1024 66 10000 2.1 300 16:23 27.01.2020
3604 Clear 13 1024 58 10000 3.6 320 15:55 27.01.2020
3605 Clear 13 1024 58 10000 3.6 320 15:37 27.01.2020
3606 Clear 13 1024 58 10000 3.6 320 15:18 27.01.2020
3607 Clear 13 1024 58 10000 3.6 320 15:18 27.01.2020
3608 Clear 15 1024 51 10000 4.6 310 14:43 27.01.2020
3609 Clear 15 1024 51 10000 4.6 310 14:23 27.01.2020
3610 Clouds 15 1024 47 10000 5.1 290 13:58 27.01.2020
3611 Clouds 15 1024 47 10000 5.1 290 13:40 27.01.2020
3612 Clouds 15 1024 47 10000 5.1 290 13:20 27.01.2020
3613 Clouds 15 1024 47 10000 3.6 290 12:55 27.01.2020
3614 Clouds 15 1024 47 10000 3.6 290 12:37 27.01.2020
3615 Clouds 15 1024 47 10000 3.6 290 12:18 27.01.2020
3616 Clear 14 1025 58 10000 4.1 290 11:41 27.01.2020
3617 Clear 14 1025 58 10000 4.1 290 11:21 27.01.2020
3618 Clear 13 1025 58 10000 4.6 290 10:43 27.01.2020
3619 Clear 13 1025 58 10000 4.6 290 10:24 27.01.2020
3620 Clear 13 1026 62 10000 4.1 290 09:56 27.01.2020
3621 Clear 11 1026 71 10000 3.6 290 09:38 27.01.2020
3622 Clear 11 1026 71 10000 3.6 290 09:18 27.01.2020
3623 Clear 8 1027 75 10000 3.1 300 08:42 27.01.2020
3624 Clear 8 1027 75 10000 3.1 300 08:20 27.01.2020
3625 Clear 6 1027 93 10000 3.1 290 07:54 27.01.2020
3626 Clear 6 1027 93 10000 3.1 290 07:34 27.01.2020
3627 Clear 6 1026 93 10000 2.6 270 06:53 27.01.2020
3628 Clear 5 1026 100 10000 2.1 300 06:25 27.01.2020
3629 Clear 4 1026 100 10000 2.6 280 05:24 27.01.2020
3630 Clear 5 1024 100 10000 2.6 280 03:49 27.01.2020
3631 Clear 5 1025 100 10000 2.1 260 02:38 27.01.2020
3632 Clear 6 1025 81 10000 2.1 270 01:29 27.01.2020
3633 Clear 7 1025 75 10000 3.1 280 00:57 27.01.2020
3634 Clear 7 1025 75 10000 3.1 280 00:36 27.01.2020
3635 Clear 7 1025 75 10000 3.1 280 00:18 27.01.2020
3636 Clear 7 1025 75 10000 3.1 280 00:18 27.01.2020
3637 Clear 7 1025 75 10000 3.1 270 23:41 26.01.2020
3638 Clear 7 1025 75 10000 3.1 270 23:19 26.01.2020
3639 Clear 8 1025 70 10000 2.1 260 22:55 26.01.2020
3640 Clear 8 1025 70 10000 2.1 260 22:36 26.01.2020
3641 Clear 8 1025 70 10000 2.1 260 22:18 26.01.2020
3642 Clear 8 1025 75 10000 3.1 260 21:55 26.01.2020
3643 Clear 8 1025 75 10000 3.1 260 21:37 26.01.2020
3644 Clear 8 1025 75 10000 3.1 260 21:19 26.01.2020
3645 Clear 7 1025 81 10000 2.6 250 20:55 26.01.2020
3646 Clear 8 1026 70 10000 1.5 250 20:36 26.01.2020
3647 Clear 8 1026 70 10000 1.5 250 20:18 26.01.2020
3648 Clear 8 1026 75 10000 2.1 280 19:56 26.01.2020
3649 Clear 8 1026 75 10000 2.1 280 19:36 26.01.2020
3650 Clear 8 1026 75 10000 2.1 280 19:18 26.01.2020
3651 Clear 8 1026 70 10000 2.1 260 18:41 26.01.2020
3652 Clear 9 1026 70 10000 1.5 250 18:22 26.01.2020
3653 Clear 10 1026 61 10000 1.5 290 17:58 26.01.2020
3654 Clear 10 1026 61 10000 1.5 290 17:39 26.01.2020
3655 Clear 10 1026 61 10000 1.5 290 17:19 26.01.2020
3656 Clear 11 1025 57 10000 3.1 310 16:58 26.01.2020
3657 Clear 11 1025 57 10000 3.1 310 16:39 26.01.2020
3658 Clear 11 1025 57 10000 3.1 310 16:39 26.01.2020
3659 Clear 11 1025 57 10000 3.1 310 16:39 26.01.2020
3660 Clear 11 1025 57 10000 3.1 310 16:20 26.01.2020
3661 Clear 11 1024 47 0 4.53 293 15:57 26.01.2020
3662 Clear 11 1024 47 0 4.53 293 15:39 26.01.2020
3663 Clear 11 1024 47 0 4.53 293 15:18 26.01.2020
3664 Clear 11 1024 47 0 4.53 293 14:40 26.01.2020
3665 Clear 11 1024 47 0 4.53 293 14:40 26.01.2020
3666 Clear 14 1024 34 0 6.23 306 14:20 26.01.2020
3667 Clear 14 1024 34 0 6.23 306 13:55 26.01.2020
3668 Clear 14 1024 34 0 6.23 306 13:37 26.01.2020
3669 Clear 14 1024 36 0 6.28 305 13:18 26.01.2020
3670 Clear 14 1024 36 0 6.28 305 13:18 26.01.2020
3671 Clear 14 1024 36 0 6.28 305 12:41 26.01.2020
3672 Clear 14 1024 36 0 6.28 305 12:23 26.01.2020
3673 Clear 14 1024 36 0 6.28 305 11:57 26.01.2020
3674 Clear 14 1024 36 0 6.28 305 11:39 26.01.2020
3675 Clear 13 1027 54 10000 7.2 310 11:19 26.01.2020
3676 Clear 13 1027 54 10000 7.2 310 10:58 26.01.2020
3677 Clear 13 1027 54 10000 7.2 310 10:38 26.01.2020
3678 Clear 13 1027 54 10000 7.2 310 10:20 26.01.2020
3679 Clear 11 1028 62 10000 6.7 300 09:57 26.01.2020
3680 Clear 11 1028 62 10000 6.7 300 09:39 26.01.2020
3681 Clear 11 1028 62 10000 6.7 300 09:20 26.01.2020
3682 Clear 10 1027 66 10000 5.1 290 08:43 26.01.2020
3683 Clear 10 1027 66 10000 5.1 290 08:22 26.01.2020
3684 Clear 8 1027 75 10000 4.1 280 07:57 26.01.2020
3685 Clear 8 1027 75 10000 4.1 280 07:39 26.01.2020
3686 Clear 8 1027 75 10000 4.1 280 07:20 26.01.2020
3687 Clear 6 1027 81 10000 1.5 260 06:30 26.01.2020
3688 Clear 6 1026 75 10000 5.1 310 05:31 26.01.2020
3689 Clear 6 1026 75 10000 5.1 310 04:45 26.01.2020
3690 Clear 7 1026 75 10000 5.7 310 02:42 26.01.2020
3691 Clear 7 1026 81 10000 4.1 300 01:48 26.01.2020
3692 Clear 7 1026 81 10000 4.1 300 01:24 26.01.2020
3693 Clear 7 1025 93 10000 3.6 310 00:48 26.01.2020
3694 Clear 7 1025 93 10000 3.6 310 00:29 26.01.2020
3695 Clear 9 1024 60 0 6.41 319 23:41 25.01.2020
3696 Clear 9 1024 60 0 6.41 319 23:22 25.01.2020
3697 Clear 10 1024 58 0 7.1 326 22:58 25.01.2020
3698 Clear 10 1024 58 0 7.1 326 22:40 25.01.2020
3699 Clear 10 1024 58 0 7.1 326 22:19 25.01.2020
3700 Clear 10 1024 58 0 7.1 326 21:57 25.01.2020
3701 Clear 10 1024 58 0 7.1 326 21:38 25.01.2020
3702 Clear 10 1024 58 0 7.1 326 21:19 25.01.2020
3703 Clear 10 1024 58 0 7.1 326 20:44 25.01.2020
3704 Clear 10 1024 58 0 7.1 326 20:25 25.01.2020
3705 Clouds 11 1024 57 0 4.71 306 19:55 25.01.2020
3706 Clouds 11 1024 57 0 4.71 306 19:37 25.01.2020
3707 Clouds 11 1024 57 0 4.71 306 19:18 25.01.2020
3708 Clouds 11 1024 57 0 4.71 306 18:41 25.01.2020
3709 Clouds 11 1024 57 0 4.71 306 18:21 25.01.2020
3710 Clouds 11 1024 57 0 4.71 306 17:58 25.01.2020
3711 Clouds 11 1024 57 0 4.71 306 17:38 25.01.2020
3712 Clouds 11 1023 69 0 0.41 324 17:18 25.01.2020
3713 Clouds 11 1023 67 0 1.13 299 16:42 25.01.2020
3714 Clouds 11 1023 67 0 1.13 299 16:23 25.01.2020
3715 Clouds 11 1023 67 0 1.13 299 15:58 25.01.2020
3716 Clouds 11 1023 67 0 1.13 299 15:39 25.01.2020
3717 Clouds 11 1023 67 0 1.13 299 15:21 25.01.2020
3718 Clouds 11 1023 67 0 1.13 299 14:43 25.01.2020
3719 Clouds 13 1021 59 0 4.97 65 14:19 25.01.2020
3720 Clouds 13 1021 59 0 4.97 65 13:54 25.01.2020
3721 Clouds 13 1021 59 0 4.97 65 13:36 25.01.2020
3722 Clouds 12 1021 60 0 3.85 83 13:18 25.01.2020
3723 Clouds 12 1021 60 0 3.85 83 12:39 25.01.2020
3724 Clouds 12 1022 71 9000 4.1 40 12:20 25.01.2020
3725 Clouds 12 1022 71 9000 4.1 40 11:40 25.01.2020
3726 Clouds 12 1022 71 9000 4.1 40 11:20 25.01.2020
3727 Clouds 11 1022 71 10000 3.1 80 10:56 25.01.2020
3728 Clouds 11 1022 71 10000 3.1 80 10:38 25.01.2020
3729 Clouds 11 1022 71 10000 3.1 80 10:38 25.01.2020
3730 Clouds 11 1022 71 10000 3.1 80 10:18 25.01.2020
3731 Clouds 10 1022 71 10000 4.6 50 09:40 25.01.2020
3732 Clouds 10 1022 71 10000 4.6 50 09:20 25.01.2020
3733 Clouds 8 1021 87 10000 3.1 40 08:43 25.01.2020
3734 Clouds 8 1020 87 10000 2.6 80 07:59 25.01.2020
3735 Clouds 8 1020 87 10000 2.6 80 07:36 25.01.2020
3736 Clouds 7 1019 93 10000 1 0 06:41 25.01.2020
3737 Clouds 7 1019 93 10000 1 0 06:22 25.01.2020
3738 Clouds 6 1018 100 10000 3.6 100 05:43 25.01.2020
3739 Rain 6 1017 93 10000 2.6 110 04:24 25.01.2020
3740 Clouds 6 1016 93 10000 2.6 150 03:50 25.01.2020
3741 Clouds 6 1015 100 10000 3.1 170 02:38 25.01.2020
3742 Clouds 7 1015 93 10000 3.6 180 01:58 25.01.2020
3743 Clouds 7 1015 93 10000 3.6 180 01:23 25.01.2020
3744 Rain 7 1015 100 10000 2.6 160 00:41 25.01.2020
3745 Rain 7 1015 100 10000 2.6 160 00:41 25.01.2020
3746 Rain 7 1015 100 10000 2.6 160 00:22 25.01.2020
3747 Rain 8 1015 93 6000 3.1 230 23:42 24.01.2020
3748 Rain 8 1015 93 6000 3.1 230 23:24 24.01.2020
3749 Rain 9 1015 93 5000 6.2 160 22:47 24.01.2020
3750 Rain 9 1015 93 5000 6.2 160 22:29 24.01.2020
3751 Rain 9 1015 93 5000 3.6 170 21:59 24.01.2020
3752 Rain 9 1015 93 5000 3.6 170 21:41 24.01.2020
3753 Rain 9 1015 93 5000 3.6 170 21:19 24.01.2020
3754 Rain 9 1015 93 6000 4.1 130 20:44 24.01.2020
3755 Rain 9 1015 93 6000 4.1 130 20:23 24.01.2020
3756 Rain 10 1015 93 4500 6.2 180 19:59 24.01.2020
3757 Rain 10 1015 93 4500 6.2 180 19:40 24.01.2020
3758 Rain 10 1015 93 4500 6.2 180 19:22 24.01.2020
3759 Rain 11 1014 76 7000 6.7 130 18:57 24.01.2020
3760 Rain 11 1014 76 7000 6.7 130 18:39 24.01.2020
3761 Rain 11 1014 76 7000 6.7 130 18:21 24.01.2020
3762 Rain 11 1014 76 7000 6.7 130 18:21 24.01.2020
3763 Rain 12 1013 66 10000 8.7 140 17:42 24.01.2020
3764 Rain 12 1013 66 10000 8.7 140 17:21 24.01.2020
3765 Rain 13 1012 58 10000 9.3 130 16:55 24.01.2020
3766 Rain 13 1012 58 10000 9.3 130 16:36 24.01.2020
3767 Rain 13 1012 58 10000 9.3 130 16:18 24.01.2020
3768 Clouds 13 1012 62 10000 8.2 120 15:41 24.01.2020
3769 Clouds 13 1012 62 10000 8.2 120 15:21 24.01.2020
3770 Clouds 14 1012 58 10000 8.7 130 14:42 24.01.2020
3771 Clouds 14 1012 58 10000 8.7 130 14:23 24.01.2020
3772 Clouds 13 1013 62 10000 6.7 130 13:58 24.01.2020
3773 Clouds 13 1013 62 10000 6.7 130 13:40 24.01.2020
3774 Clouds 13 1013 62 10000 6.7 130 13:21 24.01.2020
3775 Clouds 12 1014 62 10000 6.7 140 12:42 24.01.2020
3776 Clouds 12 1014 62 10000 6.7 140 12:19 24.01.2020
3777 Clouds 11 1015 66 10000 6.2 140 11:44 24.01.2020
3778 Clouds 11 1015 66 10000 6.2 140 11:19 24.01.2020
3779 Clouds 10 1017 76 10000 4.6 140 10:43 24.01.2020
3780 Clouds 10 1017 76 10000 4.6 140 10:23 24.01.2020
3781 Clouds 9 1017 81 9000 6.2 140 09:59 24.01.2020
3782 Clouds 9 1017 81 9000 6.2 140 09:40 24.01.2020
3783 Clouds 9 1017 81 9000 6.2 140 09:22 24.01.2020
3784 Mist 9 1018 93 2500 5.7 170 08:41 24.01.2020
3785 Mist 9 1018 93 2500 5.7 170 08:20 24.01.2020
3786 Mist 8 1017 93 1700 7.2 110 07:53 24.01.2020
3787 Mist 8 1017 93 1700 7.2 110 07:35 24.01.2020
3788 Mist 8 1018 93 3100 6.7 140 06:52 24.01.2020
3789 Mist 8 1018 93 3100 6.7 140 06:33 24.01.2020
3790 Mist 8 1018 93 3000 6.7 140 05:59 24.01.2020
3791 Mist 7 1017 93 2800 5.7 140 05:18 24.01.2020
3792 Mist 7 1018 93 3600 4.1 140 02:54 24.01.2020
3793 Mist 7 1018 93 3600 4.1 140 02:27 24.01.2020
3794 Mist 7 1019 93 3200 3.6 140 01:49 24.01.2020
3795 Mist 7 1019 93 3200 3.6 140 01:31 24.01.2020
3796 Mist 7 1019 93 4000 4.1 150 00:31 24.01.2020
3797 Mist 7 1019 100 4500 4.1 140 23:56 23.01.2020
3798 Mist 7 1019 100 4500 4.1 140 23:37 23.01.2020
3799 Mist 7 1019 100 4500 4.1 140 23:18 23.01.2020
3800 Mist 7 1020 100 4500 3.6 140 22:39 23.01.2020
3801 Mist 7 1020 100 4500 3.6 140 22:19 23.01.2020
3802 Mist 7 1021 100 4700 3.6 150 21:58 23.01.2020
3803 Mist 8 1021 93 4800 3.1 150 21:39 23.01.2020
3804 Mist 8 1021 93 4800 3.1 150 21:21 23.01.2020
3805 Mist 8 1021 100 6000 3.1 160 20:59 23.01.2020
3806 Mist 8 1021 100 6000 3.1 160 20:39 23.01.2020
3807 Mist 8 1021 100 6000 3.1 160 20:39 23.01.2020
3808 Mist 8 1021 100 6000 3.1 160 20:20 23.01.2020
3809 Clouds 9 1020 87 8000 3.6 150 19:56 23.01.2020
3810 Clouds 9 1020 87 8000 3.6 150 19:38 23.01.2020
3811 Clouds 9 1020 87 8000 3.6 150 19:19 23.01.2020
3812 Clouds 10 1021 81 10000 2.6 170 18:56 23.01.2020
3813 Clouds 10 1021 81 10000 2.6 170 18:37 23.01.2020
3814 Clouds 10 1021 81 10000 2.6 170 18:19 23.01.2020
3815 Clouds 11 1020 76 10000 1 160 17:43 23.01.2020
3816 Clouds 11 1020 76 10000 1 160 17:20 23.01.2020
3817 Clouds 13 1020 66 10000 1.5 200 16:58 23.01.2020
3818 Clouds 13 1020 66 10000 1.5 200 16:37 23.01.2020
3819 Clouds 13 1020 66 10000 1.5 200 16:18 23.01.2020
3820 Clouds 14 1019 58 10000 2.6 230 15:57 23.01.2020
3821 Clouds 14 1019 58 10000 2.6 230 15:37 23.01.2020
3822 Clouds 14 1019 58 10000 2.6 230 15:18 23.01.2020
3823 Clouds 14 1019 62 10000 2.1 230 14:55 23.01.2020
3824 Clouds 14 1019 62 10000 2.1 230 14:55 23.01.2020
3825 Clouds 14 1019 62 10000 0.5 0 14:37 23.01.2020
3826 Clouds 14 1019 62 10000 0.5 0 14:19 23.01.2020
3827 Clouds 13 1019 71 10000 2.6 210 13:43 23.01.2020
3828 Clouds 13 1019 71 10000 2.6 210 13:20 23.01.2020
3829 Clouds 13 1019 71 10000 1.5 140 12:54 23.01.2020
3830 Clouds 13 1019 71 10000 1.5 140 12:36 23.01.2020
3831 Clouds 13 1019 71 10000 1.5 140 12:18 23.01.2020
3832 Clouds 12 1019 71 9000 2.1 150 11:42 23.01.2020
3833 Clouds 12 1019 71 9000 2.1 150 11:23 23.01.2020
3834 Clouds 12 1020 76 8000 1 0 10:56 23.01.2020
3835 Clouds 12 1020 76 8000 1 0 10:38 23.01.2020
3836 Clouds 12 1020 76 8000 1 0 10:18 23.01.2020
3837 Clouds 11 1020 87 6000 2.1 120 09:40 23.01.2020
3838 Clouds 11 1020 87 6000 2.1 120 09:21 23.01.2020
3839 Mist 10 1020 93 5000 1 0 08:43 23.01.2020
3840 Mist 10 1020 93 5000 1 0 08:25 23.01.2020
3841 Mist 9 1019 100 4400 1.5 220 07:52 23.01.2020
3842 Mist 9 1019 100 4400 1.5 220 07:27 23.01.2020
3843 Mist 9 1019 93 2100 0.5 0 06:58 23.01.2020
3844 Mist 9 1019 93 2100 0.5 0 06:25 23.01.2020
3845 Mist 8 1018 100 4300 1.44 276 05:59 23.01.2020
3846 Clouds 8 1018 100 5000 1.5 250 04:25 23.01.2020
3847 Clouds 9 1017 93 6000 1 350 03:23 23.01.2020
3848 Clouds 9 1017 93 10000 1.5 20 01:53 23.01.2020
3849 Clouds 9 1017 93 9000 1.5 10 00:44 23.01.2020
3850 Clouds 9 1017 93 9000 1.5 10 00:22 23.01.2020
3851 Clouds 9 1017 93 10000 2.1 60 23:46 22.01.2020
3852 Clouds 9 1017 93 10000 2.1 60 23:28 22.01.2020
3853 Clouds 9 1016 93 9000 1.5 90 22:43 22.01.2020
3854 Clouds 9 1016 93 9000 1.5 90 22:25 22.01.2020
3855 Clouds 9 1016 93 8000 2.1 120 21:59 22.01.2020
3856 Clouds 9 1016 93 8000 2.1 120 21:38 22.01.2020
3857 Clouds 9 1016 93 8000 2.1 120 21:19 22.01.2020
3858 Clouds 9 1015 93 10000 3.6 130 20:42 22.01.2020
3859 Clouds 9 1015 93 10000 3.6 130 20:23 22.01.2020
3860 Clouds 9 1015 93 6000 4.1 100 19:59 22.01.2020
3861 Clouds 9 1015 93 6000 4.1 100 19:41 22.01.2020
3862 Clouds 9 1015 93 6000 4.1 100 19:21 22.01.2020
3863 Clouds 9 1015 93 7000 2.6 100 18:59 22.01.2020
3864 Clouds 9 1015 93 7000 2.6 100 18:40 22.01.2020
3865 Clouds 9 1015 93 7000 2.6 100 18:21 22.01.2020
3866 Clouds 9 1014 93 10000 2.6 210 17:59 22.01.2020
3867 Clouds 9 1014 93 10000 2.6 210 17:39 22.01.2020
3868 Clouds 9 1014 93 10000 2.6 210 17:20 22.01.2020
3869 Clouds 9 1014 93 10000 2.6 210 17:20 22.01.2020
3870 Clouds 9 1013 93 10000 3.1 200 16:55 22.01.2020
3871 Clouds 9 1013 93 10000 3.1 200 16:55 22.01.2020
3872 Clouds 9 1013 93 10000 3.1 200 16:55 22.01.2020
3873 Clouds 9 1013 93 10000 3.1 200 16:37 22.01.2020
3874 Clouds 9 1013 93 10000 3.1 200 16:18 22.01.2020
3875 Mist 9 1013 93 4500 2.6 210 15:42 22.01.2020
3876 Mist 9 1013 93 4500 2.6 210 15:24 22.01.2020
3877 Rain 9 1013 93 3600 1.5 200 14:59 22.01.2020
3878 Rain 9 1013 93 3600 1.5 200 14:38 22.01.2020
3879 Rain 9 1013 93 3600 1.5 200 14:20 22.01.2020
3880 Clouds 9 1012 93 10000 3.1 260 13:56 22.01.2020
3881 Clouds 9 1012 93 10000 3.1 260 13:37 22.01.2020
3882 Clouds 9 1012 93 10000 3.1 260 13:19 22.01.2020
3883 Clouds 9 1013 87 10000 2.1 260 12:57 22.01.2020
3884 Clouds 9 1013 87 10000 2.1 260 12:38 22.01.2020
3885 Clouds 9 1013 87 10000 2.1 260 12:19 22.01.2020
3886 Rain 9 1013 81 10000 2.1 240 11:56 22.01.2020
3887 Rain 9 1013 81 10000 2.1 240 11:38 22.01.2020
3888 Rain 9 1013 81 10000 2.1 240 11:19 22.01.2020
3889 Rain 9 1014 87 10000 1.5 210 10:45 22.01.2020
3890 Rain 9 1014 87 10000 1.5 210 10:21 22.01.2020
3891 Rain 9 1015 93 10000 4.6 140 09:58 22.01.2020
3892 Rain 9 1015 93 10000 4.6 140 09:40 22.01.2020
3893 Rain 9 1015 93 10000 4.6 140 09:21 22.01.2020
3894 Rain 10 1015 93 7000 4.1 100 08:55 22.01.2020
3895 Rain 10 1015 93 7000 4.1 100 08:36 22.01.2020
3896 Rain 10 1015 93 7000 4.1 100 08:18 22.01.2020
3897 Rain 10 1015 93 4800 3.6 90 07:42 22.01.2020
3898 Rain 10 1015 93 4800 3.6 90 07:23 22.01.2020
3899 Clouds 10 1015 93 10000 3.6 110 06:33 22.01.2020
3900 Drizzle 10 1015 93 10000 2.1 110 05:45 22.01.2020
3901 Rain 10 1014 100 10000 4.6 90 04:25 22.01.2020
3902 Rain 10 1014 100 10000 4.6 90 03:26 22.01.2020
3903 Rain 10 1014 93 10000 4.1 90 02:39 22.01.2020
3904 Clouds 10 1015 87 10000 2.6 50 00:47 22.01.2020
3905 Clouds 10 1015 87 10000 2.6 50 00:47 22.01.2020
3906 Clouds 10 1015 87 10000 2.6 50 00:27 22.01.2020
3907 Clouds 10 1015 87 10000 4.1 70 23:55 21.01.2020
3908 Clouds 10 1015 87 10000 4.1 70 23:37 21.01.2020
3909 Clouds 10 1015 87 10000 4.1 70 23:18 21.01.2020
3910 Clouds 9 1016 100 10000 3.1 110 22:40 21.01.2020
3911 Clouds 9 1016 100 10000 3.1 110 22:21 21.01.2020
3912 Clouds 9 1016 100 10000 1 0 21:58 21.01.2020
3913 Clouds 9 1016 100 10000 1 0 21:38 21.01.2020
3914 Clouds 9 1016 100 10000 1 0 21:20 21.01.2020
3915 Rain 9 1016 93 10000 4.6 320 20:57 21.01.2020
3916 Rain 9 1016 93 10000 4.6 320 20:38 21.01.2020
3917 Rain 9 1016 93 10000 4.6 320 20:20 21.01.2020
3918 Clouds 10 1016 93 10000 3.6 330 19:57 21.01.2020
3919 Clouds 10 1016 93 10000 3.6 330 19:38 21.01.2020
3920 Clouds 10 1016 93 10000 3.6 330 19:20 21.01.2020
3921 Thunderstorm 10 1017 81 8000 7.2 250 18:55 21.01.2020
3922 Thunderstorm 10 1017 81 8000 7.2 250 18:37 21.01.2020
3923 Thunderstorm 10 1017 81 8000 7.2 250 18:18 21.01.2020
3924 Clouds 12 1015 76 10000 1.5 100 17:45 21.01.2020
3925 Clouds 12 1015 76 10000 1.5 100 17:20 21.01.2020
3926 Clouds 12 1015 76 10000 1.5 170 16:59 21.01.2020
3927 Clouds 12 1015 76 10000 1.5 170 16:37 21.01.2020
3928 Clouds 12 1015 76 10000 1.5 170 16:19 21.01.2020
3929 Clouds 13 1014 62 10000 2.1 230 15:54 21.01.2020
3930 Clouds 13 1014 62 10000 2.1 230 15:36 21.01.2020
3931 Clouds 13 1014 62 10000 2.1 230 15:18 21.01.2020
3932 Clouds 15 1015 62 10000 4.6 210 14:38 21.01.2020
3933 Clouds 15 1015 62 10000 4.6 210 14:20 21.01.2020
3934 Clouds 15 1015 58 10000 3.6 190 13:40 21.01.2020
3935 Clouds 15 1015 58 10000 3.6 190 13:19 21.01.2020
3936 Clouds 15 1015 62 10000 3.6 190 12:45 21.01.2020
3937 Clouds 15 1015 62 10000 3.6 190 12:27 21.01.2020
3938 Clouds 15 1016 62 10000 3.1 180 11:58 21.01.2020
3939 Clouds 15 1016 62 10000 3.1 180 11:40 21.01.2020
3940 Clouds 15 1016 62 10000 3.1 180 11:21 21.01.2020
3941 Clouds 14 1017 67 9000 1.5 0 10:55 21.01.2020
3942 Clouds 14 1017 67 9000 1.5 0 10:37 21.01.2020
3943 Clouds 14 1017 67 9000 1.5 0 10:18 21.01.2020
3944 Clouds 13 1018 71 9000 1.5 80 09:41 21.01.2020
3945 Clouds 13 1018 71 9000 1.5 80 09:22 21.01.2020
3946 Clouds 12 1018 76 7000 0.5 0 08:50 21.01.2020
3947 Clouds 12 1018 76 7000 0.5 0 08:30 21.01.2020
3948 Clouds 11 1018 87 8000 1.5 210 07:59 21.01.2020
3949 Clouds 11 1018 87 8000 1.5 210 07:40 21.01.2020
3950 Clouds 11 1018 87 8000 1.5 210 07:40 21.01.2020
3951 Clouds 11 1018 87 8000 1.5 210 07:21 21.01.2020
3952 Clouds 8 1018 100 10000 1 210 06:49 21.01.2020
3953 Clouds 8 1018 100 10000 1 210 06:29 21.01.2020
3954 Clouds 8 1018 100 10000 1 210 06:29 21.01.2020
3955 Clouds 8 1018 100 10000 1 210 06:29 21.01.2020
3956 Clouds 8 1018 93 10000 2.1 220 05:42 21.01.2020
3957 Clouds 8 1017 100 10000 2.6 220 04:40 21.01.2020
3958 Clouds 10 1017 80 0 0.41 207 02:57 21.01.2020
3959 Clouds 10 1018 93 10000 3.1 320 01:55 21.01.2020
3960 Clouds 10 1018 93 10000 3.1 320 01:18 21.01.2020
3961 Rain 11 1020 93 10000 6.7 250 00:37 21.01.2020
3962 Rain 11 1020 81 10000 6.2 230 23:59 20.01.2020
3963 Rain 11 1020 81 10000 6.2 230 23:39 20.01.2020
3964 Rain 11 1020 81 10000 6.2 230 23:39 20.01.2020
3965 Rain 11 1020 81 10000 6.2 230 23:19 20.01.2020
3966 Rain 12 1020 71 10000 7.2 280 22:56 20.01.2020
3967 Rain 12 1020 71 10000 7.2 280 22:37 20.01.2020
3968 Rain 12 1020 71 10000 7.2 280 22:19 20.01.2020
3969 Rain 8 1020 70 10000 1 0 21:57 20.01.2020
3970 Rain 8 1020 70 10000 1 0 21:37 20.01.2020
3971 Rain 8 1020 70 10000 1 0 21:19 20.01.2020
3972 Rain 11 1019 66 10000 2.99 294 20:55 20.01.2020
3973 Rain 11 1019 66 10000 2.99 294 20:37 20.01.2020
3974 Clear 11 1019 66 10000 1.57 171 20:18 20.01.2020
3975 Clear 11 1020 62 10000 1 290 19:56 20.01.2020
3976 Clear 11 1020 62 10000 1 290 19:37 20.01.2020
3977 Clear 11 1020 62 10000 1 290 19:18 20.01.2020
3978 Clear 14 1020 54 10000 1 180 18:43 20.01.2020
3979 Clear 14 1020 54 10000 1 180 18:43 20.01.2020
3980 Clear 14 1020 54 10000 1 180 18:22 20.01.2020
3981 Clear 14 1020 58 10000 0.5 0 17:41 20.01.2020
3982 Clear 14 1020 58 10000 0.5 0 17:20 20.01.2020
3983 Clear 14 1020 58 10000 0.5 0 17:20 20.01.2020
3984 Clouds 16 1020 51 10000 2.1 210 16:59 20.01.2020
3985 Clouds 16 1020 51 10000 2.1 210 16:37 20.01.2020
3986 Clouds 16 1020 51 10000 2.1 210 16:18 20.01.2020
3987 Clouds 16 1020 51 10000 2.1 210 16:18 20.01.2020
3988 Clouds 16 1020 51 10000 2.1 210 16:18 20.01.2020
3989 Clouds 16 1020 51 10000 2.1 210 16:18 20.01.2020
3990 Clouds 18 1020 42 10000 3.6 240 15:56 20.01.2020
3991 Clouds 18 1020 42 10000 3.6 240 15:38 20.01.2020
3992 Clouds 18 1020 42 10000 3.6 240 15:20 20.01.2020
3993 Clouds 19 1020 42 10000 3.1 230 14:41 20.01.2020
3994 Clouds 19 1020 42 10000 3.1 230 14:22 20.01.2020
3995 Clouds 20 1020 40 10000 2.1 220 13:58 20.01.2020
3996 Clouds 19 1020 45 10000 2.1 220 13:40 20.01.2020
3997 Clouds 19 1020 45 10000 2.1 220 13:21 20.01.2020
3998 Clear 19 1020 48 10000 3.1 190 12:46 20.01.2020
3999 Clear 19 1020 48 10000 3.1 190 12:28 20.01.2020
4000 Clear 19 1021 45 10000 2.6 180 11:58 20.01.2020
4001 Clear 19 1021 45 10000 2.6 180 11:39 20.01.2020
4002 Clear 19 1021 45 10000 2.6 180 11:21 20.01.2020
4003 Clear 17 1022 51 10000 2.6 170 10:48 20.01.2020
4004 Clear 17 1022 51 10000 2.6 170 10:48 20.01.2020
4005 Clear 17 1022 51 10000 2.6 170 10:22 20.01.2020
4006 Clear 17 1022 51 10000 2.6 170 10:22 20.01.2020
4007 Clear 16 1023 55 9000 2.1 150 09:57 20.01.2020
4008 Clear 16 1023 55 9000 2.1 150 09:39 20.01.2020
4009 Clear 16 1023 55 9000 2.1 150 09:20 20.01.2020
4010 Clear 13 1023 66 2500 2.6 170 08:44 20.01.2020
4011 Clear 13 1023 66 2500 2.6 170 08:26 20.01.2020
4012 Mist 10 1023 81 1100 2.1 190 07:45 20.01.2020
4013 Mist 10 1023 81 1100 2.1 190 07:24 20.01.2020
4014 Mist 6 1022 93 2500 1 0 06:48 20.01.2020
4015 Mist 6 1022 93 2500 1 0 06:27 20.01.2020
4016 Mist 6 1022 100 2900 0.87 61 05:42 20.01.2020
4017 Mist 6 1022 100 2900 0.87 61 05:22 20.01.2020
4018 Mist 6 1022 93 4300 1.21 78 04:42 20.01.2020
4019 Clouds 7 1021 87 6000 1.21 78 02:57 20.01.2020
4020 Clouds 7 1021 87 6000 1.21 78 02:57 20.01.2020
4021 Clouds 7 1021 93 6000 0.5 50 01:54 20.01.2020
4022 Clouds 7 1021 93 6000 0.5 50 01:35 20.01.2020
4023 Clouds 8 1021 87 9000 1 30 00:44 20.01.2020
4024 Clouds 8 1021 87 9000 1 30 00:23 20.01.2020
4025 Clouds 9 1021 76 10000 2.16 76 23:39 19.01.2020
4026 Clouds 9 1021 76 10000 2.71 72 23:20 19.01.2020
4027 Clouds 9 1021 76 10000 2.71 72 23:20 19.01.2020
4028 Clouds 10 1021 76 10000 1 40 22:56 19.01.2020
4029 Clouds 10 1021 76 10000 1 40 22:38 19.01.2020
4030 Clouds 10 1021 76 10000 1 40 22:20 19.01.2020
4031 Clouds 12 1021 66 10000 1.5 40 21:56 19.01.2020
4032 Clouds 12 1021 66 10000 1.5 40 21:38 19.01.2020
4033 Clouds 12 1021 66 10000 1.5 40 21:20 19.01.2020
4034 Clouds 12 1021 66 10000 2.6 40 20:57 19.01.2020
4035 Clouds 12 1021 66 10000 2.6 40 20:39 19.01.2020
4036 Clouds 12 1021 66 10000 2.6 40 20:20 19.01.2020
4037 Clouds 12 1021 66 10000 2.6 40 19:57 19.01.2020
4038 Clouds 13 1021 66 10000 3.1 60 19:39 19.01.2020
4039 Clouds 13 1021 66 10000 3.1 60 19:39 19.01.2020
4040 Clouds 13 1021 66 10000 3.1 60 19:20 19.01.2020
4041 Clouds 13 1020 62 10000 2.1 30 18:56 19.01.2020
4042 Clouds 13 1020 62 10000 2.1 30 18:38 19.01.2020
4043 Clouds 13 1020 62 10000 2.1 30 18:38 19.01.2020
4044 Clouds 13 1020 62 10000 2.1 30 18:20 19.01.2020
4045 Clouds 14 1020 58 10000 2.6 30 17:58 19.01.2020
4046 Clouds 14 1020 58 10000 2.6 30 17:40 19.01.2020
4047 Clouds 14 1020 58 10000 2.6 30 17:21 19.01.2020
4048 Clouds 15 1019 54 10000 0.5 0 16:59 19.01.2020
4049 Clouds 15 1019 54 10000 0.5 0 16:38 19.01.2020
4050 Clouds 15 1019 54 10000 0.5 0 16:20 19.01.2020
4051 Clouds 16 1019 51 10000 1 150 15:58 19.01.2020
4052 Clouds 16 1019 51 10000 1 150 15:58 19.01.2020
4053 Clouds 16 1019 51 10000 1 150 15:38 19.01.2020
4054 Clouds 16 1019 51 10000 1 150 15:20 19.01.2020
4055 Clouds 17 1018 48 10000 0.5 0 14:58 19.01.2020
4056 Clouds 17 1018 48 10000 0.5 0 14:39 19.01.2020
4057 Clouds 17 1018 48 10000 0.5 0 14:18 19.01.2020
4058 Clouds 17 1018 48 10000 1 0 13:57 19.01.2020
4059 Clear 17 1018 40 0 1.25 281 13:38 19.01.2020
4060 Clouds 16 1018 51 10000 1 0 13:19 19.01.2020
4061 Clouds 16 1018 51 10000 1 0 12:55 19.01.2020
4062 Clouds 16 1018 51 10000 1 0 12:37 19.01.2020
4063 Clouds 16 1018 51 10000 1 0 12:19 19.01.2020
4064 Clouds 16 1018 51 10000 1.5 100 11:42 19.01.2020
4065 Clouds 16 1018 51 10000 1.5 100 11:20 19.01.2020
4066 Clouds 16 1019 55 10000 0.5 0 10:56 19.01.2020
4067 Clouds 16 1019 55 10000 0.5 0 10:56 19.01.2020
4068 Clouds 16 1019 55 10000 0.5 0 10:56 19.01.2020
4069 Clouds 16 1019 55 10000 0.5 0 10:38 19.01.2020
4070 Clouds 16 1019 55 10000 0.5 0 10:19 19.01.2020
4071 Clear 14 1020 62 10000 2.1 150 09:55 19.01.2020
4072 Clear 14 1020 62 10000 2.1 150 09:55 19.01.2020
4073 Clear 14 1020 62 10000 2.1 150 09:55 19.01.2020
4074 Clear 14 1020 62 10000 2.1 150 09:37 19.01.2020
4075 Clear 14 1020 62 10000 2.1 150 09:18 19.01.2020
4076 Haze 13 1019 66 1600 1.5 120 08:48 19.01.2020
4077 Haze 13 1019 66 1600 1.5 120 08:28 19.01.2020
4078 Mist 9 1019 81 1600 1 0 07:42 19.01.2020
4079 Mist 9 1019 81 1600 1 0 07:22 19.01.2020
4080 Clear 6 1019 87 5000 0.79 1 06:54 19.01.2020
4081 Clear 6 1019 87 5000 0.79 1 06:21 19.01.2020
4082 Clear 6 1017 100 8000 0.5 0 03:28 19.01.2020
4083 Clear 6 1017 100 7000 2.1 120 02:26 19.01.2020
4084 Clear 7 1017 93 8000 1.5 170 01:29 19.01.2020
4085 Clear 8 1016 87 8000 1.5 120 00:54 19.01.2020
4086 Clear 7 1017 81 10000 0.5 300 00:31 19.01.2020
4087 Clear 7 1017 81 10000 0.5 300 23:59 18.01.2020
4088 Clear 7 1017 81 10000 0.5 300 23:41 18.01.2020
4089 Clear 7 1017 81 10000 0.5 300 23:23 18.01.2020
4090 Clear 7 1017 81 10000 0.5 300 23:23 18.01.2020
4091 Clear 8 1016 87 10000 1.5 10 22:56 18.01.2020
4092 Clear 8 1016 87 10000 1.5 10 22:38 18.01.2020
4093 Clear 8 1016 87 10000 1.5 10 22:20 18.01.2020
4094 Clear 8 1016 87 10000 1.5 80 21:57 18.01.2020
4095 Clear 8 1016 87 10000 1.5 80 21:38 18.01.2020
4096 Clear 8 1016 87 10000 1.5 80 21:20 18.01.2020
4097 Clear 9 1016 76 10000 2.12 278 20:44 18.01.2020
4098 Clear 9 1016 76 10000 3.24 271 20:22 18.01.2020
4099 Clear 11 1016 66 10000 2.6 290 19:59 18.01.2020
4100 Clear 11 1016 66 10000 2.6 290 19:41 18.01.2020
4101 Clear 11 1016 66 10000 2.6 290 19:22 18.01.2020
4102 Clear 12 1015 62 10000 1.5 220 18:43 18.01.2020
4103 Clear 12 1015 62 10000 1.5 220 18:24 18.01.2020
4104 Clear 13 1015 62 10000 1 220 17:57 18.01.2020
4105 Clear 13 1015 62 10000 1 220 17:39 18.01.2020
4106 Clear 13 1015 62 10000 1 220 17:19 18.01.2020
4107 Clouds 14 1014 58 10000 2.6 260 16:56 18.01.2020
4108 Clouds 14 1014 58 10000 2.6 260 16:37 18.01.2020
4109 Clouds 14 1014 58 10000 2.6 260 16:19 18.01.2020
4110 Clear 15 1014 54 10000 3.6 280 15:43 18.01.2020
4111 Clear 15 1014 54 10000 3.6 280 15:24 18.01.2020
4112 Clear 16 1013 51 10000 5.1 230 14:58 18.01.2020
4113 Clear 16 1013 51 10000 5.1 230 14:39 18.01.2020
4114 Clouds 16 1013 51 10000 5.1 230 14:18 18.01.2020
4115 Clouds 16 1013 51 10000 4.6 230 13:45 18.01.2020
4116 Clouds 16 1013 51 10000 4.6 230 13:27 18.01.2020
4117 Clouds 16 1013 51 10000 5.1 230 12:59 18.01.2020
4118 Clouds 16 1013 51 10000 5.1 230 12:40 18.01.2020
4119 Clouds 16 1013 51 10000 5.1 230 12:21 18.01.2020
4120 Clouds 14 1014 62 10000 4.1 210 11:44 18.01.2020
4121 Clouds 14 1014 62 10000 4.1 210 11:24 18.01.2020
4122 Clouds 14 1014 62 10000 3.1 220 10:57 18.01.2020
4123 Clouds 14 1014 62 10000 3.1 220 10:38 18.01.2020
4124 Clouds 14 1014 62 10000 3.1 220 10:20 18.01.2020
4125 Clouds 14 1014 62 10000 3.1 220 10:20 18.01.2020
4126 Clouds 14 1014 62 10000 3.1 220 10:20 18.01.2020
4127 Clouds 11 1015 71 10000 1 0 09:49 18.01.2020
4128 Clouds 11 1015 71 10000 1 0 09:31 18.01.2020
4129 Clouds 9 1016 76 10000 1.5 250 08:57 18.01.2020
4130 Clouds 9 1016 76 10000 1.5 250 08:39 18.01.2020
4131 Clouds 9 1016 76 10000 1.5 250 08:19 18.01.2020
4132 Clouds 8 1015 81 10000 3.1 260 07:52 18.01.2020
4133 Clouds 8 1015 81 10000 3.1 260 07:32 18.01.2020
4134 Mist 9 1014 93 5000 2.6 190 06:48 18.01.2020
4135 Mist 8 1014 100 5000 3.1 180 05:59 18.01.2020
4136 Mist 8 1014 100 5000 3.1 180 05:25 18.01.2020
4137 Clear 10 1012 93 8000 4.1 140 03:25 18.01.2020
4138 Clouds 11 1013 81 10000 2.6 180 01:56 18.01.2020
4139 Clouds 11 1013 81 10000 2.6 180 01:35 18.01.2020
4140 Clouds 12 1012 76 10000 4.1 130 00:37 18.01.2020
4141 Clouds 12 1012 76 10000 4.1 130 00:18 18.01.2020
4142 Clouds 12 1012 76 10000 4.1 130 00:18 18.01.2020
4143 Clouds 12 1012 76 10000 4.1 130 00:18 18.01.2020
4144 Clouds 13 1012 66 10000 6.2 130 23:44 17.01.2020
4145 Rain 13 1012 66 10000 6.2 130 23:20 17.01.2020
4146 Rain 13 1012 62 10000 6.2 130 22:59 17.01.2020
4147 Rain 13 1012 62 10000 6.2 130 22:40 17.01.2020
4148 Rain 13 1012 62 10000 6.2 130 22:18 17.01.2020
4149 Rain 14 1012 58 10000 6.7 140 21:41 17.01.2020
4150 Rain 14 1012 58 10000 6.7 140 21:22 17.01.2020
4151 Rain 15 1012 54 10000 6.7 130 20:58 17.01.2020
4152 Rain 15 1012 54 10000 6.7 130 20:40 17.01.2020
4153 Rain 15 1012 54 10000 6.7 130 20:20 17.01.2020
4154 Rain 15 1012 54 10000 7.7 120 19:57 17.01.2020
4155 Rain 15 1012 54 10000 7.7 120 19:38 17.01.2020
4156 Rain 15 1012 54 10000 7.7 120 19:19 17.01.2020
4157 Rain 14 1012 67 7000 8.7 120 18:56 17.01.2020
4158 Rain 14 1012 67 7000 8.7 120 18:36 17.01.2020
4159 Rain 14 1012 67 7000 8.7 120 18:18 17.01.2020
4160 Rain 17 1014 48 10000 6.2 120 17:39 17.01.2020
4161 Rain 17 1014 48 10000 6.2 120 17:21 17.01.2020
4162 Rain 18 1013 42 10000 4.1 110 16:44 17.01.2020
4163 Rain 18 1013 42 10000 4.1 110 16:21 17.01.2020
4164 Clouds 19 1012 39 10000 7.2 120 15:58 17.01.2020
4165 Clouds 19 1012 39 10000 7.2 120 15:58 17.01.2020
4166 Clouds 19 1012 39 10000 7.2 120 15:40 17.01.2020
4167 Clouds 19 1012 39 10000 7.2 120 15:22 17.01.2020
4168 Clouds 20 1011 37 10000 10.3 120 14:43 17.01.2020
4169 Clouds 20 1011 37 10000 10.3 120 14:25 17.01.2020
4170 Clouds 20 1011 34 10000 11.3 110 13:46 17.01.2020
4171 Clouds 20 1011 34 10000 11.3 110 13:23 17.01.2020
4172 Clouds 20 1011 34 10000 13.4 110 12:56 17.01.2020
4173 Clouds 20 1012 34 10000 12.3 100 12:37 17.01.2020
4174 Clouds 20 1012 34 10000 12.3 100 12:18 17.01.2020
4175 Clouds 20 1013 34 10000 13.4 110 11:38 17.01.2020
4176 Clouds 20 1013 34 10000 13.4 110 11:18 17.01.2020
4177 Clouds 19 1015 32 10000 12.9 110 10:42 17.01.2020
4178 Clouds 19 1015 32 10000 12.9 110 10:22 17.01.2020
4179 Clouds 18 1017 34 10000 9.3 110 09:58 17.01.2020
4180 Clouds 18 1017 34 10000 9.3 110 09:38 17.01.2020
4181 Clouds 18 1017 34 10000 9.3 110 09:19 17.01.2020
4182 Clouds 16 1018 38 10000 7.7 100 08:43 17.01.2020
4183 Clouds 16 1018 38 10000 7.7 100 08:24 17.01.2020
4184 Clouds 13 1019 47 10000 7.2 100 07:53 17.01.2020
4185 Clouds 13 1019 47 10000 7.2 100 07:31 17.01.2020
4186 Clouds 11 1020 50 10000 6.2 100 06:57 17.01.2020
4187 Clouds 11 1020 50 10000 6.2 100 06:38 17.01.2020
4188 Clouds 11 1020 50 10000 5.1 120 05:38 17.01.2020
4189 Clouds 10 1019 48 0 3.8 102 03:39 17.01.2020
4190 Clouds 10 1019 48 0 3.8 102 02:47 17.01.2020
4191 Clouds 11 1021 56 0 3.5 91 01:47 17.01.2020
4192 Clouds 11 1021 56 0 3.5 91 01:29 17.01.2020
4193 Clouds 10 1021 62 0 3.29 76 00:49 17.01.2020
4194 Clouds 10 1021 57 10000 2.1 20 00:23 17.01.2020
4195 Clouds 10 1021 57 10000 2.1 20 23:44 16.01.2020
4196 Clouds 10 1021 57 10000 2.1 20 23:25 16.01.2020
4197 Clouds 10 1022 57 10000 2.1 360 22:57 16.01.2020
4198 Clouds 10 1022 57 10000 2.1 360 22:39 16.01.2020
4199 Clouds 10 1022 57 10000 2.1 360 22:20 16.01.2020
4200 Clouds 11 1022 53 10000 2.1 40 21:55 16.01.2020
4201 Clouds 11 1022 53 10000 2.1 40 21:36 16.01.2020
4202 Clouds 11 1022 53 10000 2.1 40 21:18 16.01.2020
4203 Clouds 12 1022 54 10000 2.1 50 20:41 16.01.2020
4204 Clouds 12 1022 54 10000 2.1 50 20:21 16.01.2020
4205 Clouds 12 1023 54 10000 2.1 60 19:59 16.01.2020
4206 Clouds 12 1023 54 10000 2.1 60 19:41 16.01.2020
4207 Clouds 12 1023 54 10000 2.1 60 19:22 16.01.2020
4208 Clouds 12 1023 54 10000 2.1 60 19:22 16.01.2020
4209 -273 0 0 0 0 0 19:22 16.01.2020
4210 Clouds 12 1023 50 10000 3.1 50 18:57 16.01.2020
4211 Clouds 12 1023 50 10000 3.1 50 18:38 16.01.2020
4212 Clouds 12 1023 50 10000 3.1 50 18:20 16.01.2020
4213 Clouds 12 1023 54 10000 3.1 40 17:59 16.01.2020
4214 Clouds 12 1023 54 10000 3.1 40 17:59 16.01.2020
4215 Clouds 12 1023 54 10000 3.1 40 17:40 16.01.2020
4216 Clouds 12 1023 54 10000 3.1 40 17:20 16.01.2020
4217 Clouds 12 1024 50 10000 3.6 30 16:42 16.01.2020
4218 Clouds 12 1024 50 10000 3.6 30 16:24 16.01.2020
4219 Clouds 11 1023 58 0 5.91 65 15:59 16.01.2020
4220 Clouds 11 1023 58 0 5.91 65 15:40 16.01.2020
4221 Clouds 13 1024 50 10000 5.7 350 15:21 16.01.2020
4222 Clouds 13 1024 50 10000 5.7 350 14:45 16.01.2020
4223 Clouds 13 1024 50 10000 5.7 350 14:24 16.01.2020
4224 Clouds 14 1023 41 10000 5.7 360 13:57 16.01.2020
4225 Clouds 14 1023 41 10000 5.7 360 13:39 16.01.2020
4226 Clouds 14 1023 41 10000 5.7 360 13:21 16.01.2020
4227 Rain 13 1024 54 10000 4.6 350 12:43 16.01.2020
4228 Rain 13 1024 54 10000 4.6 350 12:25 16.01.2020
4229 Clouds 17 1024 29 10000 3.6 0 11:54 16.01.2020
4230 Clouds 17 1024 29 10000 3.6 0 11:36 16.01.2020
4231 Clouds 17 1024 29 10000 3.6 0 11:18 16.01.2020
4232 Rain 15 1025 44 10000 6.7 290 10:39 16.01.2020
4233 Rain 15 1025 44 10000 6.7 290 10:20 16.01.2020
4234 Clouds 14 1026 47 10000 5.7 0 09:57 16.01.2020
4235 Clouds 14 1026 47 10000 5.7 0 09:38 16.01.2020
4236 Clouds 14 1026 47 10000 5.7 0 09:19 16.01.2020
4237 Clouds 13 1026 54 8000 3.6 200 08:51 16.01.2020
4238 Clouds 13 1026 54 8000 3.6 200 08:30 16.01.2020
4239 Clouds 10 1026 66 7000 3.1 200 07:59 16.01.2020
4240 Clouds 10 1026 66 7000 3.1 200 07:39 16.01.2020
4241 Clouds 10 1026 66 7000 3.1 200 07:20 16.01.2020
4242 Clouds 6 1026 75 10000 2.6 290 06:43 16.01.2020
4243 Clouds 6 1026 75 10000 2.6 290 06:21 16.01.2020
4244 Clouds 6 1025 70 10000 0.5 0 05:45 16.01.2020
4245 Clouds 7 1025 70 10000 1.5 320 04:38 16.01.2020
4246 Clouds 6 1025 70 9000 2.1 310 03:28 16.01.2020
4247 Clouds 7 1025 65 10000 1 140 02:43 16.01.2020
4248 Clouds 8 1025 61 8000 2.17 339 01:24 16.01.2020
4249 Clouds 8 1026 65 9000 1 330 00:24 16.01.2020
4250 Clouds 8 1026 61 10000 2.17 339 23:56 15.01.2020
4251 Clouds 8 1026 61 10000 2.17 339 23:37 15.01.2020
4252 Clouds 8 1026 61 10000 1.72 339 23:18 15.01.2020
4253 Clouds 9 1026 57 10000 1 280 22:42 15.01.2020
4254 Clouds 9 1026 57 10000 1 280 22:20 15.01.2020
4255 Clouds 9 1026 57 10000 1 270 21:59 15.01.2020
4256 Clouds 9 1026 57 10000 1 270 21:40 15.01.2020
4257 Clouds 9 1026 57 10000 1 0 21:22 15.01.2020
4258 Clouds 10 1026 57 10000 1 270 20:58 15.01.2020
4259 Clouds 10 1026 57 10000 1 270 20:40 15.01.2020
4260 Clouds 10 1026 57 10000 1 270 20:22 15.01.2020
4261 Clouds 10 1026 57 10000 1 220 19:57 15.01.2020
4262 Clouds 10 1026 57 10000 1 220 19:38 15.01.2020
4263 Clouds 10 1026 57 10000 1 220 19:20 15.01.2020
4264 Clouds 10 1026 57 10000 1 220 19:20 15.01.2020
4265 Clouds 10 1026 57 10000 1 0 18:57 15.01.2020
4266 Clouds 10 1026 57 10000 1 0 18:57 15.01.2020
4267 Clouds 10 1026 57 10000 1 0 18:38 15.01.2020
4268 Clouds 10 1026 57 10000 1 0 18:20 15.01.2020
4269 Clouds 11 1026 50 10000 1 260 17:58 15.01.2020
4270 Clouds 11 1026 50 10000 1 260 17:40 15.01.2020
4271 Clouds 11 1026 50 10000 1 260 17:21 15.01.2020
4272 Clouds 13 1025 32 0 2.49 345 16:55 15.01.2020
4273 Clouds 13 1025 32 0 2.49 345 16:55 15.01.2020
4274 Clouds 13 1025 32 0 2.49 345 16:36 15.01.2020
4275 Clouds 14 1025 44 10000 1.5 310 16:18 15.01.2020
4276 Clouds 14 1025 44 10000 1.5 310 15:42 15.01.2020
4277 Clouds 14 1025 44 10000 1.5 310 15:20 15.01.2020
4278 Clouds 15 1025 41 10000 3.6 310 14:55 15.01.2020
4279 Clouds 15 1025 41 10000 3.6 310 14:37 15.01.2020
4280 Clouds 15 1025 41 10000 3.6 310 14:37 15.01.2020
4281 Clouds 15 1025 41 10000 3.6 310 14:18 15.01.2020
4282 Clouds 15 1024 51 10000 3.1 270 13:41 15.01.2020
4283 Clouds 15 1024 51 10000 3.1 270 13:23 15.01.2020
4284 Clouds 15 1024 51 10000 2.6 270 12:55 15.01.2020
4285 Clouds 14 1024 47 10000 3.6 270 12:37 15.01.2020
4286 Clouds 14 1024 47 10000 3.6 270 12:18 15.01.2020
4287 Clouds 14 1024 47 10000 3.6 270 12:18 15.01.2020
4288 Clouds 14 1024 44 10000 2.6 290 11:38 15.01.2020
4289 Clouds 14 1024 44 10000 2.6 290 11:20 15.01.2020
4290 Clouds 13 1025 50 10000 1.5 320 10:58 15.01.2020
4291 Clouds 13 1025 50 10000 1.5 320 10:40 15.01.2020
4292 Clouds 13 1025 50 10000 1.5 320 10:21 15.01.2020
4293 Clouds 13 1026 47 10000 3.1 290 09:41 15.01.2020
4294 Clouds 13 1026 47 10000 3.1 290 09:21 15.01.2020
4295 Clouds 10 1026 57 10000 3.1 300 08:45 15.01.2020
4296 Clouds 10 1026 57 10000 3.1 300 08:26 15.01.2020
4297 Clouds 8 1026 61 10000 3.1 290 07:56 15.01.2020
4298 Clouds 8 1026 61 10000 3.1 290 07:33 15.01.2020
4299 Clouds 5 1026 75 10000 2.6 300 06:57 15.01.2020
4300 Clouds 5 1026 75 10000 2.6 300 06:57 15.01.2020
4301 Clouds 5 1026 75 10000 2.6 300 06:38 15.01.2020
4302 Clouds 2 1025 80 10000 2.6 300 05:43 15.01.2020
4303 Clear 4 1025 80 10000 2.1 290 03:35 15.01.2020
4304 Clear 3 1026 54 10000 3.1 290 01:50 15.01.2020
4305 Clear 3 1026 54 10000 3.1 290 01:22 15.01.2020
4306 Clear 5 1026 54 10000 3.6 290 00:38 15.01.2020
4307 Clear 5 1026 54 10000 3.6 290 00:20 15.01.2020
4308 Clear 5 1025 54 10000 3.6 310 23:47 14.01.2020
4309 Clear 5 1025 54 10000 3.6 310 23:28 14.01.2020
4310 Clear 8 1026 61 10000 3.6 290 22:58 14.01.2020
4311 Clear 8 1026 61 10000 3.6 290 22:40 14.01.2020
4312 Clear 8 1026 61 10000 3.6 290 22:19 14.01.2020
4313 Clear 7 1025 70 10000 3.1 280 21:58 14.01.2020
4314 Clear 7 1025 70 10000 3.1 280 21:39 14.01.2020
4315 Clear 7 1025 70 10000 3.1 280 21:19 14.01.2020
4316 Clear 8 1025 70 10000 2.1 260 20:56 14.01.2020
4317 Clear 10 1025 47 0 4.99 328 20:38 14.01.2020
4318 Clear 9 1025 66 10000 3.1 280 20:18 14.01.2020
4319 Clear 9 1025 66 10000 3.1 280 19:55 14.01.2020
4320 Clear 9 1025 66 10000 3.1 280 19:37 14.01.2020
4321 Clear 9 1025 66 10000 3.1 280 19:18 14.01.2020
4322 Clear 10 1025 61 10000 3.6 290 18:41 14.01.2020
4323 Clear 12 1025 58 10000 4.1 280 18:20 14.01.2020
4324 Clear 12 1025 58 10000 4.1 280 17:58 14.01.2020
4325 Clear 12 1025 58 10000 4.1 280 17:37 14.01.2020
4326 Clear 12 1025 58 10000 4.1 280 17:18 14.01.2020
4327 Clear 12 1024 58 10000 3.6 300 16:44 14.01.2020
4328 Clear 12 1024 58 10000 3.6 300 16:23 14.01.2020
4329 Clear 12 1024 58 10000 3.6 300 16:23 14.01.2020
4330 Clear 15 1024 47 10000 4.1 330 15:58 14.01.2020
4331 Clear 15 1024 47 10000 4.1 330 15:40 14.01.2020
4332 Clear 15 1024 47 10000 4.1 330 15:19 14.01.2020
4333 Clear 16 1024 41 10000 6.7 340 14:45 14.01.2020
4334 Clear 16 1024 41 10000 6.7 340 14:21 14.01.2020
4335 Clear 15 1024 44 10000 6.2 310 13:57 14.01.2020
4336 Clear 15 1024 44 10000 6.2 310 13:39 14.01.2020
4337 Clear 15 1024 44 10000 6.2 310 13:19 14.01.2020
4338 Clouds 15 1024 47 10000 5.1 300 12:42 14.01.2020
4339 Clouds 15 1024 47 10000 5.1 300 12:22 14.01.2020
4340 Clouds 14 1024 54 10000 5.1 290 11:56 14.01.2020
4341 Clouds 14 1024 54 10000 5.1 290 11:37 14.01.2020
4342 Clouds 14 1024 54 10000 5.1 290 11:19 14.01.2020
4343 Clear 13 1025 58 10000 4.1 340 10:41 14.01.2020
4344 Clear 13 1025 58 10000 4.1 340 10:20 14.01.2020
4345 Clear 11 1025 71 10000 5.1 340 09:59 14.01.2020
4346 Clear 11 1025 71 10000 5.1 340 09:40 14.01.2020
4347 Clear 11 1025 71 10000 5.1 340 09:21 14.01.2020
4348 Clouds 8 1026 100 5000 4.1 340 08:56 14.01.2020
4349 Clouds 8 1026 100 5000 4.1 340 08:38 14.01.2020
4350 Clouds 8 1026 100 5000 4.1 340 08:19 14.01.2020
4351 Fog 5 1025 100 400 3.1 330 07:37 14.01.2020
4352 Fog 4 1024 100 100 4.1 310 06:59 14.01.2020
4353 Fog 4 1024 100 100 4.1 310 06:40 14.01.2020
4354 Fog 4 1023 100 300 3.1 320 05:33 14.01.2020
4355 Fog 4 1022 100 100 2.1 300 04:22 14.01.2020
4356 Fog 4 1022 100 100 2.6 320 03:35 14.01.2020
4357 Mist 4 1021 100 4400 4.1 300 02:26 14.01.2020
4358 Fog 3 1021 100 600 3.6 320 01:18 14.01.2020
4359 Mist 4 1021 100 6000 1.5 280 00:39 14.01.2020
4360 Mist 4 1021 100 6000 1.5 280 00:21 14.01.2020
4361 Clear 6 1020 100 9000 2.1 250 23:38 13.01.2020
4362 Clear 6 1020 100 9000 2.1 250 23:18 13.01.2020
4363 Clear 5 1020 93 10000 2.1 310 22:54 13.01.2020
4364 Clear 5 1020 93 10000 2.1 310 22:36 13.01.2020
4365 Clear 5 1020 93 10000 2.1 310 22:18 13.01.2020
4366 Clear 5 1020 100 10000 2.1 320 21:54 13.01.2020
4367 Clear 5 1020 100 10000 2.1 320 21:54 13.01.2020
4368 Clear 5 1020 100 10000 2.1 320 21:36 13.01.2020
4369 Clear 5 1020 100 10000 2.1 320 21:18 13.01.2020
4370 Clear 7 1020 81 10000 2.6 310 20:42 13.01.2020
4371 Clear 7 1020 81 10000 2.6 310 20:22 13.01.2020
4372 Rain 8 1019 81 10000 2.1 350 19:59 13.01.2020
4373 Rain 8 1019 81 10000 2.1 350 19:40 13.01.2020
4374 Rain 8 1019 81 10000 2.1 350 19:20 13.01.2020
4375 Rain 8 1019 81 10000 2.1 350 19:20 13.01.2020
4376 Rain 10 1019 76 10000 4.1 330 18:58 13.01.2020
4377 Rain 10 1019 76 10000 4.1 330 18:37 13.01.2020
4378 Rain 10 1019 76 10000 4.1 330 18:37 13.01.2020
4379 Rain 10 1019 76 10000 4.1 330 18:19 13.01.2020
4380 Rain 13 1018 66 10000 5.1 290 17:55 13.01.2020
4381 Rain 13 1018 66 10000 5.1 290 17:36 13.01.2020
4382 Rain 13 1018 66 10000 5.1 290 17:18 13.01.2020
4383 Rain 12 1017 69 0 4.84 307 16:40 13.01.2020
4384 Rain 12 1017 69 0 4.84 307 16:40 13.01.2020
4385 Rain 12 1017 69 0 4.84 307 16:21 13.01.2020
4386 Rain 12 1017 69 0 4.84 307 15:54 13.01.2020
4387 Rain 12 1017 69 0 4.84 307 15:36 13.01.2020
4388 Rain 12 1017 69 0 4.84 307 15:18 13.01.2020
4389 Rain 12 1017 69 0 4.84 307 14:40 13.01.2020
4390 Rain 12 1017 69 0 4.84 307 14:22 13.01.2020
4391 Clouds 17 1016 44 0 4.7 246 13:56 13.01.2020
4392 Clouds 17 1016 44 0 4.7 246 13:38 13.01.2020
4393 Clouds 16 1016 44 0 4.21 221 13:20 13.01.2020
4394 Clouds 16 1016 44 0 4.21 221 13:20 13.01.2020
4395 Clouds 16 1016 44 0 4.21 221 12:43 13.01.2020
4396 Clouds 16 1017 44 10000 3.6 310 12:23 13.01.2020
4397 Clouds 16 1017 44 10000 3.6 310 11:59 13.01.2020
4398 Clouds 16 1017 44 10000 3.6 310 11:39 13.01.2020
4399 Clouds 16 1017 44 10000 3.6 310 11:19 13.01.2020
4400 Clouds 16 1018 38 10000 1 0 10:56 13.01.2020
4401 Clouds 16 1018 38 10000 1 0 10:38 13.01.2020
4402 Clouds 16 1018 38 10000 1 0 10:20 13.01.2020
4403 Clouds 15 1019 41 10000 2.6 150 09:44 13.01.2020
4404 Clouds 15 1019 41 10000 2.6 150 09:26 13.01.2020
4405 Clouds 11 1020 38 10000 1 210 08:59 13.01.2020
4406 Clouds 11 1020 38 10000 1 210 08:38 13.01.2020
4407 Clouds 11 1020 43 10000 1 210 08:19 13.01.2020
4408 Clouds 9 1019 57 10000 1 0 07:45 13.01.2020
4409 Clouds 9 1019 57 10000 1 0 07:27 13.01.2020
4410 Clouds 6 1019 43 10000 1.5 110 06:39 13.01.2020
4411 Clouds 6 1019 43 10000 2.1 120 05:57 13.01.2020
4412 Clouds 6 1019 56 10000 2.1 120 05:19 13.01.2020
4413 Clouds 6 1018 60 10000 2.6 120 03:46 13.01.2020
4414 Clouds 7 1019 56 10000 3.6 130 02:51 13.01.2020
4415 Clouds 7 1019 56 10000 3.6 130 02:31 13.01.2020
4416 Clouds 6 1019 60 10000 2.1 130 01:47 13.01.2020
4417 Clouds 7 1020 56 10000 2.1 150 00:59 13.01.2020
4418 Clouds 7 1020 56 10000 2.1 150 00:37 13.01.2020
4419 Clouds 7 1020 56 10000 2.1 150 00:19 13.01.2020
4420 Clouds 8 1019 56 10000 1.5 120 23:41 12.01.2020
4421 Clouds 8 1019 56 10000 1.5 120 23:22 12.01.2020
4422 Clouds 9 1020 57 10000 1 0 22:57 12.01.2020
4423 Clouds 9 1020 57 10000 1 0 22:39 12.01.2020
4424 Clouds 9 1020 57 10000 1 0 22:20 12.01.2020
4425 Clouds 9 1021 57 10000 0.5 0 21:55 12.01.2020
4426 Clouds 9 1021 57 10000 0.5 0 21:37 12.01.2020
4427 Clouds 9 1021 57 10000 0.5 0 21:19 12.01.2020
4428 Clouds 10 1021 53 10000 2.1 170 20:55 12.01.2020
4429 Clouds 10 1021 53 10000 2.1 170 20:37 12.01.2020
4430 Clouds 10 1021 53 10000 2.1 170 20:19 12.01.2020
4431 Clouds 11 1021 50 10000 1.5 160 19:55 12.01.2020
4432 Clouds 11 1021 50 10000 1.5 160 19:36 12.01.2020
4433 Clouds 11 1021 50 10000 1.5 160 19:18 12.01.2020
4434 Clouds 11 1021 50 10000 1.5 200 18:56 12.01.2020
4435 Clouds 11 1021 50 10000 1.5 200 18:38 12.01.2020
4436 Clouds 11 1021 50 10000 1.5 200 18:19 12.01.2020
4437 Clouds 11 1021 50 10000 0.5 0 17:42 12.01.2020
4438 Clouds 11 1021 50 10000 0.5 0 17:21 12.01.2020
4439 Clouds 13 1020 45 10000 1.5 200 16:58 12.01.2020
4440 Clouds 13 1020 45 10000 1.5 200 16:39 12.01.2020
4441 Clouds 13 1020 45 10000 1.5 200 16:20 12.01.2020
4442 Clouds 14 1021 45 10000 2.6 290 15:55 12.01.2020
4443 Clouds 14 1021 45 10000 2.6 290 15:37 12.01.2020
4444 Clouds 14 1021 45 10000 2.6 290 15:37 12.01.2020
4445 Clouds 14 1021 45 10000 2.6 290 15:19 12.01.2020
4446 Clouds 15 1020 45 10000 3.6 290 14:42 12.01.2020
4447 Clouds 15 1020 45 10000 3.6 290 14:23 12.01.2020
4448 Clouds 16 1020 28 10000 3.6 290 13:57 12.01.2020
4449 Clouds 16 1020 28 10000 3.6 290 13:39 12.01.2020
4450 Clouds 16 1020 28 10000 3.6 290 13:20 12.01.2020
4451 Clouds 15 1021 41 10000 3.6 280 12:56 12.01.2020
4452 Clouds 15 1021 41 10000 3.6 280 12:37 12.01.2020
4453 Clouds 15 1021 41 10000 3.6 280 12:19 12.01.2020
4454 Clouds 15 1021 38 10000 4.1 270 11:42 12.01.2020
4455 Clouds 15 1021 38 10000 4.1 270 11:22 12.01.2020
4456 Clouds 14 1022 47 10000 4.6 270 10:56 12.01.2020
4457 Clouds 14 1022 47 10000 4.6 270 10:37 12.01.2020
4458 Clouds 14 1022 47 10000 4.6 270 10:19 12.01.2020
4459 Clouds 13 1023 54 10000 4.1 270 09:42 12.01.2020
4460 Clouds 13 1023 54 10000 4.1 270 09:23 12.01.2020
4461 Clouds 10 1023 57 10000 4.1 270 08:48 12.01.2020
4462 Clouds 10 1023 57 10000 4.1 270 08:24 12.01.2020
4463 Clear 7 1022 70 10000 3.6 270 07:49 12.01.2020
4464 Clear 7 1022 70 10000 3.6 270 07:30 12.01.2020
4465 Clear 5 1022 75 10000 2.6 260 06:59 12.01.2020
4466 Clear 5 1022 75 10000 2.6 260 06:38 12.01.2020
4467 Clear 5 1021 75 10000 2.1 270 05:55 12.01.2020
4468 Clear 6 1021 75 10000 3.6 290 04:56 12.01.2020
4469 Clear 7 1021 75 10000 4.1 270 03:43 12.01.2020
4470 Clear 7 1021 75 10000 4.6 280 02:48 12.01.2020
4471 Clear 7 1021 75 10000 4.6 280 02:24 12.01.2020
4472 Clear 8 1021 70 10000 5.1 300 01:34 12.01.2020
4473 Clear 8 1021 70 10000 4.1 270 00:46 12.01.2020
4474 Clear 8 1021 70 10000 4.1 270 00:22 12.01.2020
4475 Clear 8 1021 70 10000 4.1 270 00:22 12.01.2020
4476 Clear 9 1021 66 10000 4.6 280 23:59 11.01.2020
4477 Clear 9 1021 66 10000 4.6 280 23:41 11.01.2020
4478 Clear 9 1020 70 10000 5.1 290 23:18 11.01.2020
4479 Clear 9 1020 70 10000 5.1 290 22:56 11.01.2020
4480 Clear 9 1020 70 10000 5.1 290 22:38 11.01.2020
4481 Clear 9 1020 70 10000 5.1 290 22:19 11.01.2020
4482 Clear 10 1020 61 10000 5.7 300 21:44 11.01.2020
4483 Clear 10 1020 61 10000 5.7 300 21:20 11.01.2020
4484 Clear 10 1020 61 10000 5.7 300 20:59 11.01.2020
4485 Clear 10 1019 57 10000 5.7 310 20:39 11.01.2020
4486 Clear 10 1019 57 10000 5.7 310 20:19 11.01.2020
4487 Clear 11 1019 50 10000 6.2 300 19:57 11.01.2020
4488 Clear 11 1019 50 10000 6.2 300 19:38 11.01.2020
4489 Clear 11 1019 50 10000 6.2 300 19:38 11.01.2020
4490 Clear 11 1019 50 10000 6.2 300 19:38 11.01.2020
4491 Clear 11 1019 50 10000 6.2 300 19:38 11.01.2020
4492 Clear 11 1019 50 10000 6.2 300 19:20 11.01.2020
4493 Clear 13 1018 47 10000 7.2 290 18:55 11.01.2020
4494 Clear 13 1018 47 10000 7.2 290 18:37 11.01.2020
4495 Clear 13 1018 47 10000 7.2 290 18:18 11.01.2020
4496 Clear 12 1018 54 10000 6.7 290 17:57 11.01.2020
4497 Clear 12 1018 54 10000 6.7 290 17:57 11.01.2020
4498 Clear 13 1017 47 10000 5.7 300 17:39 11.01.2020
4499 Clear 13 1017 47 10000 5.7 300 17:18 11.01.2020
4500 Clear 13 1016 47 10000 4.6 310 16:44 11.01.2020
4501 Clear 13 1016 47 10000 4.6 310 16:24 11.01.2020
4502 Clear 15 1016 41 10000 6.7 310 15:56 11.01.2020
4503 Clear 15 1016 41 10000 6.7 310 15:38 11.01.2020
4504 Clear 15 1016 41 10000 6.7 310 15:20 11.01.2020
4505 Clear 17 1015 39 10000 8.7 300 14:46 11.01.2020
4506 Clear 17 1015 39 10000 8.7 300 14:25 11.01.2020
4507 Clear 16 1015 44 10000 7.7 310 13:57 11.01.2020
4508 Clear 16 1015 44 10000 7.7 310 13:38 11.01.2020
4509 Clear 16 1015 44 10000 7.7 310 13:20 11.01.2020
4510 Clear 17 1014 42 10000 7.7 310 12:56 11.01.2020
4511 Clear 17 1014 42 10000 7.7 310 12:37 11.01.2020
4512 Clear 17 1014 42 10000 7.7 310 12:19 11.01.2020
4513 Clear 16 1015 48 10000 7.7 300 11:42 11.01.2020
4514 Clear 16 1015 48 10000 7.7 300 11:24 11.01.2020
4515 Clouds 16 1015 51 10000 7.7 300 10:50 11.01.2020
4516 Clouds 16 1015 51 10000 7.7 300 10:29 11.01.2020
4517 Clear 14 1016 58 10000 7.2 300 09:44 11.01.2020
4518 Clear 14 1016 58 10000 7.2 300 09:21 11.01.2020
4519 Clear 12 1016 66 10000 6.2 300 08:59 11.01.2020
4520 Clear 12 1016 66 10000 6.2 300 08:40 11.01.2020
4521 Clear 12 1016 66 10000 6.2 300 08:19 11.01.2020
4522 Clear 10 1015 76 10000 4.6 310 07:43 11.01.2020
4523 Clear 10 1015 76 10000 4.6 310 07:24 11.01.2020
4524 Clear 8 1015 93 10000 3.6 300 06:43 11.01.2020
4525 Clouds 8 1014 93 10000 4.1 290 05:30 11.01.2020
4526 Clouds 8 1014 93 10000 4.6 290 04:42 11.01.2020
4527 Clouds 8 1014 93 10000 4.6 290 04:24 11.01.2020
4528 Clouds 8 1014 93 10000 3.6 290 02:48 11.01.2020
4529 Clouds 7 1014 93 10000 2.1 260 01:47 11.01.2020
4530 Clouds 7 1014 93 10000 2.1 260 01:28 11.01.2020
4531 Clouds 8 1014 87 10000 2.6 270 00:54 11.01.2020
4532 Clouds 8 1014 87 10000 2.6 270 00:29 11.01.2020
4533 Clouds 8 1014 87 10000 2.6 270 23:59 10.01.2020
4534 Clouds 8 1014 87 10000 2.6 270 23:39 10.01.2020
4535 Clouds 8 1014 87 10000 2.6 270 23:20 10.01.2020
4536 Clouds 9 1014 81 10000 3.1 250 22:54 10.01.2020
4537 Clouds 9 1014 81 10000 3.1 250 22:36 10.01.2020
4538 Clouds 9 1014 81 10000 3.1 250 22:18 10.01.2020
4539 Clouds 9 1014 81 10000 2.6 250 21:41 10.01.2020
4540 Clouds 9 1014 81 10000 2.6 250 21:21 10.01.2020
4541 Clouds 9 1014 81 10000 2.1 260 20:59 10.01.2020
4542 Clouds 10 1014 76 10000 2.6 270 20:41 10.01.2020
4543 Clouds 10 1014 76 10000 2.6 270 20:23 10.01.2020
4544 Rain 10 1014 81 10000 2.6 270 19:41 10.01.2020
4545 Rain 10 1014 81 10000 2.6 270 19:21 10.01.2020
4546 Rain 11 1014 71 10000 3.1 280 18:58 10.01.2020
4547 Rain 11 1014 71 10000 3.1 280 18:40 10.01.2020
4548 Rain 11 1014 71 10000 3.1 280 18:18 10.01.2020
4549 Rain 11 1014 71 10000 3.1 300 17:56 10.01.2020
4550 Rain 11 1014 71 10000 3.1 300 17:38 10.01.2020
4551 Rain 11 1014 71 10000 3.1 300 17:20 10.01.2020
4552 Clouds 13 1013 66 10000 4.6 290 16:55 10.01.2020
4553 Clouds 13 1013 66 10000 4.6 290 16:36 10.01.2020
4554 Clouds 13 1013 66 10000 4.6 290 16:18 10.01.2020
4555 Clouds 15 1012 58 10000 4.1 290 15:55 10.01.2020
4556 Clouds 15 1012 58 10000 4.1 290 15:36 10.01.2020
4557 Clouds 15 1012 58 10000 4.1 290 15:18 10.01.2020
4558 Clouds 15 1012 58 10000 4.1 290 15:18 10.01.2020
4559 Clouds 16 1012 55 10000 3.1 260 14:42 10.01.2020
4560 Clouds 16 1012 55 10000 3.1 260 14:20 10.01.2020
4561 Clouds 16 1012 51 10000 2.6 270 13:59 10.01.2020
4562 Clouds 16 1012 51 10000 2.6 270 13:41 10.01.2020
4563 Clouds 16 1012 51 10000 2.6 270 13:23 10.01.2020
4564 Clouds 16 1012 55 10000 3.1 270 12:58 10.01.2020
4565 Clouds 16 1012 55 10000 3.1 270 12:38 10.01.2020
4566 Clouds 16 1012 55 10000 3.1 270 12:19 10.01.2020
4567 Clouds 16 1012 55 10000 2.6 270 11:55 10.01.2020
4568 Clouds 16 1012 55 10000 2.6 270 11:37 10.01.2020
4569 Clouds 16 1012 55 10000 2.6 270 11:18 10.01.2020
4570 Clouds 14 1013 67 10000 3.1 270 10:42 10.01.2020
4571 Clouds 14 1013 67 10000 3.1 270 10:24 10.01.2020
4572 Clouds 12 1014 66 10000 3.1 230 09:56 10.01.2020
4573 Clouds 12 1014 66 10000 3.1 230 09:38 10.01.2020
4574 Clouds 12 1014 66 10000 3.1 230 09:20 10.01.2020
4575 Clouds 12 1014 62 10000 1.5 200 08:42 10.01.2020
4576 Clouds 12 1014 62 10000 1.5 200 08:23 10.01.2020
4577 Clouds 12 1014 62 10000 1.5 200 08:23 10.01.2020
4578 Clouds 11 1014 62 10000 2.6 150 07:46 10.01.2020
4579 Clouds 11 1014 62 10000 2.6 150 07:26 10.01.2020
4580 Clouds 9 1013 76 10000 2.6 140 06:46 10.01.2020
4581 Clouds 9 1013 76 10000 2.6 140 06:26 10.01.2020
4582 Clouds 9 1012 76 10000 3.1 150 05:51 10.01.2020
4583 Clouds 11 1012 62 10000 3.1 120 03:45 10.01.2020
4584 Clouds 11 1012 62 10000 3.1 120 03:22 10.01.2020
4585 Clouds 12 1012 58 10000 2.6 100 02:49 10.01.2020
4586 Clouds 11 1013 62 10000 3.1 100 01:47 10.01.2020
4587 Clouds 11 1013 62 10000 3.1 100 01:28 10.01.2020
4588 Clouds 11 1013 71 10000 4.1 120 00:44 10.01.2020
4589 Clouds 12 1013 58 10000 3.6 150 23:58 09.01.2020
4590 Clouds 12 1013 58 10000 3.6 150 23:39 09.01.2020
4591 Clouds 12 1013 58 10000 3.6 150 23:20 09.01.2020
4592 Rain 12 1013 58 10000 4.6 130 22:57 09.01.2020
4593 Rain 12 1013 58 10000 4.6 130 22:39 09.01.2020
4594 Rain 12 1013 58 10000 4.6 130 22:39 09.01.2020
4595 Rain 12 1013 58 10000 4.6 130 22:19 09.01.2020
4596 Rain 12 1013 58 10000 4.6 130 22:19 09.01.2020
4597 Clouds 13 1013 54 10000 4.6 140 21:57 09.01.2020
4598 Clouds 13 1013 54 10000 4.6 140 21:38 09.01.2020
4599 Clouds 13 1013 54 10000 4.6 140 21:19 09.01.2020
4600 Clouds 12 1014 58 10000 3.6 140 20:58 09.01.2020
4601 Clouds 12 1014 58 10000 3.6 140 20:39 09.01.2020
4602 Clouds 12 1014 58 10000 3.6 140 20:39 09.01.2020
4603 Clouds 12 1014 58 10000 3.6 140 20:20 09.01.2020
4604 Clouds 12 1014 58 10000 3.6 140 19:58 09.01.2020
4605 Clouds 12 1014 58 10000 3.6 140 19:38 09.01.2020
4606 Clouds 12 1014 58 10000 3.6 140 19:19 09.01.2020
4607 Clouds 13 1014 54 10000 3.1 140 18:56 09.01.2020
4608 Clouds 13 1014 54 10000 3.1 140 18:37 09.01.2020
4609 Clouds 13 1014 54 10000 3.1 140 18:19 09.01.2020
4610 Clouds 13 1013 54 10000 3.6 130 17:41 09.01.2020
4611 Clouds 13 1013 54 10000 3.6 130 17:41 09.01.2020
4612 Clouds 13 1013 54 10000 3.6 130 17:19 09.01.2020
4613 Clouds 13 1013 50 10000 3.1 130 16:56 09.01.2020
4614 Clouds 13 1013 50 10000 3.1 130 16:36 09.01.2020
4615 Clouds 13 1013 50 10000 3.1 130 16:18 09.01.2020
4616 Clouds 15 1013 44 10000 4.1 160 15:41 09.01.2020
4617 Clouds 15 1013 44 10000 4.1 160 15:20 09.01.2020
4618 Clouds 17 1013 36 10000 6.7 160 14:55 09.01.2020
4619 Clouds 17 1013 36 10000 6.7 160 14:36 09.01.2020
4620 Clouds 17 1013 36 10000 6.7 160 14:36 09.01.2020
4621 Clouds 17 1013 36 10000 6.7 160 14:18 09.01.2020
4622 Clouds 18 1013 36 10000 6.2 150 13:54 09.01.2020
4623 Clouds 18 1013 36 10000 6.2 150 13:36 09.01.2020
4624 Clouds 18 1013 36 10000 6.2 150 13:18 09.01.2020
4625 Clouds 17 1013 39 10000 4.6 160 12:41 09.01.2020
4626 Clouds 17 1013 39 10000 4.6 160 12:22 09.01.2020
4627 Clouds 15 1014 44 10000 3.6 170 11:58 09.01.2020
4628 Clouds 15 1014 44 10000 3.6 170 11:40 09.01.2020
4629 Clouds 15 1014 44 10000 3.6 170 11:22 09.01.2020
4630 Clouds 14 1015 47 10000 3.1 150 10:44 09.01.2020
4631 Clouds 14 1015 47 10000 3.1 150 10:23 09.01.2020
4632 Clouds 12 1016 54 10000 2.6 200 09:59 09.01.2020
4633 Clouds 12 1016 54 10000 2.6 200 09:40 09.01.2020
4634 Clouds 12 1016 54 10000 2.6 200 09:21 09.01.2020
4635 Clouds 10 1016 57 10000 2.1 210 08:55 09.01.2020
4636 Clouds 10 1016 57 10000 2.1 210 08:37 09.01.2020
4637 Clouds 10 1016 57 10000 2.1 210 08:19 09.01.2020
4638 Clouds 10 1016 53 10000 1.5 190 07:42 09.01.2020
4639 Clear 9 1016 57 10000 3.6 210 07:24 09.01.2020
4640 Clear 5 1015 49 10000 3.1 200 06:39 09.01.2020
4641 Clear 5 1015 49 10000 3.1 200 06:20 09.01.2020
4642 Clear 3 1015 74 10000 2.6 160 05:50 09.01.2020
4643 Clear 3 1015 74 10000 2.6 160 05:50 09.01.2020
4644 Clear 3 1015 74 10000 2.1 170 04:44 09.01.2020
4645 Clear 4 1014 56 10000 2.1 170 03:54 09.01.2020
4646 Clear 4 1014 56 10000 2.1 140 02:55 09.01.2020
4647 Clear 4 1014 56 10000 2.1 140 02:28 09.01.2020
4648 Clear 4 1014 53 10000 2.1 190 01:40 09.01.2020
4649 Clear 7 1014 52 10000 1.5 220 00:44 09.01.2020
4650 Clear 7 1014 52 10000 1.5 220 00:21 09.01.2020
4651 Clear 6 1014 70 10000 2.6 200 23:55 08.01.2020
4652 Clear 6 1014 70 10000 2.6 200 23:37 08.01.2020
4653 Clear 6 1014 70 10000 2.6 200 23:18 08.01.2020
4654 Clear 9 1013 57 10000 2.6 230 22:39 08.01.2020
4655 Clear 9 1013 57 10000 2.6 230 22:21 08.01.2020
4656 Clear 9 1013 57 10000 2.6 230 21:58 08.01.2020
4657 Clear 9 1013 57 10000 2.6 230 21:39 08.01.2020
4658 Clear 9 1013 57 10000 2.6 230 21:20 08.01.2020
4659 Clear 10 1013 57 10000 3.1 240 20:58 08.01.2020
4660 Clear 10 1013 57 10000 3.1 240 20:40 08.01.2020
4661 Clouds 10 1013 57 10000 3.1 240 20:20 08.01.2020
4662 Clouds 11 1012 53 10000 3.6 230 19:57 08.01.2020
4663 Clouds 11 1012 53 10000 3.6 230 19:37 08.01.2020
4664 Clouds 11 1012 53 10000 3.6 230 19:37 08.01.2020
4665 Clouds 11 1012 53 10000 3.6 230 19:19 08.01.2020
4666 Clouds 11 1012 50 10000 3.6 220 18:56 08.01.2020
4667 Clouds 11 1012 50 10000 3.6 220 18:37 08.01.2020
4668 Clouds 11 1012 50 10000 3.6 220 18:18 08.01.2020
4669 Clouds 12 1011 46 10000 4.1 220 17:55 08.01.2020
4670 Clouds 12 1011 46 10000 4.1 220 17:36 08.01.2020
4671 Clouds 12 1011 46 10000 4.1 220 17:18 08.01.2020
4672 Clouds 12 1011 46 10000 4.1 220 17:18 08.01.2020
4673 Clouds 13 1011 43 10000 3.1 210 16:54 08.01.2020
4674 Clouds 13 1011 43 10000 3.1 210 16:36 08.01.2020
4675 Clouds 13 1011 43 10000 3.1 210 16:18 08.01.2020
4676 Clouds 15 1010 38 10000 3.1 230 15:40 08.01.2020
4677 Clouds 16 1010 38 10000 4.6 230 15:20 08.01.2020
4678 Clouds 16 1011 41 0 4.57 165 14:56 08.01.2020
4679 Clouds 16 1011 41 0 4.57 165 14:38 08.01.2020
4680 Rain 18 1010 34 0 11.96 148 14:19 08.01.2020
4681 Rain 18 1010 34 0 11.96 148 13:40 08.01.2020
4682 Rain 17 1010 39 0 10.47 145 13:19 08.01.2020
4683 Rain 17 1010 39 0 10.47 145 12:42 08.01.2020
4684 Clouds 17 1009 51 10000 9.3 130 12:19 08.01.2020
4685 Clouds 17 1009 51 10000 9.3 130 11:55 08.01.2020
4686 Clouds 17 1009 51 10000 9.3 130 11:55 08.01.2020
4687 Clouds 17 1009 51 10000 9.3 130 11:37 08.01.2020
4688 Clouds 17 1009 51 10000 9.3 130 11:19 08.01.2020
4689 Clouds 17 1011 48 10000 11.8 140 10:55 08.01.2020
4690 Clouds 17 1011 48 10000 11.8 140 10:37 08.01.2020
4691 Clouds 17 1011 48 10000 11.8 140 10:18 08.01.2020
4692 Clouds 16 1012 51 10000 9.8 130 09:41 08.01.2020
4693 Rain 16 1012 37 0 8.5 140 09:19 08.01.2020
4694 Rain 16 1012 37 0 8.5 140 08:56 08.01.2020
4695 Rain 16 1012 37 0 8.5 140 08:37 08.01.2020
4696 Rain 13 1013 58 10000 7.2 130 08:19 08.01.2020
4697 Rain 13 1013 58 10000 7.2 130 07:48 08.01.2020
4698 Rain 13 1013 58 10000 7.2 130 07:29 08.01.2020
4699 Clouds 12 1014 62 10000 6.7 120 06:45 08.01.2020
4700 Clouds 12 1014 62 10000 6.7 120 06:19 08.01.2020
4701 Clouds 12 1015 62 10000 6.2 130 05:41 08.01.2020
4702 Clouds 12 1015 62 10000 4.6 120 04:56 08.01.2020
4703 Clouds 12 1015 62 10000 4.6 120 04:24 08.01.2020
4704 Clouds 13 1016 58 10000 4.1 110 02:45 08.01.2020
4705 Clouds 13 1016 58 10000 4.1 110 02:21 08.01.2020
4706 Clouds 12 1016 62 10000 4.1 110 01:46 08.01.2020
4707 Clouds 12 1016 62 10000 4.1 110 01:19 08.01.2020
4708 Clear 13 1017 58 10000 4.6 110 00:27 08.01.2020
4709 Clear 12 1017 58 10000 2.6 120 23:55 07.01.2020
4710 Clear 12 1017 58 10000 2.6 120 23:37 07.01.2020
4711 Clear 12 1017 58 10000 2.6 120 23:19 07.01.2020
4712 Clear 12 1017 58 10000 2.6 120 22:40 07.01.2020
4713 Clear 12 1017 58 10000 2.6 110 22:20 07.01.2020
4714 Clear 13 1018 48 0 4.08 130 21:55 07.01.2020
4715 Clear 13 1018 48 0 4.08 130 21:37 07.01.2020
4716 Clear 15 1018 58 10000 3.1 100 21:19 07.01.2020
4717 Clear 14 1018 58 10000 3.1 100 20:55 07.01.2020
4718 Clear 14 1018 58 10000 3.1 100 20:36 07.01.2020
4719 Clear 14 1018 58 10000 3.1 100 20:36 07.01.2020
4720 Clear 14 1018 58 10000 3.1 100 20:18 07.01.2020
4721 Haze 14 1015 41 9000 3.6 320 19:38 07.01.2020
4722 Clear 14 1019 58 10000 2.6 130 19:19 07.01.2020
4723 Clear 13 1019 54 10000 3.1 120 18:58 07.01.2020
4724 Clear 13 1019 54 10000 3.1 120 18:58 07.01.2020
4725 Clear 13 1019 54 10000 3.1 120 18:40 07.01.2020
4726 Clear 13 1019 54 10000 3.1 120 18:18 07.01.2020
4727 Clear 14 1019 54 10000 2.1 100 17:58 07.01.2020
4728 Clear 14 1019 54 10000 2.1 100 17:39 07.01.2020
4729 Clear 14 1019 54 10000 2.1 100 17:20 07.01.2020
4730 Clear 15 1019 47 10000 2.6 120 16:56 07.01.2020
4731 Clear 15 1019 47 10000 2.6 120 16:37 07.01.2020
4732 Clear 15 1019 47 10000 2.6 120 16:18 07.01.2020
4733 Clear 18 1019 39 10000 2.6 120 15:55 07.01.2020
4734 Clear 18 1019 39 10000 2.6 120 15:36 07.01.2020
4735 Clear 18 1019 39 10000 2.6 120 15:18 07.01.2020
4736 Clear 19 1019 37 10000 2.1 180 14:42 07.01.2020
4737 Clear 19 1019 37 10000 2.1 180 14:23 07.01.2020
4738 Clear 19 1019 37 10000 2.1 180 14:23 07.01.2020
4739 Clear 20 1019 37 10000 2.1 200 13:56 07.01.2020
4740 Clear 20 1019 37 10000 2.1 200 13:38 07.01.2020
4741 Clear 20 1019 37 10000 2.1 200 13:18 07.01.2020
4742 Clear 20 1020 37 10000 2.6 170 12:41 07.01.2020
4743 Clear 20 1020 37 10000 2.6 170 12:19 07.01.2020
4744 Clear 20 1020 40 10000 2.6 170 11:44 07.01.2020
4745 Clear 20 1020 40 10000 2.6 170 11:23 07.01.2020
4746 Clear 19 1021 42 10000 3.1 140 10:59 07.01.2020
4747 Clear 19 1021 42 10000 3.1 140 10:40 07.01.2020
4748 Clear 19 1021 42 10000 3.1 140 10:22 07.01.2020
4749 Clear 18 1022 45 10000 3.1 130 09:56 07.01.2020
4750 Clear 18 1022 45 10000 3.1 130 09:38 07.01.2020
4751 Clear 18 1022 45 10000 3.1 130 09:19 07.01.2020
4752 Clear 16 1023 48 10000 2.6 130 08:42 07.01.2020
4753 Clear 16 1023 48 10000 2.6 130 08:22 07.01.2020
4754 Mist 13 1023 62 1300 0.5 0 07:54 07.01.2020
4755 Mist 13 1023 62 1300 0.5 0 07:27 07.01.2020
4756 Mist 6 1023 87 1300 1 30 06:53 07.01.2020
4757 Mist 6 1023 87 1300 1 30 06:32 07.01.2020
4758 Mist 6 1023 93 2500 2.46 62 05:49 07.01.2020
4759 Mist 6 1022 81 3200 2.35 65 04:31 07.01.2020
4760 Mist 7 1022 75 3700 1 30 03:26 07.01.2020
4761 Mist 8 1022 75 4600 1.5 50 02:21 07.01.2020
4762 Clear 7 1022 75 7000 0.5 110 01:51 07.01.2020
4763 Clear 7 1022 75 7000 0.5 110 01:26 07.01.2020
4764 Clear 9 1022 76 9000 1.5 90 00:23 07.01.2020
4765 Clear 8 1022 81 10000 2.1 60 23:59 06.01.2020
4766 Clear 8 1022 81 10000 2.1 60 23:39 06.01.2020
4767 Clear 8 1022 81 10000 2.1 60 23:21 06.01.2020
4768 Clear 9 1022 70 10000 1 70 22:58 06.01.2020
4769 Clear 9 1022 70 10000 1 70 22:37 06.01.2020
4770 Clear 9 1022 70 10000 1 70 22:19 06.01.2020
4771 Clear 11 1022 66 10000 1 80 21:55 06.01.2020
4772 Clear 11 1022 66 10000 1 80 21:37 06.01.2020
4773 Clear 11 1022 66 10000 1 80 21:18 06.01.2020
4774 Clear 11 1022 66 10000 1.5 70 20:55 06.01.2020
4775 Clear 11 1022 66 10000 1.5 70 20:37 06.01.2020
4776 Clear 11 1022 66 10000 1.5 70 20:19 06.01.2020
4777 Clear 11 1022 66 10000 1.5 70 20:19 06.01.2020
4778 Clear 12 1022 62 10000 1.5 70 19:55 06.01.2020
4779 Clear 12 1022 62 10000 1.5 70 19:36 06.01.2020
4780 Clear 12 1022 62 10000 1.5 70 19:36 06.01.2020
4781 Clear 12 1022 62 10000 1.5 70 19:18 06.01.2020
4782 Clear 13 1022 62 10000 2.6 80 18:44 06.01.2020
4783 Clear 13 1022 62 10000 2.6 80 18:20 06.01.2020
4784 Clear 14 1022 58 10000 1.5 80 17:40 06.01.2020
4785 Clear 14 1022 58 10000 1.5 80 17:20 06.01.2020
4786 Clear 15 1021 54 10000 2.1 80 16:57 06.01.2020
4787 Clear 15 1021 54 10000 2.1 80 16:39 06.01.2020
4788 Clear 15 1021 54 10000 2.1 80 16:21 06.01.2020
4789 Clouds 18 1021 42 10000 2.1 70 15:59 06.01.2020
4790 Clouds 18 1021 42 10000 2.1 70 15:36 06.01.2020
4791 Clouds 18 1021 42 10000 2.1 70 15:18 06.01.2020
4792 Clear 19 1021 39 10000 2.1 110 14:41 06.01.2020
4793 Clear 19 1021 39 10000 2.1 110 14:22 06.01.2020
4794 Clear 19 1021 39 10000 2.1 110 14:22 06.01.2020
4795 Clouds 19 1020 39 10000 2.1 100 13:59 06.01.2020
4796 Clouds 19 1020 39 10000 2.1 100 13:39 06.01.2020
4797 Clouds 19 1020 39 10000 2.1 100 13:21 06.01.2020
4798 Clear 19 1020 39 10000 2.6 110 12:56 06.01.2020
4799 Clear 19 1020 39 10000 2.6 110 12:37 06.01.2020
4800 Clear 19 1020 39 10000 2.6 110 12:19 06.01.2020
4801 Clear 19 1020 39 10000 2.6 110 12:19 06.01.2020
4802 Clear 19 1021 42 10000 2.6 140 11:43 06.01.2020
4803 Clear 19 1021 42 10000 2.6 140 11:43 06.01.2020
4804 Clear 19 1021 42 10000 2.6 140 11:24 06.01.2020
4805 Clear 18 1021 42 10000 2.6 140 10:59 06.01.2020
4806 Clear 18 1021 42 10000 2.6 140 10:41 06.01.2020
4807 Clear 18 1021 42 10000 2.6 140 10:21 06.01.2020
4808 Clear 17 1022 45 10000 2.6 120 09:42 06.01.2020
4809 Clear 17 1022 45 10000 2.6 120 09:23 06.01.2020
4810 Clear 14 1022 54 10000 1 0 08:55 06.01.2020
4811 Clear 14 1022 54 10000 1 0 08:37 06.01.2020
4812 Clear 12 1021 62 10000 0.5 0 07:58 06.01.2020
4813 Clear 12 1021 62 10000 0.5 0 07:39 06.01.2020
4814 Clouds 9 1021 70 10000 2.16 136 06:53 06.01.2020
4815 Clouds 9 1021 70 10000 2.16 136 06:35 06.01.2020
4816 Clouds 9 1020 70 10000 1 110 05:48 06.01.2020
4817 Clouds 9 1020 70 10000 1 110 05:23 06.01.2020
4818 Clear 9 1019 70 10000 1.5 110 04:23 06.01.2020
4819 Clear 9 1019 70 10000 1.5 100 03:30 06.01.2020
4820 Clouds 9 1019 76 10000 1 160 02:27 06.01.2020
4821 Clouds 9 1018 70 10000 2.1 150 01:53 06.01.2020
4822 Clouds 9 1018 70 10000 2.1 150 01:30 06.01.2020
4823 Clouds 10 1018 71 10000 2.1 130 00:46 06.01.2020
4824 Clouds 10 1018 71 10000 2.1 130 00:27 06.01.2020
4825 Clear 11 1018 56 0 2.27 168 23:57 05.01.2020
4826 Clear 11 1018 56 0 2.27 168 23:57 05.01.2020
4827 Clear 11 1018 56 0 2.27 168 23:38 05.01.2020
4828 Clear 8 1017 70 10000 1.5 130 23:20 05.01.2020
4829 Clear 8 1017 70 10000 1.5 130 22:40 05.01.2020
4830 Clear 8 1017 70 10000 1.5 130 22:21 05.01.2020
4831 Clear 9 1017 70 10000 1.5 140 21:57 05.01.2020
4832 Clear 9 1017 70 10000 1.5 140 21:39 05.01.2020
4833 Clear 9 1017 70 10000 1.5 140 21:20 05.01.2020
4834 Clear 9 1017 66 10000 3.1 130 20:56 05.01.2020
4835 Clear 9 1017 66 10000 3.1 130 20:38 05.01.2020
4836 Clouds 9 1017 66 10000 3.1 130 20:19 05.01.2020
4837 Clouds 13 1016 50 0 2.02 196 19:58 05.01.2020
4838 Clouds 13 1016 50 0 2.02 196 19:38 05.01.2020
4839 Clouds 11 1017 81 10000 1 70 19:20 05.01.2020
4840 Clouds 11 1017 81 10000 1 70 19:20 05.01.2020
4841 Clouds 11 1017 81 10000 1 70 18:55 05.01.2020
4842 Clouds 11 1017 81 10000 1 70 18:37 05.01.2020
4843 Clouds 11 1017 81 10000 1 70 18:19 05.01.2020
4844 Clouds 12 1016 58 10000 1.5 50 17:57 05.01.2020
4845 Clouds 12 1016 58 10000 1.5 50 17:38 05.01.2020
4846 Clouds 12 1016 58 10000 1.5 50 17:38 05.01.2020
4847 Clouds 12 1016 58 10000 1.5 50 17:38 05.01.2020
4848 Clear 12 1016 58 10000 1.5 50 17:19 05.01.2020
4849 Clear 14 1015 50 10000 1 10 16:56 05.01.2020
4850 Clear 14 1015 50 10000 1 10 16:38 05.01.2020
4851 Clear 14 1015 50 10000 1 10 16:19 05.01.2020
4852 Clouds 16 1015 44 10000 1.5 260 15:38 05.01.2020
4853 Clouds 16 1015 44 10000 1.5 260 15:38 05.01.2020
4854 Clouds 16 1015 44 10000 1.5 260 15:20 05.01.2020
4855 Clear 17 1014 45 10000 2.6 220 14:56 05.01.2020
4856 Clear 17 1014 45 10000 2.6 220 14:37 05.01.2020
4857 Clear 17 1014 45 10000 2.6 220 14:19 05.01.2020
4858 Clear 16 1014 48 10000 3.1 200 13:56 05.01.2020
4859 Clear 16 1014 48 10000 3.1 200 13:56 05.01.2020
4860 Clear 16 1014 48 10000 3.1 200 13:37 05.01.2020
4861 Clear 16 1014 48 10000 3.1 200 13:18 05.01.2020
4862 Clear 16 1014 48 10000 3.1 200 13:18 05.01.2020
4863 Clear 16 1014 48 10000 4.6 240 12:55 05.01.2020
4864 Clear 16 1014 48 10000 4.6 240 12:37 05.01.2020
4865 Clear 16 1014 48 10000 4.6 240 12:18 05.01.2020
4866 Clear 15 1014 51 10000 3.6 210 11:43 05.01.2020
4867 Clear 15 1014 51 10000 3.6 210 11:43 05.01.2020
4868 Clear 15 1014 51 10000 3.6 210 11:43 05.01.2020
4869 Clear 15 1014 51 10000 3.6 210 11:20 05.01.2020
4870 Clear 13 1015 58 10000 1.5 210 10:58 05.01.2020
4871 Clear 13 1015 58 10000 1.5 210 10:39 05.01.2020
4872 Clear 13 1015 58 10000 1.5 210 10:39 05.01.2020
4873 Clear 13 1015 58 10000 1.5 210 10:39 05.01.2020
4874 Clear 13 1015 58 10000 1.5 210 10:39 05.01.2020
4875 Clear 13 1015 58 10000 1.5 210 10:39 05.01.2020
4876 Clear 13 1015 58 10000 1.5 210 10:19 05.01.2020
4877 Clear 12 1016 58 10000 3.1 210 09:42 05.01.2020
4878 Clear 12 1016 58 10000 3.1 210 09:22 05.01.2020
4879 Clear 9 1016 76 10000 2.1 180 08:50 05.01.2020
4880 Clear 9 1016 76 10000 2.1 180 08:31 05.01.2020
4881 Clear 7 1016 81 10000 2.6 180 07:57 05.01.2020
4882 Clear 7 1016 81 10000 2.6 180 07:38 05.01.2020
4883 Clear 7 1016 81 10000 2.6 180 07:20 05.01.2020
4884 Mist 5 1015 100 4600 3.1 110 06:21 05.01.2020
4885 Mist 4 1015 100 4700 3.1 150 05:33 05.01.2020
4886 Mist 4 1014 93 4500 2.1 140 04:48 05.01.2020
4887 Mist 4 1014 93 4500 2.1 140 04:18 05.01.2020
4888 Mist 3 1014 100 2300 2.1 150 02:47 05.01.2020
4889 Mist 3 1014 100 2300 2.1 150 02:24 05.01.2020
4890 Clear 5 1015 100 5000 1.06 221 01:49 05.01.2020
4891 Clear 5 1015 100 5000 1.43 266 01:19 05.01.2020
4892 Fog 4 1015 100 2600 1.5 130 00:55 05.01.2020
4893 Fog 4 1015 100 2600 1.5 130 00:36 05.01.2020
4894 Fog 4 1015 100 2000 1.5 160 00:18 05.01.2020
4895 Clear 5 1015 100 4400 1 0 23:40 04.01.2020
4896 Clear 5 1015 100 4400 1 0 23:20 04.01.2020
4897 Clear 6 1015 100 5000 1.5 180 22:40 04.01.2020
4898 Clear 6 1015 100 5000 1.5 180 22:22 04.01.2020
4899 Mist 6 1015 100 1900 1 170 21:58 04.01.2020
4900 Mist 6 1015 100 1900 1 170 21:40 04.01.2020
4901 Mist 6 1015 100 1900 1 170 21:22 04.01.2020
4902 Mist 7 1016 100 2600 0.5 210 20:59 04.01.2020
4903 Mist 7 1016 100 2600 0.5 210 20:40 04.01.2020
4904 Mist 7 1016 100 2600 0.5 210 20:22 04.01.2020
4905 Mist 8 1016 93 4700 1 200 19:57 04.01.2020
4906 Mist 8 1016 93 4700 1 200 19:38 04.01.2020
4907 Mist 8 1016 93 4700 1 200 19:20 04.01.2020
4908 Clouds 9 1015 93 7000 1 260 18:56 04.01.2020
4909 Clouds 9 1015 93 7000 1 260 18:37 04.01.2020
4910 Clouds 9 1015 93 7000 1 260 18:19 04.01.2020
4911 Clouds 10 1015 87 10000 2.6 270 17:42 04.01.2020
4912 Clouds 10 1015 87 10000 2.6 270 17:24 04.01.2020
4913 Clouds 11 1014 81 10000 1.5 230 16:59 04.01.2020
4914 Clouds 11 1014 81 10000 1.5 230 16:40 04.01.2020
4915 Clouds 11 1014 81 10000 1.5 230 16:22 04.01.2020
4916 Clouds 12 1014 71 10000 0.5 0 15:56 04.01.2020
4917 Clouds 12 1014 71 10000 0.5 0 15:38 04.01.2020
4918 Clouds 12 1014 71 10000 0.5 0 15:18 04.01.2020
4919 Clouds 12 1014 76 10000 3.1 50 14:43 04.01.2020
4920 Clouds 12 1014 76 10000 3.1 50 14:20 04.01.2020
4921 Rain 14 1015 58 10000 8.2 290 13:59 04.01.2020
4922 Rain 14 1015 58 10000 8.2 290 13:39 04.01.2020
4923 Rain 14 1015 58 10000 8.2 290 13:20 04.01.2020
4924 Clouds 17 1014 45 10000 5.7 320 12:59 04.01.2020
4925 Clouds 17 1014 45 10000 5.7 320 12:40 04.01.2020
4926 Clouds 17 1014 45 10000 5.7 320 12:19 04.01.2020
4927 Clouds 16 1014 48 10000 3.6 320 11:57 04.01.2020
4928 Clouds 16 1014 48 10000 3.6 320 11:38 04.01.2020
4929 Clouds 16 1014 48 10000 3.6 320 11:18 04.01.2020
4930 Clear 16 1015 48 10000 4.6 340 10:41 04.01.2020
4931 Clear 16 1015 48 10000 4.6 340 10:22 04.01.2020
4932 Clear 14 1016 54 10000 4.1 330 09:50 04.01.2020
4933 Clear 14 1016 54 10000 4.1 330 09:26 04.01.2020
4934 Clear 13 1016 62 10000 4.1 330 08:57 04.01.2020
4935 Clear 13 1016 62 10000 4.1 330 08:37 04.01.2020
4936 Clear 13 1016 62 10000 4.1 330 08:19 04.01.2020
4937 Clouds 10 1016 76 10000 2.6 300 07:42 04.01.2020
4938 Clear 7 1015 81 5000 1.5 280 06:52 04.01.2020
4939 Clear 7 1015 81 5000 1.5 280 06:33 04.01.2020
4940 Clear 8 1014 87 6000 0.5 0 05:18 04.01.2020
4941 Clear 8 1014 75 6000 2.1 280 04:33 04.01.2020
4942 Clear 8 1014 87 6000 1.64 4 03:43 04.01.2020
4943 Clear 8 1014 87 6000 1.64 4 03:43 04.01.2020
4944 Clear 8 1014 87 6000 1.64 4 03:18 04.01.2020
4945 Clear 9 1015 81 6000 1 330 02:21 04.01.2020
4946 Clouds 11 1015 71 6000 1.5 260 01:55 04.01.2020
4947 Clouds 11 1015 71 6000 1.5 260 01:31 04.01.2020
4948 Clouds 10 1015 76 6000 1.5 330 00:43 04.01.2020
4949 Clouds 10 1015 76 6000 1.5 330 00:23 04.01.2020
4950 Clear 10 1015 61 6000 1.5 310 23:44 03.01.2020
4951 Clear 10 1015 61 6000 1.5 310 23:25 03.01.2020
4952 Clear 11 1016 66 6000 1 350 22:41 03.01.2020
4953 Clear 11 1016 66 6000 1 350 22:41 03.01.2020
4954 Clear 11 1016 66 6000 1 350 22:20 03.01.2020
4955 Mist 11 1016 66 6000 1 300 21:59 03.01.2020
4956 Mist 11 1016 66 6000 1 300 21:39 03.01.2020
4957 Mist 11 1016 66 6000 1 300 21:19 03.01.2020
4958 Mist 11 1016 66 6000 1 300 21:19 03.01.2020
4959 Clear 11 1017 66 6000 1.5 10 20:59 03.01.2020
4960 Clear 11 1017 66 6000 1.5 10 20:41 03.01.2020
4961 Clear 11 1017 66 6000 1.5 10 20:18 03.01.2020
4962 Clear 11 1017 66 8000 1 330 19:57 03.01.2020
4963 Clear 11 1017 66 8000 1 330 19:38 03.01.2020
4964 Clear 11 1017 66 8000 1 330 19:19 03.01.2020
4965 Clear 12 1017 62 10000 2.6 30 18:44 03.01.2020
4966 Clear 12 1017 62 10000 2.6 30 18:25 03.01.2020
4967 Clear 15 1017 47 10000 1 0 17:56 03.01.2020
4968 Clear 15 1017 47 10000 1 0 17:37 03.01.2020
4969 Clear 15 1017 47 10000 1 0 17:37 03.01.2020
4970 Clear 15 1017 47 10000 1 0 17:19 03.01.2020
4971 Clear 16 1017 48 10000 1.5 10 16:42 03.01.2020
4972 Clear 16 1017 48 10000 1.5 10 16:24 03.01.2020
4973 Clear 17 1016 45 10000 1.5 10 15:57 03.01.2020
4974 Clear 17 1016 45 10000 1.5 10 15:38 03.01.2020
4975 Clear 17 1016 45 10000 1.5 10 15:18 03.01.2020
4976 Clear 19 1016 37 10000 1.5 50 14:38 03.01.2020
4977 Clouds 19 1016 37 10000 1.5 50 14:19 03.01.2020
4978 Clouds 19 1017 37 10000 1.5 60 13:44 03.01.2020
4979 Clouds 19 1017 37 10000 1.5 60 13:24 03.01.2020
4980 Clouds 18 1017 45 10000 1 0 13:00 03.01.2020
4981 Clouds 18 1017 45 10000 1 0 12:39 03.01.2020
4982 Clouds 18 1017 45 10000 1 0 12:21 03.01.2020
4983 Clouds 18 1017 48 10000 2.1 60 11:47 03.01.2020
4984 Clouds 18 1017 48 10000 2.1 60 11:23 03.01.2020
4985 Clouds 17 1018 55 10000 2.1 80 10:47 03.01.2020
4986 Clouds 17 1018 55 10000 2.1 80 10:27 03.01.2020
4987 Clouds 16 1020 59 9000 2.1 80 09:59 03.01.2020
4988 Clouds 16 1020 59 9000 2.1 80 09:40 03.01.2020
4989 Clouds 16 1020 59 9000 2.1 80 09:22 03.01.2020
4990 Clouds 15 1020 51 3400 2.1 110 08:57 03.01.2020
4991 Clouds 15 1020 51 3400 2.1 110 08:38 03.01.2020
4992 Clouds 15 1020 51 3400 2.1 110 08:19 03.01.2020
4993 Haze 12 1020 66 3800 1 0 07:40 03.01.2020
4994 Haze 12 1020 66 3800 1 0 07:19 03.01.2020
4995 Clouds 7 1019 87 6000 1 60 06:51 03.01.2020
4996 Clouds 7 1019 87 6000 1 60 06:33 03.01.2020
4997 Clouds 6 1019 93 8000 1 40 05:47 03.01.2020
4998 Clouds 7 1019 81 10000 1.5 360 04:27 03.01.2020
4999 Clouds 9 1019 70 10000 1.5 10 03:18 03.01.2020
5000 Clouds 10 1019 61 10000 1 350 02:45 03.01.2020
5001 Clouds 10 1019 61 10000 1 330 01:45 03.01.2020
5002 Clouds 12 1019 58 10000 1 40 00:56 03.01.2020
5003 Clouds 12 1019 58 10000 1 40 00:32 03.01.2020
5004 Clouds 12 1019 62 8000 2.1 30 23:58 02.01.2020
5005 Clouds 12 1019 62 8000 2.1 30 23:39 02.01.2020
5006 Clouds 12 1019 62 8000 2.1 30 23:19 02.01.2020
5007 Clouds 11 1020 62 9000 2.1 30 22:57 02.01.2020
5008 Clouds 11 1020 62 9000 2.1 30 22:39 02.01.2020
5009 Clouds 11 1020 62 9000 2.1 30 22:18 02.01.2020
5010 Clouds 11 1020 62 10000 1.5 360 21:42 02.01.2020
5011 Clouds 11 1020 62 10000 1.5 360 21:23 02.01.2020
5012 Clouds 12 1020 54 9000 0.5 330 21:00 02.01.2020
5013 Clouds 12 1020 54 9000 0.5 330 21:00 02.01.2020
5014 Clouds 12 1020 54 9000 0.5 330 21:00 02.01.2020
5015 Clouds 12 1020 54 9000 0.5 330 21:00 02.01.2020
5016 Clouds 12 1020 54 9000 0.5 330 20:39 02.01.2020
5017 Clear 12 1020 54 9000 0.5 330 20:21 02.01.2020
5018 Clear 12 1020 54 9000 0.5 330 20:21 02.01.2020
5019 Clear 13 1020 50 9000 1 330 19:56 02.01.2020
5020 Clear 13 1020 50 9000 1 330 19:38 02.01.2020
5021 Clear 13 1020 50 9000 1 330 19:19 02.01.2020
5022 Clear 12 1019 50 10000 2.1 320 18:58 02.01.2020
5023 Clear 12 1019 50 10000 2.1 320 18:40 02.01.2020
5024 Clear 12 1019 50 10000 2.1 320 18:22 02.01.2020
5025 Clear 14 1019 44 10000 1.5 180 17:57 02.01.2020
5026 Clear 14 1019 44 10000 1.5 180 17:37 02.01.2020
5027 Clear 14 1019 44 10000 1.5 180 17:19 02.01.2020
5028 Clear 14 1018 47 10000 1.95 84 16:57 02.01.2020
5029 Clear 14 1018 47 10000 1.95 84 16:38 02.01.2020
5030 Clear 14 1018 47 10000 1.95 84 16:20 02.01.2020
5031 Clear 16 1018 41 10000 1.5 40 15:56 02.01.2020
5032 Clear 16 1018 41 10000 1.5 40 15:37 02.01.2020
5033 Clear 16 1018 41 10000 1.5 40 15:19 02.01.2020
5034 Clear 18 1018 34 10000 2.1 50 14:54 02.01.2020
5035 Clear 18 1018 34 10000 2.1 50 14:54 02.01.2020
5036 Clear 18 1018 34 10000 2.1 50 14:36 02.01.2020
5037 Clouds 18 1018 34 10000 2.1 50 14:18 02.01.2020
5038 Clouds 17 1018 33 10000 1.5 20 13:45 02.01.2020
5039 Clouds 17 1018 33 10000 1.5 20 13:26 02.01.2020
5040 Clouds 18 1018 34 10000 2.6 360 12:43 02.01.2020
5041 Clouds 17 1018 42 10000 3.1 360 12:24 02.01.2020
5042 Clouds 17 1018 42 10000 3.1 360 11:43 02.01.2020
5043 Clouds 17 1018 42 10000 3.1 360 11:24 02.01.2020
5044 Clouds 16 1019 44 10000 2.6 10 10:56 02.01.2020
5045 Clouds 16 1019 44 10000 2.6 10 10:37 02.01.2020
5046 Clouds 16 1019 44 10000 2.6 10 10:18 02.01.2020
5047 Clouds 15 1020 54 10000 1.5 10 09:41 02.01.2020
5048 Clouds 15 1020 54 10000 1.5 10 09:22 02.01.2020
5049 Haze 14 1020 62 3200 1 0 08:44 02.01.2020
5050 Haze 14 1020 62 3200 1 0 08:25 02.01.2020
5051 Clouds 10 1020 76 5000 1 320 07:48 02.01.2020
5052 Clouds 10 1020 76 5000 1 320 07:28 02.01.2020
5053 Clouds 6 1019 87 9000 1.5 320 06:43 02.01.2020
5054 Clouds 6 1019 87 10000 2.46 24 05:58 02.01.2020
5055 Clouds 5 1019 100 10000 0.5 0 04:40 02.01.2020
5056 Clouds 5 1019 100 10000 0.5 0 04:21 02.01.2020
5057 Clouds 6 1018 100 10000 2.52 38 02:25 02.01.2020
5058 Clouds 7 1018 81 10000 1 160 01:57 02.01.2020
5059 Clouds 7 1018 81 10000 1 160 01:32 02.01.2020
5060 Clouds 6 1018 81 10000 1 360 00:53 02.01.2020
5061 Clouds 6 1018 81 10000 1 360 00:32 02.01.2020
5062 Clouds 9 1018 76 10000 0.5 0 23:48 01.01.2020
5063 Clouds 9 1018 76 10000 0.5 0 23:25 01.01.2020
5064 Clouds 7 1018 81 10000 2.1 340 22:55 01.01.2020
5065 Clouds 7 1018 81 10000 2.1 340 22:37 01.01.2020
5066 Clouds 7 1018 81 10000 2.1 340 22:18 01.01.2020
5067 Clouds 9 1018 76 10000 0.5 340 21:42 01.01.2020
5068 Clouds 9 1018 76 10000 0.5 340 21:21 01.01.2020
5069 Clouds 10 1019 71 10000 1 310 20:59 01.01.2020
5070 Clouds 10 1019 71 10000 1 310 20:39 01.01.2020
5071 Clouds 10 1019 71 10000 1 310 20:21 01.01.2020
5072 Clouds 9 1018 76 10000 1.5 330 19:58 01.01.2020
5073 Clouds 9 1018 76 10000 1.5 330 19:58 01.01.2020
5074 Clouds 9 1018 76 10000 1.5 330 19:39 01.01.2020
5075 Clouds 9 1018 76 10000 1.5 330 19:20 01.01.2020
5076 Haze 11 1018 71 10000 1.5 340 18:57 01.01.2020
5077 Haze 11 1018 71 10000 1.5 340 18:39 01.01.2020
5078 Haze 11 1018 71 10000 1.5 340 18:20 01.01.2020
5079 Clouds 11 1018 66 10000 2.1 340 17:59 01.01.2020
5080 Clouds 11 1018 66 10000 2.1 340 17:40 01.01.2020
5081 Clouds 11 1018 66 10000 2.1 340 17:20 01.01.2020
5082 Clouds 13 1017 58 10000 2.6 320 16:59 01.01.2020
5083 Clouds 13 1017 58 10000 2.6 320 16:38 01.01.2020
5084 Clouds 13 1017 58 10000 2.6 320 16:20 01.01.2020
5085 Clouds 16 1016 48 10000 3.1 290 15:57 01.01.2020
5086 Clouds 16 1016 48 10000 3.1 290 15:38 01.01.2020
5087 Clouds 16 1016 48 10000 3.1 290 15:20 01.01.2020
5088 Clouds 17 1016 45 10000 4.1 290 14:56 01.01.2020
5089 Clouds 17 1016 45 10000 4.1 290 14:37 01.01.2020
5090 Clouds 17 1016 45 10000 4.1 290 14:19 01.01.2020
5091 Clouds 18 1016 45 10000 4.6 300 13:55 01.01.2020
5092 Clouds 18 1016 45 10000 4.6 300 13:36 01.01.2020
5093 Clouds 18 1016 45 10000 4.6 300 13:18 01.01.2020
5094 Clouds 18 1016 45 10000 4.1 290 12:40 01.01.2020
5095 Clouds 18 1016 45 10000 4.1 290 12:20 01.01.2020
5096 Clouds 17 1016 51 10000 3.6 270 11:58 01.01.2020
5097 Clouds 17 1016 51 10000 3.6 270 11:58 01.01.2020
5098 Clouds 17 1016 51 10000 3.6 270 11:39 01.01.2020
5099 Clear 17 1016 51 10000 3.6 270 11:20 01.01.2020
5100 Clear 16 1017 59 10000 3.1 280 10:55 01.01.2020
5101 Clear 16 1017 59 10000 3.1 280 10:37 01.01.2020
5102 Clear 16 1017 59 10000 3.1 280 10:18 01.01.2020
5103 Clear 14 1018 67 10000 3.1 290 09:40 01.01.2020
5104 Clear 14 1018 67 10000 3.1 290 09:22 01.01.2020
5105 Clear 12 1018 71 10000 3.1 300 08:57 01.01.2020
5106 Clear 12 1018 71 10000 3.1 300 08:57 01.01.2020
5107 Clear 12 1018 71 10000 3.1 300 08:57 01.01.2020
5108 Clear 12 1018 71 10000 3.1 300 08:38 01.01.2020
5109 Clear 12 1018 71 10000 3.1 300 08:38 01.01.2020
5110 Clouds 12 1018 71 10000 3.1 300 08:19 01.01.2020
5111 Clouds 9 1018 76 10000 2.6 280 07:57 01.01.2020
5112 Clouds 9 1018 76 10000 2.6 280 07:39 01.01.2020
5113 Clouds 7 1018 81 10000 2.1 250 06:55 01.01.2020
5114 Clouds 7 1018 81 10000 2.1 250 06:36 01.01.2020
5115 Clouds 7 1017 81 10000 2.1 270 05:48 01.01.2020
5116 Clouds 7 1017 75 10000 1 0 04:20 01.01.2020
5117 Clouds 7 1017 81 10000 1.5 280 03:39 01.01.2020
5118 Clouds 7 1017 81 10000 1.5 280 03:21 01.01.2020
5119 Clouds 7 1017 81 10000 2.1 290 02:41 01.01.2020
5120 Clouds 7 1017 81 10000 2.1 290 02:22 01.01.2020
5121 Clear 8 1017 81 10000 2.6 270 01:41 01.01.2020
5122 Clear 8 1017 81 10000 2.6 270 01:22 01.01.2020
5123 Clear 9 1017 76 10000 2.6 260 00:45 01.01.2020
5124 Clear 9 1017 76 10000 2.6 260 00:45 01.01.2020
5125 Clear 9 1017 76 10000 2.6 260 00:26 01.01.2020
5126 Clear 8 1017 75 10000 2.6 280 23:56 31.12.2019
5127 Clear 8 1017 75 10000 2.6 280 23:36 31.12.2019
5128 Clear 8 1017 75 10000 2.6 280 23:18 31.12.2019
5129 Clear 9 1018 70 10000 3.1 300 22:55 31.12.2019
5130 Clear 9 1018 70 10000 3.1 300 22:36 31.12.2019
5131 Clear 9 1018 70 10000 3.1 300 22:18 31.12.2019
5132 Clear 11 1018 66 10000 3.6 270 21:42 31.12.2019
5133 Clear 11 1018 66 10000 3.6 270 21:24 31.12.2019
5134 Clear 11 1018 71 10000 3.96 299 20:57 31.12.2019
5135 Clear 11 1018 71 10000 3.96 299 20:57 31.12.2019
5136 Clear 11 1018 71 10000 3.96 299 20:38 31.12.2019
5137 Clear 11 1018 71 10000 3.96 299 20:38 31.12.2019
5138 Clear 11 1018 71 10000 4.32 301 20:20 31.12.2019
5139 Clear 11 1018 66 10000 2.1 240 19:55 31.12.2019
5140 Clear 11 1018 66 10000 2.1 240 19:37 31.12.2019
5141 Clear 11 1018 66 10000 2.1 240 19:18 31.12.2019
5142 Clear 12 1018 66 10000 1 290 18:55 31.12.2019
5143 Clear 12 1018 66 10000 1 290 18:37 31.12.2019
5144 Clear 12 1018 66 10000 1 290 18:19 31.12.2019
5145 Clear 14 1018 58 10000 3.6 290 17:55 31.12.2019
5146 Clear 14 1018 58 10000 3.6 290 17:36 31.12.2019
5147 Clear 14 1018 58 10000 3.6 290 17:18 31.12.2019
5148 Clear 15 1018 54 10000 3.6 280 16:55 31.12.2019
5149 Clear 15 1018 54 10000 3.6 280 16:36 31.12.2019
5150 Clear 15 1018 54 10000 3.6 280 16:18 31.12.2019
5151 Clear 17 1017 51 10000 4.6 280 15:55 31.12.2019
5152 Clear 17 1017 51 10000 4.6 280 15:37 31.12.2019
5153 Clear 17 1017 51 10000 4.6 280 15:19 31.12.2019
5154 Clear 18 1017 48 10000 4.1 290 14:55 31.12.2019
5155 Clear 18 1017 48 10000 4.1 290 14:37 31.12.2019
5156 Clear 18 1017 48 10000 4.1 290 14:37 31.12.2019
5157 Clear 18 1017 48 10000 4.1 290 14:18 31.12.2019
5158 Clear 18 1017 48 10000 5.7 300 13:55 31.12.2019
5159 Clear 18 1017 48 10000 5.7 300 13:37 31.12.2019
5160 Clear 18 1017 48 10000 5.7 300 13:19 31.12.2019
5161 Clear 19 1017 45 10000 5.1 280 12:55 31.12.2019
5162 Clear 19 1017 45 10000 5.1 280 12:37 31.12.2019
5163 Clear 19 1017 45 10000 5.1 280 12:18 31.12.2019
5164 Clear 19 1017 45 10000 4.6 280 11:54 31.12.2019
5165 Clear 19 1017 45 10000 4.6 280 11:36 31.12.2019
5166 Clear 19 1017 45 10000 4.6 280 11:18 31.12.2019
5167 Clear 18 1018 48 10000 4.6 290 10:54 31.12.2019
5168 Clear 18 1018 48 10000 4.6 290 10:36 31.12.2019
5169 Clear 18 1018 48 10000 4.6 290 10:18 31.12.2019
5170 Clear 16 1019 55 10000 4.1 300 09:55 31.12.2019
5171 Clear 16 1019 55 10000 4.1 300 09:37 31.12.2019
5172 Clear 16 1019 55 10000 4.1 300 09:37 31.12.2019
5173 Clear 16 1019 55 10000 4.1 300 09:18 31.12.2019
5174 Clear 15 1019 58 10000 5.7 290 08:42 31.12.2019
5175 Clear 15 1019 58 10000 5.7 290 08:42 31.12.2019
5176 Clear 15 1019 58 10000 5.7 290 08:22 31.12.2019
5177 Clear 12 1019 76 10000 3.1 270 07:45 31.12.2019
5178 Clear 12 1019 76 10000 3.1 270 07:22 31.12.2019
5179 Clear 10 1019 87 6000 2.6 280 06:51 31.12.2019
5180 Clear 10 1019 87 6000 2.6 280 06:51 31.12.2019
5181 Mist 9 1018 93 3800 2.1 290 06:27 31.12.2019
5182 Clear 9 1017 70 10000 3.6 290 04:55 31.12.2019
5183 Clear 9 1017 70 10000 3.6 290 04:25 31.12.2019
5184 Smoke 9 1017 76 5000 1.5 310 02:57 31.12.2019
5185 Smoke 9 1017 76 5000 1.5 310 02:21 31.12.2019
5186 Smoke 8 1017 75 4700 2.6 310 01:50 31.12.2019
5187 Smoke 8 1017 75 4700 2.6 310 01:31 31.12.2019
5188 Smoke 9 1017 76 4300 1 340 00:49 31.12.2019
5189 Smoke 9 1017 76 4300 1 340 00:26 31.12.2019
5190 Smoke 9 1017 70 5000 1 10 23:59 30.12.2019
5191 Smoke 9 1017 70 5000 1 10 23:41 30.12.2019
5192 Smoke 9 1017 70 5000 1 10 23:23 30.12.2019
5193 Clear 10 1017 71 7000 1 360 22:59 30.12.2019
5194 Clear 10 1017 71 7000 1 360 22:41 30.12.2019
5195 Clear 10 1017 71 7000 1 360 22:21 30.12.2019
5196 Clear 11 1017 57 7000 0.5 20 21:57 30.12.2019
5197 Clear 11 1017 57 7000 0.5 20 21:39 30.12.2019
5198 Clear 11 1017 57 7000 0.5 20 21:20 30.12.2019
5199 Clear 12 1017 62 9000 1 330 20:59 30.12.2019
5200 Clear 12 1017 62 9000 1 330 20:41 30.12.2019
5201 Clear 12 1017 62 9000 1 330 20:20 30.12.2019
5202 Clear 12 1017 58 10000 1 0 19:59 30.12.2019
5203 Clear 12 1017 58 10000 1 0 19:39 30.12.2019
5204 Clear 12 1017 58 10000 1 0 19:19 30.12.2019
5205 Clear 13 1017 58 10000 0.5 20 18:59 30.12.2019
5206 Clear 13 1017 58 10000 0.5 20 18:59 30.12.2019
5207 Clear 13 1017 58 10000 0.5 20 18:41 30.12.2019
5208 Clear 13 1017 58 10000 0.5 20 18:20 30.12.2019
5209 Clear 15 1016 51 10000 2.87 115 17:58 30.12.2019
5210 Clear 15 1016 51 10000 2.87 115 17:39 30.12.2019
5211 Clear 15 1016 51 10000 3.31 102 17:19 30.12.2019
5212 Clear 17 1015 48 10000 2.6 130 16:58 30.12.2019
5213 Clear 17 1015 48 10000 2.6 130 16:38 30.12.2019
5214 Clear 17 1015 48 10000 2.6 130 16:20 30.12.2019
5215 Clear 19 1016 42 10000 2.6 110 15:56 30.12.2019
5216 Clear 19 1016 42 10000 2.6 110 15:37 30.12.2019
5217 Clear 19 1016 42 10000 2.6 110 15:19 30.12.2019
5218 Clear 21 1016 37 10000 3.1 120 14:43 30.12.2019
5219 Clear 21 1016 37 10000 3.1 120 14:20 30.12.2019
5220 Clear 21 1016 37 10000 3.6 80 13:58 30.12.2019
5221 Clear 21 1016 37 10000 3.6 80 13:40 30.12.2019
5222 Clear 21 1016 37 10000 3.6 80 13:40 30.12.2019
5223 Clear 21 1016 37 10000 3.6 80 13:22 30.12.2019
5224 Clear 21 1016 35 10000 4.1 80 12:56 30.12.2019
5225 Clear 21 1016 35 10000 4.1 80 12:37 30.12.2019
5226 Clear 21 1016 35 10000 4.1 80 12:18 30.12.2019
5227 Clear 21 1017 32 10000 4.6 100 11:45 30.12.2019
5228 Clouds 21 1017 32 10000 4.6 100 11:20 30.12.2019
5229 Clouds 20 1017 34 10000 6.2 90 10:58 30.12.2019
5230 Clouds 20 1017 34 10000 6.2 90 10:40 30.12.2019
5231 Clouds 20 1017 34 10000 6.2 90 10:19 30.12.2019
5232 Clouds 18 1019 42 10000 4.6 90 09:42 30.12.2019
5233 Clouds 18 1019 42 10000 4.6 90 09:20 30.12.2019
5234 Clouds 16 1019 48 10000 4.6 90 08:56 30.12.2019
5235 Clouds 16 1019 48 10000 4.6 90 08:38 30.12.2019
5236 Clouds 16 1019 48 10000 4.6 90 08:19 30.12.2019
5237 Clouds 15 1019 51 10000 3.6 90 07:44 30.12.2019
5238 Clouds 15 1019 51 10000 3.6 90 07:18 30.12.2019
5239 Clouds 12 1019 62 10000 3.1 80 06:30 30.12.2019
5240 Clouds 11 1019 66 10000 3.1 90 04:29 30.12.2019
5241 Clouds 11 1019 66 9000 3.1 80 03:43 30.12.2019
5242 Clouds 11 1019 66 6000 3.1 80 02:45 30.12.2019
5243 Clouds 11 1019 66 6000 3.1 80 02:25 30.12.2019
5244 Clouds 11 1019 66 4400 2.6 80 01:27 30.12.2019
5245 Clouds 10 1019 71 5000 1.5 70 00:56 30.12.2019
5246 Clouds 10 1019 71 5000 1.5 70 00:36 30.12.2019
5247 Clouds 10 1019 76 5000 1.5 80 23:42 29.12.2019
5248 Clouds 10 1019 76 5000 1.5 80 23:24 29.12.2019
5249 Clear 10 1019 66 4500 2.6 70 22:58 29.12.2019
5250 Clear 10 1019 66 4500 2.6 70 22:38 29.12.2019
5251 Clear 10 1019 66 4500 2.6 70 22:20 29.12.2019
5252 Clear 11 1020 66 5000 1.5 70 21:55 29.12.2019
5253 Clear 11 1020 66 5000 1.5 70 21:55 29.12.2019
5254 Clear 11 1020 66 5000 1.5 70 21:37 29.12.2019
5255 Clear 11 1020 66 5000 1.5 70 21:18 29.12.2019
5256 Clear 11 1020 71 10000 1.5 70 20:55 29.12.2019
5257 Clear 11 1020 71 10000 1.5 70 20:37 29.12.2019
5258 Clear 11 1020 71 10000 1.5 70 20:37 29.12.2019
5259 Clear 11 1020 71 10000 1.5 70 20:18 29.12.2019
5260 Clear 12 1020 62 10000 2.1 90 19:55 29.12.2019
5261 Clear 12 1020 62 10000 2.1 90 19:37 29.12.2019
5262 Clear 12 1020 62 10000 2.1 90 19:18 29.12.2019
5263 Clear 11 1020 62 10000 2.6 100 18:54 29.12.2019
5264 Clear 11 1020 62 10000 2.6 100 18:54 29.12.2019
5265 Clear 11 1020 62 10000 2.6 100 18:36 29.12.2019
5266 Clear 11 1020 62 10000 2.6 100 18:18 29.12.2019
5267 Clear 14 1019 58 10000 2.1 90 17:54 29.12.2019
5268 Clear 14 1019 58 10000 2.1 90 17:36 29.12.2019
5269 Clear 14 1019 58 10000 2.1 90 17:18 29.12.2019
5270 Clear 15 1019 54 10000 2.1 90 16:54 29.12.2019
5271 Clear 15 1019 54 10000 2.1 90 16:54 29.12.2019
5272 Clear 15 1019 54 10000 2.1 90 16:36 29.12.2019
5273 Clear 15 1019 54 10000 2.1 90 16:18 29.12.2019
5274 Clear 17 1019 48 10000 3.6 90 15:54 29.12.2019
5275 Clear 17 1019 48 10000 3.6 90 15:36 29.12.2019
5276 Clear 17 1019 48 10000 3.6 90 15:18 29.12.2019
5277 Clear 18 1018 45 10000 3.1 110 14:46 29.12.2019
5278 Clouds 18 1018 45 10000 3.1 110 14:19 29.12.2019
5279 Clouds 19 1019 39 10000 3.6 110 13:59 29.12.2019
5280 Clouds 19 1019 39 10000 3.6 110 13:40 29.12.2019
5281 Clouds 19 1019 39 10000 3.6 110 13:22 29.12.2019
5282 Clouds 19 1019 39 10000 3.1 150 12:58 29.12.2019
5283 Clouds 19 1019 39 10000 3.1 150 12:39 29.12.2019
5284 Clouds 19 1019 39 10000 3.1 150 12:21 29.12.2019
5285 Clouds 18 1020 45 10000 3.1 120 11:43 29.12.2019
5286 Clouds 18 1020 45 10000 3.1 120 11:23 29.12.2019
5287 Clouds 17 1021 45 10000 3.6 150 10:59 29.12.2019
5288 Clouds 17 1021 45 10000 3.6 150 10:40 29.12.2019
5289 Clouds 17 1021 45 10000 3.6 150 10:19 29.12.2019
5290 Clouds 17 1022 48 10000 3.6 150 09:47 29.12.2019
5291 Clouds 17 1022 48 10000 3.6 150 09:28 29.12.2019
5292 Clouds 16 1022 51 10000 3.6 130 08:59 29.12.2019
5293 Clouds 16 1022 51 10000 3.6 130 08:41 29.12.2019
5294 Clouds 16 1022 51 10000 3.6 130 08:23 29.12.2019
5295 Clouds 13 1022 58 10000 1.5 180 07:49 29.12.2019
5296 Clouds 13 1022 58 10000 1.5 180 07:27 29.12.2019
5297 Clear 7 1021 87 10000 1 60 06:52 29.12.2019
5298 Clear 7 1021 87 10000 1 60 06:22 29.12.2019
5299 Clear 5 1021 80 10000 1 120 05:45 29.12.2019
5300 Clear 7 1021 87 10000 1.5 80 04:33 29.12.2019
5301 Clear 6 1020 87 10000 1.5 140 03:39 29.12.2019
5302 Clear 7 1020 75 10000 1 150 02:49 29.12.2019
5303 Clear 7 1020 75 10000 1 150 02:19 29.12.2019
5304 Clear 7 1020 81 10000 1.5 130 01:31 29.12.2019
5305 Clear 7 1020 81 10000 1.5 130 01:31 29.12.2019
5306 Clear 7 1020 75 10000 2.6 140 00:51 29.12.2019
5307 Clear 7 1020 75 10000 2.6 140 00:25 29.12.2019
5308 Clear 8 1020 75 10000 2.1 150 23:56 28.12.2019
5309 Clear 8 1020 75 10000 2.1 150 23:37 28.12.2019
5310 Clear 8 1020 75 10000 2.1 150 23:18 28.12.2019
5311 Clear 10 1020 66 10000 1 110 22:38 28.12.2019
5312 Clear 10 1020 66 10000 1 110 22:38 28.12.2019
5313 Clear 10 1020 66 10000 1 110 22:19 28.12.2019
5314 Clear 9 1020 70 10000 1.5 150 21:57 28.12.2019
5315 Clear 9 1020 70 10000 1.5 150 21:38 28.12.2019
5316 Clear 9 1020 70 10000 1.5 150 21:38 28.12.2019
5317 Clear 9 1020 70 10000 1.5 150 21:20 28.12.2019
5318 Clear 10 1020 66 10000 1.5 130 20:55 28.12.2019
5319 Clear 10 1020 66 10000 1.5 130 20:36 28.12.2019
5320 Clear 10 1020 66 10000 1.5 130 20:18 28.12.2019
5321 Clear 10 1020 66 10000 1.5 160 19:54 28.12.2019
5322 Clear 10 1020 66 10000 1.5 160 19:36 28.12.2019
5323 Clear 10 1020 66 10000 1.5 160 19:18 28.12.2019
5324 Clear 11 1019 62 10000 1 150 18:43 28.12.2019
5325 Clear 11 1019 62 10000 1 150 18:20 28.12.2019
5326 Clear 12 1019 58 10000 2.1 190 17:59 28.12.2019
5327 Clear 12 1019 58 10000 2.1 190 17:41 28.12.2019
5328 Clear 12 1019 58 10000 2.1 190 17:21 28.12.2019
5329 Clear 14 1018 50 10000 2.1 160 16:55 28.12.2019
5330 Clear 14 1018 50 10000 2.1 160 16:37 28.12.2019
5331 Clear 14 1018 50 10000 2.1 160 16:19 28.12.2019
5332 Clouds 17 1018 45 10000 3.6 210 15:43 28.12.2019
5333 Clouds 17 1018 45 10000 3.6 210 15:22 28.12.2019
5334 Clouds 18 1017 42 10000 3.6 210 14:55 28.12.2019
5335 Clouds 18 1017 42 10000 3.6 210 14:36 28.12.2019
5336 Clouds 18 1017 42 10000 3.6 210 14:18 28.12.2019
5337 Clouds 18 1017 45 10000 3.6 210 13:42 28.12.2019
5338 Clouds 18 1017 45 10000 3.6 210 13:21 28.12.2019
5339 Clouds 18 1017 45 10000 3.6 170 12:58 28.12.2019
5340 Clouds 18 1017 45 10000 3.6 170 12:40 28.12.2019
5341 Clouds 18 1017 45 10000 3.6 170 12:21 28.12.2019
5342 Clouds 18 1017 45 10000 3.1 210 11:40 28.12.2019
5343 Clouds 18 1017 45 10000 3.1 210 11:21 28.12.2019
5344 Clouds 17 1017 51 10000 2.1 170 10:57 28.12.2019
5345 Clouds 17 1017 51 10000 2.1 170 10:38 28.12.2019
5346 Clouds 17 1017 51 10000 2.1 170 10:19 28.12.2019
5347 Clouds 16 1018 59 10000 1.5 0 09:54 28.12.2019
5348 Clouds 16 1018 59 10000 1.5 0 09:36 28.12.2019
5349 Clouds 16 1018 59 10000 1.5 0 09:18 28.12.2019
5350 Clouds 13 1018 66 10000 2.1 290 08:42 28.12.2019
5351 Clouds 13 1018 66 10000 2.1 290 08:23 28.12.2019
5352 Clear 11 1018 66 10000 1.5 250 07:47 28.12.2019
5353 Clear 11 1018 66 10000 1.5 250 07:23 28.12.2019
5354 Clear 6 1016 81 10000 1.5 280 05:51 28.12.2019
5355 Clear 8 1015 75 10000 1.5 250 03:48 28.12.2019
5356 Clear 7 1015 75 10000 1.5 250 02:51 28.12.2019
5357 Clouds 7 1015 75 10000 1.5 250 02:20 28.12.2019
5358 Clouds 6 1015 75 10000 1 220 01:56 28.12.2019
5359 Clouds 6 1015 75 10000 1 220 01:23 28.12.2019
5360 Clouds 9 1014 66 10000 1 230 00:50 28.12.2019
5361 Clouds 9 1014 66 10000 1 230 00:30 28.12.2019
5362 Clouds 9 1014 66 10000 2.1 220 23:58 27.12.2019
5363 Clouds 9 1014 66 10000 2.1 220 23:58 27.12.2019
5364 Clouds 9 1014 66 10000 2.1 220 23:39 27.12.2019
5365 Clouds 9 1014 66 10000 2.1 220 23:19 27.12.2019
5366 Clouds 11 1014 57 10000 2.1 250 22:57 27.12.2019
5367 Clouds 11 1014 57 10000 2.1 250 22:38 27.12.2019
5368 Clouds 11 1014 57 10000 2.1 250 22:19 27.12.2019
5369 Clouds 13 1014 50 10000 2.6 260 21:43 27.12.2019
5370 Clouds 13 1014 50 10000 2.6 260 21:43 27.12.2019
5371 Clouds 13 1014 50 10000 2.6 260 21:25 27.12.2019
5372 Clouds 12 1014 58 10000 2.1 220 20:58 27.12.2019
5373 Clouds 12 1014 58 10000 2.1 220 20:40 27.12.2019
5374 Clouds 12 1014 58 10000 2.1 220 20:21 27.12.2019
5375 Clouds 10 1013 71 10000 2.1 160 19:41 27.12.2019
5376 Clouds 10 1013 71 10000 2.1 160 19:20 27.12.2019
5377 Clouds 13 1013 58 10000 2.1 160 18:57 27.12.2019
5378 Clouds 13 1013 58 10000 2.1 160 18:37 27.12.2019
5379 Clouds 13 1013 58 10000 2.1 160 18:19 27.12.2019
5380 Clouds 14 1013 54 10000 3.1 140 17:56 27.12.2019
5381 Clouds 14 1013 54 10000 3.1 140 17:38 27.12.2019
5382 Clouds 14 1013 54 10000 3.1 140 17:18 27.12.2019
5383 Clouds 13 1012 58 10000 3.6 150 16:44 27.12.2019
5384 Clouds 13 1012 58 10000 3.6 150 16:26 27.12.2019
5385 Clouds 16 1011 48 10000 4.1 170 15:59 27.12.2019
5386 Clouds 16 1011 48 10000 4.1 170 15:40 27.12.2019
5387 Clouds 16 1011 48 10000 4.1 170 15:20 27.12.2019
5388 Clouds 18 1012 48 10000 3.1 130 14:56 27.12.2019
5389 Clouds 18 1012 48 10000 3.1 130 14:38 27.12.2019
5390 Clouds 18 1012 48 10000 3.1 130 14:20 27.12.2019
5391 Clouds 18 1012 48 10000 3.1 130 14:20 27.12.2019
5392 Clouds 18 1011 48 10000 1.5 40 13:48 27.12.2019
5393 Clouds 18 1011 48 10000 1.5 40 13:25 27.12.2019
5394 Rain 18 1011 45 10000 1.5 220 12:58 27.12.2019
5395 Rain 18 1011 45 10000 1.5 220 12:39 27.12.2019
5396 Rain 18 1011 45 10000 1.5 220 12:21 27.12.2019
5397 Clouds 18 1011 42 10000 3.1 170 11:43 27.12.2019
5398 Clouds 18 1011 42 10000 3.1 170 11:24 27.12.2019
5399 Clouds 17 1012 45 10000 4.1 180 10:55 27.12.2019
5400 Clouds 17 1012 45 10000 4.1 180 10:37 27.12.2019
5401 Clouds 17 1012 45 10000 4.1 180 10:19 27.12.2019
5402 Clouds 15 1013 54 10000 5.1 170 09:42 27.12.2019
5403 Clouds 15 1013 54 10000 5.1 170 09:21 27.12.2019
5404 Clouds 13 1014 62 9000 3.6 160 08:58 27.12.2019
5405 Clouds 13 1014 62 9000 3.6 160 08:36 27.12.2019
5406 Clouds 11 1014 71 6000 5.1 140 07:51 27.12.2019
5407 Clouds 11 1014 71 6000 5.1 140 07:32 27.12.2019
5408 Mist 9 1014 81 2400 4.6 130 06:37 27.12.2019
5409 Mist 8 1013 81 6000 3.6 140 05:37 27.12.2019
5410 Clear 9 1012 81 6000 3.6 150 03:44 27.12.2019
5411 Clear 10 1013 76 6000 3.6 140 02:21 27.12.2019
5412 Mist 10 1013 81 5000 3.6 150 01:38 27.12.2019
5413 Mist 10 1013 81 5000 3.6 150 01:19 27.12.2019
5414 Clear 11 1013 76 7000 4.1 150 00:43 27.12.2019
5415 Clear 11 1013 76 7000 4.1 150 00:24 27.12.2019
5416 Clear 11 1013 76 7000 4.1 150 00:24 27.12.2019
5417 Clear 11 1013 76 7000 4.1 150 23:42 26.12.2019
5418 Clear 11 1013 76 7000 4.1 150 23:22 26.12.2019
5419 Clear 11 1013 76 7000 4.1 140 22:48 26.12.2019
5420 Clear 11 1014 76 7000 3.6 140 22:23 26.12.2019
5421 Clear 12 1014 76 8000 3.6 140 21:59 26.12.2019
5422 Clear 12 1014 76 8000 3.6 140 21:39 26.12.2019
5423 Clear 12 1014 76 8000 3.6 140 21:20 26.12.2019
5424 Clear 12 1014 76 8000 3.6 130 20:47 26.12.2019
5425 Clear 12 1014 76 8000 3.6 130 20:23 26.12.2019
5426 Clear 13 1014 71 8000 3.6 140 19:59 26.12.2019
5427 Clear 13 1014 71 8000 3.6 140 19:40 26.12.2019
5428 Clear 13 1014 71 8000 3.6 140 19:22 26.12.2019
5429 Clear 13 1014 71 8000 4.1 140 18:58 26.12.2019
5430 Clear 13 1014 71 8000 4.1 140 18:40 26.12.2019
5431 Clear 13 1014 71 8000 4.1 140 18:20 26.12.2019
5432 Clear 14 1014 67 8000 3.1 120 17:57 26.12.2019
5433 Clear 14 1014 67 8000 3.1 120 17:38 26.12.2019
5434 Clear 14 1014 67 8000 3.1 120 17:38 26.12.2019
5435 Clear 14 1014 67 8000 3.1 120 17:19 26.12.2019
5436 Clear 15 1013 62 10000 3.1 130 16:45 26.12.2019
5437 Clear 15 1013 62 10000 3.1 130 16:24 26.12.2019
5438 Clouds 18 1013 48 10000 3.1 140 15:56 26.12.2019
5439 Clouds 18 1013 48 10000 3.1 140 15:38 26.12.2019
5440 Clouds 18 1013 48 10000 3.1 140 15:18 26.12.2019
5441 Clear 19 1012 48 10000 3.1 170 14:41 26.12.2019
5442 Clear 19 1012 48 10000 3.1 170 14:22 26.12.2019
5443 Clear 19 1012 48 10000 3.6 200 13:44 26.12.2019
5444 Clear 19 1012 48 10000 3.6 200 13:23 26.12.2019
5445 Clear 19 1012 52 10000 3.6 200 12:58 26.12.2019
5446 Clear 19 1012 52 10000 3.6 200 12:39 26.12.2019
5447 Clear 19 1012 52 10000 3.6 200 12:21 26.12.2019
5448 Clear 19 1012 52 10000 3.6 170 11:58 26.12.2019
5449 Clear 19 1012 52 10000 3.6 170 11:39 26.12.2019
5450 Clear 19 1012 52 10000 3.6 170 11:20 26.12.2019
5451 Clear 18 1014 55 10000 5.1 180 10:49 26.12.2019
5452 Clear 18 1014 55 10000 5.1 180 10:20 26.12.2019
5453 Clear 18 1015 59 10000 7.2 140 09:53 26.12.2019
5454 Clear 18 1015 59 10000 7.2 140 09:32 26.12.2019
5455 Clear 17 1015 67 7000 5.7 140 08:55 26.12.2019
5456 Clear 17 1015 67 7000 5.7 140 08:37 26.12.2019
5457 Clear 17 1015 67 7000 5.7 140 08:18 26.12.2019
5458 Clear 14 1015 76 4400 3.1 130 07:31 26.12.2019
5459 Mist 12 1015 81 3000 3.6 120 06:56 26.12.2019
5460 Mist 12 1015 81 3000 3.6 120 06:33 26.12.2019
5461 Clouds 11 1015 87 6000 1.5 110 05:57 26.12.2019
5462 Clouds 11 1015 87 6000 1.5 110 05:38 26.12.2019
5463 Clear 11 1014 81 7000 2.6 120 04:32 26.12.2019
5464 Clear 12 1014 76 9000 3.1 160 03:20 26.12.2019
5465 Clear 14 1013 71 9000 6.2 140 02:40 26.12.2019
5466 Clouds 14 1013 71 9000 6.2 140 02:20 26.12.2019
5467 Clouds 14 1014 67 10000 5.7 140 01:42 26.12.2019
5468 Clouds 14 1014 67 10000 5.7 140 01:24 26.12.2019
5469 Clouds 14 1014 71 10000 5.1 130 00:42 26.12.2019
5470 Clouds 14 1014 71 10000 5.1 130 00:22 26.12.2019
5471 Clouds 14 1014 71 8000 4.6 130 23:56 25.12.2019
5472 Clouds 14 1014 71 8000 4.6 130 23:36 25.12.2019
5473 Clouds 14 1014 71 8000 4.6 130 23:18 25.12.2019
5474 Clouds 15 1014 72 7000 4.6 130 22:55 25.12.2019
5475 Clouds 15 1014 72 7000 4.6 130 22:36 25.12.2019
5476 Clouds 15 1014 72 7000 4.6 130 22:18 25.12.2019
5477 Clouds 15 1014 77 8000 3.1 140 21:40 25.12.2019
5478 Clouds 15 1014 77 8000 3.1 140 21:22 25.12.2019
5479 Clouds 16 1014 72 8000 4.1 150 20:57 25.12.2019
5480 Clouds 16 1014 72 8000 4.1 150 20:39 25.12.2019
5481 Clouds 16 1014 72 8000 4.1 150 20:18 25.12.2019
5482 Clouds 16 1014 67 8000 7.2 140 19:44 25.12.2019
5483 Clouds 16 1014 67 8000 7.2 140 19:25 25.12.2019
5484 Clouds 17 1014 59 9000 8.7 140 18:59 25.12.2019
5485 Clouds 17 1014 59 9000 8.7 140 18:39 25.12.2019
5486 Clouds 17 1014 59 9000 8.7 140 18:20 25.12.2019
5487 Clouds 17 1014 55 10000 7.7 140 17:43 25.12.2019
5488 Clouds 17 1014 55 10000 7.7 140 17:21 25.12.2019
5489 Clouds 17 1014 51 10000 7.7 140 16:59 25.12.2019
5490 Clouds 17 1014 51 10000 7.7 140 16:39 25.12.2019
5491 Clouds 17 1014 51 10000 7.7 140 16:19 25.12.2019
5492 Clouds 18 1013 42 10000 7.7 150 15:57 25.12.2019
5493 Clouds 18 1013 42 10000 7.7 150 15:57 25.12.2019
5494 Clouds 18 1013 42 10000 7.7 150 15:39 25.12.2019
5495 Clouds 18 1013 42 10000 7.7 150 15:21 25.12.2019
5496 Clouds 19 1012 37 10000 9.8 140 14:58 25.12.2019
5497 Clouds 19 1012 37 10000 9.8 140 14:40 25.12.2019
5498 Clouds 19 1012 37 10000 9.8 140 14:21 25.12.2019
5499 Clouds 19 1012 37 10000 9.8 140 14:21 25.12.2019
5500 Clouds 19 1012 37 10000 9.8 140 14:21 25.12.2019
5501 Clouds 20 1012 32 10000 10.8 140 13:57 25.12.2019
5502 Clouds 20 1012 32 10000 10.8 140 13:38 25.12.2019
5503 Clouds 20 1012 32 10000 10.8 140 13:19 25.12.2019
5504 Clouds 21 1012 30 10000 11.3 130 12:39 25.12.2019
5505 Clouds 21 1012 30 10000 11.3 130 12:20 25.12.2019
5506 Dust 20 1012 32 4600 12.3 130 11:55 25.12.2019
5507 Dust 20 1012 32 4600 12.3 130 11:55 25.12.2019
5508 Dust 20 1012 32 4600 12.3 130 11:37 25.12.2019
5509 Dust 20 1012 32 4600 12.3 130 11:18 25.12.2019
5510 Dust 20 1012 32 6000 12.3 130 10:38 25.12.2019
5511 Clouds 19 1014 37 7000 11.3 130 10:19 25.12.2019
5512 Clouds 19 1014 37 7000 11.3 130 10:19 25.12.2019
5513 Clouds 17 1015 42 10000 9.8 130 09:50 25.12.2019
5514 Clouds 17 1015 42 10000 9.8 130 09:32 25.12.2019
5515 Clouds 17 1015 39 10000 9.8 130 08:51 25.12.2019
5516 Clouds 17 1015 39 10000 9.8 130 08:30 25.12.2019
5517 Clouds 14 1016 47 10000 9.8 130 07:50 25.12.2019
5518 Clouds 14 1016 47 10000 9.8 130 07:31 25.12.2019
5519 Clouds 13 1016 54 10000 9.3 120 06:50 25.12.2019
5520 -273 0 0 0 0 0 06:22 25.12.2019
5521 Clear 11 1016 62 8000 6.7 130 05:18 25.12.2019
5522 Clear 11 1015 62 10000 7.7 130 04:39 25.12.2019
5523 Clear 11 1015 62 10000 7.7 130 04:20 25.12.2019
5524 Clear 11 1015 62 10000 7.2 120 03:41 25.12.2019
5525 Clear 11 1016 66 10000 6.2 130 02:51 25.12.2019
5526 Clear 11 1016 66 10000 6.2 130 02:20 25.12.2019
5527 Clear 12 1016 58 10000 5.1 140 01:25 25.12.2019
5528 Clear 13 1016 50 10000 5.1 140 00:53 25.12.2019
5529 Clear 13 1016 50 10000 5.1 140 00:30 25.12.2019
5530 Clear 14 1015 36 0 7.82 139 23:56 24.12.2019
5531 Clear 14 1015 36 0 7.82 139 23:38 24.12.2019
5532 Clear 13 1016 54 10000 5.7 130 23:20 24.12.2019
5533 Clear 13 1016 54 10000 5.7 130 22:40 24.12.2019
5534 Clear 13 1016 54 10000 5.7 130 22:21 24.12.2019
5535 Clear 13 1017 58 10000 6.2 130 21:43 24.12.2019
5536 Clear 14 1017 54 10000 6.2 130 21:23 24.12.2019
5537 Clear 14 1017 54 10000 6.2 130 20:57 24.12.2019
5538 Clear 14 1017 54 10000 6.2 130 20:39 24.12.2019
5539 Clear 14 1017 54 10000 6.2 130 20:18 24.12.2019
5540 Clear 14 1017 54 10000 5.7 130 19:44 24.12.2019
5541 Clear 14 1017 54 10000 5.7 130 19:20 24.12.2019
5542 Clear 15 1017 51 10000 6.2 120 18:44 24.12.2019
5543 Clear 15 1017 51 10000 6.2 120 18:24 24.12.2019
5544 Clear 16 1017 48 10000 7.2 120 17:59 24.12.2019
5545 Clear 16 1017 48 10000 7.2 120 17:38 24.12.2019
5546 Clear 16 1017 48 10000 7.2 120 17:20 24.12.2019
5547 Clear 17 1017 42 10000 7.2 120 16:55 24.12.2019
5548 Clear 17 1017 42 10000 7.2 120 16:37 24.12.2019
5549 Clear 17 1017 42 10000 7.2 120 16:19 24.12.2019
5550 Clear 18 1017 39 10000 7.2 120 15:55 24.12.2019
5551 Clear 18 1017 39 10000 7.2 120 15:36 24.12.2019
5552 Clear 18 1017 39 10000 7.2 120 15:18 24.12.2019
5553 Clear 20 1017 34 10000 6.7 120 14:55 24.12.2019
5554 Clear 20 1017 34 10000 6.7 120 14:37 24.12.2019
5555 Clear 20 1017 34 10000 6.7 120 14:19 24.12.2019
5556 Clear 20 1017 32 10000 7.7 130 13:55 24.12.2019
5557 Clear 20 1017 32 10000 7.7 130 13:37 24.12.2019
5558 Clear 20 1017 32 10000 7.7 130 13:37 24.12.2019
5559 Clear 20 1017 32 10000 7.7 130 13:19 24.12.2019
5560 Clear 20 1017 30 10000 8.2 130 12:55 24.12.2019
5561 Clear 20 1017 30 10000 8.2 130 12:36 24.12.2019
5562 Clear 20 1017 30 10000 8.2 130 12:18 24.12.2019
5563 Clear 20 1018 32 10000 7.7 140 11:55 24.12.2019
5564 Clear 20 1018 32 10000 7.7 140 11:36 24.12.2019
5565 Clear 20 1018 32 10000 7.7 140 11:18 24.12.2019
5566 Clear 19 1019 34 10000 6.2 130 10:55 24.12.2019
5567 Clear 19 1019 34 10000 6.2 130 10:36 24.12.2019
5568 Clear 19 1019 34 10000 6.2 130 10:18 24.12.2019
5569 Clear 17 1020 42 10000 7.2 130 09:54 24.12.2019
5570 Clear 17 1020 42 10000 7.2 130 09:36 24.12.2019
5571 Clear 17 1020 42 10000 7.2 130 09:18 24.12.2019
5572 Clear 14 1020 50 10000 5.7 130 08:43 24.12.2019
5573 Clear 14 1020 50 10000 5.7 130 08:20 24.12.2019
5574 Haze 10 1020 66 5000 5.1 130 07:45 24.12.2019
5575 Haze 10 1020 66 5000 5.1 130 07:25 24.12.2019
5576 Mist 8 1020 75 3900 3.1 140 06:58 24.12.2019
5577 Mist 8 1020 75 3900 3.1 140 06:38 24.12.2019
5578 Mist 8 1020 75 3900 3.1 140 06:18 24.12.2019
5579 Mist 7 1019 87 3400 3.6 120 05:20 24.12.2019
5580 Mist 6 1019 87 4800 3.1 140 04:44 24.12.2019
5581 Clear 7 1018 81 7000 3.1 130 03:50 24.12.2019
5582 Clear 7 1018 81 7000 3.1 130 03:18 24.12.2019
5583 Clear 8 1018 75 8000 3.6 130 02:21 24.12.2019
5584 Clear 7 1018 75 7000 3.6 120 01:50 24.12.2019
5585 Clear 7 1018 75 7000 3.6 120 01:21 24.12.2019
5586 Clear 7 1019 75 8000 2.6 130 00:45 24.12.2019
5587 Clear 7 1019 75 8000 2.6 130 00:23 24.12.2019
5588 Clear 8 1019 75 7000 2.6 120 23:56 23.12.2019
5589 Clear 8 1019 75 7000 2.6 120 23:37 23.12.2019
5590 Clear 8 1019 75 7000 2.6 120 23:19 23.12.2019
5591 Clear 8 1019 70 8000 2.6 110 22:56 23.12.2019
5592 Clear 8 1019 70 8000 2.6 110 22:56 23.12.2019
5593 Clear 8 1019 70 8000 2.6 110 22:36 23.12.2019
5594 Clear 8 1019 70 8000 2.6 110 22:18 23.12.2019
5595 Clear 9 1019 70 8000 2.6 120 21:55 23.12.2019
5596 Clear 9 1019 70 8000 2.6 120 21:36 23.12.2019
5597 Clear 9 1019 70 8000 2.6 120 21:18 23.12.2019
5598 Clear 9 1019 70 9000 3.1 100 20:56 23.12.2019
5599 Clear 9 1019 70 9000 3.1 100 20:38 23.12.2019
5600 Clear 9 1019 70 9000 3.1 100 20:18 23.12.2019
5601 Clear 9 1020 66 10000 3.1 110 19:55 23.12.2019
5602 Clear 9 1020 66 10000 3.1 110 19:37 23.12.2019
5603 Clear 9 1020 66 10000 3.1 110 19:19 23.12.2019
5604 Clear 12 1020 58 9000 2.1 130 18:55 23.12.2019
5605 Clear 12 1020 58 9000 2.1 130 18:37 23.12.2019
5606 Clear 12 1020 58 9000 2.1 130 18:19 23.12.2019
5607 Clear 12 1019 54 10000 2.6 110 17:55 23.12.2019
5608 Clear 12 1019 54 10000 2.6 110 17:37 23.12.2019
5609 Clear 12 1019 54 10000 2.6 110 17:18 23.12.2019
5610 Clear 14 1019 47 10000 2.1 100 16:42 23.12.2019
5611 Clear 14 1019 47 10000 2.1 100 16:19 23.12.2019
5612 Clear 16 1019 41 10000 2.6 130 15:59 23.12.2019
5613 Clear 16 1019 41 10000 2.6 130 15:38 23.12.2019
5614 Clear 16 1019 41 10000 2.6 130 15:20 23.12.2019
5615 Clear 19 1019 34 10000 3.6 120 14:59 23.12.2019
5616 Clear 19 1019 34 10000 3.6 120 14:41 23.12.2019
5617 Clear 19 1019 34 10000 3.6 120 14:23 23.12.2019
5618 Clear 19 1019 32 10000 3.1 170 13:58 23.12.2019
5619 Clear 19 1019 32 10000 3.1 170 13:40 23.12.2019
5620 Clear 19 1019 32 10000 3.1 170 13:22 23.12.2019
5621 Clear 19 1019 32 10000 3.1 170 13:22 23.12.2019
5622 Clear 19 1020 34 10000 2.6 150 12:57 23.12.2019
5623 Clear 19 1020 34 10000 2.6 150 12:39 23.12.2019
5624 Clear 19 1020 34 10000 2.6 150 12:20 23.12.2019
5625 Clear 19 1021 34 10000 2.6 130 11:44 23.12.2019
5626 Clear 19 1021 34 10000 2.6 130 11:44 23.12.2019
5627 Clear 19 1021 34 10000 2.6 130 11:26 23.12.2019
5628 Clear 18 1021 34 10000 2.1 150 10:59 23.12.2019
5629 Clear 18 1021 34 10000 2.1 150 10:41 23.12.2019
5630 Clear 18 1021 34 10000 2.1 150 10:21 23.12.2019
5631 Clear 17 1023 39 10000 1 0 09:59 23.12.2019
5632 Clear 17 1023 39 10000 1 0 09:40 23.12.2019
5633 Clear 17 1023 39 10000 1 0 09:21 23.12.2019
5634 Clear 14 1023 50 10000 1 0 08:58 23.12.2019
5635 Clear 14 1023 50 10000 1 0 08:40 23.12.2019
5636 Clear 14 1023 50 10000 1 0 08:22 23.12.2019
5637 Haze 10 1023 66 5000 0.5 0 07:47 23.12.2019
5638 Haze 10 1023 66 5000 0.5 0 07:20 23.12.2019
5639 Mist 6 1023 93 1700 1 120 06:57 23.12.2019
5640 Mist 6 1023 93 1700 1 120 06:26 23.12.2019
5641 Mist 6 1023 93 1800 0.5 120 05:56 23.12.2019
5642 Mist 5 1022 93 2000 0.5 0 05:29 23.12.2019
5643 Mist 4 1022 100 2500 1 140 04:34 23.12.2019
5644 Mist 6 1022 87 3500 1.5 110 03:26 23.12.2019
5645 Mist 6 1022 87 5000 1 130 02:42 23.12.2019
5646 Mist 6 1022 87 5000 1 130 02:19 23.12.2019
5647 Clear 7 1022 93 5000 0.5 140 01:43 23.12.2019
5648 Clear 7 1022 93 5000 0.5 140 01:25 23.12.2019
5649 Clear 7 1022 81 6000 1 120 00:43 23.12.2019
5650 Clear 7 1022 81 6000 1 120 00:23 23.12.2019
5651 Clear 7 1022 93 5000 0.5 0 23:40 22.12.2019
5652 Clear 8 1022 87 7000 0.5 0 23:22 22.12.2019
5653 Clear 8 1022 75 6000 1.5 100 22:58 22.12.2019
5654 Clear 8 1022 75 6000 1.5 100 22:40 22.12.2019
5655 Clear 8 1022 75 6000 1.5 100 22:21 22.12.2019
5656 Clear 9 1023 76 8000 1 40 21:58 22.12.2019
5657 Clear 9 1023 76 8000 1 40 21:40 22.12.2019
5658 Clear 9 1023 76 8000 1 40 21:21 22.12.2019
5659 Clear 10 1023 66 9000 1.52 141 20:58 22.12.2019
5660 Clear 10 1023 66 9000 1.52 141 20:39 22.12.2019
5661 Clear 10 1023 66 9000 2.31 136 20:19 22.12.2019
5662 Clear 10 1022 66 9000 1.5 90 19:57 22.12.2019
5663 Clear 10 1022 66 9000 1.5 90 19:38 22.12.2019
5664 Clear 10 1022 66 9000 1.5 90 19:19 22.12.2019
5665 Clear 11 1022 57 10000 2.1 130 18:42 22.12.2019
5666 Clear 11 1022 57 10000 2.1 130 18:23 22.12.2019
5667 Clear 14 1022 58 10000 1.5 100 17:56 22.12.2019
5668 Clear 14 1022 58 10000 1.5 100 17:38 22.12.2019
5669 Clear 14 1022 58 10000 1.5 100 17:19 22.12.2019
5670 Clear 15 1022 44 10000 1.52 118 16:57 22.12.2019
5671 Clear 15 1022 44 10000 1.52 118 16:38 22.12.2019
5672 Clear 15 1022 44 10000 1.52 118 16:20 22.12.2019
5673 Clear 18 1021 39 10000 2.1 170 15:56 22.12.2019
5674 Clear 18 1021 39 10000 2.1 170 15:56 22.12.2019
5675 Clear 18 1021 39 10000 2.1 170 15:38 22.12.2019
5676 Clear 18 1021 39 10000 2.1 170 15:19 22.12.2019
5677 Clear 20 1021 32 10000 1.52 118 14:55 22.12.2019
5678 Clear 20 1021 32 10000 1.52 118 14:37 22.12.2019
5679 Clear 20 1021 32 10000 1 181 14:18 22.12.2019
5680 Clear 20 1021 34 10000 1 0 13:55 22.12.2019
5681 Clear 20 1021 34 10000 1 0 13:36 22.12.2019
5682 Clear 20 1021 34 10000 1 0 13:36 22.12.2019
5683 Clear 20 1021 34 10000 1 0 13:18 22.12.2019
5684 Clear 20 1021 34 10000 1.5 0 12:55 22.12.2019
5685 Clear 20 1021 34 10000 1.5 0 12:55 22.12.2019
5686 Clear 20 1021 34 10000 1.5 0 12:37 22.12.2019
5687 Clear 20 1021 34 10000 1.5 0 12:18 22.12.2019
5688 Clear 19 1022 39 10000 1.5 50 11:56 22.12.2019
5689 Clear 19 1022 39 10000 1.5 50 11:37 22.12.2019
5690 Clear 19 1022 39 10000 1.5 50 11:18 22.12.2019
5691 Clear 19 1023 42 9000 1.5 140 10:54 22.12.2019
5692 Clear 19 1023 42 9000 1.5 140 10:36 22.12.2019
5693 Clear 19 1023 42 9000 1.5 140 10:18 22.12.2019
5694 Clear 17 1024 51 6000 2.1 100 09:56 22.12.2019
5695 Clear 17 1024 51 6000 2.1 100 09:37 22.12.2019
5696 Clear 17 1024 51 6000 2.1 100 09:19 22.12.2019
5697 Haze 14 1024 62 3900 1.5 110 08:39 22.12.2019
5698 Haze 14 1024 62 3900 1.5 110 08:21 22.12.2019
5699 Mist 12 1024 76 3100 1.5 130 07:40 22.12.2019
5700 Mist 12 1024 76 3100 1.5 130 07:21 22.12.2019
5701 Mist 6 1024 93 2500 1.03 195 06:41 22.12.2019
5702 Mist 6 1024 93 2500 1.03 195 06:21 22.12.2019
5703 Mist 5 1023 93 3300 1.03 195 05:29 22.12.2019
5704 Mist 7 1023 93 3100 2.1 120 04:31 22.12.2019
5705 Mist 5 1022 93 4800 1 150 03:58 22.12.2019
5706 Clouds 7 1022 93 5000 1.5 100 02:43 22.12.2019
5707 Clouds 7 1022 93 5000 1.5 100 02:43 22.12.2019
5708 Clouds 8 1022 87 6000 1.5 120 01:54 22.12.2019
5709 Clouds 8 1022 87 6000 1.5 120 01:31 22.12.2019
5710 Clouds 7 1022 93 8000 1.5 110 00:48 22.12.2019
5711 Clouds 7 1022 93 8000 1.5 110 00:28 22.12.2019
5712 Clouds 8 1023 87 8000 0.51 197 23:57 21.12.2019
5713 Clouds 8 1023 87 8000 0.51 197 23:39 21.12.2019
5714 Clouds 8 1023 87 8000 1.75 178 23:20 21.12.2019
5715 Clouds 7 1023 93 9000 0.5 50 22:46 21.12.2019
5716 Clouds 7 1023 93 9000 0.5 50 22:20 21.12.2019
5717 Clouds 8 1023 93 10000 1.75 178 21:58 21.12.2019
5718 Clouds 8 1023 93 10000 1.75 178 21:38 21.12.2019
5719 Clouds 8 1023 93 10000 1.75 178 21:20 21.12.2019
5720 Clouds 10 1023 76 10000 0.5 0 20:59 21.12.2019
5721 Clouds 10 1023 76 10000 0.5 0 20:41 21.12.2019
5722 Clear 10 1023 76 10000 0.5 0 20:22 21.12.2019
5723 Clear 11 1023 71 10000 1.5 150 19:58 21.12.2019
5724 Clear 11 1023 71 10000 1.5 150 19:40 21.12.2019
5725 Clear 11 1023 71 10000 1.5 150 19:19 21.12.2019
5726 Clear 12 1023 66 10000 1.54 186 18:55 21.12.2019
5727 Clear 12 1023 66 10000 1.54 186 18:37 21.12.2019
5728 Clear 12 1023 66 10000 1.54 186 18:19 21.12.2019
5729 Clear 13 1023 66 10000 1.54 186 17:55 21.12.2019
5730 Clear 13 1023 66 10000 1.54 186 17:36 21.12.2019
5731 Clear 13 1023 66 10000 0.53 135 17:18 21.12.2019
5732 Clear 13 1023 66 10000 0.53 135 17:18 21.12.2019
5733 Clear 14 1022 62 10000 1.5 320 16:41 21.12.2019
5734 Clear 14 1022 62 10000 1.5 320 16:19 21.12.2019
5735 Clear 18 1022 45 10000 1 330 15:57 21.12.2019
5736 Clear 18 1022 45 10000 1 330 15:39 21.12.2019
5737 Clear 18 1022 45 10000 1 330 15:20 21.12.2019
5738 Clear 19 1022 42 10000 1 0 14:57 21.12.2019
5739 Clear 19 1022 42 10000 1 0 14:39 21.12.2019
5740 Clear 19 1022 42 10000 1 0 14:20 21.12.2019
5741 Clear 19 1022 42 10000 2.1 290 13:56 21.12.2019
5742 Clear 19 1022 42 10000 2.1 290 13:38 21.12.2019
5743 Clear 19 1022 42 10000 2.1 290 13:18 21.12.2019
5744 Clear 19 1022 48 10000 2.1 290 12:55 21.12.2019
5745 Clear 19 1022 48 10000 2.1 290 12:37 21.12.2019
5746 Clear 19 1022 48 10000 2.1 290 12:18 21.12.2019
5747 Clear 18 1023 52 10000 2.6 250 11:44 21.12.2019
5748 Clear 18 1023 52 10000 2.6 250 11:26 21.12.2019
5749 Clear 17 1024 51 10000 3.1 280 10:57 21.12.2019
5750 Clear 17 1024 51 10000 3.1 280 10:57 21.12.2019
5751 Clear 17 1024 51 10000 3.1 280 10:38 21.12.2019
5752 Clear 17 1024 51 10000 3.1 280 10:20 21.12.2019
5753 Clear 15 1024 62 10000 2.1 280 09:56 21.12.2019
5754 Clear 15 1024 62 10000 2.1 280 09:37 21.12.2019
5755 Clear 15 1024 62 10000 2.1 280 09:18 21.12.2019
5756 Clear 12 1024 81 7000 2.1 260 08:44 21.12.2019
5757 Clear 12 1024 81 7000 2.1 260 08:25 21.12.2019
5758 Mist 7 1024 93 1100 1 290 07:46 21.12.2019
5759 Mist 7 1024 93 1100 1 290 07:22 21.12.2019
5760 Fog 4 1024 100 300 2.1 310 06:46 21.12.2019
5761 Fog 4 1024 100 300 2.1 310 06:26 21.12.2019
5762 Fog 5 1023 93 550 1.5 260 05:55 21.12.2019
5763 Clear 5 1023 93 6000 2.1 260 04:58 21.12.2019
5764 Clear 5 1023 93 6000 2.1 260 04:58 21.12.2019
5765 Clear 7 1023 93 8000 2.1 260 03:59 21.12.2019
5766 Clear 7 1023 93 8000 2.1 260 03:37 21.12.2019
5767 Clear 6 1023 93 9000 2.1 270 02:18 21.12.2019
5768 Clear 6 1023 93 7000 1 280 01:38 21.12.2019
5769 Clear 6 1023 93 7000 1 280 01:20 21.12.2019
5770 Clear 7 1023 75 10000 1 260 00:37 21.12.2019
5771 Clear 7 1023 75 10000 1 260 00:18 21.12.2019
5772 Clear 7 1023 93 10000 2.18 329 23:38 20.12.2019
5773 Clear 7 1023 93 10000 2.24 327 23:19 20.12.2019
5774 Clear 7 1024 87 10000 2.24 327 22:43 20.12.2019
5775 Clear 7 1024 87 10000 2.24 327 22:22 20.12.2019
5776 Clear 8 1024 81 10000 1 0 21:59 20.12.2019
5777 Clear 8 1024 81 10000 1 0 21:40 20.12.2019
5778 Clear 8 1024 81 10000 1 0 21:20 20.12.2019
5779 Clear 13 1023 43 0 2.24 327 20:56 20.12.2019
5780 Clear 13 1023 43 0 2.24 327 20:36 20.12.2019
5781 Clear 10 1024 71 10000 1 270 20:18 20.12.2019
5782 Clear 10 1024 71 10000 1 270 19:42 20.12.2019
5783 Clear 10 1024 71 10000 1 270 19:21 20.12.2019
5784 Clear 12 1024 66 10000 2.1 270 18:58 20.12.2019
5785 Clear 12 1024 66 10000 2.1 270 18:39 20.12.2019
5786 Clear 12 1024 66 10000 2.1 270 18:39 20.12.2019
5787 Clear 12 1024 66 10000 2.1 270 18:21 20.12.2019
5788 Clear 13 1024 62 10000 1 270 17:55 20.12.2019
5789 Clear 13 1024 62 10000 1 270 17:37 20.12.2019
5790 Clear 13 1024 62 10000 1 270 17:18 20.12.2019
5791 Clear 15 1023 54 10000 1 0 16:41 20.12.2019
5792 Clear 15 1023 54 10000 1 0 16:21 20.12.2019
5793 Clear 17 1023 48 10000 2.1 250 15:57 20.12.2019
5794 Clear 17 1023 48 10000 2.1 250 15:39 20.12.2019
5795 Clear 17 1023 48 10000 2.1 250 15:20 20.12.2019
5796 Clear 19 1023 42 10000 2.6 290 14:59 20.12.2019
5797 Clear 19 1023 42 10000 2.6 290 14:41 20.12.2019
5798 Clear 19 1023 42 10000 2.6 290 14:23 20.12.2019
5799 Clear 19 1023 45 10000 3.1 280 13:56 20.12.2019
5800 Clear 19 1023 45 10000 3.1 280 13:37 20.12.2019
5801 Clear 19 1023 45 10000 3.1 280 13:18 20.12.2019
5802 Clear 19 1023 48 10000 3.6 290 12:55 20.12.2019
5803 Clear 19 1023 48 10000 3.6 290 12:36 20.12.2019
5804 Clear 19 1023 48 10000 3.6 290 12:18 20.12.2019
5805 Clear 19 1024 48 10000 3.6 270 11:56 20.12.2019
5806 Clear 19 1024 48 10000 3.6 270 11:37 20.12.2019
5807 Clear 19 1024 48 10000 3.6 270 11:18 20.12.2019
5808 Clear 17 1025 55 10000 3.6 260 10:54 20.12.2019
5809 Clear 17 1025 55 10000 3.6 260 10:36 20.12.2019
5810 Clear 17 1025 55 10000 3.6 260 10:18 20.12.2019
5811 Clear 15 1025 62 10000 3.6 290 09:41 20.12.2019
5812 Clear 15 1025 62 10000 3.6 290 09:21 20.12.2019
5813 Clear 15 1025 62 10000 3.6 290 09:21 20.12.2019
5814 Clear 13 1026 66 10000 4.6 290 08:54 20.12.2019
5815 Clear 13 1026 66 10000 4.6 290 08:36 20.12.2019
5816 Clear 13 1026 66 10000 4.6 290 08:18 20.12.2019
5817 Clear 11 1026 71 10000 3.6 260 07:41 20.12.2019
5818 Clear 11 1026 71 10000 3.6 260 07:20 20.12.2019
5819 Clear 8 1025 81 10000 3.6 270 06:52 20.12.2019
5820 Clear 8 1025 81 10000 3.6 270 06:33 20.12.2019
5821 Clear 7 1025 87 10000 3.1 260 05:56 20.12.2019
5822 Clear 7 1025 87 10000 3.1 260 05:38 20.12.2019
5823 Clear 6 1024 87 10000 2.6 290 04:34 20.12.2019
5824 Clear 7 1024 87 10000 2.6 290 03:31 20.12.2019
5825 Clear 11 1024 49 0 4.28 303 02:45 20.12.2019
5826 Clear 8 1024 81 10000 2.6 300 01:54 20.12.2019
5827 Clear 8 1024 81 10000 2.6 300 01:34 20.12.2019
5828 Clear 9 1025 76 10000 3.6 290 00:53 20.12.2019
5829 Clear 9 1025 76 10000 3.6 290 00:34 20.12.2019
5830 Clear 10 1025 71 10000 3.1 290 23:57 19.12.2019
5831 Clear 10 1025 71 10000 3.1 290 23:38 19.12.2019
5832 Clear 10 1025 71 10000 3.1 290 23:38 19.12.2019
5833 Clear 10 1025 71 10000 3.1 290 23:19 19.12.2019
5834 Clear 10 1025 71 10000 3.1 290 23:19 19.12.2019
5835 Clear 10 1025 71 10000 4.1 300 22:38 19.12.2019
5836 Clear 10 1025 71 10000 4.1 300 22:20 19.12.2019
5837 Clear 10 1025 71 10000 3.6 300 21:56 19.12.2019
5838 Clear 12 1026 66 10000 4.1 290 21:38 19.12.2019
5839 Clear 12 1026 66 10000 4.1 290 21:19 19.12.2019
5840 Clear 12 1026 71 10000 3.6 280 20:56 19.12.2019
5841 Clear 12 1026 71 10000 3.6 280 20:37 19.12.2019
5842 Clear 12 1026 71 10000 3.6 280 20:19 19.12.2019
5843 Clear 13 1026 62 10000 3.6 280 19:57 19.12.2019
5844 Clear 13 1026 62 10000 3.6 280 19:57 19.12.2019
5845 Clear 13 1026 62 10000 3.6 280 19:39 19.12.2019
5846 Clear 13 1026 62 10000 3.6 280 19:19 19.12.2019
5847 Clear 13 1026 62 10000 3.6 280 19:19 19.12.2019
5848 Clear 13 1026 62 10000 3.1 280 18:56 19.12.2019
5849 Clear 13 1026 62 10000 3.1 280 18:38 19.12.2019
5850 Clear 13 1026 62 10000 3.1 280 18:18 19.12.2019
5851 Clear 13 1026 62 10000 4.1 300 17:55 19.12.2019
5852 Clear 13 1026 62 10000 4.1 300 17:37 19.12.2019
5853 Clear 13 1026 62 10000 4.1 300 17:18 19.12.2019
5854 Clear 16 1026 48 10000 4.1 280 16:55 19.12.2019
5855 Clear 16 1026 48 10000 4.1 280 16:36 19.12.2019
5856 Clear 16 1026 48 10000 4.1 280 16:18 19.12.2019
5857 Clear 17 1026 55 10000 4.6 290 15:55 19.12.2019
5858 Clear 17 1026 55 10000 4.6 290 15:36 19.12.2019
5859 Clear 17 1026 55 10000 4.6 290 15:18 19.12.2019
5860 Clear 19 1026 42 10000 6.2 310 14:42 19.12.2019
5861 Clear 19 1026 42 10000 6.2 310 14:20 19.12.2019
5862 Clear 19 1026 39 10000 6.2 300 13:58 19.12.2019
5863 Clear 20 1026 40 10000 5.7 300 13:38 19.12.2019
5864 Clear 20 1026 40 10000 5.7 300 13:19 19.12.2019
5865 Clear 19 1026 39 10000 5.7 300 12:57 19.12.2019
5866 Clear 19 1026 39 10000 5.7 300 12:39 19.12.2019
5867 Clear 19 1026 39 10000 5.7 300 12:39 19.12.2019
5868 Clear 19 1026 39 10000 5.7 300 12:19 19.12.2019
5869 Clear 19 1026 39 10000 5.7 300 12:19 19.12.2019
5870 Clear 19 1026 39 10000 5.7 300 11:58 19.12.2019
5871 Clear 19 1026 39 10000 5.7 300 11:40 19.12.2019
5872 Clear 19 1026 39 10000 5.7 300 11:18 19.12.2019
5873 Clear 18 1027 42 10000 5.7 300 10:56 19.12.2019
5874 Clear 18 1027 42 10000 5.7 300 10:38 19.12.2019
5875 Clear 18 1027 42 10000 5.7 300 10:19 19.12.2019
5876 Clear 16 1028 51 10000 5.7 290 09:54 19.12.2019
5877 Clear 16 1028 51 10000 5.7 290 09:36 19.12.2019
5878 Clear 16 1028 51 10000 5.7 290 09:18 19.12.2019
5879 Clear 14 1028 58 10000 6.2 290 08:41 19.12.2019
5880 Clear 14 1028 58 10000 6.2 290 08:19 19.12.2019
5881 Clear 11 1028 71 10000 6.2 300 07:58 19.12.2019
5882 Clear 11 1028 71 10000 6.2 300 07:38 19.12.2019
5883 Clear 11 1028 71 10000 6.2 300 07:20 19.12.2019
5884 Clear 9 1027 76 10000 3.1 300 06:50 19.12.2019
5885 Clear 9 1027 76 10000 3.1 300 06:30 19.12.2019
5886 Clear 8 1027 81 10000 4.1 300 05:55 19.12.2019
5887 Clear 8 1027 75 10000 4.1 290 05:36 19.12.2019
5888 Clear 7 1026 75 10000 3.1 300 04:52 19.12.2019
5889 Clear 8 1026 75 10000 4.1 310 03:23 19.12.2019
5890 Clear 9 1026 76 10000 4.6 310 02:23 19.12.2019
5891 Clear 9 1026 76 10000 5.1 310 01:23 19.12.2019
5892 Clear 10 1025 71 10000 4.6 310 00:44 19.12.2019
5893 Clear 10 1025 71 10000 4.6 310 00:24 19.12.2019
5894 Clear 10 1025 71 10000 4.6 310 23:57 18.12.2019
5895 Clear 10 1025 71 10000 4.6 310 23:38 18.12.2019
5896 Clear 10 1025 71 10000 4.6 310 23:18 18.12.2019
5897 Clear 10 1025 71 10000 3.6 320 22:55 18.12.2019
5898 Clear 10 1025 71 10000 3.6 320 22:37 18.12.2019
5899 Clear 10 1025 71 10000 3.6 320 22:19 18.12.2019
5900 Clear 9 1025 76 10000 4.1 310 21:56 18.12.2019
5901 Clear 10 1026 71 10000 3.6 310 21:38 18.12.2019
5902 Clear 10 1026 71 10000 3.6 310 21:19 18.12.2019
5903 Clear 10 1026 71 10000 3.6 320 20:55 18.12.2019
5904 Clear 10 1026 71 10000 3.6 320 20:37 18.12.2019
5905 Clear 10 1026 71 10000 3.6 320 20:19 18.12.2019
5906 Clear 12 1026 66 10000 4.1 310 19:55 18.12.2019
5907 Clear 12 1026 66 10000 4.1 310 19:37 18.12.2019
5908 Clear 12 1026 66 10000 4.1 310 19:18 18.12.2019
5909 Clear 13 1025 62 10000 3.6 300 18:44 18.12.2019
5910 Clear 13 1025 62 10000 3.6 300 18:25 18.12.2019
5911 Clear 14 1025 58 10000 3.6 300 17:57 18.12.2019
5912 Clear 14 1025 58 10000 3.6 300 17:39 18.12.2019
5913 Clear 14 1025 58 10000 3.6 300 17:19 18.12.2019
5914 Clear 14 1025 58 10000 3.1 300 16:57 18.12.2019
5915 Clear 14 1025 58 10000 3.1 300 16:57 18.12.2019
5916 Clear 14 1025 58 10000 3.1 300 16:38 18.12.2019
5917 Clear 14 1025 58 10000 3.1 300 16:20 18.12.2019
5918 Clear 17 1025 48 10000 4.1 310 15:55 18.12.2019
5919 Clear 17 1025 48 10000 4.1 310 15:37 18.12.2019
5920 Clear 17 1025 48 10000 4.1 310 15:37 18.12.2019
5921 Clear 17 1025 48 10000 4.1 310 15:19 18.12.2019
5922 Clear 19 1024 45 10000 6.2 300 14:42 18.12.2019
5923 Clear 19 1024 45 10000 6.2 300 14:22 18.12.2019
5924 Clear 20 1024 42 10000 4.6 300 13:57 18.12.2019
5925 Clear 20 1024 42 10000 4.6 300 13:39 18.12.2019
5926 Clear 20 1024 42 10000 4.6 300 13:39 18.12.2019
5927 Clear 20 1024 42 10000 4.6 300 13:20 18.12.2019
5928 Clear 19 1024 48 10000 4.1 290 12:59 18.12.2019
5929 Clear 19 1024 48 10000 4.1 290 12:38 18.12.2019
5930 Clear 19 1024 48 10000 4.1 290 12:20 18.12.2019
5931 Clear 18 1024 48 10000 4.1 280 11:56 18.12.2019
5932 Clear 18 1024 48 10000 4.1 280 11:38 18.12.2019
5933 Clear 18 1024 48 10000 4.1 280 11:19 18.12.2019
5934 Clear 16 1025 59 7000 3.6 280 10:56 18.12.2019
5935 Clear 16 1025 59 7000 3.6 280 10:38 18.12.2019
5936 Clear 16 1025 59 7000 3.6 280 10:20 18.12.2019
5937 Mist 13 1025 87 2800 2.1 250 09:52 18.12.2019
5938 Mist 13 1025 87 2800 2.1 250 09:19 18.12.2019
5939 Mist 10 1026 93 2000 2.1 260 08:42 18.12.2019
5940 Fog 9 1026 93 400 2.6 270 08:24 18.12.2019
5941 Fog 8 1026 93 200 2.1 280 07:55 18.12.2019
5942 Fog 8 1026 93 200 2.1 280 07:37 18.12.2019
5943 Fog 8 1026 93 200 2.1 280 07:19 18.12.2019
5944 Fog 7 1025 93 150 2.6 270 06:50 18.12.2019
5945 Fog 7 1025 93 150 2.6 270 06:22 18.12.2019
5946 Fog 7 1025 93 200 2.1 300 05:30 18.12.2019
5947 Fog 7 1023 100 150 1.5 300 03:45 18.12.2019
5948 Fog 7 1023 100 150 2.6 260 02:43 18.12.2019
5949 Fog 7 1023 100 150 2.6 260 02:25 18.12.2019
5950 Fog 6 1023 100 100 1.5 310 01:43 18.12.2019
5951 Fog 6 1023 100 100 1.5 310 01:24 18.12.2019
5952 Fog 7 1022 93 100 0.5 0 00:42 18.12.2019
5953 Fog 7 1022 93 100 0.5 0 00:24 18.12.2019
5954 Fog 7 1022 93 100 0.5 0 00:24 18.12.2019
5955 Fog 8 1022 93 100 2.6 344 23:58 17.12.2019
5956 Fog 8 1022 93 100 2.6 344 23:39 17.12.2019
5957 Fog 8 1022 93 100 0.97 332 23:20 17.12.2019
5958 Mist 9 1022 93 1200 0.5 0 22:57 17.12.2019
5959 Mist 9 1022 93 1200 0.5 0 22:38 17.12.2019
5960 Mist 9 1022 93 1200 0.5 0 22:19 17.12.2019
5961 Mist 8 1022 100 1400 1.5 40 21:57 17.12.2019
5962 Mist 8 1022 100 1400 1.5 40 21:38 17.12.2019
5963 Mist 8 1022 100 1400 1.5 40 21:38 17.12.2019
5964 Mist 8 1022 100 1400 1.5 40 21:20 17.12.2019
5965 Mist 10 1022 93 2400 0.97 332 20:58 17.12.2019
5966 Mist 10 1022 93 2400 0.97 332 20:39 17.12.2019
5967 Mist 10 1022 93 2400 1.65 30 20:19 17.12.2019
5968 Mist 10 1022 93 2400 0.5 320 19:57 17.12.2019
5969 Mist 10 1022 93 2400 0.5 320 19:39 17.12.2019
5970 Mist 11 1022 93 3400 1 0 19:19 17.12.2019
5971 Mist 11 1021 100 3400 1 30 18:57 17.12.2019
5972 Mist 11 1021 100 3400 1 30 18:57 17.12.2019
5973 Mist 11 1021 100 3400 1 30 18:37 17.12.2019
5974 Mist 11 1021 100 3400 1 30 18:19 17.12.2019
5975 Mist 12 1021 93 4000 1.5 50 17:54 17.12.2019
5976 Mist 12 1021 93 4000 1.5 50 17:36 17.12.2019
5977 Mist 12 1021 93 4000 1.5 50 17:18 17.12.2019
5978 Mist 13 1020 82 4400 1.5 110 16:54 17.12.2019
5979 Mist 13 1020 82 4400 1.5 110 16:36 17.12.2019
5980 Mist 13 1020 82 4400 1.5 110 16:18 17.12.2019
5981 Mist 15 1019 72 2700 2.1 110 15:38 17.12.2019
5982 Mist 15 1019 72 2700 2.1 110 15:19 17.12.2019
5983 Clear 17 1018 67 10000 3.1 90 14:56 17.12.2019
5984 Clear 17 1018 67 10000 3.1 90 14:38 17.12.2019
5985 Clear 17 1018 67 10000 3.1 90 14:19 17.12.2019
5986 Clear 17 1018 67 10000 3.1 90 14:19 17.12.2019
5987 Clear 18 1018 55 10000 3.1 340 13:56 17.12.2019
5988 Clear 18 1018 55 10000 3.1 340 13:38 17.12.2019
5989 Clear 18 1018 55 10000 3.1 340 13:19 17.12.2019
5990 Clear 18 1018 55 10000 3.1 340 13:19 17.12.2019
5991 Clouds 18 1018 55 10000 3.6 320 12:58 17.12.2019
5992 Clouds 18 1018 55 10000 3.6 320 12:38 17.12.2019
5993 Clouds 18 1018 55 10000 3.6 320 12:18 17.12.2019
5994 Clouds 17 1017 63 6000 3.6 350 11:56 17.12.2019
5995 Clouds 17 1017 63 6000 3.6 350 11:37 17.12.2019
5996 Clouds 17 1017 63 6000 3.6 350 11:18 17.12.2019
5997 Mist 12 1018 100 2700 3.1 330 10:57 17.12.2019
5998 Mist 12 1018 100 2700 3.1 330 10:38 17.12.2019
5999 Mist 12 1018 100 2700 3.1 330 10:19 17.12.2019
6000 Mist 11 1019 93 2500 2.6 320 09:55 17.12.2019
6001 Mist 11 1019 93 2500 2.6 320 09:37 17.12.2019
6002 Mist 11 1019 93 2500 2.6 320 09:18 17.12.2019
6003 Fog 10 1018 87 900 3.6 310 08:40 17.12.2019
6004 Fog 10 1018 87 900 3.6 310 08:22 17.12.2019
6005 Clouds 10 1018 87 9000 3.1 300 07:59 17.12.2019
6006 Clouds 10 1018 87 9000 3.1 300 07:41 17.12.2019
6007 Clouds 10 1018 87 9000 3.1 300 07:22 17.12.2019
6008 Clouds 9 1017 87 9000 3.6 300 06:50 17.12.2019
6009 Clouds 9 1017 87 9000 3.6 300 06:32 17.12.2019
6010 Clouds 9 1016 81 10000 2.1 300 05:42 17.12.2019
6011 Clouds 9 1016 81 10000 2.1 300 05:42 17.12.2019
6012 Rain 10 1016 81 10000 4.1 280 04:58 17.12.2019
6013 Rain 11 1016 76 10000 4.1 300 04:00 17.12.2019
6014 Rain 12 1015 87 10000 3.6 290 02:26 17.12.2019
6015 Rain 12 1015 87 10000 2.6 250 01:22 17.12.2019
6016 Rain 15 1016 65 0 6.96 271 00:48 17.12.2019
6017 Rain 13 1016 82 10000 1.5 230 00:22 17.12.2019
6018 Rain 13 1016 82 10000 1.5 230 23:58 16.12.2019
6019 Rain 13 1016 82 10000 1.5 230 23:40 16.12.2019
6020 Rain 13 1016 82 10000 1.5 230 23:18 16.12.2019
6021 Rain 13 1016 76 10000 4.45 244 22:55 16.12.2019
6022 Rain 13 1016 76 10000 4.45 244 22:36 16.12.2019
6023 Rain 13 1016 76 10000 4.45 244 22:18 16.12.2019
6024 Rain 14 1016 71 10000 2.1 280 21:54 16.12.2019
6025 Rain 14 1016 71 10000 2.1 280 21:36 16.12.2019
6026 Rain 14 1016 71 10000 2.1 280 21:18 16.12.2019
6027 Rain 14 1016 71 10000 3.6 280 20:56 16.12.2019
6028 Rain 14 1016 71 10000 3.6 280 20:37 16.12.2019
6029 Rain 14 1016 71 10000 3.6 280 20:37 16.12.2019
6030 Clouds 14 1016 71 10000 3.6 280 20:18 16.12.2019
6031 Clouds 14 1016 71 10000 3.6 290 19:55 16.12.2019
6032 Clouds 14 1016 71 10000 3.6 290 19:36 16.12.2019
6033 Clouds 14 1016 71 10000 3.6 290 19:18 16.12.2019
6034 Clouds 15 1016 72 10000 5.1 290 18:54 16.12.2019
6035 Clouds 15 1016 72 10000 5.1 290 18:36 16.12.2019
6036 Clouds 15 1016 72 10000 5.1 290 18:18 16.12.2019
6037 Haze 14 1015 82 10000 2.6 300 17:55 16.12.2019
6038 Haze 14 1015 82 10000 2.6 300 17:37 16.12.2019
6039 Haze 14 1015 82 10000 2.6 300 17:18 16.12.2019
6040 Clouds 15 1015 77 10000 4.1 300 16:54 16.12.2019
6041 Clouds 15 1015 77 10000 4.1 300 16:36 16.12.2019
6042 Clouds 15 1015 77 10000 4.1 300 16:18 16.12.2019
6043 Clouds 16 1015 72 9000 3.6 290 15:54 16.12.2019
6044 Clouds 16 1015 72 9000 3.6 290 15:36 16.12.2019
6045 Clouds 16 1015 72 9000 3.6 290 15:18 16.12.2019
6046 Clouds 17 1015 67 8000 4.6 310 14:54 16.12.2019
6047 Clouds 17 1015 67 8000 4.6 310 14:36 16.12.2019
6048 Clouds 17 1015 67 8000 4.6 310 14:18 16.12.2019
6049 Clouds 17 1015 67 8000 6.2 310 13:38 16.12.2019
6050 Clouds 17 1015 67 8000 6.2 310 13:20 16.12.2019
6051 Haze 16 1015 77 3000 5.7 300 12:58 16.12.2019
6052 Haze 16 1015 77 3000 5.7 300 12:58 16.12.2019
6053 Haze 16 1015 77 3000 5.7 300 12:40 16.12.2019
6054 Haze 16 1015 77 3000 5.7 300 12:20 16.12.2019
6055 Mist 15 1016 77 3000 3.6 290 11:59 16.12.2019
6056 Mist 15 1016 77 3000 3.6 290 11:41 16.12.2019
6057 Mist 15 1016 77 3000 3.6 290 11:22 16.12.2019
6058 Mist 14 1018 82 2600 3.1 290 10:59 16.12.2019
6059 Mist 14 1018 82 2600 3.1 290 10:40 16.12.2019
6060 Mist 14 1018 82 2600 3.1 290 10:40 16.12.2019
6061 Mist 14 1018 82 2600 3.1 290 10:20 16.12.2019
6062 Mist 13 1019 87 2300 2.6 280 09:46 16.12.2019
6063 Mist 13 1019 87 2300 2.6 280 09:28 16.12.2019
6064 Mist 12 1019 93 1900 3.6 290 08:58 16.12.2019
6065 Mist 12 1019 93 1900 3.6 290 08:38 16.12.2019
6066 Mist 12 1019 93 1900 3.6 290 08:19 16.12.2019
6067 Mist 11 1019 93 1200 2.6 300 07:51 16.12.2019
6068 Mist 11 1019 93 1200 2.6 300 07:31 16.12.2019
6069 Mist 11 1019 93 1200 2.6 300 07:31 16.12.2019
6070 Fog 11 1018 93 700 3.6 300 06:48 16.12.2019
6071 Fog 11 1018 93 700 3.6 300 06:27 16.12.2019
6072 Rain 11 1019 93 750 2.6 230 05:58 16.12.2019
6073 Rain 11 1019 93 750 2.6 230 05:39 16.12.2019
6074 Rain 11 1019 93 750 2.6 230 05:21 16.12.2019
6075 Fog 11 1018 93 700 3.6 330 02:50 16.12.2019
6076 Fog 10 1018 100 1000 3.6 330 01:45 16.12.2019
6077 Fog 10 1019 100 1500 3.1 310 00:56 16.12.2019
6078 Fog 10 1019 100 1500 3.1 310 00:37 16.12.2019
6079 Fog 10 1019 100 1500 3.1 310 00:18 16.12.2019
6080 Fog 10 1019 93 1400 3.6 320 23:41 15.12.2019
6081 Fog 10 1019 93 1400 3.6 320 23:22 15.12.2019
6082 Mist 10 1019 100 2300 2.1 350 22:57 15.12.2019
6083 Mist 10 1019 100 2300 2.1 350 22:57 15.12.2019
6084 Mist 10 1019 100 2300 2.1 350 22:38 15.12.2019
6085 Mist 10 1019 100 2300 2.1 350 22:19 15.12.2019
6086 Mist 11 1019 93 2600 3.1 350 21:57 15.12.2019
6087 Mist 11 1019 93 2600 3.1 350 21:38 15.12.2019
6088 Mist 11 1019 93 2600 3.1 350 21:19 15.12.2019
6089 Mist 11 1019 93 2600 3.1 350 21:19 15.12.2019
6090 Mist 11 1020 93 2800 2.6 330 20:57 15.12.2019
6091 Mist 11 1020 93 2800 2.6 330 20:39 15.12.2019
6092 Mist 11 1020 93 2800 2.6 330 20:39 15.12.2019
6093 Mist 11 1020 93 2800 2.6 330 20:20 15.12.2019
6094 Mist 12 1020 93 2900 2.6 330 19:58 15.12.2019
6095 Mist 12 1020 93 2900 2.6 330 19:39 15.12.2019
6096 Mist 12 1020 93 2900 2.6 330 19:19 15.12.2019
6097 Mist 12 1020 93 3200 1.5 360 18:57 15.12.2019
6098 Mist 12 1020 93 3200 1.5 360 18:57 15.12.2019
6099 Mist 12 1020 93 3200 1.5 360 18:39 15.12.2019
6100 Mist 12 1020 93 3200 1.5 360 18:19 15.12.2019
6101 Mist 12 1020 93 3000 3.1 350 17:56 15.12.2019
6102 Mist 12 1020 93 3000 3.1 350 17:37 15.12.2019
6103 Mist 12 1020 93 3000 3.1 350 17:37 15.12.2019
6104 Mist 12 1020 93 3000 3.1 350 17:19 15.12.2019
6105 Mist 12 1020 93 3200 2.6 20 16:57 15.12.2019
6106 Mist 12 1020 93 3200 2.6 20 16:39 15.12.2019
6107 Mist 12 1020 93 3200 2.6 20 16:20 15.12.2019
6108 Mist 12 1019 93 2000 3.1 340 15:55 15.12.2019
6109 Mist 12 1019 93 2000 3.1 340 15:55 15.12.2019
6110 Mist 12 1019 93 2000 3.1 340 15:55 15.12.2019
6111 Mist 12 1019 93 2000 3.1 340 15:55 15.12.2019
6112 Mist 12 1019 93 2000 3.1 340 15:37 15.12.2019
6113 Mist 12 1019 93 2000 3.1 340 15:18 15.12.2019
6114 Mist 12 1019 93 1200 3.6 340 14:55 15.12.2019
6115 Mist 12 1019 93 1200 3.6 340 14:36 15.12.2019
6116 Mist 12 1019 93 1200 3.6 340 14:18 15.12.2019
6117 Mist 12 1019 100 1200 4.1 330 13:56 15.12.2019
6118 Mist 12 1019 100 1200 4.1 330 13:37 15.12.2019
6119 Mist 12 1019 100 1200 4.1 330 13:19 15.12.2019
6120 Mist 12 1019 100 1200 4.1 330 13:19 15.12.2019
6121 Fog 12 1019 93 1000 3.1 330 12:56 15.12.2019
6122 Fog 12 1019 93 1000 3.1 330 12:38 15.12.2019
6123 Fog 12 1019 93 1000 3.1 330 12:20 15.12.2019
6124 Fog 11 1020 100 1000 3.1 310 11:39 15.12.2019
6125 Fog 11 1020 100 1000 3.1 310 11:20 15.12.2019
6126 Fog 11 1020 100 1000 3.1 310 11:20 15.12.2019
6127 Fog 11 1020 93 700 1.5 320 10:58 15.12.2019
6128 Fog 11 1020 93 700 1.5 320 10:40 15.12.2019
6129 Fog 11 1020 93 700 1.5 320 10:20 15.12.2019
6130 Fog 10 1021 93 400 1.5 330 09:59 15.12.2019
6131 Fog 10 1021 93 400 1.5 330 09:38 15.12.2019
6132 Fog 10 1021 93 400 1.5 330 09:20 15.12.2019
6133 Fog 10 1021 93 400 1.5 330 09:20 15.12.2019
6134 Fog 10 1021 93 250 1.5 320 08:56 15.12.2019
6135 Fog 10 1021 93 250 1.5 320 08:38 15.12.2019
6136 Fog 10 1021 93 200 1 0 08:20 15.12.2019
6137 Fog 9 1021 100 150 1 0 07:55 15.12.2019
6138 Fog 9 1021 100 150 1 0 07:33 15.12.2019
6139 Fog 9 1020 100 100 2.1 330 06:31 15.12.2019
6140 Fog 9 1020 93 150 1.5 360 05:51 15.12.2019
6141 Fog 9 1020 93 150 1.5 360 05:25 15.12.2019
6142 Fog 9 1020 93 200 2.1 340 04:24 15.12.2019
6143 Fog 8 1020 100 200 1.5 360 03:22 15.12.2019
6144 Fog 9 1020 93 150 1.5 320 02:33 15.12.2019
6145 Fog 9 1019 93 150 2.1 300 01:44 15.12.2019
6146 Fog 9 1019 93 150 2.1 300 01:25 15.12.2019
6147 Fog 9 1020 93 150 1 0 00:54 15.12.2019
6148 Fog 9 1020 93 150 1 0 00:35 15.12.2019
6149 Fog 9 1019 100 150 0.5 0 23:58 14.12.2019
6150 Fog 8 1019 93 100 1 220 23:38 14.12.2019
6151 Fog 8 1019 93 100 1 220 23:18 14.12.2019
6152 Fog 8 1019 100 150 1 0 22:57 14.12.2019
6153 Fog 8 1019 100 150 1 0 22:39 14.12.2019
6154 Fog 8 1019 100 150 1 0 22:39 14.12.2019
6155 Fog 8 1020 93 150 1 0 22:20 14.12.2019
6156 Mist 10 1020 93 2200 1.5 110 21:55 14.12.2019
6157 Mist 10 1020 93 2200 1.5 110 21:55 14.12.2019
6158 Mist 10 1020 93 2200 1.5 110 21:37 14.12.2019
6159 Mist 10 1020 93 2200 1.5 110 21:18 14.12.2019
6160 Mist 11 1020 93 2600 0.5 0 20:55 14.12.2019
6161 Mist 11 1020 93 2600 0.5 0 20:37 14.12.2019
6162 Mist 11 1020 93 2600 0.5 0 20:19 14.12.2019
6163 Mist 11 1020 93 2600 0.5 0 19:40 14.12.2019
6164 Mist 11 1020 93 2600 0.5 0 19:21 14.12.2019
6165 Mist 12 1020 100 2900 1.5 330 18:58 14.12.2019
6166 Mist 12 1020 100 2900 1.5 330 18:39 14.12.2019
6167 Mist 12 1020 100 2900 1.5 330 18:21 14.12.2019
6168 Mist 12 1019 93 3800 2.1 350 17:59 14.12.2019
6169 Mist 12 1019 93 3800 2.1 350 17:41 14.12.2019
6170 Mist 12 1019 93 3800 2.1 350 17:22 14.12.2019
6171 Clear 13 1019 82 7000 1.5 320 16:42 14.12.2019
6172 Clear 13 1019 82 7000 1.5 320 16:19 14.12.2019
6173 Clear 15 1018 72 5000 1.5 330 15:57 14.12.2019
6174 Clear 15 1018 72 5000 1.5 330 15:38 14.12.2019
6175 Clear 15 1018 72 5000 1.5 330 15:38 14.12.2019
6176 Clear 15 1018 72 5000 1.5 330 15:19 14.12.2019
6177 Clouds 16 1019 67 6000 2.1 250 14:57 14.12.2019
6178 Clouds 16 1019 67 6000 2.1 250 14:38 14.12.2019
6179 Clouds 16 1019 67 6000 2.1 250 14:18 14.12.2019
6180 Clouds 16 1018 67 6000 2.6 230 13:44 14.12.2019
6181 Clouds 16 1018 67 6000 2.6 230 13:20 14.12.2019
6182 Haze 17 1018 63 5000 0.5 0 12:58 14.12.2019
6183 Haze 17 1018 63 5000 0.5 0 12:40 14.12.2019
6184 Haze 17 1018 63 5000 0.5 0 12:40 14.12.2019
6185 Haze 17 1018 63 5000 0.5 0 12:20 14.12.2019
6186 Mist 15 1019 82 3400 1.5 200 11:58 14.12.2019
6187 Mist 15 1019 82 3400 1.5 200 11:39 14.12.2019
6188 Mist 15 1019 82 3400 1.5 200 11:19 14.12.2019
6189 Mist 13 1019 93 2300 2.1 210 10:57 14.12.2019
6190 Mist 13 1019 93 2300 2.1 210 10:39 14.12.2019
6191 Mist 13 1019 93 2300 2.1 210 10:20 14.12.2019
6192 Mist 12 1020 93 1400 1.5 240 09:55 14.12.2019
6193 Mist 12 1020 93 1400 1.5 240 09:37 14.12.2019
6194 Mist 12 1020 93 1400 1.5 240 09:18 14.12.2019
6195 Fog 11 1020 93 500 3.6 230 08:42 14.12.2019
6196 Fog 11 1020 93 500 3.6 230 08:42 14.12.2019
6197 Fog 11 1020 93 500 3.6 230 08:19 14.12.2019
6198 Fog 11 1020 100 350 2.1 150 07:44 14.12.2019
6199 Fog 11 1020 100 350 2.1 150 07:23 14.12.2019
6200 Fog 11 1019 100 400 2.1 140 06:56 14.12.2019
6201 Fog 11 1019 100 400 2.1 140 06:37 14.12.2019
6202 Fog 11 1018 93 350 2.1 120 05:57 14.12.2019
6203 Fog 11 1018 93 300 2.1 130 04:42 14.12.2019
6204 Fog 11 1018 100 350 1 0 02:31 14.12.2019
6205 Fog 11 1017 100 350 1.5 230 01:49 14.12.2019
6206 Fog 11 1017 100 350 1.5 210 01:31 14.12.2019
6207 Fog 11 1017 100 400 1.5 200 00:45 14.12.2019
6208 Fog 12 1017 93 450 1.5 190 00:27 14.12.2019
6209 Fog 12 1017 93 400 1 160 23:54 13.12.2019
6210 Fog 12 1017 93 300 1 0 23:36 13.12.2019
6211 Fog 12 1017 93 300 1 0 23:18 13.12.2019
6212 Fog 12 1017 93 350 1.5 140 22:40 13.12.2019
6213 Fog 12 1017 93 350 1.5 140 22:19 13.12.2019
6214 Fog 12 1017 93 350 1.5 140 22:19 13.12.2019
6215 Fog 12 1017 93 800 2.1 140 21:56 13.12.2019
6216 Fog 12 1017 93 800 2.1 140 21:37 13.12.2019
6217 Mist 12 1017 93 3100 2.6 140 21:19 13.12.2019
6218 Mist 12 1017 100 4700 2.6 120 20:41 13.12.2019
6219 Mist 11 1016 100 4500 2.1 90 20:22 13.12.2019
6220 Mist 11 1016 100 4500 2.1 90 19:59 13.12.2019
6221 Mist 11 1016 100 4500 2.1 90 19:40 13.12.2019
6222 Mist 11 1016 100 4500 2.1 90 19:22 13.12.2019
6223 Clouds 12 1016 93 7000 1.5 130 18:58 13.12.2019
6224 Clouds 12 1016 93 7000 1.5 130 18:40 13.12.2019
6225 Clouds 12 1016 93 7000 1.5 130 18:19 13.12.2019
6226 Clouds 13 1015 87 8000 2.6 130 17:43 13.12.2019
6227 Clouds 13 1015 87 8000 2.6 130 17:20 13.12.2019
6228 Clouds 14 1015 82 10000 2.6 130 16:59 13.12.2019
6229 Clouds 14 1015 82 10000 2.6 130 16:39 13.12.2019
6230 Clouds 14 1015 82 10000 2.6 130 16:20 13.12.2019
6231 Clouds 15 1014 77 10000 3.6 130 15:58 13.12.2019
6232 Clouds 15 1014 77 10000 3.6 130 15:37 13.12.2019
6233 Clouds 15 1014 77 10000 3.6 130 15:18 13.12.2019
6234 Clouds 16 1013 72 10000 4.6 130 14:41 13.12.2019
6235 Clouds 16 1013 72 10000 4.6 130 14:21 13.12.2019
6236 Clouds 17 1013 67 5000 3.6 150 13:58 13.12.2019
6237 Clouds 17 1013 67 5000 3.6 150 13:39 13.12.2019
6238 Clouds 17 1013 67 5000 3.6 150 13:21 13.12.2019
6239 Clouds 16 1013 72 5000 3.6 160 12:42 13.12.2019
6240 Clouds 16 1013 72 5000 3.6 160 12:20 13.12.2019
6241 Clouds 16 1013 72 5000 3.6 170 11:57 13.12.2019
6242 Clouds 16 1013 72 5000 3.6 170 11:39 13.12.2019
6243 Clouds 16 1013 72 5000 3.6 170 11:21 13.12.2019
6244 Clouds 16 1013 72 6000 6.2 150 10:43 13.12.2019
6245 Clouds 16 1013 72 6000 6.2 150 10:23 13.12.2019
6246 Clouds 17 1013 67 8000 6.2 150 09:59 13.12.2019
6247 Clouds 17 1013 67 8000 6.2 150 09:39 13.12.2019
6248 Clouds 17 1013 67 8000 6.2 150 09:19 13.12.2019
6249 Clouds 16 1012 72 7000 7.2 140 08:41 13.12.2019
6250 Clouds 16 1012 72 7000 7.2 140 08:23 13.12.2019
6251 Clouds 14 1012 76 8000 4.1 140 07:46 13.12.2019
6252 Clouds 14 1012 76 8000 4.1 140 07:23 13.12.2019
6253 Clouds 12 1010 76 9000 3.6 150 06:55 13.12.2019
6254 Clouds 12 1010 76 9000 3.6 150 06:29 13.12.2019
6255 Clouds 13 1009 71 10000 3.6 120 05:47 13.12.2019
6256 Clouds 13 1009 71 10000 3.6 120 05:28 13.12.2019
6257 Rain 13 1009 71 10000 4.6 120 04:46 13.12.2019
6258 Clouds 13 1008 76 10000 5.1 130 03:48 13.12.2019
6259 Clouds 14 1008 71 10000 5.1 110 02:34 13.12.2019
6260 Clouds 14 1009 71 10000 5.1 110 01:48 13.12.2019
6261 Clouds 14 1009 71 10000 5.1 110 01:19 13.12.2019
6262 Clouds 14 1009 71 10000 4.6 110 00:45 13.12.2019
6263 Clouds 14 1009 71 10000 4.6 110 00:22 13.12.2019
6264 Clouds 15 1010 72 10000 4.1 120 23:41 12.12.2019
6265 Clouds 15 1010 72 10000 4.1 120 23:22 12.12.2019
6266 Clouds 15 1010 67 10000 4.1 100 22:56 12.12.2019
6267 Clouds 15 1010 67 10000 4.1 100 22:37 12.12.2019
6268 Clouds 15 1010 67 10000 4.1 100 22:19 12.12.2019
6269 Clouds 16 1010 63 10000 6.2 110 21:55 12.12.2019
6270 Clouds 16 1010 63 10000 6.2 110 21:55 12.12.2019
6271 Clouds 16 1010 63 10000 6.2 110 21:37 12.12.2019
6272 Clouds 16 1010 63 10000 6.2 110 21:19 12.12.2019
6273 Clouds 16 1011 63 10000 4.6 100 20:56 12.12.2019
6274 Clouds 16 1011 63 10000 4.6 100 20:38 12.12.2019
6275 Clouds 16 1011 63 10000 4.6 100 20:20 12.12.2019
6276 Clouds 15 1011 62 10000 4.6 110 19:43 12.12.2019
6277 Clouds 15 1011 62 10000 4.6 110 19:43 12.12.2019
6278 Clouds 15 1011 62 10000 4.6 110 19:23 12.12.2019
6279 Clouds 16 1011 59 10000 4.6 90 18:58 12.12.2019
6280 Clouds 16 1011 59 10000 4.6 90 18:40 12.12.2019
6281 Clouds 16 1011 59 10000 4.6 90 18:21 12.12.2019
6282 Clouds 16 1011 59 10000 4.6 90 18:21 12.12.2019
6283 Clouds 15 1011 62 10000 4.1 100 17:59 12.12.2019
6284 Clouds 15 1011 62 10000 4.1 100 17:40 12.12.2019
6285 Clouds 15 1011 62 10000 4.1 100 17:21 12.12.2019
6286 Clouds 16 1012 55 10000 3.1 90 16:59 12.12.2019
6287 Clouds 16 1012 55 10000 3.1 90 16:41 12.12.2019
6288 Clouds 16 1012 55 10000 3.1 90 16:21 12.12.2019
6289 Clouds 17 1012 55 10000 4.1 90 15:58 12.12.2019
6290 Clouds 17 1012 55 10000 4.1 90 15:40 12.12.2019
6291 Clouds 17 1012 55 10000 4.1 90 15:19 12.12.2019
6292 Clouds 18 1013 52 10000 4.6 90 14:56 12.12.2019
6293 Clouds 18 1013 52 10000 4.6 90 14:56 12.12.2019
6294 Clouds 18 1013 52 10000 4.6 90 14:36 12.12.2019
6295 Clouds 18 1013 52 10000 4.6 90 14:18 12.12.2019
6296 Clouds 19 1013 42 10000 4.1 90 13:54 12.12.2019
6297 Clouds 19 1013 42 10000 4.1 90 13:36 12.12.2019
6298 Clouds 19 1013 42 10000 4.1 90 13:18 12.12.2019
6299 Clouds 19 1014 42 9000 4.1 100 12:41 12.12.2019
6300 Clouds 19 1014 42 9000 4.1 100 12:22 12.12.2019
6301 Haze 18 1015 48 10000 3.1 70 11:59 12.12.2019
6302 Haze 18 1015 48 10000 3.1 70 11:40 12.12.2019
6303 Haze 18 1015 48 10000 3.1 70 11:21 12.12.2019
6304 Clouds 17 1016 55 6000 2.1 60 10:58 12.12.2019
6305 Clouds 17 1016 55 6000 2.1 60 10:40 12.12.2019
6306 Clouds 17 1016 55 6000 2.1 60 10:22 12.12.2019
6307 Haze 16 1017 63 4100 1.5 0 09:56 12.12.2019
6308 Haze 15 1017 72 3700 1 0 09:38 12.12.2019
6309 Haze 15 1017 72 3700 1 0 09:19 12.12.2019
6310 Mist 13 1018 82 3200 1 0 08:47 12.12.2019
6311 Mist 13 1018 82 3200 1 0 08:28 12.12.2019
6312 Mist 11 1018 93 2000 1.5 330 07:55 12.12.2019
6313 Mist 11 1018 93 2000 1.5 330 07:36 12.12.2019
6314 Mist 11 1018 93 2000 1.5 330 07:18 12.12.2019
6315 Mist 9 1018 93 1400 1.5 320 06:41 12.12.2019
6316 Mist 9 1018 93 1400 1.5 320 06:21 12.12.2019
6317 Fog 8 1017 93 2400 2.1 320 05:28 12.12.2019
6318 Mist 8 1017 93 3000 1.5 300 04:47 12.12.2019
6319 Fog 8 1018 93 2200 3.1 320 02:43 12.12.2019
6320 Fog 8 1018 93 2200 3.1 320 02:24 12.12.2019
6321 Mist 9 1018 100 3400 1.5 300 01:59 12.12.2019
6322 Mist 9 1018 100 3400 1.5 300 01:36 12.12.2019
6323 Mist 9 1019 100 3900 0.5 350 00:50 12.12.2019
6324 Mist 9 1019 100 3900 0.5 350 00:22 12.12.2019
6325 Mist 9 1019 93 4500 1.5 300 23:58 11.12.2019
6326 Mist 9 1019 93 4500 1.5 300 23:38 11.12.2019
6327 Mist 9 1019 93 4500 1.5 300 23:18 11.12.2019
6328 Mist 10 1019 93 4500 1.5 290 22:56 11.12.2019
6329 Mist 10 1019 93 4500 1.5 290 22:38 11.12.2019
6330 Mist 10 1019 93 4500 1.5 290 22:19 11.12.2019
6331 Mist 10 1019 93 5000 2.6 320 21:55 11.12.2019
6332 Mist 10 1019 93 5000 2.6 320 21:36 11.12.2019
6333 Mist 10 1019 93 5000 2.6 320 21:18 11.12.2019
6334 Mist 11 1019 93 5000 1 320 20:55 11.12.2019
6335 Mist 11 1019 93 5000 1 320 20:36 11.12.2019
6336 Mist 11 1019 93 5000 1 320 20:18 11.12.2019
6337 Mist 11 1019 81 5000 3.1 330 19:42 11.12.2019
6338 Mist 11 1019 81 5000 3.1 330 19:23 11.12.2019
6339 Clouds 12 1019 81 6000 2.6 330 18:59 11.12.2019
6340 Clouds 12 1019 81 6000 2.6 330 18:40 11.12.2019
6341 Clouds 12 1019 81 6000 2.6 330 18:20 11.12.2019
6342 Clouds 13 1018 82 7000 2.6 340 17:57 11.12.2019
6343 Clouds 13 1018 82 7000 2.6 340 17:38 11.12.2019
6344 Clear 13 1018 82 7000 2.6 340 17:18 11.12.2019
6345 Clear 15 1018 72 9000 2.6 330 16:56 11.12.2019
6346 Clear 15 1018 72 9000 2.6 330 16:37 11.12.2019
6347 Clear 15 1018 72 9000 2.6 330 16:19 11.12.2019
6348 Clear 16 1018 67 8000 3.6 310 15:57 11.12.2019
6349 Clear 16 1018 67 8000 3.6 310 15:37 11.12.2019
6350 Clear 16 1018 67 8000 3.6 310 15:19 11.12.2019
6351 Clear 18 1018 59 9000 3.1 320 14:55 11.12.2019
6352 Clear 18 1018 59 9000 3.1 320 14:37 11.12.2019
6353 Clear 18 1018 59 9000 3.1 320 14:18 11.12.2019
6354 Clear 18 1018 59 9000 3.1 330 13:44 11.12.2019
6355 Clear 18 1018 59 9000 3.1 330 13:23 11.12.2019
6356 Clear 18 1018 55 9000 3.1 330 12:59 11.12.2019
6357 Clear 18 1018 55 9000 3.1 330 12:40 11.12.2019
6358 Clear 18 1018 55 9000 3.1 330 12:22 11.12.2019
6359 Clear 18 1018 55 8000 3.1 290 11:58 11.12.2019
6360 Clear 18 1018 55 8000 3.1 290 11:39 11.12.2019
6361 Clear 18 1018 55 8000 3.1 290 11:19 11.12.2019
6362 Clear 17 1019 63 7000 2.6 310 10:59 11.12.2019
6363 Clear 17 1019 63 7000 2.6 310 10:40 11.12.2019
6364 Clear 17 1019 63 7000 2.6 310 10:22 11.12.2019
6365 Clear 16 1020 67 9000 1.5 260 09:58 11.12.2019
6366 Clear 16 1020 67 9000 1.5 260 09:38 11.12.2019
6367 Clear 16 1020 67 9000 1.5 260 09:19 11.12.2019
6368 Clear 15 1020 72 7000 2.6 0 08:56 11.12.2019
6369 Clear 15 1020 72 7000 2.6 0 08:37 11.12.2019
6370 Clouds 15 1020 72 7000 2.6 0 08:18 11.12.2019
6371 Clouds 13 1020 76 6000 2.38 70 07:43 11.12.2019
6372 Clouds 13 1020 76 6000 2.38 70 07:24 11.12.2019
6373 Mist 12 1019 93 4000 1.5 70 06:46 11.12.2019
6374 Mist 12 1019 93 4000 1.5 70 06:25 11.12.2019
6375 Mist 12 1019 93 5000 2.6 90 05:56 11.12.2019
6376 Mist 12 1019 93 5000 2.6 90 05:36 11.12.2019
6377 Clouds 12 1018 87 8000 3.1 130 04:53 11.12.2019
6378 Rain 12 1018 87 4600 2.6 60 03:37 11.12.2019
6379 Mist 13 1018 82 6000 3.1 70 02:38 11.12.2019
6380 Mist 13 1018 87 3600 2.6 80 01:22 11.12.2019
6381 Mist 13 1018 82 5000 2.1 60 00:45 11.12.2019
6382 Mist 13 1018 82 5000 2.1 60 00:19 11.12.2019
6383 Mist 13 1018 82 5000 2.1 70 23:46 10.12.2019
6384 Mist 13 1018 82 5000 2.1 70 23:26 10.12.2019
6385 Rain 13 1018 82 4900 2.1 20 22:57 10.12.2019
6386 Thunderstorm 14 1018 71 10000 2.1 340 22:39 10.12.2019
6387 Thunderstorm 14 1018 71 10000 2.1 340 22:21 10.12.2019
6388 Clouds 14 1018 67 10000 2.6 110 21:54 10.12.2019
6389 Clouds 14 1018 67 10000 2.6 110 21:36 10.12.2019
6390 Clouds 14 1018 67 10000 2.6 110 21:18 10.12.2019
6391 Clouds 14 1018 67 10000 3.1 130 20:56 10.12.2019
6392 Clouds 14 1018 67 10000 3.1 130 20:37 10.12.2019
6393 Clouds 14 1018 67 10000 3.1 130 20:18 10.12.2019
6394 Clouds 14 1017 71 9000 3.1 130 19:44 10.12.2019
6395 Clouds 14 1017 71 9000 3.1 130 19:26 10.12.2019
6396 Clouds 15 1017 67 8000 3.1 120 18:59 10.12.2019
6397 Clouds 15 1017 67 8000 3.1 120 18:39 10.12.2019
6398 Clouds 15 1017 67 8000 3.1 120 18:20 10.12.2019
6399 Clouds 15 1017 67 9000 2.6 110 17:55 10.12.2019
6400 Clouds 15 1017 67 9000 2.6 110 17:37 10.12.2019
6401 Clouds 15 1017 67 9000 2.6 110 17:19 10.12.2019
6402 Clouds 15 1017 62 10000 3.1 130 16:43 10.12.2019
6403 Clouds 15 1017 62 10000 3.1 130 16:20 10.12.2019
6404 Clouds 15 1017 62 10000 3.1 130 16:20 10.12.2019
6405 Clouds 16 1017 59 10000 3.6 130 15:58 10.12.2019
6406 Clouds 16 1017 59 10000 3.6 130 15:37 10.12.2019
6407 Clouds 16 1017 59 10000 3.6 130 15:18 10.12.2019
6408 Clouds 16 1017 59 10000 3.6 130 15:18 10.12.2019
6409 Clouds 17 1017 55 10000 5.7 130 14:55 10.12.2019
6410 Clouds 17 1017 55 10000 5.7 130 14:37 10.12.2019
6411 Clouds 17 1017 55 10000 5.7 130 14:19 10.12.2019
6412 Clouds 18 1017 55 9000 4.6 120 13:56 10.12.2019
6413 Clouds 18 1017 55 9000 4.6 120 13:37 10.12.2019
6414 Clouds 18 1017 55 9000 4.6 120 13:18 10.12.2019
6415 Clouds 18 1017 52 10000 5.1 140 12:40 10.12.2019
6416 Clouds 18 1017 52 10000 5.1 140 12:22 10.12.2019
6417 Clouds 18 1017 52 9000 5.1 160 11:42 10.12.2019
6418 Clouds 18 1017 52 9000 5.1 160 11:24 10.12.2019
6419 Clouds 17 1018 55 8000 5.1 160 10:57 10.12.2019
6420 Clouds 17 1018 55 8000 5.1 160 10:38 10.12.2019
6421 Clouds 17 1018 55 8000 5.1 160 10:20 10.12.2019
6422 Clouds 16 1019 63 7000 6.2 150 09:56 10.12.2019
6423 Clouds 16 1019 63 7000 6.2 150 09:38 10.12.2019
6424 Clouds 16 1019 63 7000 6.2 150 09:38 10.12.2019
6425 Clouds 16 1019 63 7000 6.2 150 09:19 10.12.2019
6426 Clouds 14 1019 71 6000 6.2 140 08:55 10.12.2019
6427 Clouds 14 1019 71 6000 6.2 140 08:37 10.12.2019
6428 Clouds 14 1019 71 6000 6.2 140 08:18 10.12.2019
6429 Mist 12 1020 76 4500 4.6 150 07:44 10.12.2019
6430 Mist 12 1020 76 4500 4.6 150 07:25 10.12.2019
6431 Mist 11 1019 76 5000 4.6 150 06:48 10.12.2019
6432 Mist 11 1019 76 5000 4.6 150 06:22 10.12.2019
6433 Clouds 11 1019 76 5000 5.1 130 05:55 10.12.2019
6434 Clouds 10 1018 81 7000 4.1 130 04:56 10.12.2019
6435 Clouds 10 1018 81 7000 4.1 130 03:40 10.12.2019
6436 Clouds 10 1018 81 7000 4.6 130 02:47 10.12.2019
6437 Clouds 11 1019 76 8000 4.6 140 01:50 10.12.2019
6438 Clouds 11 1019 76 8000 4.6 140 01:25 10.12.2019
6439 Clouds 12 1019 76 8000 4.6 140 00:43 10.12.2019
6440 Clouds 12 1019 76 8000 4.6 140 00:24 10.12.2019
6441 Clouds 12 1019 76 9000 4.6 140 23:43 09.12.2019
6442 Clouds 12 1019 76 9000 4.6 140 23:24 09.12.2019
6443 Clouds 13 1019 71 10000 4.6 120 22:58 09.12.2019
6444 Clouds 13 1019 71 10000 4.6 120 22:40 09.12.2019
6445 Clouds 13 1019 71 10000 4.6 120 22:21 09.12.2019
6446 Clouds 13 1019 71 10000 5.1 120 21:58 09.12.2019
6447 Clouds 13 1019 71 10000 5.1 120 21:39 09.12.2019
6448 Clouds 13 1019 71 10000 5.1 120 21:19 09.12.2019
6449 Clouds 14 1019 71 10000 4.1 110 20:57 09.12.2019
6450 Clouds 14 1019 71 10000 4.1 110 20:39 09.12.2019
6451 Clouds 14 1019 71 10000 4.1 110 20:20 09.12.2019
6452 Clouds 14 1019 67 10000 4.6 110 19:56 09.12.2019
6453 Clouds 14 1019 67 10000 4.6 110 19:38 09.12.2019
6454 Clouds 14 1019 67 10000 4.6 110 19:20 09.12.2019
6455 Clouds 15 1019 62 10000 3.6 110 18:59 09.12.2019
6456 Clouds 15 1019 62 10000 3.6 110 18:39 09.12.2019
6457 Clouds 15 1019 62 10000 3.6 110 18:20 09.12.2019
6458 Clouds 15 1019 62 10000 3.6 120 17:59 09.12.2019
6459 Clouds 15 1019 62 10000 3.6 120 17:40 09.12.2019
6460 Clouds 15 1019 62 10000 3.6 120 17:21 09.12.2019
6461 Clouds 15 1019 62 10000 3.6 120 16:56 09.12.2019
6462 Clouds 15 1019 62 10000 3.6 120 16:38 09.12.2019
6463 Clouds 15 1019 62 10000 3.6 120 16:20 09.12.2019
6464 Clouds 16 1019 59 10000 3.6 120 15:56 09.12.2019
6465 Clouds 16 1019 59 10000 3.6 120 15:56 09.12.2019
6466 Clouds 16 1019 59 10000 3.6 120 15:37 09.12.2019
6467 Clouds 16 1019 59 10000 3.6 120 15:19 09.12.2019
6468 Clouds 17 1018 55 10000 4.6 130 14:58 09.12.2019
6469 Clouds 17 1018 55 10000 4.6 130 14:39 09.12.2019
6470 Clouds 17 1018 55 10000 4.6 130 14:18 09.12.2019
6471 Clouds 17 1018 55 10000 5.1 130 13:55 09.12.2019
6472 Clouds 17 1018 55 10000 5.1 130 13:36 09.12.2019
6473 Clear 17 1018 55 10000 5.1 130 13:18 09.12.2019
6474 Clear 17 1019 55 10000 5.7 150 12:54 09.12.2019
6475 Clear 17 1019 55 10000 5.7 150 12:36 09.12.2019
6476 Clear 17 1019 55 10000 5.7 150 12:18 09.12.2019
6477 Clear 17 1019 51 10000 5.1 130 11:40 09.12.2019
6478 Clear 17 1019 51 10000 5.1 130 11:21 09.12.2019
6479 Clear 16 1020 59 10000 5.7 140 10:57 09.12.2019
6480 Clear 16 1020 59 10000 5.7 140 10:38 09.12.2019
6481 Clear 16 1020 59 10000 5.7 140 10:19 09.12.2019
6482 Clear 16 1020 59 10000 5.7 140 10:19 09.12.2019
6483 Clear 16 1020 59 10000 5.7 140 09:44 09.12.2019
6484 Clear 16 1020 59 10000 5.7 140 09:24 09.12.2019
6485 Clear 14 1021 67 7000 5.7 160 08:57 09.12.2019
6486 Clear 14 1021 67 7000 5.7 160 08:39 09.12.2019
6487 Clear 14 1021 67 7000 5.7 160 08:20 09.12.2019
6488 Mist 11 1021 76 3200 4.6 150 07:49 09.12.2019
6489 Mist 11 1021 76 3200 4.6 150 07:30 09.12.2019
6490 Mist 9 1020 87 2800 3.6 140 06:55 09.12.2019
6491 Mist 9 1020 87 2800 3.6 140 06:30 09.12.2019
6492 Clear 8 1019 93 3600 3.6 100 05:42 09.12.2019
6493 Clear 8 1019 93 3600 3.6 100 05:20 09.12.2019
6494 Mist 8 1019 87 6000 2.6 120 04:27 09.12.2019
6495 Mist 8 1019 87 6000 2.6 120 04:27 09.12.2019
6496 Clear 9 1018 81 9000 3.1 130 02:28 09.12.2019
6497 Clouds 11 1018 76 10000 3.6 100 01:46 09.12.2019
6498 Clouds 10 1018 81 8000 2.6 90 00:57 09.12.2019
6499 Clouds 10 1018 81 8000 2.6 90 00:33 09.12.2019
6500 Clouds 11 1018 76 9000 3.1 120 23:55 08.12.2019
6501 Clouds 11 1018 76 9000 3.1 120 23:37 08.12.2019
6502 Clouds 11 1018 76 9000 3.1 120 23:19 08.12.2019
6503 Clouds 10 1018 81 9000 2.6 130 22:56 08.12.2019
6504 Clouds 10 1018 81 9000 2.6 130 22:38 08.12.2019
6505 Clouds 10 1018 81 9000 2.6 130 22:18 08.12.2019
6506 Clouds 10 1018 76 10000 3.1 120 21:56 08.12.2019
6507 Clouds 10 1018 76 10000 3.1 120 21:37 08.12.2019
6508 Clouds 10 1018 76 10000 3.1 120 21:19 08.12.2019
6509 Clouds 10 1018 76 10000 3.1 120 21:19 08.12.2019
6510 Clouds 10 1018 81 10000 2.6 140 20:55 08.12.2019
6511 Clouds 10 1018 81 10000 2.6 140 20:37 08.12.2019
6512 Clouds 10 1018 81 10000 2.6 140 20:19 08.12.2019
6513 Clouds 11 1018 76 10000 2.6 130 19:55 08.12.2019
6514 Clouds 11 1018 76 10000 2.6 130 19:36 08.12.2019
6515 Clouds 11 1018 76 10000 2.6 130 19:18 08.12.2019
6516 Clouds 11 1018 76 10000 2.6 130 19:18 08.12.2019
6517 Clouds 12 1018 71 10000 2.6 150 18:54 08.12.2019
6518 Clouds 12 1018 71 10000 2.6 150 18:36 08.12.2019
6519 Clouds 12 1018 71 10000 2.6 150 18:18 08.12.2019
6520 Clouds 12 1017 71 10000 1 0 17:54 08.12.2019
6521 Clouds 12 1017 71 10000 1 0 17:36 08.12.2019
6522 Clouds 12 1017 71 10000 1 0 17:18 08.12.2019
6523 Clouds 14 1016 62 10000 2.1 210 16:55 08.12.2019
6524 Clouds 14 1016 62 10000 2.1 210 16:37 08.12.2019
6525 Clouds 14 1016 62 10000 2.1 210 16:18 08.12.2019
6526 Clouds 15 1016 58 10000 3.1 230 15:37 08.12.2019
6527 Clouds 15 1016 58 10000 3.1 230 15:18 08.12.2019
6528 Clouds 16 1016 55 10000 3.6 230 14:57 08.12.2019
6529 Clouds 16 1016 55 10000 3.6 230 14:38 08.12.2019
6530 Clouds 16 1016 55 10000 3.6 230 14:20 08.12.2019
6531 Clouds 16 1016 55 10000 3.6 230 13:42 08.12.2019
6532 Clouds 16 1016 55 10000 3.6 230 13:23 08.12.2019
6533 Clouds 16 1016 55 10000 1.5 240 12:59 08.12.2019
6534 Clouds 16 1016 55 10000 1.5 240 12:41 08.12.2019
6535 Clouds 16 1016 55 10000 1.5 240 12:41 08.12.2019
6536 Clouds 16 1016 55 10000 1.5 240 12:41 08.12.2019
6537 Clouds 16 1016 55 10000 1.5 240 12:22 08.12.2019
6538 Clouds 15 1016 58 10000 3.1 240 11:59 08.12.2019
6539 Clouds 15 1016 58 10000 3.1 240 11:38 08.12.2019
6540 Clouds 15 1016 58 10000 3.1 240 11:19 08.12.2019
6541 Clouds 14 1017 67 10000 3.6 240 10:57 08.12.2019
6542 Clouds 14 1017 67 10000 3.6 240 10:38 08.12.2019
6543 Clouds 14 1017 67 10000 3.6 240 10:38 08.12.2019
6544 Clouds 14 1017 67 10000 3.6 240 10:19 08.12.2019
6545 Mist 13 1017 76 9000 2.1 190 09:55 08.12.2019
6546 Mist 13 1017 76 9000 2.1 190 09:37 08.12.2019
6547 Mist 13 1017 76 9000 2.1 190 09:19 08.12.2019
6548 Mist 13 1017 76 9000 2.1 190 09:19 08.12.2019
6549 Mist 11 1018 93 6000 2.1 190 08:57 08.12.2019
6550 Mist 11 1018 93 6000 2.1 190 08:36 08.12.2019
6551 Mist 11 1018 93 6000 2.1 190 08:18 08.12.2019
6552 Mist 11 1017 87 3000 1.77 278 07:41 08.12.2019
6553 Mist 11 1017 87 3000 1.77 278 07:19 08.12.2019
6554 Mist 8 1017 100 3300 1.5 260 06:43 08.12.2019
6555 Mist 8 1017 100 3300 1.5 260 06:21 08.12.2019
6556 Mist 8 1016 93 2700 0.5 0 05:30 08.12.2019
6557 Mist 8 1016 100 3600 1 0 04:57 08.12.2019
6558 Mist 9 1016 93 4500 2.1 270 03:41 08.12.2019
6559 Clear 9 1016 93 6000 2.6 230 02:52 08.12.2019
6560 Clear 9 1016 93 6000 2.6 230 02:28 08.12.2019
6561 Mist 10 1016 93 5000 5.7 250 01:48 08.12.2019
6562 Mist 9 1016 93 5000 1.5 100 00:59 08.12.2019
6563 Mist 9 1016 93 5000 1.5 100 00:38 08.12.2019
6564 Mist 9 1016 93 5000 1.5 100 00:19 08.12.2019
6565 Clouds 10 1016 93 6000 2.1 240 23:40 07.12.2019
6566 Clouds 10 1016 93 6000 2.1 240 23:40 07.12.2019
6567 Clouds 10 1016 93 6000 2.1 240 23:20 07.12.2019
6568 Clouds 11 1016 93 6000 2.1 290 22:56 07.12.2019
6569 Clouds 11 1016 93 6000 2.1 290 22:38 07.12.2019
6570 Clouds 11 1016 93 6000 2.1 290 22:20 07.12.2019
6571 Clouds 12 1017 93 7000 1.5 270 21:56 07.12.2019
6572 Clouds 12 1017 93 7000 1.5 270 21:38 07.12.2019
6573 Clouds 15 1017 93 7000 1.5 270 21:19 07.12.2019
6574 Clouds 14 1017 100 7000 3.1 260 20:55 07.12.2019
6575 Clouds 14 1017 100 7000 3.1 260 20:36 07.12.2019
6576 Clouds 14 1017 100 7000 3.1 260 20:18 07.12.2019
6577 Haze 14 1015 41 9000 3.6 320 19:55 07.12.2019
6578 Clouds 14 1016 93 9000 3.1 330 19:36 07.12.2019
6579 Clouds 14 1016 93 9000 3.1 330 19:18 07.12.2019
6580 Rain 13 1016 82 10000 3.1 300 18:44 07.12.2019
6581 Clouds 13 1016 76 10000 2.6 330 18:19 07.12.2019
6582 Clouds 13 1016 76 10000 4.1 300 17:57 07.12.2019
6583 Clouds 13 1016 76 10000 4.1 300 17:39 07.12.2019
6584 Clouds 13 1016 76 10000 4.1 300 17:20 07.12.2019
6585 Clear 13 1015 76 10000 4.1 300 16:56 07.12.2019
6586 Clear 13 1015 76 10000 4.1 300 16:37 07.12.2019
6587 Clear 13 1015 76 10000 4.1 300 16:19 07.12.2019
6588 Clouds 14 1015 76 10000 1 0 15:42 07.12.2019
6589 Clouds 14 1015 76 10000 1 0 15:23 07.12.2019
6590 Clouds 15 1015 67 10000 2.6 290 14:57 07.12.2019
6591 Clouds 15 1015 67 10000 2.6 290 14:39 07.12.2019
6592 Clouds 15 1015 67 10000 2.6 290 14:18 07.12.2019
6593 Clouds 15 1015 72 10000 5.7 310 13:41 07.12.2019
6594 Clouds 15 1015 72 10000 5.7 310 13:41 07.12.2019
6595 Clouds 15 1015 72 10000 5.7 310 13:21 07.12.2019
6596 Clouds 15 1015 72 8000 5.1 290 12:58 07.12.2019
6597 Clouds 15 1015 72 8000 5.1 290 12:40 07.12.2019
6598 Clouds 15 1015 72 8000 5.1 290 12:22 07.12.2019
6599 Mist 15 1015 72 5000 4.1 290 11:57 07.12.2019
6600 Mist 15 1015 72 5000 4.1 290 11:39 07.12.2019
6601 Mist 15 1015 72 5000 4.1 290 11:20 07.12.2019
6602 Mist 14 1016 87 3700 3.6 280 10:38 07.12.2019
6603 Mist 14 1016 87 3700 3.6 280 10:19 07.12.2019
6604 Mist 13 1017 93 1500 4.1 260 09:42 07.12.2019
6605 Mist 13 1017 93 1500 4.1 260 09:22 07.12.2019
6606 Mist 13 1017 93 1200 4.6 270 08:59 07.12.2019
6607 Mist 13 1017 93 1200 4.6 270 08:39 07.12.2019
6608 Mist 13 1017 93 1200 4.6 270 08:21 07.12.2019
6609 Mist 13 1017 93 2300 1.5 310 07:45 07.12.2019
6610 Mist 13 1017 93 2300 1.5 310 07:25 07.12.2019
6611 Mist 12 1016 93 1500 2.6 320 06:48 07.12.2019
6612 Mist 12 1016 93 1500 2.6 320 06:24 07.12.2019
6613 Mist 11 1015 93 3300 1 0 05:25 07.12.2019
6614 Mist 13 1015 93 5000 1.5 340 03:56 07.12.2019
6615 Mist 13 1015 93 5000 1.5 340 03:18 07.12.2019
6616 Mist 13 1015 93 5000 1.5 350 02:21 07.12.2019
6617 Clouds 13 1015 93 6000 3.1 10 01:34 07.12.2019
6618 Mist 13 1015 93 7000 3.6 350 00:52 07.12.2019
6619 Mist 13 1015 93 7000 3.6 350 00:19 07.12.2019
6620 Mist 13 1016 100 4300 3.6 330 23:55 06.12.2019
6621 Mist 13 1016 100 4300 3.6 330 23:36 06.12.2019
6622 Mist 13 1016 100 4300 3.6 330 23:18 06.12.2019
6623 Mist 14 1016 93 4800 4.1 340 22:37 06.12.2019
6624 Mist 14 1016 93 4800 4.1 340 22:19 06.12.2019
6625 Mist 14 1016 87 4700 3.1 340 21:57 06.12.2019
6626 Mist 14 1016 87 4700 3.1 340 21:38 06.12.2019
6627 Mist 14 1016 87 4700 3.1 340 21:19 06.12.2019
6628 Mist 15 1017 77 6000 4.1 300 20:42 06.12.2019
6629 Mist 15 1017 77 6000 4.1 300 20:42 06.12.2019
6630 Mist 15 1017 77 6000 4.1 300 20:42 06.12.2019
6631 Clouds 15 1017 72 9000 1 0 20:23 06.12.2019
6632 Clouds 16 1016 63 9000 1.5 90 19:59 06.12.2019
6633 Clouds 16 1016 63 9000 1.5 90 19:40 06.12.2019
6634 Clouds 16 1016 63 9000 1.5 90 19:21 06.12.2019
6635 Clouds 15 1016 72 10000 2.1 90 18:55 06.12.2019
6636 Clouds 15 1016 72 10000 2.1 90 18:37 06.12.2019
6637 Clouds 15 1016 72 10000 2.1 90 18:19 06.12.2019
6638 Clouds 15 1016 62 10000 0.5 30 17:55 06.12.2019
6639 Clouds 15 1016 62 10000 0.5 30 17:37 06.12.2019
6640 Clouds 15 1016 62 10000 0.5 30 17:19 06.12.2019
6641 Clouds 16 1016 63 10000 2.1 110 16:42 06.12.2019
6642 Clouds 16 1016 63 10000 2.1 110 16:24 06.12.2019
6643 Clouds 16 1016 63 10000 2.6 110 15:59 06.12.2019
6644 Clouds 16 1016 63 10000 2.6 110 15:40 06.12.2019
6645 Clouds 16 1016 63 10000 2.6 110 15:18 06.12.2019
6646 Clouds 18 1016 52 10000 3.1 130 14:56 06.12.2019
6647 Clouds 18 1016 52 10000 3.1 130 14:37 06.12.2019
6648 Clouds 18 1016 52 10000 3.1 130 14:18 06.12.2019
6649 Clouds 18 1016 52 10000 4.6 130 13:42 06.12.2019
6650 Clouds 18 1016 52 10000 4.6 130 13:24 06.12.2019
6651 Clouds 18 1016 52 10000 3.6 140 12:42 06.12.2019
6652 Clouds 18 1016 55 10000 3.6 130 12:22 06.12.2019
6653 Clouds 17 1017 55 10000 4.6 150 11:57 06.12.2019
6654 Clouds 17 1017 55 10000 4.6 150 11:39 06.12.2019
6655 Clouds 17 1017 55 10000 4.6 150 11:19 06.12.2019
6656 Clouds 16 1018 63 8000 4.1 140 10:43 06.12.2019
6657 Clouds 16 1018 63 8000 4.1 140 10:21 06.12.2019
6658 Clouds 16 1019 63 10000 4.1 130 09:57 06.12.2019
6659 Clouds 16 1019 63 10000 4.1 130 09:37 06.12.2019
6660 Clouds 16 1019 63 10000 4.1 130 09:19 06.12.2019
6661 Clouds 14 1020 71 6000 6.2 130 08:45 06.12.2019
6662 Clouds 14 1020 71 6000 6.2 130 08:26 06.12.2019
6663 Mist 12 1020 87 4900 4.6 130 07:44 06.12.2019
6664 Mist 12 1020 87 4900 4.6 130 07:24 06.12.2019
6665 Mist 12 1019 87 4400 4.6 120 06:59 06.12.2019
6666 Mist 12 1019 87 4400 4.6 120 06:28 06.12.2019
6667 Mist 12 1019 93 2800 4.6 120 05:53 06.12.2019
6668 Mist 12 1019 93 2800 4.6 120 05:21 06.12.2019
6669 Clear 11 1019 93 5000 4.6 130 02:19 06.12.2019
6670 Clear 12 1019 87 6000 3.6 120 01:29 06.12.2019
6671 Clear 12 1019 87 6000 3.6 110 00:40 06.12.2019
6672 Clear 12 1019 87 6000 3.6 110 00:20 06.12.2019
6673 Clear 11 1020 100 6000 3.6 120 23:41 05.12.2019
6674 Clear 11 1020 100 6000 3.6 120 23:18 05.12.2019
6675 Clear 12 1020 87 5000 4.1 130 22:56 05.12.2019
6676 Clear 12 1020 87 5000 4.1 130 22:37 05.12.2019
6677 Clear 12 1020 87 5000 4.1 130 22:18 05.12.2019
6678 Mist 13 1021 87 4800 4.1 120 21:44 05.12.2019
6679 Mist 13 1021 87 4800 4.1 120 21:25 05.12.2019
6680 Clear 13 1021 87 5000 4.1 120 20:59 05.12.2019
6681 Clear 13 1021 87 5000 4.1 120 20:40 05.12.2019
6682 Clear 13 1021 87 5000 4.1 120 20:20 05.12.2019
6683 Clear 13 1021 87 5000 4.1 120 20:20 05.12.2019
6684 Mist 14 1021 76 5000 3.1 130 19:57 05.12.2019
6685 Mist 14 1021 76 5000 3.1 130 19:57 05.12.2019
6686 Mist 14 1021 76 5000 3.1 130 19:39 05.12.2019
6687 Mist 14 1021 76 5000 3.1 130 19:20 05.12.2019
6688 Clear 15 1021 77 5000 3.1 100 18:57 05.12.2019
6689 Clear 15 1021 77 5000 3.1 100 18:37 05.12.2019
6690 Clear 15 1021 77 5000 3.1 100 18:19 05.12.2019
6691 Clear 15 1020 62 9000 3.1 110 17:39 05.12.2019
6692 Clear 15 1020 62 9000 3.1 110 17:19 05.12.2019
6693 Clear 15 1020 62 10000 3.1 130 16:57 05.12.2019
6694 Clear 15 1020 62 10000 3.1 130 16:38 05.12.2019
6695 Clear 15 1020 62 10000 3.1 130 16:38 05.12.2019
6696 Clear 15 1020 62